<?xml version='1.0' encoding='UTF-8'?><gpx version="1.1" creator="JPX - https://github.com/jenetics/jpx" xmlns="http://www.topografix.com/GPX/1/1"><trk><trkseg><trkpt lat="45.7340508286651" lon="-0.15372916119152316"><ele>72.0</ele><time>2026-03-22T13:23:16Z</time></trkpt><trkpt lat="45.73409732127437" lon="-0.15362637384128464"><ele>72.0</ele><time>2026-03-22T13:23:32Z</time></trkpt><trkpt lat="45.73417078815296" lon="-0.15363097503605921"><ele>72.0</ele><time>2026-03-22T13:23:35Z</time></trkpt><trkpt lat="45.73424095267378" lon="-0.15370448631379452"><ele>72.0</ele><time>2026-03-22T13:23:37Z</time></trkpt><trkpt lat="45.73430003789097" lon="-0.1538476919839347"><ele>72.0</ele><time>2026-03-22T13:23:39Z</time></trkpt><trkpt lat="45.734321214340305" lon="-0.15394546776761955"><ele>72.0</ele><time>2026-03-22T13:23:40Z</time></trkpt><trkpt lat="45.734344096617036" lon="-0.15405457744519466"><ele>72.2</ele><time>2026-03-22T13:23:41Z</time></trkpt><trkpt lat="45.73436959061014" lon="-0.15417561023953089"><ele>72.4</ele><time>2026-03-22T13:23:42Z</time></trkpt><trkpt lat="45.7343881809025" lon="-0.1542646595485133"><ele>72.6</ele><time>2026-03-22T13:23:43Z</time></trkpt><trkpt lat="45.73441563729519" lon="-0.15436011117807938"><ele>72.8</ele><time>2026-03-22T13:23:45Z</time></trkpt><trkpt lat="45.734318770951006" lon="-0.15444167895849903"><ele>73.0</ele><time>2026-03-22T13:23:49Z</time></trkpt><trkpt lat="45.73419023594999" lon="-0.15446933024863166"><ele>73.0</ele><time>2026-03-22T13:23:51Z</time></trkpt><trkpt lat="45.73411608085676" lon="-0.15447915835288906"><ele>73.0</ele><time>2026-03-22T13:23:52Z</time></trkpt><trkpt lat="45.73401165337589" lon="-0.15451278888636"><ele>73.0</ele><time>2026-03-22T13:23:53Z</time></trkpt><trkpt lat="45.73389821632184" lon="-0.1545464946055424"><ele>73.0</ele><time>2026-03-22T13:23:54Z</time></trkpt><trkpt lat="45.73375498885115" lon="-0.15459948487523295"><ele>73.0</ele><time>2026-03-22T13:23:55Z</time></trkpt><trkpt lat="45.7336064507694" lon="-0.15464347067721845"><ele>73.0</ele><time>2026-03-22T13:23:56Z</time></trkpt><trkpt lat="45.73350094849469" lon="-0.1546835737609128"><ele>73.0</ele><time>2026-03-22T13:23:57Z</time></trkpt><trkpt lat="45.73342559687627" lon="-0.15471131519764164"><ele>73.0</ele><time>2026-03-22T13:23:58Z</time></trkpt><trkpt lat="45.733354806922755" lon="-0.15474381498356832"><ele>73.0</ele><time>2026-03-22T13:24:00Z</time></trkpt><trkpt lat="45.73330542128893" lon="-0.15463949018991702"><ele>73.0</ele><time>2026-03-22T13:24:06Z</time></trkpt><trkpt lat="45.73324023656464" lon="-0.15438582378171556"><ele>73.0</ele><time>2026-03-22T13:24:08Z</time></trkpt><trkpt lat="45.733154445331856" lon="-0.15421117163625747"><ele>73.0</ele><time>2026-03-22T13:24:09Z</time></trkpt><trkpt lat="45.733058975736675" lon="-0.15403261409763924"><ele>73.0</ele><time>2026-03-22T13:24:10Z</time></trkpt><trkpt lat="45.73291954313" lon="-0.15383146474989265"><ele>73.0</ele><time>2026-03-22T13:24:11Z</time></trkpt><trkpt lat="45.7327663660074" lon="-0.1536322766483585"><ele>73.0</ele><time>2026-03-22T13:24:12Z</time></trkpt><trkpt lat="45.73257030162441" lon="-0.1534484489914044"><ele>73.0</ele><time>2026-03-22T13:24:13Z</time></trkpt><trkpt lat="45.732349230282864" lon="-0.15326825633902674"><ele>71.5</ele><time>2026-03-22T13:24:14Z</time></trkpt><trkpt lat="45.73215089049256" lon="-0.15307006982757043"><ele>70.0</ele><time>2026-03-22T13:24:15Z</time></trkpt><trkpt lat="45.73196335654973" lon="-0.15288823646623445"><ele>69.33333333333333</ele><time>2026-03-22T13:24:16Z</time></trkpt><trkpt lat="45.73177945331223" lon="-0.15271784358785084"><ele>68.66666666666667</ele><time>2026-03-22T13:24:17Z</time></trkpt><trkpt lat="45.73160142686278" lon="-0.1525467145782572"><ele>68.0</ele><time>2026-03-22T13:24:18Z</time></trkpt><trkpt lat="45.731428511829485" lon="-0.1523859171433578"><ele>67.66666666666667</ele><time>2026-03-22T13:24:19Z</time></trkpt><trkpt lat="45.73125927251913" lon="-0.15223374275076695"><ele>67.33333333333333</ele><time>2026-03-22T13:24:20Z</time></trkpt><trkpt lat="45.73109596260372" lon="-0.1520721754592624"><ele>67.0</ele><time>2026-03-22T13:24:21Z</time></trkpt><trkpt lat="45.73095500464989" lon="-0.15191942995462557"><ele>67.0</ele><time>2026-03-22T13:24:22Z</time></trkpt><trkpt lat="45.73082162132956" lon="-0.15173780138644968"><ele>67.0</ele><time>2026-03-22T13:24:23Z</time></trkpt><trkpt lat="45.73071498323082" lon="-0.15155023258756228"><ele>67.0</ele><time>2026-03-22T13:24:24Z</time></trkpt><trkpt lat="45.73060610974199" lon="-0.15130379113375456"><ele>67.0</ele><time>2026-03-22T13:24:25Z</time></trkpt><trkpt lat="45.730537748915765" lon="-0.15105408604407436"><ele>67.0</ele><time>2026-03-22T13:24:26Z</time></trkpt><trkpt lat="45.730440386559174" lon="-0.1508079297052722"><ele>67.0</ele><time>2026-03-22T13:24:27Z</time></trkpt><trkpt lat="45.73035073250359" lon="-0.15052676011368654"><ele>66.33333333333333</ele><time>2026-03-22T13:24:28Z</time></trkpt><trkpt lat="45.7302699932365" lon="-0.15026233768064257"><ele>65.66666666666667</ele><time>2026-03-22T13:24:29Z</time></trkpt><trkpt lat="45.73019847233765" lon="-0.1500075654177092"><ele>65.0</ele><time>2026-03-22T13:24:30Z</time></trkpt><trkpt lat="45.730112245285916" lon="-0.14971650665228"><ele>64.0</ele><time>2026-03-22T13:24:31Z</time></trkpt><trkpt lat="45.73000374825714" lon="-0.14942893484190825"><ele>63.0</ele><time>2026-03-22T13:24:32Z</time></trkpt><trkpt lat="45.729908145805716" lon="-0.14913331871734725"><ele>62.66666666666667</ele><time>2026-03-22T13:24:33Z</time></trkpt><trkpt lat="45.72982531652294" lon="-0.14882442229981682"><ele>62.333333333333336</ele><time>2026-03-22T13:24:34Z</time></trkpt><trkpt lat="45.72973678997553" lon="-0.14855169526605425"><ele>62.0</ele><time>2026-03-22T13:24:35Z</time></trkpt><trkpt lat="45.729643167437644" lon="-0.1482580055347976"><ele>60.0</ele><time>2026-03-22T13:24:36Z</time></trkpt><trkpt lat="45.72953241716677" lon="-0.14796382573227848"><ele>58.0</ele><time>2026-03-22T13:24:37Z</time></trkpt><trkpt lat="45.72944490034859" lon="-0.14765591396330321"><ele>58.0</ele><time>2026-03-22T13:24:38Z</time></trkpt><trkpt lat="45.729357678723204" lon="-0.1473565514019655"><ele>58.0</ele><time>2026-03-22T13:24:39Z</time></trkpt><trkpt lat="45.72925907201859" lon="-0.1470856697380779"><ele>58.0</ele><time>2026-03-22T13:24:40Z</time></trkpt><trkpt lat="45.729185129117994" lon="-0.14682333583474183"><ele>58.0</ele><time>2026-03-22T13:24:41Z</time></trkpt><trkpt lat="45.729102243693625" lon="-0.14657155319787646"><ele>58.0</ele><time>2026-03-22T13:24:42Z</time></trkpt><trkpt lat="45.72902797506776" lon="-0.14632722803034612"><ele>58.0</ele><time>2026-03-22T13:24:43Z</time></trkpt><trkpt lat="45.72895899722814" lon="-0.14610473149603015"><ele>57.0</ele><time>2026-03-22T13:24:44Z</time></trkpt><trkpt lat="45.72889049337447" lon="-0.14589392197513618"><ele>56.0</ele><time>2026-03-22T13:24:45Z</time></trkpt><trkpt lat="45.72881264920024" lon="-0.1456622328459815"><ele>55.0</ele><time>2026-03-22T13:24:46Z</time></trkpt><trkpt lat="45.72872863483087" lon="-0.14538758659625126"><ele>55.0</ele><time>2026-03-22T13:24:47Z</time></trkpt><trkpt lat="45.72862852408783" lon="-0.1451424437986318"><ele>55.0</ele><time>2026-03-22T13:24:48Z</time></trkpt><trkpt lat="45.72851627124842" lon="-0.14490635917094263"><ele>55.0</ele><time>2026-03-22T13:24:49Z</time></trkpt><trkpt lat="45.728374299760034" lon="-0.14466652406118177"><ele>55.5</ele><time>2026-03-22T13:24:50Z</time></trkpt><trkpt lat="45.72820476209101" lon="-0.1444639652775635"><ele>56.0</ele><time>2026-03-22T13:24:51Z</time></trkpt><trkpt lat="45.72802683816816" lon="-0.1442261171582288"><ele>56.5</ele><time>2026-03-22T13:24:52Z</time></trkpt><trkpt lat="45.72785647178869" lon="-0.14400027349774377"><ele>57.0</ele><time>2026-03-22T13:24:53Z</time></trkpt><trkpt lat="45.72766131745839" lon="-0.14374814224036386"><ele>57.0</ele><time>2026-03-22T13:24:54Z</time></trkpt><trkpt lat="45.72728306194402" lon="-0.14323704336891357"><ele>57.5</ele><time>2026-03-22T13:24:56Z</time></trkpt><trkpt lat="45.72710796929401" lon="-0.14299070312678214"><ele>58.0</ele><time>2026-03-22T13:24:57Z</time></trkpt><trkpt lat="45.72693474007675" lon="-0.1427758158542504"><ele>57.666666666666664</ele><time>2026-03-22T13:24:58Z</time></trkpt><trkpt lat="45.72677138544694" lon="-0.1425651372481801"><ele>57.33333333333333</ele><time>2026-03-22T13:24:59Z</time></trkpt><trkpt lat="45.72661003248832" lon="-0.14234954154222995"><ele>57.0</ele><time>2026-03-22T13:25:00Z</time></trkpt><trkpt lat="45.726448615233764" lon="-0.1421262499097163"><ele>57.0</ele><time>2026-03-22T13:25:01Z</time></trkpt><trkpt lat="45.72630072641887" lon="-0.1419273326261396"><ele>57.0</ele><time>2026-03-22T13:25:02Z</time></trkpt><trkpt lat="45.72617717828635" lon="-0.14174538864333816"><ele>57.0</ele><time>2026-03-22T13:25:03Z</time></trkpt><trkpt lat="45.72603498533732" lon="-0.14156543524820098"><ele>56.66666666666667</ele><time>2026-03-22T13:25:04Z</time></trkpt><trkpt lat="45.72591238059008" lon="-0.1414028293884089"><ele>56.333333333333336</ele><time>2026-03-22T13:25:05Z</time></trkpt><trkpt lat="45.725785283521944" lon="-0.14125612032669582"><ele>56.0</ele><time>2026-03-22T13:25:06Z</time></trkpt><trkpt lat="45.725693181287085" lon="-0.1410937457804381"><ele>56.0</ele><time>2026-03-22T13:25:07Z</time></trkpt><trkpt lat="45.72560038384743" lon="-0.14096062133594062"><ele>55.99999999999999</ele><time>2026-03-22T13:25:08Z</time></trkpt><trkpt lat="45.725524838405406" lon="-0.14084884259603928"><ele>55.99999999999999</ele><time>2026-03-22T13:25:09Z</time></trkpt><trkpt lat="45.72546895998596" lon="-0.14077001065049868"><ele>56.0</ele><time>2026-03-22T13:25:10Z</time></trkpt><trkpt lat="45.72537936577441" lon="-0.14071852413054042"><ele>56.0</ele><time>2026-03-22T13:25:12Z</time></trkpt><trkpt lat="45.72528579824809" lon="-0.14078160964453523"><ele>56.75</ele><time>2026-03-22T13:25:14Z</time></trkpt><trkpt lat="45.72520730436844" lon="-0.14085733364278308"><ele>57.5</ele><time>2026-03-22T13:25:15Z</time></trkpt><trkpt lat="45.7250796334373" lon="-0.14096257454925468"><ele>58.25</ele><time>2026-03-22T13:25:16Z</time></trkpt><trkpt lat="45.724909942437115" lon="-0.1411068538460652"><ele>59.0</ele><time>2026-03-22T13:25:17Z</time></trkpt><trkpt lat="45.72472167939989" lon="-0.14124250651547"><ele>59.0</ele><time>2026-03-22T13:25:18Z</time></trkpt><trkpt lat="45.724559994907985" lon="-0.14136806873928917"><ele>59.0</ele><time>2026-03-22T13:25:19Z</time></trkpt><trkpt lat="45.72437660600631" lon="-0.14151098956551425"><ele>59.0</ele><time>2026-03-22T13:25:20Z</time></trkpt><trkpt lat="45.72419526428662" lon="-0.141644862295737"><ele>60.0</ele><time>2026-03-22T13:25:21Z</time></trkpt><trkpt lat="45.724022558588445" lon="-0.1417702896155809"><ele>61.0</ele><time>2026-03-22T13:25:22Z</time></trkpt><trkpt lat="45.72387562004981" lon="-0.1418715971103145"><ele>62.0</ele><time>2026-03-22T13:25:23Z</time></trkpt><trkpt lat="45.7237497920758" lon="-0.14196677834370408"><ele>62.0</ele><time>2026-03-22T13:25:24Z</time></trkpt><trkpt lat="45.723662298129724" lon="-0.14205559798551415"><ele>62.0</ele><time>2026-03-22T13:25:25Z</time></trkpt><trkpt lat="45.72357959713613" lon="-0.14211145744259"><ele>62.0</ele><time>2026-03-22T13:25:26Z</time></trkpt><trkpt lat="45.723540138134574" lon="-0.14220484079258983"><ele>62.0</ele><time>2026-03-22T13:25:27Z</time></trkpt><trkpt lat="45.72346528836967" lon="-0.14226762028220039"><ele>62.0</ele><time>2026-03-22T13:25:28Z</time></trkpt><trkpt lat="45.72339700566114" lon="-0.14241349770399428"><ele>62.0</ele><time>2026-03-22T13:25:29Z</time></trkpt><trkpt lat="45.7233284804887" lon="-0.14251400752088192"><ele>62.0</ele><time>2026-03-22T13:25:30Z</time></trkpt><trkpt lat="45.72321885816595" lon="-0.14262683927188755"><ele>62.0</ele><time>2026-03-22T13:25:31Z</time></trkpt><trkpt lat="45.72309365315079" lon="-0.14273262970334072"><ele>62.0</ele><time>2026-03-22T13:25:32Z</time></trkpt><trkpt lat="45.722941513893524" lon="-0.14282556459973686"><ele>62.0</ele><time>2026-03-22T13:25:33Z</time></trkpt><trkpt lat="45.72277593882481" lon="-0.142899200995166"><ele>62.0</ele><time>2026-03-22T13:25:34Z</time></trkpt><trkpt lat="45.72260029389257" lon="-0.14297989393762958"><ele>62.0</ele><time>2026-03-22T13:25:35Z</time></trkpt><trkpt lat="45.72241993211703" lon="-0.14309637320786875"><ele>61.0</ele><time>2026-03-22T13:25:36Z</time></trkpt><trkpt lat="45.722290969422964" lon="-0.14324195051686306"><ele>60.0</ele><time>2026-03-22T13:25:37Z</time></trkpt><trkpt lat="45.72211199934091" lon="-0.14330160429910935"><ele>59.0</ele><time>2026-03-22T13:25:38Z</time></trkpt><trkpt lat="45.72195183779362" lon="-0.1433995613138066"><ele>58.0</ele><time>2026-03-22T13:25:39Z</time></trkpt><trkpt lat="45.72179881057785" lon="-0.14349769320297542"><ele>57.0</ele><time>2026-03-22T13:25:40Z</time></trkpt><trkpt lat="45.72165648058641" lon="-0.14359476500722865"><ele>56.0</ele><time>2026-03-22T13:25:41Z</time></trkpt><trkpt lat="45.72151361385938" lon="-0.1436961480108476"><ele>56.0</ele><time>2026-03-22T13:25:42Z</time></trkpt><trkpt lat="45.72137240233054" lon="-0.14379287248423547"><ele>56.0</ele><time>2026-03-22T13:25:43Z</time></trkpt><trkpt lat="45.72123342345886" lon="-0.1438922185349583"><ele>56.0</ele><time>2026-03-22T13:25:44Z</time></trkpt><trkpt lat="45.721100763171094" lon="-0.14398663489526822"><ele>54.66666666666667</ele><time>2026-03-22T13:25:45Z</time></trkpt><trkpt lat="45.720970355379556" lon="-0.14407941684866793"><ele>53.33333333333333</ele><time>2026-03-22T13:25:46Z</time></trkpt><trkpt lat="45.72082905638566" lon="-0.1441872554803047"><ele>52.0</ele><time>2026-03-22T13:25:47Z</time></trkpt><trkpt lat="45.720680935040946" lon="-0.14430028684696483"><ele>52.0</ele><time>2026-03-22T13:25:48Z</time></trkpt><trkpt lat="45.72052645467783" lon="-0.1444129045924957"><ele>52.0</ele><time>2026-03-22T13:25:49Z</time></trkpt><trkpt lat="45.72036887801007" lon="-0.1445246976160233"><ele>52.0</ele><time>2026-03-22T13:25:50Z</time></trkpt><trkpt lat="45.720202584325776" lon="-0.14464326440235267"><ele>53.0</ele><time>2026-03-22T13:25:51Z</time></trkpt><trkpt lat="45.72005074373012" lon="-0.14476032357097798"><ele>54.0</ele><time>2026-03-22T13:25:52Z</time></trkpt><trkpt lat="45.71988667101407" lon="-0.14488631360252238"><ele>55.0</ele><time>2026-03-22T13:25:53Z</time></trkpt><trkpt lat="45.71975841919128" lon="-0.1450091098592971"><ele>55.0</ele><time>2026-03-22T13:25:54Z</time></trkpt><trkpt lat="45.71962860992798" lon="-0.14512351794277073"><ele>55.0</ele><time>2026-03-22T13:25:55Z</time></trkpt><trkpt lat="45.71950625701887" lon="-0.14523137328627983"><ele>55.0</ele><time>2026-03-22T13:25:56Z</time></trkpt><trkpt lat="45.7193863754822" lon="-0.14533315762355978"><ele>55.0</ele><time>2026-03-22T13:25:57Z</time></trkpt><trkpt lat="45.71926634514455" lon="-0.14542659018046447"><ele>54.75</ele><time>2026-03-22T13:25:58Z</time></trkpt><trkpt lat="45.719153460740074" lon="-0.14552603510676726"><ele>54.5</ele><time>2026-03-22T13:25:59Z</time></trkpt><trkpt lat="45.719045643726304" lon="-0.1456288310296271"><ele>54.25</ele><time>2026-03-22T13:26:00Z</time></trkpt><trkpt lat="45.71894140745507" lon="-0.14570469210964634"><ele>54.0</ele><time>2026-03-22T13:26:01Z</time></trkpt><trkpt lat="45.71882029514148" lon="-0.14576826690671085"><ele>54.0</ele><time>2026-03-22T13:26:02Z</time></trkpt><trkpt lat="45.71867410979736" lon="-0.14584717434666775"><ele>54.0</ele><time>2026-03-22T13:26:03Z</time></trkpt><trkpt lat="45.718526175914135" lon="-0.14591358160317525"><ele>54.0</ele><time>2026-03-22T13:26:04Z</time></trkpt><trkpt lat="45.71837192730631" lon="-0.14598159035764952"><ele>54.66666666666667</ele><time>2026-03-22T13:26:05Z</time></trkpt><trkpt lat="45.718209327437094" lon="-0.14604209308480295"><ele>55.333333333333336</ele><time>2026-03-22T13:26:06Z</time></trkpt><trkpt lat="45.71804406927936" lon="-0.14610689916377587"><ele>56.0</ele><time>2026-03-22T13:26:07Z</time></trkpt><trkpt lat="45.717861214945174" lon="-0.1462084658452499"><ele>56.0</ele><time>2026-03-22T13:26:08Z</time></trkpt><trkpt lat="45.717695856768124" lon="-0.14630556835711553"><ele>56.0</ele><time>2026-03-22T13:26:09Z</time></trkpt><trkpt lat="45.71754447337139" lon="-0.14637873054985104"><ele>56.0</ele><time>2026-03-22T13:26:10Z</time></trkpt><trkpt lat="45.71740033466272" lon="-0.14649291878697002"><ele>55.333333333333336</ele><time>2026-03-22T13:26:11Z</time></trkpt><trkpt lat="45.71725289541364" lon="-0.14664716620120574"><ele>54.66666666666667</ele><time>2026-03-22T13:26:12Z</time></trkpt><trkpt lat="45.71709128670096" lon="-0.14679997976205722"><ele>54.0</ele><time>2026-03-22T13:26:13Z</time></trkpt><trkpt lat="45.71691685206341" lon="-0.1469461351776573"><ele>54.66666666666667</ele><time>2026-03-22T13:26:14Z</time></trkpt><trkpt lat="45.7167491730021" lon="-0.1471091830602172"><ele>55.333333333333336</ele><time>2026-03-22T13:26:15Z</time></trkpt><trkpt lat="45.71659466041188" lon="-0.1472450309806273"><ele>56.0</ele><time>2026-03-22T13:26:16Z</time></trkpt><trkpt lat="45.71644763321112" lon="-0.14735416072231136"><ele>55.333333333333336</ele><time>2026-03-22T13:26:17Z</time></trkpt><trkpt lat="45.71630131121777" lon="-0.14744003770446107"><ele>54.66666666666667</ele><time>2026-03-22T13:26:18Z</time></trkpt><trkpt lat="45.71615316596681" lon="-0.14750355843680343"><ele>54.0</ele><time>2026-03-22T13:26:19Z</time></trkpt><trkpt lat="45.71598272265795" lon="-0.1475579326225334"><ele>53.66666666666667</ele><time>2026-03-22T13:26:20Z</time></trkpt><trkpt lat="45.715803577065934" lon="-0.14762321507202567"><ele>53.333333333333336</ele><time>2026-03-22T13:26:21Z</time></trkpt><trkpt lat="45.71562787233108" lon="-0.1476884462795508"><ele>53.0</ele><time>2026-03-22T13:26:22Z</time></trkpt><trkpt lat="45.715338855801996" lon="-0.14782453918558552"><ele>52.66666666666667</ele><time>2026-03-22T13:26:24Z</time></trkpt><trkpt lat="45.71518980579931" lon="-0.14792400055182137"><ele>52.33333333333333</ele><time>2026-03-22T13:26:25Z</time></trkpt><trkpt lat="45.71504160946892" lon="-0.14804278673330815"><ele>52.0</ele><time>2026-03-22T13:26:26Z</time></trkpt><trkpt lat="45.714889654712074" lon="-0.14816917769385185"><ele>52.0</ele><time>2026-03-22T13:26:27Z</time></trkpt><trkpt lat="45.71473235295674" lon="-0.14829908253080565"><ele>52.0</ele><time>2026-03-22T13:26:28Z</time></trkpt><trkpt lat="45.714589218679365" lon="-0.14841584356110182"><ele>52.0</ele><time>2026-03-22T13:26:29Z</time></trkpt><trkpt lat="45.71445690191356" lon="-0.14852869390751064"><ele>52.33333333333333</ele><time>2026-03-22T13:26:30Z</time></trkpt><trkpt lat="45.71431500057941" lon="-0.14865138338486714"><ele>52.66666666666667</ele><time>2026-03-22T13:26:31Z</time></trkpt><trkpt lat="45.714162290013654" lon="-0.14877343645988056"><ele>53.0</ele><time>2026-03-22T13:26:32Z</time></trkpt><trkpt lat="45.71401587995044" lon="-0.14890373063501663"><ele>53.0</ele><time>2026-03-22T13:26:33Z</time></trkpt><trkpt lat="45.713879655364146" lon="-0.14902039439765916"><ele>53.0</ele><time>2026-03-22T13:26:34Z</time></trkpt><trkpt lat="45.713731580644875" lon="-0.14913727608493912"><ele>53.0</ele><time>2026-03-22T13:26:35Z</time></trkpt><trkpt lat="45.71358783711034" lon="-0.14925641240225807"><ele>51.0</ele><time>2026-03-22T13:26:36Z</time></trkpt><trkpt lat="45.713453969356635" lon="-0.1493819874617122"><ele>49.0</ele><time>2026-03-22T13:26:37Z</time></trkpt><trkpt lat="45.713342112786385" lon="-0.1495150868091125"><ele>47.0</ele><time>2026-03-22T13:26:38Z</time></trkpt><trkpt lat="45.71324315407945" lon="-0.14965766429253022"><ele>45.0</ele><time>2026-03-22T13:26:39Z</time></trkpt><trkpt lat="45.713151780628586" lon="-0.1498021929857277"><ele>44.6</ele><time>2026-03-22T13:26:40Z</time></trkpt><trkpt lat="45.7130642996894" lon="-0.1499279963567568"><ele>44.2</ele><time>2026-03-22T13:26:41Z</time></trkpt><trkpt lat="45.71298067411724" lon="-0.15004074630204753"><ele>43.8</ele><time>2026-03-22T13:26:42Z</time></trkpt><trkpt lat="45.71291163840942" lon="-0.15012555080896103"><ele>43.4</ele><time>2026-03-22T13:26:43Z</time></trkpt><trkpt lat="45.71284733207681" lon="-0.15017911100590678"><ele>43.0</ele><time>2026-03-22T13:26:44Z</time></trkpt><trkpt lat="45.7127774760997" lon="-0.15022854475172745"><ele>43.0</ele><time>2026-03-22T13:26:46Z</time></trkpt><trkpt lat="45.71282915300117" lon="-0.1504601652535216"><ele>43.0</ele><time>2026-03-22T13:26:48Z</time></trkpt><trkpt lat="45.71285262345088" lon="-0.1506575116333439"><ele>43.0</ele><time>2026-03-22T13:26:49Z</time></trkpt><trkpt lat="45.712866790080334" lon="-0.1509170979105701"><ele>42.0</ele><time>2026-03-22T13:26:50Z</time></trkpt><trkpt lat="45.712905779792045" lon="-0.1512250238838575"><ele>41.0</ele><time>2026-03-22T13:26:51Z</time></trkpt><trkpt lat="45.71294861924044" lon="-0.15159505397192916"><ele>38.0</ele><time>2026-03-22T13:26:52Z</time></trkpt><trkpt lat="45.713034521359624" lon="-0.152289659385685"><ele>38.0</ele><time>2026-03-22T13:26:54Z</time></trkpt><trkpt lat="45.713072600523525" lon="-0.1525853411523929"><ele>38.0</ele><time>2026-03-22T13:26:55Z</time></trkpt><trkpt lat="45.713109278534226" lon="-0.1528773345814886"><ele>38.0</ele><time>2026-03-22T13:26:56Z</time></trkpt><trkpt lat="45.713156538647766" lon="-0.15319956764037554"><ele>38.5</ele><time>2026-03-22T13:26:57Z</time></trkpt><trkpt lat="45.713199801604205" lon="-0.15354304091671228"><ele>39.0</ele><time>2026-03-22T13:26:58Z</time></trkpt><trkpt lat="45.71323410277825" lon="-0.1538422773248494"><ele>39.666666666666664</ele><time>2026-03-22T13:26:59Z</time></trkpt><trkpt lat="45.71327039960524" lon="-0.1541186959161358"><ele>40.33333333333333</ele><time>2026-03-22T13:27:00Z</time></trkpt><trkpt lat="45.713306317889966" lon="-0.15440082908547667"><ele>41.0</ele><time>2026-03-22T13:27:01Z</time></trkpt><trkpt lat="45.71334253114686" lon="-0.15469290713996933"><ele>41.33333333333333</ele><time>2026-03-22T13:27:02Z</time></trkpt><trkpt lat="45.713375476989604" lon="-0.1549542639354988"><ele>41.666666666666664</ele><time>2026-03-22T13:27:03Z</time></trkpt><trkpt lat="45.71340625723555" lon="-0.15518975961434997"><ele>42.0</ele><time>2026-03-22T13:27:04Z</time></trkpt><trkpt lat="45.71342710658237" lon="-0.15540938865662446"><ele>42.0</ele><time>2026-03-22T13:27:05Z</time></trkpt><trkpt lat="45.71345220036955" lon="-0.15559437097734452"><ele>42.0</ele><time>2026-03-22T13:27:06Z</time></trkpt><trkpt lat="45.713469236011555" lon="-0.15575082407539015"><ele>42.0</ele><time>2026-03-22T13:27:07Z</time></trkpt><trkpt lat="45.71348517670951" lon="-0.15587507749450755"><ele>42.0</ele><time>2026-03-22T13:27:08Z</time></trkpt><trkpt lat="45.71349583323263" lon="-0.15597383470295956"><ele>42.0</ele><time>2026-03-22T13:27:09Z</time></trkpt><trkpt lat="45.713525486412166" lon="-0.15609230896862206"><ele>41.75</ele><time>2026-03-22T13:27:11Z</time></trkpt><trkpt lat="45.71342449729814" lon="-0.1561810490098954"><ele>41.5</ele><time>2026-03-22T13:27:13Z</time></trkpt><trkpt lat="45.713301712319115" lon="-0.1561941803619834"><ele>41.25</ele><time>2026-03-22T13:27:15Z</time></trkpt><trkpt lat="45.713223509703376" lon="-0.15624074981877922"><ele>41.0</ele><time>2026-03-22T13:27:16Z</time></trkpt><trkpt lat="45.71309920151156" lon="-0.15628900836583068"><ele>41.0</ele><time>2026-03-22T13:27:17Z</time></trkpt><trkpt lat="45.71293151130594" lon="-0.15632892852475735"><ele>41.0</ele><time>2026-03-22T13:27:18Z</time></trkpt><trkpt lat="45.712739837090766" lon="-0.1563912122891054"><ele>41.0</ele><time>2026-03-22T13:27:19Z</time></trkpt><trkpt lat="45.71256493361025" lon="-0.1564402495538881"><ele>41.0</ele><time>2026-03-22T13:27:20Z</time></trkpt><trkpt lat="45.71240881530436" lon="-0.15649564207222716"><ele>41.0</ele><time>2026-03-22T13:27:21Z</time></trkpt><trkpt lat="45.712247930968765" lon="-0.15654959669989993"><ele>41.0</ele><time>2026-03-22T13:27:22Z</time></trkpt><trkpt lat="45.71207816651649" lon="-0.156613704884887"><ele>41.0</ele><time>2026-03-22T13:27:23Z</time></trkpt><trkpt lat="45.71192552352449" lon="-0.15669200365774422"><ele>41.0</ele><time>2026-03-22T13:27:24Z</time></trkpt><trkpt lat="45.71178416833778" lon="-0.15676980298645266"><ele>41.0</ele><time>2026-03-22T13:27:25Z</time></trkpt><trkpt lat="45.71165200776436" lon="-0.15683710877506002"><ele>41.0</ele><time>2026-03-22T13:27:26Z</time></trkpt><trkpt lat="45.71152101493917" lon="-0.1568952773314846"><ele>41.0</ele><time>2026-03-22T13:27:27Z</time></trkpt><trkpt lat="45.711391307568185" lon="-0.15695637868766388"><ele>41.0</ele><time>2026-03-22T13:27:28Z</time></trkpt><trkpt lat="45.71124288520564" lon="-0.157009917155399"><ele>41.0</ele><time>2026-03-22T13:27:29Z</time></trkpt><trkpt lat="45.711118924727714" lon="-0.15705026336654326"><ele>40.5</ele><time>2026-03-22T13:27:30Z</time></trkpt><trkpt lat="45.71099153061342" lon="-0.15707053442064667"><ele>40.0</ele><time>2026-03-22T13:27:31Z</time></trkpt><trkpt lat="45.71086424478095" lon="-0.157069528140398"><ele>39.5</ele><time>2026-03-22T13:27:32Z</time></trkpt><trkpt lat="45.71072546050932" lon="-0.1570712845047079"><ele>39.0</ele><time>2026-03-22T13:27:33Z</time></trkpt><trkpt lat="45.71059080772254" lon="-0.15706649701535885"><ele>39.0</ele><time>2026-03-22T13:27:34Z</time></trkpt><trkpt lat="45.710463186614774" lon="-0.1570684917062179"><ele>39.0</ele><time>2026-03-22T13:27:35Z</time></trkpt><trkpt lat="45.710340627984" lon="-0.1570704262092038"><ele>39.0</ele><time>2026-03-22T13:27:36Z</time></trkpt><trkpt lat="45.710223220173106" lon="-0.15707365780114688"><ele>39.0</ele><time>2026-03-22T13:27:37Z</time></trkpt><trkpt lat="45.71009800429702" lon="-0.15710117361491058"><ele>38.8</ele><time>2026-03-22T13:27:38Z</time></trkpt><trkpt lat="45.709993044998065" lon="-0.15709875847799568"><ele>38.599999999999994</ele><time>2026-03-22T13:27:39Z</time></trkpt><trkpt lat="45.709880561630825" lon="-0.15712490708744598"><ele>38.4</ele><time>2026-03-22T13:27:40Z</time></trkpt><trkpt lat="45.70978138060668" lon="-0.15715336826350215"><ele>38.199999999999996</ele><time>2026-03-22T13:27:41Z</time></trkpt><trkpt lat="45.709675053186075" lon="-0.15719063915306758"><ele>38.0</ele><time>2026-03-22T13:27:42Z</time></trkpt><trkpt lat="45.7095579138842" lon="-0.15721766861529576"><ele>38.0</ele><time>2026-03-22T13:27:43Z</time></trkpt><trkpt lat="45.70944908046008" lon="-0.15724201578528696"><ele>38.0</ele><time>2026-03-22T13:27:44Z</time></trkpt><trkpt lat="45.709346143879856" lon="-0.15727507524891518"><ele>38.0</ele><time>2026-03-22T13:27:45Z</time></trkpt><trkpt lat="45.70923637317431" lon="-0.1572715678046776"><ele>38.0</ele><time>2026-03-22T13:27:46Z</time></trkpt><trkpt lat="45.709139778135054" lon="-0.15726143999565761"><ele>38.0</ele><time>2026-03-22T13:27:47Z</time></trkpt><trkpt lat="45.70905778181351" lon="-0.15725685763693747"><ele>37.666666666666664</ele><time>2026-03-22T13:27:48Z</time></trkpt><trkpt lat="45.70896994051984" lon="-0.15725789757868883"><ele>37.33333333333333</ele><time>2026-03-22T13:27:49Z</time></trkpt><trkpt lat="45.70888668716344" lon="-0.15726193032856214"><ele>37.0</ele><time>2026-03-22T13:27:50Z</time></trkpt><trkpt lat="45.70880943957538" lon="-0.15725546099635332"><ele>36.666666666666664</ele><time>2026-03-22T13:27:51Z</time></trkpt><trkpt lat="45.70872988466023" lon="-0.15726686629499856"><ele>36.333333333333336</ele><time>2026-03-22T13:27:52Z</time></trkpt><trkpt lat="45.708655841793274" lon="-0.1572759370059142"><ele>36.0</ele><time>2026-03-22T13:27:53Z</time></trkpt><trkpt lat="45.708582220184056" lon="-0.15728886254107313"><ele>36.00000000000001</ele><time>2026-03-22T13:27:54Z</time></trkpt><trkpt lat="45.70850551690618" lon="-0.1572947793865946"><ele>36.0</ele><time>2026-03-22T13:27:55Z</time></trkpt><trkpt lat="45.70843060204236" lon="-0.15731430484399572"><ele>36.0</ele><time>2026-03-22T13:27:56Z</time></trkpt><trkpt lat="45.708355265492266" lon="-0.15732262467881186"><ele>36.0</ele><time>2026-03-22T13:27:57Z</time></trkpt><trkpt lat="45.70828521065337" lon="-0.1573558891709578"><ele>36.0</ele><time>2026-03-22T13:27:58Z</time></trkpt><trkpt lat="45.70821442488786" lon="-0.1573500163210473"><ele>36.00000000000001</ele><time>2026-03-22T13:27:59Z</time></trkpt><trkpt lat="45.70814216316053" lon="-0.1573363558414941"><ele>36.0</ele><time>2026-03-22T13:28:00Z</time></trkpt><trkpt lat="45.70806772038434" lon="-0.15731515301905435"><ele>36.00000000000001</ele><time>2026-03-22T13:28:01Z</time></trkpt><trkpt lat="45.70800764547874" lon="-0.15725819338273916"><ele>36.0</ele><time>2026-03-22T13:28:02Z</time></trkpt><trkpt lat="45.70794245923613" lon="-0.15722552071506918"><ele>36.0</ele><time>2026-03-22T13:28:03Z</time></trkpt><trkpt lat="45.70787080368376" lon="-0.15718536796117627"><ele>36.0</ele><time>2026-03-22T13:28:04Z</time></trkpt><trkpt lat="45.70780280513987" lon="-0.15715067905128646"><ele>36.0</ele><time>2026-03-22T13:28:05Z</time></trkpt><trkpt lat="45.70773403456508" lon="-0.15711770436058317"><ele>36.00000000000001</ele><time>2026-03-22T13:28:06Z</time></trkpt><trkpt lat="45.707667775473475" lon="-0.15707589004529296"><ele>36.0</ele><time>2026-03-22T13:28:07Z</time></trkpt><trkpt lat="45.707604196246145" lon="-0.1570334092222358"><ele>36.333333333333336</ele><time>2026-03-22T13:28:08Z</time></trkpt><trkpt lat="45.7075357481552" lon="-0.15700038515642198"><ele>36.666666666666664</ele><time>2026-03-22T13:28:09Z</time></trkpt><trkpt lat="45.707475282726044" lon="-0.15697198110094535"><ele>37.0</ele><time>2026-03-22T13:28:10Z</time></trkpt><trkpt lat="45.70736770357139" lon="-0.15692236943587506"><ele>37.33333333333333</ele><time>2026-03-22T13:28:12Z</time></trkpt><trkpt lat="45.70727511241678" lon="-0.15687681761614972"><ele>37.666666666666664</ele><time>2026-03-22T13:28:14Z</time></trkpt><trkpt lat="45.70720447305004" lon="-0.15679424972664466"><ele>38.0</ele><time>2026-03-22T13:28:16Z</time></trkpt><trkpt lat="45.70711236140488" lon="-0.1566880059379822"><ele>38.0</ele><time>2026-03-22T13:28:18Z</time></trkpt><trkpt lat="45.70701475222732" lon="-0.1566113629437261"><ele>38.0</ele><time>2026-03-22T13:28:20Z</time></trkpt><trkpt lat="45.70692245280809" lon="-0.15654640790492247"><ele>38.0</ele><time>2026-03-22T13:28:22Z</time></trkpt><trkpt lat="45.70681896775131" lon="-0.1565041459236351"><ele>38.0</ele><time>2026-03-22T13:28:24Z</time></trkpt><trkpt lat="45.70670934133762" lon="-0.15649135449327897"><ele>38.0</ele><time>2026-03-22T13:28:26Z</time></trkpt><trkpt lat="45.70659736398095" lon="-0.15646909000548498"><ele>37.6</ele><time>2026-03-22T13:28:28Z</time></trkpt><trkpt lat="45.7064627160054" lon="-0.15645837682577038"><ele>37.199999999999996</ele><time>2026-03-22T13:28:30Z</time></trkpt><trkpt lat="45.7063843921404" lon="-0.15645999076193673"><ele>36.8</ele><time>2026-03-22T13:28:31Z</time></trkpt><trkpt lat="45.706303991436855" lon="-0.1564573604055806"><ele>36.4</ele><time>2026-03-22T13:28:32Z</time></trkpt><trkpt lat="45.7062169074589" lon="-0.15645952191193646"><ele>36.0</ele><time>2026-03-22T13:28:33Z</time></trkpt><trkpt lat="45.70612758301201" lon="-0.1564568948928843"><ele>35.6</ele><time>2026-03-22T13:28:34Z</time></trkpt><trkpt lat="45.70603211348028" lon="-0.15645436950698413"><ele>35.2</ele><time>2026-03-22T13:28:35Z</time></trkpt><trkpt lat="45.70592737918339" lon="-0.15645432735322526"><ele>34.8</ele><time>2026-03-22T13:28:36Z</time></trkpt><trkpt lat="45.7058217836915" lon="-0.15645933716904276"><ele>34.4</ele><time>2026-03-22T13:28:37Z</time></trkpt><trkpt lat="45.705716501185655" lon="-0.1564655881370871"><ele>34.0</ele><time>2026-03-22T13:28:38Z</time></trkpt><trkpt lat="45.705617090667076" lon="-0.15647026088325694"><ele>34.0</ele><time>2026-03-22T13:28:39Z</time></trkpt><trkpt lat="45.7055228451042" lon="-0.15647625508957283"><ele>34.0</ele><time>2026-03-22T13:28:40Z</time></trkpt><trkpt lat="45.70543416635507" lon="-0.15648668976405236"><ele>34.0</ele><time>2026-03-22T13:28:41Z</time></trkpt><trkpt lat="45.705340227233826" lon="-0.1564948545050072"><ele>34.0</ele><time>2026-03-22T13:28:42Z</time></trkpt><trkpt lat="45.705240943917644" lon="-0.15650550144912367"><ele>34.0</ele><time>2026-03-22T13:28:43Z</time></trkpt><trkpt lat="45.70514494566135" lon="-0.15651692951023158"><ele>33.66666666666667</ele><time>2026-03-22T13:28:44Z</time></trkpt><trkpt lat="45.70505780793335" lon="-0.1565281551910896"><ele>33.333333333333336</ele><time>2026-03-22T13:28:45Z</time></trkpt><trkpt lat="45.70498080970494" lon="-0.15653805847125438"><ele>33.0</ele><time>2026-03-22T13:28:46Z</time></trkpt><trkpt lat="45.704881596378975" lon="-0.15655308981333654"><ele>32.666666666666664</ele><time>2026-03-22T13:28:48Z</time></trkpt><trkpt lat="45.704813447966465" lon="-0.15655536120381255"><ele>32.33333333333333</ele><time>2026-03-22T13:28:50Z</time></trkpt><trkpt lat="45.70476060211069" lon="-0.15649044655770022"><ele>32.0</ele><time>2026-03-22T13:28:51Z</time></trkpt><trkpt lat="45.70464069785767" lon="-0.15639836165114762"><ele>31.999999999999996</ele><time>2026-03-22T13:28:53Z</time></trkpt><trkpt lat="45.70456799550511" lon="-0.15636997841066672"><ele>32.0</ele><time>2026-03-22T13:28:54Z</time></trkpt><trkpt lat="45.70449118293743" lon="-0.15631332381226762"><ele>32.0</ele><time>2026-03-22T13:28:55Z</time></trkpt><trkpt lat="45.704419062198625" lon="-0.1562384627850321"><ele>32.0</ele><time>2026-03-22T13:28:56Z</time></trkpt><trkpt lat="45.70433914728607" lon="-0.15618610670524294"><ele>31.999999999999996</ele><time>2026-03-22T13:28:57Z</time></trkpt><trkpt lat="45.70426162470967" lon="-0.15612426654493225"><ele>32.0</ele><time>2026-03-22T13:28:58Z</time></trkpt><trkpt lat="45.70418665985958" lon="-0.15605508322919787"><ele>31.400000000000002</ele><time>2026-03-22T13:28:59Z</time></trkpt><trkpt lat="45.70410133491184" lon="-0.15599661877905183"><ele>30.800000000000004</ele><time>2026-03-22T13:29:00Z</time></trkpt><trkpt lat="45.704030041486355" lon="-0.15590643761187262"><ele>30.2</ele><time>2026-03-22T13:29:01Z</time></trkpt><trkpt lat="45.703979233567146" lon="-0.1557879655156677"><ele>29.6</ele><time>2026-03-22T13:29:02Z</time></trkpt><trkpt lat="45.70391244886605" lon="-0.1556960458732258"><ele>29.0</ele><time>2026-03-22T13:29:03Z</time></trkpt><trkpt lat="45.70385634876103" lon="-0.15560126224640083"><ele>28.999999999999996</ele><time>2026-03-22T13:29:04Z</time></trkpt><trkpt lat="45.70379512617993" lon="-0.1555209454918469"><ele>29.0</ele><time>2026-03-22T13:29:05Z</time></trkpt><trkpt lat="45.70374112637806" lon="-0.15544071534430245"><ele>29.0</ele><time>2026-03-22T13:29:06Z</time></trkpt><trkpt lat="45.70368689836653" lon="-0.15538297011966168"><ele>29.0</ele><time>2026-03-22T13:29:07Z</time></trkpt><trkpt lat="45.703598848212785" lon="-0.15528968838325044"><ele>28.999999999999996</ele><time>2026-03-22T13:29:09Z</time></trkpt><trkpt lat="45.70349565157043" lon="-0.15534258044456933"><ele>29.0</ele><time>2026-03-22T13:29:10Z</time></trkpt><trkpt lat="45.70341975408305" lon="-0.1553600565127104"><ele>28.833333333333332</ele><time>2026-03-22T13:29:11Z</time></trkpt><trkpt lat="45.70334126612981" lon="-0.15538237460872448"><ele>28.666666666666664</ele><time>2026-03-22T13:29:12Z</time></trkpt><trkpt lat="45.70325514882591" lon="-0.15540811104221416"><ele>28.5</ele><time>2026-03-22T13:29:13Z</time></trkpt><trkpt lat="45.7031702916864" lon="-0.1554262843184018"><ele>28.333333333333336</ele><time>2026-03-22T13:29:14Z</time></trkpt><trkpt lat="45.70309110394378" lon="-0.15544006766894472"><ele>28.166666666666668</ele><time>2026-03-22T13:29:15Z</time></trkpt><trkpt lat="45.70301208722281" lon="-0.15544695704492684"><ele>28.0</ele><time>2026-03-22T13:29:16Z</time></trkpt><trkpt lat="45.702939198930444" lon="-0.1554483186731636"><ele>28.0</ele><time>2026-03-22T13:29:17Z</time></trkpt><trkpt lat="45.7028108449242" lon="-0.15548968867334736"><ele>27.999999999999996</ele><time>2026-03-22T13:29:20Z</time></trkpt><trkpt lat="45.7028223812396" lon="-0.1556634223873267"><ele>27.999999999999996</ele><time>2026-03-22T13:29:22Z</time></trkpt><trkpt lat="45.70284050698261" lon="-0.1557566559248547"><ele>28.0</ele><time>2026-03-22T13:29:23Z</time></trkpt><trkpt lat="45.70285626933597" lon="-0.1558522164378961"><ele>28.0</ele><time>2026-03-22T13:29:24Z</time></trkpt><trkpt lat="45.70287259041942" lon="-0.15594102316005562"><ele>28.000000000000004</ele><time>2026-03-22T13:29:25Z</time></trkpt><trkpt lat="45.70288787819836" lon="-0.15603989640745855"><ele>28.0</ele><time>2026-03-22T13:29:26Z</time></trkpt><trkpt lat="45.702907733593996" lon="-0.15613764432025698"><ele>28.0</ele><time>2026-03-22T13:29:27Z</time></trkpt><trkpt lat="45.70292932428477" lon="-0.1562380139905376"><ele>28.0</ele><time>2026-03-22T13:29:28Z</time></trkpt><trkpt lat="45.70294668261166" lon="-0.1563439908699114"><ele>28.000000000000004</ele><time>2026-03-22T13:29:29Z</time></trkpt><trkpt lat="45.702969291991785" lon="-0.15646219751584425"><ele>28.0</ele><time>2026-03-22T13:29:30Z</time></trkpt><trkpt lat="45.70299040817664" lon="-0.15659005106007434"><ele>28.2</ele><time>2026-03-22T13:29:31Z</time></trkpt><trkpt lat="45.70300698488577" lon="-0.15671546625013175"><ele>28.4</ele><time>2026-03-22T13:29:32Z</time></trkpt><trkpt lat="45.703018523392814" lon="-0.15685676194711826"><ele>28.599999999999998</ele><time>2026-03-22T13:29:33Z</time></trkpt><trkpt lat="45.703026101032215" lon="-0.1570089827019506"><ele>28.799999999999997</ele><time>2026-03-22T13:29:34Z</time></trkpt><trkpt lat="45.70303482145292" lon="-0.15716730534652085"><ele>29.0</ele><time>2026-03-22T13:29:35Z</time></trkpt><trkpt lat="45.70304670324546" lon="-0.15732797415694497"><ele>29.0</ele><time>2026-03-22T13:29:36Z</time></trkpt><trkpt lat="45.70305833730407" lon="-0.15746440077228482"><ele>29.0</ele><time>2026-03-22T13:29:37Z</time></trkpt><trkpt lat="45.70307666738418" lon="-0.15759003628174878"><ele>29.0</ele><time>2026-03-22T13:29:38Z</time></trkpt><trkpt lat="45.703096568989714" lon="-0.15770936598395302"><ele>29.0</ele><time>2026-03-22T13:29:39Z</time></trkpt><trkpt lat="45.70317493021759" lon="-0.1579564121778949"><ele>29.0</ele><time>2026-03-22T13:29:41Z</time></trkpt><trkpt lat="45.70321654606558" lon="-0.15807259775258758"><ele>29.0</ele><time>2026-03-22T13:29:42Z</time></trkpt><trkpt lat="45.703268626032845" lon="-0.1581284285788564"><ele>29.0</ele><time>2026-03-22T13:29:43Z</time></trkpt><trkpt lat="45.703305239281015" lon="-0.1582055323099819"><ele>29.0</ele><time>2026-03-22T13:29:46Z</time></trkpt><trkpt lat="45.70318092910772" lon="-0.15835812762939203"><ele>29.0</ele><time>2026-03-22T13:29:47Z</time></trkpt><trkpt lat="45.70312551472212" lon="-0.1584226516620158"><ele>29.0</ele><time>2026-03-22T13:29:48Z</time></trkpt><trkpt lat="45.70300850213467" lon="-0.15854804357122135"><ele>29.0</ele><time>2026-03-22T13:29:49Z</time></trkpt><trkpt lat="45.70289163878084" lon="-0.1586510439825903"><ele>29.0</ele><time>2026-03-22T13:29:50Z</time></trkpt><trkpt lat="45.702767422998676" lon="-0.15877960209118722"><ele>29.0</ele><time>2026-03-22T13:29:51Z</time></trkpt><trkpt lat="45.70262819848411" lon="-0.15891893826446"><ele>28.799999999999997</ele><time>2026-03-22T13:29:52Z</time></trkpt><trkpt lat="45.702514303798914" lon="-0.1590379667295565"><ele>28.599999999999998</ele><time>2026-03-22T13:29:53Z</time></trkpt><trkpt lat="45.702419821816605" lon="-0.1591405333729109"><ele>28.4</ele><time>2026-03-22T13:29:54Z</time></trkpt><trkpt lat="45.702343590432015" lon="-0.15920716896677134"><ele>28.2</ele><time>2026-03-22T13:29:55Z</time></trkpt><trkpt lat="45.70227519737308" lon="-0.15928565477585538"><ele>28.0</ele><time>2026-03-22T13:29:56Z</time></trkpt><trkpt lat="45.70221276931828" lon="-0.15933516562703856"><ele>28.0</ele><time>2026-03-22T13:29:57Z</time></trkpt><trkpt lat="45.70213163198044" lon="-0.1593930573011058"><ele>27.999999999999996</ele><time>2026-03-22T13:29:58Z</time></trkpt><trkpt lat="45.702058767259665" lon="-0.15945154487953245"><ele>27.999999999999996</ele><time>2026-03-22T13:29:59Z</time></trkpt><trkpt lat="45.70197341212573" lon="-0.15950019949381936"><ele>28.0</ele><time>2026-03-22T13:30:00Z</time></trkpt><trkpt lat="45.70188037254617" lon="-0.15953951167239477"><ele>28.0</ele><time>2026-03-22T13:30:01Z</time></trkpt><trkpt lat="45.701785455332754" lon="-0.1595646301159865"><ele>27.799999999999997</ele><time>2026-03-22T13:30:02Z</time></trkpt><trkpt lat="45.701694182672576" lon="-0.15958668220828773"><ele>27.599999999999998</ele><time>2026-03-22T13:30:03Z</time></trkpt><trkpt lat="45.70159609342519" lon="-0.1596096526484323"><ele>27.400000000000002</ele><time>2026-03-22T13:30:04Z</time></trkpt><trkpt lat="45.70150461890017" lon="-0.15962887854668806"><ele>27.200000000000003</ele><time>2026-03-22T13:30:05Z</time></trkpt><trkpt lat="45.70141012819488" lon="-0.15964718396497768"><ele>27.0</ele><time>2026-03-22T13:30:06Z</time></trkpt><trkpt lat="45.701321282156584" lon="-0.15966365921267528"><ele>27.0</ele><time>2026-03-22T13:30:07Z</time></trkpt><trkpt lat="45.70123548415232" lon="-0.15967673406170954"><ele>27.000000000000004</ele><time>2026-03-22T13:30:08Z</time></trkpt><trkpt lat="45.701159112967034" lon="-0.15969933753034402"><ele>27.000000000000004</ele><time>2026-03-22T13:30:09Z</time></trkpt><trkpt lat="45.70106303012029" lon="-0.1597236178216613"><ele>27.0</ele><time>2026-03-22T13:30:10Z</time></trkpt><trkpt lat="45.70095775975325" lon="-0.1597467614827226"><ele>27.0</ele><time>2026-03-22T13:30:11Z</time></trkpt><trkpt lat="45.700844149412355" lon="-0.15978564336380408"><ele>26.8</ele><time>2026-03-22T13:30:12Z</time></trkpt><trkpt lat="45.70072266039953" lon="-0.15982248438008564"><ele>26.6</ele><time>2026-03-22T13:30:13Z</time></trkpt><trkpt lat="45.70062960349064" lon="-0.15988214541199455"><ele>26.400000000000002</ele><time>2026-03-22T13:30:14Z</time></trkpt><trkpt lat="45.700538175944395" lon="-0.15993261415408055"><ele>26.200000000000003</ele><time>2026-03-22T13:30:15Z</time></trkpt><trkpt lat="45.700441682140635" lon="-0.15999799494656364"><ele>26.0</ele><time>2026-03-22T13:30:16Z</time></trkpt><trkpt lat="45.70033249629802" lon="-0.160077218574957"><ele>26.200000000000003</ele><time>2026-03-22T13:30:17Z</time></trkpt><trkpt lat="45.7002468229606" lon="-0.16014251541062818"><ele>26.400000000000002</ele><time>2026-03-22T13:30:18Z</time></trkpt><trkpt lat="45.7001595072329" lon="-0.16021729819111508"><ele>26.6</ele><time>2026-03-22T13:30:19Z</time></trkpt><trkpt lat="45.70006030198019" lon="-0.16029197195060776"><ele>26.8</ele><time>2026-03-22T13:30:20Z</time></trkpt><trkpt lat="45.69996606503827" lon="-0.16036386664867772"><ele>27.0</ele><time>2026-03-22T13:30:21Z</time></trkpt><trkpt lat="45.699857216690184" lon="-0.16045044850646348"><ele>27.0</ele><time>2026-03-22T13:30:22Z</time></trkpt><trkpt lat="45.69974811679909" lon="-0.16054170695335435"><ele>27.0</ele><time>2026-03-22T13:30:23Z</time></trkpt><trkpt lat="45.699630579784646" lon="-0.16064522747132695"><ele>27.0</ele><time>2026-03-22T13:30:24Z</time></trkpt><trkpt lat="45.69951437259304" lon="-0.16073569646401928"><ele>27.0</ele><time>2026-03-22T13:30:25Z</time></trkpt><trkpt lat="45.69941357417988" lon="-0.16080956801693344"><ele>26.6</ele><time>2026-03-22T13:30:26Z</time></trkpt><trkpt lat="45.699326004313015" lon="-0.16087289868699395"><ele>26.200000000000003</ele><time>2026-03-22T13:30:27Z</time></trkpt><trkpt lat="45.69922453386394" lon="-0.16094853763052125"><ele>25.8</ele><time>2026-03-22T13:30:28Z</time></trkpt><trkpt lat="45.69912509173083" lon="-0.16103147842834117"><ele>25.4</ele><time>2026-03-22T13:30:29Z</time></trkpt><trkpt lat="45.69903791166444" lon="-0.161110826324479"><ele>25.0</ele><time>2026-03-22T13:30:30Z</time></trkpt><trkpt lat="45.69895976817451" lon="-0.16119595236321568"><ele>25.0</ele><time>2026-03-22T13:30:31Z</time></trkpt><trkpt lat="45.6988845596337" lon="-0.16129363823787987"><ele>25.0</ele><time>2026-03-22T13:30:32Z</time></trkpt><trkpt lat="45.69880372851531" lon="-0.16139739649117113"><ele>25.0</ele><time>2026-03-22T13:30:33Z</time></trkpt><trkpt lat="45.698742561059845" lon="-0.16149723743988156"><ele>25.0</ele><time>2026-03-22T13:30:34Z</time></trkpt><trkpt lat="45.69869369663235" lon="-0.1615974271341116"><ele>25.0</ele><time>2026-03-22T13:30:35Z</time></trkpt><trkpt lat="45.698640189513064" lon="-0.16168968867398828"><ele>25.000000000000004</ele><time>2026-03-22T13:30:36Z</time></trkpt><trkpt lat="45.69859357277259" lon="-0.16177852938890558"><ele>25.0</ele><time>2026-03-22T13:30:37Z</time></trkpt><trkpt lat="45.698536109861735" lon="-0.16187173308885508"><ele>25.0</ele><time>2026-03-22T13:30:38Z</time></trkpt><trkpt lat="45.698477967730554" lon="-0.16196747810724524"><ele>25.0</ele><time>2026-03-22T13:30:39Z</time></trkpt><trkpt lat="45.698420447309196" lon="-0.1620593634228571"><ele>25.000000000000004</ele><time>2026-03-22T13:30:40Z</time></trkpt><trkpt lat="45.69835471732346" lon="-0.1621589285054078"><ele>25.0</ele><time>2026-03-22T13:30:41Z</time></trkpt><trkpt lat="45.69829619657682" lon="-0.16226005253687598"><ele>25.166666666666668</ele><time>2026-03-22T13:30:42Z</time></trkpt><trkpt lat="45.698249214137995" lon="-0.16234709318545704"><ele>25.333333333333336</ele><time>2026-03-22T13:30:43Z</time></trkpt><trkpt lat="45.69819651413101" lon="-0.16243297160229758"><ele>25.5</ele><time>2026-03-22T13:30:44Z</time></trkpt><trkpt lat="45.69813757734265" lon="-0.16250529236877673"><ele>25.666666666666664</ele><time>2026-03-22T13:30:45Z</time></trkpt><trkpt lat="45.69806516599552" lon="-0.16257483914531373"><ele>25.833333333333332</ele><time>2026-03-22T13:30:46Z</time></trkpt><trkpt lat="45.69798876587744" lon="-0.16262045279248458"><ele>26.0</ele><time>2026-03-22T13:30:47Z</time></trkpt><trkpt lat="45.69789915973809" lon="-0.16266294240633675"><ele>25.999999999999996</ele><time>2026-03-22T13:30:48Z</time></trkpt><trkpt lat="45.69781008024852" lon="-0.16270605960678622"><ele>26.0</ele><time>2026-03-22T13:30:49Z</time></trkpt><trkpt lat="45.69774281326694" lon="-0.16273347643435473"><ele>26.0</ele><time>2026-03-22T13:30:50Z</time></trkpt><trkpt lat="45.69767169353203" lon="-0.1627592425054158"><ele>26.0</ele><time>2026-03-22T13:30:51Z</time></trkpt><trkpt lat="45.69760425767019" lon="-0.16279289455294485"><ele>25.999999999999996</ele><time>2026-03-22T13:30:52Z</time></trkpt><trkpt lat="45.6975380999932" lon="-0.1627872900293735"><ele>26.0</ele><time>2026-03-22T13:30:53Z</time></trkpt><trkpt lat="45.69745881933191" lon="-0.1628418989310185"><ele>26.200000000000003</ele><time>2026-03-22T13:30:54Z</time></trkpt><trkpt lat="45.69738651215947" lon="-0.1628843425822839"><ele>26.400000000000002</ele><time>2026-03-22T13:30:55Z</time></trkpt><trkpt lat="45.69730298820748" lon="-0.1629295984818291"><ele>26.6</ele><time>2026-03-22T13:30:56Z</time></trkpt><trkpt lat="45.69721084799889" lon="-0.16296824222537262"><ele>26.8</ele><time>2026-03-22T13:30:57Z</time></trkpt><trkpt lat="45.69711034018972" lon="-0.16302951328657708"><ele>27.0</ele><time>2026-03-22T13:30:58Z</time></trkpt><trkpt lat="45.69702081796806" lon="-0.16307790290960286"><ele>27.0</ele><time>2026-03-22T13:30:59Z</time></trkpt><trkpt lat="45.69693038688216" lon="-0.16313013590493775"><ele>27.0</ele><time>2026-03-22T13:31:00Z</time></trkpt><trkpt lat="45.69685362509659" lon="-0.16318334632450524"><ele>27.0</ele><time>2026-03-22T13:31:01Z</time></trkpt><trkpt lat="45.69678306318566" lon="-0.16323576526292824"><ele>27.0</ele><time>2026-03-22T13:31:02Z</time></trkpt><trkpt lat="45.6967051866663" lon="-0.16329861723306682"><ele>27.0</ele><time>2026-03-22T13:31:03Z</time></trkpt><trkpt lat="45.69665063452305" lon="-0.1633509503532491"><ele>27.0</ele><time>2026-03-22T13:31:04Z</time></trkpt><trkpt lat="45.69657805268135" lon="-0.1634243040242614"><ele>26.833333333333332</ele><time>2026-03-22T13:31:06Z</time></trkpt><trkpt lat="45.69651644133796" lon="-0.16347546500657956"><ele>26.666666666666664</ele><time>2026-03-22T13:31:08Z</time></trkpt><trkpt lat="45.69644187009478" lon="-0.16353954468732426"><ele>26.5</ele><time>2026-03-22T13:31:10Z</time></trkpt><trkpt lat="45.69637712573897" lon="-0.1635916621499396"><ele>26.333333333333332</ele><time>2026-03-22T13:31:11Z</time></trkpt><trkpt lat="45.6963236087808" lon="-0.16364050964557766"><ele>26.166666666666664</ele><time>2026-03-22T13:31:12Z</time></trkpt><trkpt lat="45.696266665755374" lon="-0.16369600894048034"><ele>26.0</ele><time>2026-03-22T13:31:13Z</time></trkpt><trkpt lat="45.69618824945058" lon="-0.16378131875546728"><ele>26.0</ele><time>2026-03-22T13:31:14Z</time></trkpt><trkpt lat="45.69611743225949" lon="-0.16388079993898882"><ele>26.0</ele><time>2026-03-22T13:31:15Z</time></trkpt><trkpt lat="45.69605468299388" lon="-0.16397521262146442"><ele>26.0</ele><time>2026-03-22T13:31:16Z</time></trkpt><trkpt lat="45.69600311741225" lon="-0.16407916600079614"><ele>26.0</ele><time>2026-03-22T13:31:17Z</time></trkpt><trkpt lat="45.69596371683929" lon="-0.16420767187087262"><ele>26.0</ele><time>2026-03-22T13:31:18Z</time></trkpt><trkpt lat="45.69591976638225" lon="-0.16437886243430624"><ele>25.666666666666664</ele><time>2026-03-22T13:31:19Z</time></trkpt><trkpt lat="45.69586389318589" lon="-0.16459695058439394"><ele>25.333333333333336</ele><time>2026-03-22T13:31:20Z</time></trkpt><trkpt lat="45.695804622115865" lon="-0.1648413621147093"><ele>25.0</ele><time>2026-03-22T13:31:21Z</time></trkpt><trkpt lat="45.69575374972422" lon="-0.1650508244187215"><ele>25.0</ele><time>2026-03-22T13:31:22Z</time></trkpt><trkpt lat="45.6956963876885" lon="-0.16522376500796618"><ele>25.0</ele><time>2026-03-22T13:31:23Z</time></trkpt><trkpt lat="45.69562900017238" lon="-0.16539003813889366"><ele>25.0</ele><time>2026-03-22T13:31:24Z</time></trkpt><trkpt lat="45.69555224326089" lon="-0.16556211714626612"><ele>25.0</ele><time>2026-03-22T13:31:25Z</time></trkpt><trkpt lat="45.6954601878583" lon="-0.16574305771567976"><ele>25.0</ele><time>2026-03-22T13:31:26Z</time></trkpt><trkpt lat="45.69535919493347" lon="-0.16590183488021984"><ele>25.0</ele><time>2026-03-22T13:31:27Z</time></trkpt><trkpt lat="45.69524563685169" lon="-0.1660525212624651"><ele>25.0</ele><time>2026-03-22T13:31:28Z</time></trkpt><trkpt lat="45.69512393224655" lon="-0.16620433849938135"><ele>25.0</ele><time>2026-03-22T13:31:29Z</time></trkpt><trkpt lat="45.69499326630353" lon="-0.16636969014151942"><ele>25.0</ele><time>2026-03-22T13:31:30Z</time></trkpt><trkpt lat="45.694875733390255" lon="-0.16652316835761505"><ele>25.0</ele><time>2026-03-22T13:31:31Z</time></trkpt><trkpt lat="45.694772741486275" lon="-0.16666253548140308"><ele>25.0</ele><time>2026-03-22T13:31:32Z</time></trkpt><trkpt lat="45.69466793766021" lon="-0.16678942914220737"><ele>25.0</ele><time>2026-03-22T13:31:33Z</time></trkpt><trkpt lat="45.69456447742266" lon="-0.16690112695073225"><ele>25.0</ele><time>2026-03-22T13:31:34Z</time></trkpt><trkpt lat="45.694455474729715" lon="-0.16700150592664262"><ele>25.0</ele><time>2026-03-22T13:31:35Z</time></trkpt><trkpt lat="45.69433042709269" lon="-0.16709365418094274"><ele>24.75</ele><time>2026-03-22T13:31:36Z</time></trkpt><trkpt lat="45.69420036888403" lon="-0.1671837879053509"><ele>24.5</ele><time>2026-03-22T13:31:37Z</time></trkpt><trkpt lat="45.69408461707658" lon="-0.16726907734496083"><ele>24.25</ele><time>2026-03-22T13:31:38Z</time></trkpt><trkpt lat="45.69399043923135" lon="-0.16735805553809513"><ele>24.0</ele><time>2026-03-22T13:31:39Z</time></trkpt><trkpt lat="45.69391326578942" lon="-0.167470194012986"><ele>23.75</ele><time>2026-03-22T13:31:40Z</time></trkpt><trkpt lat="45.69385313025144" lon="-0.16759989760558738"><ele>23.5</ele><time>2026-03-22T13:31:41Z</time></trkpt><trkpt lat="45.69380320616781" lon="-0.16775366050865742"><ele>23.25</ele><time>2026-03-22T13:31:42Z</time></trkpt><trkpt lat="45.69375265796201" lon="-0.1679043155760173"><ele>23.0</ele><time>2026-03-22T13:31:43Z</time></trkpt><trkpt lat="45.69369027055801" lon="-0.16806260131435674"><ele>23.25</ele><time>2026-03-22T13:31:44Z</time></trkpt><trkpt lat="45.69362246426677" lon="-0.16820947785325446"><ele>23.5</ele><time>2026-03-22T13:31:45Z</time></trkpt><trkpt lat="45.693554742032184" lon="-0.16834857532748518"><ele>23.75</ele><time>2026-03-22T13:31:46Z</time></trkpt><trkpt lat="45.69347893947795" lon="-0.16847675333087017"><ele>24.0</ele><time>2026-03-22T13:31:47Z</time></trkpt><trkpt lat="45.69340633934299" lon="-0.16859693941757"><ele>23.75</ele><time>2026-03-22T13:31:48Z</time></trkpt><trkpt lat="45.693336982404894" lon="-0.16870664518837727"><ele>23.5</ele><time>2026-03-22T13:31:49Z</time></trkpt><trkpt lat="45.69325343486848" lon="-0.16881710154880253"><ele>23.25</ele><time>2026-03-22T13:31:50Z</time></trkpt><trkpt lat="45.69316575502553" lon="-0.16892505775339267"><ele>23.0</ele><time>2026-03-22T13:31:51Z</time></trkpt><trkpt lat="45.69307773083878" lon="-0.16904353009574433"><ele>23.0</ele><time>2026-03-22T13:31:52Z</time></trkpt><trkpt lat="45.693002710042606" lon="-0.16916600163333395"><ele>23.0</ele><time>2026-03-22T13:31:53Z</time></trkpt><trkpt lat="45.6929238462494" lon="-0.16931298279819085"><ele>23.0</ele><time>2026-03-22T13:31:54Z</time></trkpt><trkpt lat="45.69284019699326" lon="-0.1694634163266728"><ele>23.0</ele><time>2026-03-22T13:31:55Z</time></trkpt><trkpt lat="45.69275944494781" lon="-0.16961691810480126"><ele>23.25</ele><time>2026-03-22T13:31:56Z</time></trkpt><trkpt lat="45.692675214942106" lon="-0.16977047490528047"><ele>23.5</ele><time>2026-03-22T13:31:57Z</time></trkpt><trkpt lat="45.692588407093375" lon="-0.16992359218875977"><ele>23.75</ele><time>2026-03-22T13:31:58Z</time></trkpt><trkpt lat="45.69249918942277" lon="-0.17006530113466578"><ele>24.0</ele><time>2026-03-22T13:31:59Z</time></trkpt><trkpt lat="45.6924020162209" lon="-0.17020741992184582"><ele>24.25</ele><time>2026-03-22T13:32:00Z</time></trkpt><trkpt lat="45.69231500884736" lon="-0.17032858452797678"><ele>24.5</ele><time>2026-03-22T13:32:01Z</time></trkpt><trkpt lat="45.69221561926082" lon="-0.17044323133661515"><ele>24.75</ele><time>2026-03-22T13:32:02Z</time></trkpt><trkpt lat="45.69214801688767" lon="-0.17057845126528903"><ele>25.0</ele><time>2026-03-22T13:32:03Z</time></trkpt><trkpt lat="45.69205960708843" lon="-0.17069347252487924"><ele>25.333333333333336</ele><time>2026-03-22T13:32:04Z</time></trkpt><trkpt lat="45.69187106787974" lon="-0.17092370783140545"><ele>25.666666666666664</ele><time>2026-03-22T13:32:06Z</time></trkpt><trkpt lat="45.69177916507332" lon="-0.1710436802491521"><ele>26.0</ele><time>2026-03-22T13:32:07Z</time></trkpt><trkpt lat="45.69168839404507" lon="-0.17117240617667664"><ele>26.0</ele><time>2026-03-22T13:32:08Z</time></trkpt><trkpt lat="45.691594966803954" lon="-0.17129783652088823"><ele>26.0</ele><time>2026-03-22T13:32:09Z</time></trkpt><trkpt lat="45.691501737184986" lon="-0.17141817615445026"><ele>26.0</ele><time>2026-03-22T13:32:10Z</time></trkpt><trkpt lat="45.69140669250148" lon="-0.17153852552330032"><ele>26.0</ele><time>2026-03-22T13:32:11Z</time></trkpt><trkpt lat="45.691315017058834" lon="-0.17165475673094027"><ele>26.0</ele><time>2026-03-22T13:32:12Z</time></trkpt><trkpt lat="45.69121977812223" lon="-0.1717758089969711"><ele>26.0</ele><time>2026-03-22T13:32:13Z</time></trkpt><trkpt lat="45.69107406155136" lon="-0.17185573684661215"><ele>26.0</ele><time>2026-03-22T13:32:14Z</time></trkpt><trkpt lat="45.690931302285286" lon="-0.1719668905531223"><ele>26.0</ele><time>2026-03-22T13:32:15Z</time></trkpt><trkpt lat="45.69078083404694" lon="-0.17205031092553932"><ele>25.75</ele><time>2026-03-22T13:32:16Z</time></trkpt><trkpt lat="45.6906236629411" lon="-0.17210639556156015"><ele>25.5</ele><time>2026-03-22T13:32:17Z</time></trkpt><trkpt lat="45.690489057585694" lon="-0.17218660995777132"><ele>25.25</ele><time>2026-03-22T13:32:18Z</time></trkpt><trkpt lat="45.69036365129616" lon="-0.1722479696807832"><ele>25.0</ele><time>2026-03-22T13:32:19Z</time></trkpt><trkpt lat="45.690244171978" lon="-0.17229915759139844"><ele>24.8</ele><time>2026-03-22T13:32:20Z</time></trkpt><trkpt lat="45.69013401524074" lon="-0.17236280424698117"><ele>24.6</ele><time>2026-03-22T13:32:21Z</time></trkpt><trkpt lat="45.690029529416556" lon="-0.17242397768564946"><ele>24.4</ele><time>2026-03-22T13:32:22Z</time></trkpt><trkpt lat="45.68993192489566" lon="-0.1724812870379276"><ele>24.2</ele><time>2026-03-22T13:32:23Z</time></trkpt><trkpt lat="45.689840153066626" lon="-0.17254409897090803"><ele>24.0</ele><time>2026-03-22T13:32:24Z</time></trkpt><trkpt lat="45.68975959388399" lon="-0.17259892862338705"><ele>24.0</ele><time>2026-03-22T13:32:25Z</time></trkpt><trkpt lat="45.68967910719575" lon="-0.17265132463832614"><ele>24.0</ele><time>2026-03-22T13:32:26Z</time></trkpt><trkpt lat="45.68960042927181" lon="-0.1727168512322882"><ele>24.0</ele><time>2026-03-22T13:32:27Z</time></trkpt><trkpt lat="45.689521037448415" lon="-0.17277968910233338"><ele>24.0</ele><time>2026-03-22T13:32:28Z</time></trkpt><trkpt lat="45.68944792827624" lon="-0.17283916100753793"><ele>24.0</ele><time>2026-03-22T13:32:29Z</time></trkpt><trkpt lat="45.6893749044578" lon="-0.17290112555829928"><ele>24.0</ele><time>2026-03-22T13:32:30Z</time></trkpt><trkpt lat="45.689308217421264" lon="-0.17297321582332745"><ele>24.2</ele><time>2026-03-22T13:32:31Z</time></trkpt><trkpt lat="45.689252196958876" lon="-0.17304353362786212"><ele>24.4</ele><time>2026-03-22T13:32:32Z</time></trkpt><trkpt lat="45.68917962396174" lon="-0.17315468688894006"><ele>24.6</ele><time>2026-03-22T13:32:34Z</time></trkpt><trkpt lat="45.68915516568931" lon="-0.17325605907208635"><ele>24.8</ele><time>2026-03-22T13:32:37Z</time></trkpt><trkpt lat="45.689119920756355" lon="-0.1733645038424253"><ele>25.0</ele><time>2026-03-22T13:32:42Z</time></trkpt><trkpt lat="45.68900130644282" lon="-0.1733493024607368"><ele>24.75</ele><time>2026-03-22T13:32:43Z</time></trkpt><trkpt lat="45.68890573901036" lon="-0.1733411562659885"><ele>24.5</ele><time>2026-03-22T13:32:44Z</time></trkpt><trkpt lat="45.688795365781196" lon="-0.173335150805009"><ele>24.25</ele><time>2026-03-22T13:32:45Z</time></trkpt><trkpt lat="45.68866240330284" lon="-0.1733350030640595"><ele>24.0</ele><time>2026-03-22T13:32:46Z</time></trkpt><trkpt lat="45.688509448613964" lon="-0.17333441469853936"><ele>24.0</ele><time>2026-03-22T13:32:47Z</time></trkpt><trkpt lat="45.68837181720291" lon="-0.17333862421973403"><ele>24.0</ele><time>2026-03-22T13:32:48Z</time></trkpt><trkpt lat="45.68824065392723" lon="-0.17334040394816283"><ele>24.0</ele><time>2026-03-22T13:32:49Z</time></trkpt><trkpt lat="45.68811080430026" lon="-0.17333762132888358"><ele>24.0</ele><time>2026-03-22T13:32:50Z</time></trkpt><trkpt lat="45.687975695010394" lon="-0.17333703621210478"><ele>24.0</ele><time>2026-03-22T13:32:51Z</time></trkpt><trkpt lat="45.6878468932319" lon="-0.1733383169799402"><ele>24.0</ele><time>2026-03-22T13:32:52Z</time></trkpt><trkpt lat="45.68772600914148" lon="-0.17333569949685224"><ele>24.0</ele><time>2026-03-22T13:32:53Z</time></trkpt><trkpt lat="45.68759320049149" lon="-0.17332113444638914"><ele>24.0</ele><time>2026-03-22T13:32:54Z</time></trkpt><trkpt lat="45.68745601048765" lon="-0.17330445124953725"><ele>24.0</ele><time>2026-03-22T13:32:55Z</time></trkpt><trkpt lat="45.68732080794924" lon="-0.17330452440838473"><ele>24.0</ele><time>2026-03-22T13:32:56Z</time></trkpt><trkpt lat="45.687186471430564" lon="-0.17330797753723956"><ele>24.0</ele><time>2026-03-22T13:32:57Z</time></trkpt><trkpt lat="45.687051598320004" lon="-0.1733134437732892"><ele>24.0</ele><time>2026-03-22T13:32:58Z</time></trkpt><trkpt lat="45.686913205778666" lon="-0.17332026212954682"><ele>23.75</ele><time>2026-03-22T13:32:59Z</time></trkpt><trkpt lat="45.686774926727296" lon="-0.17332002552095696"><ele>23.5</ele><time>2026-03-22T13:33:00Z</time></trkpt><trkpt lat="45.68663570284058" lon="-0.1733166401295923"><ele>23.25</ele><time>2026-03-22T13:33:01Z</time></trkpt><trkpt lat="45.686502506396046" lon="-0.17331370371052585"><ele>23.0</ele><time>2026-03-22T13:33:02Z</time></trkpt><trkpt lat="45.6863630958715" lon="-0.173317278643096"><ele>23.0</ele><time>2026-03-22T13:33:03Z</time></trkpt><trkpt lat="45.686232263881685" lon="-0.17331877192011413"><ele>23.0</ele><time>2026-03-22T13:33:04Z</time></trkpt><trkpt lat="45.68611047694172" lon="-0.17332304469926374"><ele>23.0</ele><time>2026-03-22T13:33:05Z</time></trkpt><trkpt lat="45.68600043544557" lon="-0.17332806856620472"><ele>23.0</ele><time>2026-03-22T13:33:06Z</time></trkpt><trkpt lat="45.685891376237755" lon="-0.1733280552148739"><ele>22.599999999999998</ele><time>2026-03-22T13:33:07Z</time></trkpt><trkpt lat="45.68578657094183" lon="-0.1733214757335556"><ele>22.2</ele><time>2026-03-22T13:33:08Z</time></trkpt><trkpt lat="45.68568760861627" lon="-0.17330875110895433"><ele>21.8</ele><time>2026-03-22T13:33:09Z</time></trkpt><trkpt lat="45.685589017406876" lon="-0.17327868735167615"><ele>21.4</ele><time>2026-03-22T13:33:10Z</time></trkpt><trkpt lat="45.685506960208656" lon="-0.17325804583273133"><ele>21.0</ele><time>2026-03-22T13:33:11Z</time></trkpt><trkpt lat="45.68539282192456" lon="-0.17328311716850736"><ele>21.0</ele><time>2026-03-22T13:33:13Z</time></trkpt><trkpt lat="45.68531955163353" lon="-0.17330383137405386"><ele>21.0</ele><time>2026-03-22T13:33:14Z</time></trkpt><trkpt lat="45.685002817018585" lon="-0.17331706141777148"><ele>21.0</ele><time>2026-03-22T13:33:16Z</time></trkpt><trkpt lat="45.68488428652827" lon="-0.17330574050691955"><ele>20.75</ele><time>2026-03-22T13:33:17Z</time></trkpt><trkpt lat="45.6847556940035" lon="-0.17330997758854935"><ele>20.5</ele><time>2026-03-22T13:33:18Z</time></trkpt><trkpt lat="45.684621671734284" lon="-0.17332092881131464"><ele>20.25</ele><time>2026-03-22T13:33:19Z</time></trkpt><trkpt lat="45.684494335786894" lon="-0.17331553755809778"><ele>20.0</ele><time>2026-03-22T13:33:20Z</time></trkpt><trkpt lat="45.684377523600105" lon="-0.1733168932807525"><ele>20.0</ele><time>2026-03-22T13:33:21Z</time></trkpt><trkpt lat="45.68426716015685" lon="-0.1733109893230257"><ele>20.0</ele><time>2026-03-22T13:33:22Z</time></trkpt><trkpt lat="45.68416306573196" lon="-0.1733112131303722"><ele>20.0</ele><time>2026-03-22T13:33:23Z</time></trkpt><trkpt lat="45.6839605086468" lon="-0.17333386421746372"><ele>20.0</ele><time>2026-03-22T13:33:25Z</time></trkpt><trkpt lat="45.6838510847091" lon="-0.17333398713810377"><ele>20.0</ele><time>2026-03-22T13:33:26Z</time></trkpt><trkpt lat="45.68369921444422" lon="-0.17333232034537951"><ele>20.0</ele><time>2026-03-22T13:33:27Z</time></trkpt><trkpt lat="45.683571859133515" lon="-0.17333336096398103"><ele>20.0</ele><time>2026-03-22T13:33:28Z</time></trkpt><trkpt lat="45.68346068626947" lon="-0.1733310365857119"><ele>20.0</ele><time>2026-03-22T13:33:29Z</time></trkpt><trkpt lat="45.68336101412819" lon="-0.17333773722702425"><ele>20.6</ele><time>2026-03-22T13:33:30Z</time></trkpt><trkpt lat="45.68326150735778" lon="-0.17334120584342472"><ele>21.2</ele><time>2026-03-22T13:33:31Z</time></trkpt><trkpt lat="45.68315811969058" lon="-0.17333834579490853"><ele>21.799999999999997</ele><time>2026-03-22T13:33:32Z</time></trkpt><trkpt lat="45.68305322573635" lon="-0.17334272535217496"><ele>22.4</ele><time>2026-03-22T13:33:33Z</time></trkpt><trkpt lat="45.682949778237266" lon="-0.17334431554077054"><ele>23.0</ele><time>2026-03-22T13:33:34Z</time></trkpt><trkpt lat="45.68284360527041" lon="-0.17334359053395232"><ele>23.799999999999997</ele><time>2026-03-22T13:33:35Z</time></trkpt><trkpt lat="45.68273267500912" lon="-0.17332293118371117"><ele>24.6</ele><time>2026-03-22T13:33:36Z</time></trkpt><trkpt lat="45.68261352550768" lon="-0.17331858217583063"><ele>25.400000000000002</ele><time>2026-03-22T13:33:37Z</time></trkpt><trkpt lat="45.68250814465343" lon="-0.17331415712223897"><ele>26.200000000000003</ele><time>2026-03-22T13:33:38Z</time></trkpt><trkpt lat="45.68239825404693" lon="-0.17331851559602351"><ele>27.0</ele><time>2026-03-22T13:33:39Z</time></trkpt><trkpt lat="45.6822982907559" lon="-0.17332696443337164"><ele>27.0</ele><time>2026-03-22T13:33:40Z</time></trkpt><trkpt lat="45.68219952237968" lon="-0.17333470043124558"><ele>27.000000000000004</ele><time>2026-03-22T13:33:41Z</time></trkpt><trkpt lat="45.68209963935903" lon="-0.17333639253091102"><ele>27.000000000000004</ele><time>2026-03-22T13:33:42Z</time></trkpt><trkpt lat="45.68199727319345" lon="-0.1733399287160536"><ele>27.0</ele><time>2026-03-22T13:33:43Z</time></trkpt><trkpt lat="45.68189488354463" lon="-0.1733638975311192"><ele>27.0</ele><time>2026-03-22T13:33:44Z</time></trkpt><trkpt lat="45.681794190266906" lon="-0.17339909664647976"><ele>27.5</ele><time>2026-03-22T13:33:45Z</time></trkpt><trkpt lat="45.68170026640838" lon="-0.17343141266578246"><ele>28.0</ele><time>2026-03-22T13:33:46Z</time></trkpt><trkpt lat="45.68161954516782" lon="-0.1734521072026005"><ele>28.5</ele><time>2026-03-22T13:33:47Z</time></trkpt><trkpt lat="45.681519593375754" lon="-0.17340211602626915"><ele>29.0</ele><time>2026-03-22T13:33:49Z</time></trkpt><trkpt lat="45.681495408285585" lon="-0.17331557114083374"><ele>29.5</ele><time>2026-03-22T13:33:50Z</time></trkpt><trkpt lat="45.681498916258974" lon="-0.17318884236168341"><ele>30.0</ele><time>2026-03-22T13:33:51Z</time></trkpt><trkpt lat="45.681506053607514" lon="-0.1730515998051506"><ele>30.5</ele><time>2026-03-22T13:33:52Z</time></trkpt><trkpt lat="45.68148638785242" lon="-0.17291466496383903"><ele>31.0</ele><time>2026-03-22T13:33:53Z</time></trkpt><trkpt lat="45.68147813671958" lon="-0.1727853833312445"><ele>31.5</ele><time>2026-03-22T13:33:54Z</time></trkpt><trkpt lat="45.68147611963832" lon="-0.17266688368219474"><ele>32.0</ele><time>2026-03-22T13:33:55Z</time></trkpt><trkpt lat="45.68146781783138" lon="-0.17257620494976547"><ele>32.5</ele><time>2026-03-22T13:33:56Z</time></trkpt><trkpt lat="45.68141951081484" lon="-0.1724783071395895"><ele>33.0</ele><time>2026-03-22T13:33:59Z</time></trkpt><trkpt lat="45.681352213369934" lon="-0.17248276574615362"><ele>33.0</ele><time>2026-03-22T13:34:01Z</time></trkpt><trkpt lat="45.68124572954864" lon="-0.17254773635910908"><ele>33.0</ele><time>2026-03-22T13:34:03Z</time></trkpt><trkpt lat="45.681182925119856" lon="-0.17259948641409914"><ele>33.0</ele><time>2026-03-22T13:34:04Z</time></trkpt><trkpt lat="45.681101634543786" lon="-0.17265108086712094"><ele>33.0</ele><time>2026-03-22T13:34:05Z</time></trkpt><trkpt lat="45.681005593507" lon="-0.17270976425550572"><ele>33.0</ele><time>2026-03-22T13:34:06Z</time></trkpt><trkpt lat="45.680930529209306" lon="-0.1727678657498799"><ele>32.4</ele><time>2026-03-22T13:34:07Z</time></trkpt><trkpt lat="45.68086353430826" lon="-0.17282999177093022"><ele>31.799999999999997</ele><time>2026-03-22T13:34:08Z</time></trkpt><trkpt lat="45.68075925779428" lon="-0.17289218617881363"><ele>31.2</ele><time>2026-03-22T13:34:09Z</time></trkpt><trkpt lat="45.68066483299035" lon="-0.17294484024883564"><ele>30.6</ele><time>2026-03-22T13:34:10Z</time></trkpt><trkpt lat="45.6805547086981" lon="-0.17301785941514136"><ele>30.0</ele><time>2026-03-22T13:34:11Z</time></trkpt><trkpt lat="45.68043509848909" lon="-0.1730945547579182"><ele>30.0</ele><time>2026-03-22T13:34:12Z</time></trkpt><trkpt lat="45.68031707479356" lon="-0.1731743974984934"><ele>30.0</ele><time>2026-03-22T13:34:13Z</time></trkpt><trkpt lat="45.68019212388458" lon="-0.1732525121013584"><ele>30.0</ele><time>2026-03-22T13:34:14Z</time></trkpt><trkpt lat="45.68008062871983" lon="-0.1733241337369844"><ele>30.0</ele><time>2026-03-22T13:34:15Z</time></trkpt><trkpt lat="45.67994125620665" lon="-0.17341545484989318"><ele>28.5</ele><time>2026-03-22T13:34:16Z</time></trkpt><trkpt lat="45.679815753408796" lon="-0.1734988561534962"><ele>27.0</ele><time>2026-03-22T13:34:17Z</time></trkpt><trkpt lat="45.67968880673299" lon="-0.17358176186526514"><ele>25.5</ele><time>2026-03-22T13:34:18Z</time></trkpt><trkpt lat="45.67956168619218" lon="-0.17366747636029128"><ele>24.0</ele><time>2026-03-22T13:34:19Z</time></trkpt><trkpt lat="45.67943184732175" lon="-0.173758318676417"><ele>22.666666666666668</ele><time>2026-03-22T13:34:20Z</time></trkpt><trkpt lat="45.67928301949024" lon="-0.17385672485696374"><ele>21.333333333333336</ele><time>2026-03-22T13:34:21Z</time></trkpt><trkpt lat="45.67913421454468" lon="-0.17395630311464153"><ele>20.0</ele><time>2026-03-22T13:34:22Z</time></trkpt><trkpt lat="45.678993833424364" lon="-0.1740495900805711"><ele>20.0</ele><time>2026-03-22T13:34:23Z</time></trkpt><trkpt lat="45.678871137754584" lon="-0.17413682732355534"><ele>20.0</ele><time>2026-03-22T13:34:24Z</time></trkpt><trkpt lat="45.67874592959147" lon="-0.1742166949946306"><ele>20.0</ele><time>2026-03-22T13:34:25Z</time></trkpt><trkpt lat="45.67861574111114" lon="-0.17430827353795134"><ele>20.0</ele><time>2026-03-22T13:34:26Z</time></trkpt><trkpt lat="45.678476320594534" lon="-0.17440451030855528"><ele>18.333333333333336</ele><time>2026-03-22T13:34:27Z</time></trkpt><trkpt lat="45.6783327671289" lon="-0.17449884392675455"><ele>16.666666666666668</ele><time>2026-03-22T13:34:28Z</time></trkpt><trkpt lat="45.67817263535279" lon="-0.1746059755623535"><ele>15.0</ele><time>2026-03-22T13:34:29Z</time></trkpt><trkpt lat="45.67800785590367" lon="-0.17471166144279374"><ele>15.0</ele><time>2026-03-22T13:34:30Z</time></trkpt><trkpt lat="45.677814660321886" lon="-0.17483534196136397"><ele>15.0</ele><time>2026-03-22T13:34:31Z</time></trkpt><trkpt lat="45.67760317006557" lon="-0.17497575442191365"><ele>15.0</ele><time>2026-03-22T13:34:32Z</time></trkpt><trkpt lat="45.677361060660445" lon="-0.17513815247490933"><ele>15.0</ele><time>2026-03-22T13:34:33Z</time></trkpt><trkpt lat="45.6771014004522" lon="-0.1753087422517103"><ele>15.0</ele><time>2026-03-22T13:34:34Z</time></trkpt><trkpt lat="45.676825178246666" lon="-0.1754920904855142"><ele>15.0</ele><time>2026-03-22T13:34:35Z</time></trkpt><trkpt lat="45.67655866774282" lon="-0.17567062869019862"><ele>15.0</ele><time>2026-03-22T13:34:36Z</time></trkpt><trkpt lat="45.67631236824712" lon="-0.1758370524831581"><ele>15.0</ele><time>2026-03-22T13:34:37Z</time></trkpt><trkpt lat="45.676064962444876" lon="-0.1759982874532269"><ele>15.0</ele><time>2026-03-22T13:34:38Z</time></trkpt><trkpt lat="45.67582647260964" lon="-0.17615656228977725"><ele>15.0</ele><time>2026-03-22T13:34:39Z</time></trkpt><trkpt lat="45.675590310452286" lon="-0.17631569421686474"><ele>15.0</ele><time>2026-03-22T13:34:40Z</time></trkpt><trkpt lat="45.675351831506966" lon="-0.17647327741181232"><ele>15.5</ele><time>2026-03-22T13:34:41Z</time></trkpt><trkpt lat="45.67511628479346" lon="-0.17662868681756727"><ele>16.0</ele><time>2026-03-22T13:34:42Z</time></trkpt><trkpt lat="45.674874665432405" lon="-0.17678441934615857"><ele>16.0</ele><time>2026-03-22T13:34:43Z</time></trkpt><trkpt lat="45.67463621550948" lon="-0.1769408661728655"><ele>16.0</ele><time>2026-03-22T13:34:44Z</time></trkpt><trkpt lat="45.674396013539976" lon="-0.17710502545715207"><ele>16.0</ele><time>2026-03-22T13:34:45Z</time></trkpt><trkpt lat="45.67416142888785" lon="-0.17726021024916308"><ele>16.0</ele><time>2026-03-22T13:34:46Z</time></trkpt><trkpt lat="45.67391546002639" lon="-0.17742545475553892"><ele>16.0</ele><time>2026-03-22T13:34:47Z</time></trkpt><trkpt lat="45.673664790101256" lon="-0.17758172262753216"><ele>16.0</ele><time>2026-03-22T13:34:48Z</time></trkpt><trkpt lat="45.67341866930392" lon="-0.17774685810270102"><ele>14.5</ele><time>2026-03-22T13:34:49Z</time></trkpt><trkpt lat="45.67318055314065" lon="-0.17790723360178853"><ele>13.0</ele><time>2026-03-22T13:34:50Z</time></trkpt><trkpt lat="45.67294280588755" lon="-0.17805937758584459"><ele>14.0</ele><time>2026-03-22T13:34:51Z</time></trkpt><trkpt lat="45.67271553806936" lon="-0.17820728232042596"><ele>15.0</ele><time>2026-03-22T13:34:52Z</time></trkpt><trkpt lat="45.672497563947815" lon="-0.17835365948820717"><ele>15.0</ele><time>2026-03-22T13:34:53Z</time></trkpt><trkpt lat="45.67226684049206" lon="-0.17850523223603504"><ele>15.0</ele><time>2026-03-22T13:34:54Z</time></trkpt><trkpt lat="45.67203060078342" lon="-0.17865657052089567"><ele>15.0</ele><time>2026-03-22T13:34:55Z</time></trkpt><trkpt lat="45.671810003498265" lon="-0.17880161733776226"><ele>15.0</ele><time>2026-03-22T13:34:56Z</time></trkpt><trkpt lat="45.6716040188637" lon="-0.17895241131508047"><ele>14.0</ele><time>2026-03-22T13:34:57Z</time></trkpt><trkpt lat="45.671402008859964" lon="-0.17910321762009923"><ele>13.0</ele><time>2026-03-22T13:34:58Z</time></trkpt><trkpt lat="45.67115552540094" lon="-0.17924698696927296"><ele>13.5</ele><time>2026-03-22T13:34:59Z</time></trkpt><trkpt lat="45.670902956661" lon="-0.179411606451327"><ele>14.0</ele><time>2026-03-22T13:35:00Z</time></trkpt><trkpt lat="45.67064395470644" lon="-0.17958526981140427"><ele>14.0</ele><time>2026-03-22T13:35:01Z</time></trkpt><trkpt lat="45.67037106010988" lon="-0.17976444240827302"><ele>14.0</ele><time>2026-03-22T13:35:02Z</time></trkpt><trkpt lat="45.670127794353846" lon="-0.17993519944902142"><ele>13.5</ele><time>2026-03-22T13:35:03Z</time></trkpt><trkpt lat="45.66990873388558" lon="-0.18009096380189804"><ele>13.0</ele><time>2026-03-22T13:35:04Z</time></trkpt><trkpt lat="45.66967038400397" lon="-0.18022988567413734"><ele>13.0</ele><time>2026-03-22T13:35:05Z</time></trkpt><trkpt lat="45.66945690395471" lon="-0.1803700629549846"><ele>13.0</ele><time>2026-03-22T13:35:06Z</time></trkpt><trkpt lat="45.66926974486695" lon="-0.18050352243590656"><ele>13.0</ele><time>2026-03-22T13:35:07Z</time></trkpt><trkpt lat="45.669106659572016" lon="-0.18062911949805713"><ele>13.666666666666666</ele><time>2026-03-22T13:35:08Z</time></trkpt><trkpt lat="45.668972176167905" lon="-0.18077481562318354"><ele>14.333333333333332</ele><time>2026-03-22T13:35:09Z</time></trkpt><trkpt lat="45.66885979533028" lon="-0.18094099961476312"><ele>15.0</ele><time>2026-03-22T13:35:10Z</time></trkpt><trkpt lat="45.66880581739309" lon="-0.18113422750943065"><ele>15.0</ele><time>2026-03-22T13:35:11Z</time></trkpt><trkpt lat="45.66878446074761" lon="-0.18135317419848407"><ele>15.0</ele><time>2026-03-22T13:35:12Z</time></trkpt><trkpt lat="45.66878313125726" lon="-0.18161304433368455"><ele>15.0</ele><time>2026-03-22T13:35:13Z</time></trkpt><trkpt lat="45.66879253344306" lon="-0.18187453522449987"><ele>14.666666666666668</ele><time>2026-03-22T13:35:14Z</time></trkpt><trkpt lat="45.66880704857669" lon="-0.18217151796769462"><ele>14.333333333333334</ele><time>2026-03-22T13:35:15Z</time></trkpt><trkpt lat="45.66882086078997" lon="-0.18249247046702086"><ele>14.0</ele><time>2026-03-22T13:35:16Z</time></trkpt><trkpt lat="45.66883281008457" lon="-0.1828194625094175"><ele>14.0</ele><time>2026-03-22T13:35:17Z</time></trkpt><trkpt lat="45.66883982568798" lon="-0.18314473061595696"><ele>14.0</ele><time>2026-03-22T13:35:18Z</time></trkpt><trkpt lat="45.66884381272168" lon="-0.18349079777500085"><ele>14.5</ele><time>2026-03-22T13:35:19Z</time></trkpt><trkpt lat="45.668843789016734" lon="-0.18382680361703058"><ele>15.0</ele><time>2026-03-22T13:35:20Z</time></trkpt><trkpt lat="45.668853678576795" lon="-0.18418275914289037"><ele>16.0</ele><time>2026-03-22T13:35:21Z</time></trkpt><trkpt lat="45.66886795152302" lon="-0.18456079661912556"><ele>17.0</ele><time>2026-03-22T13:35:22Z</time></trkpt><trkpt lat="45.66887439279799" lon="-0.1849055538657122"><ele>18.333333333333336</ele><time>2026-03-22T13:35:23Z</time></trkpt><trkpt lat="45.668877747687425" lon="-0.18521737071830338"><ele>19.666666666666668</ele><time>2026-03-22T13:35:24Z</time></trkpt><trkpt lat="45.66890245125605" lon="-0.18552461922480007"><ele>21.0</ele><time>2026-03-22T13:35:25Z</time></trkpt><trkpt lat="45.66895164092387" lon="-0.1858360272473532"><ele>23.0</ele><time>2026-03-22T13:35:26Z</time></trkpt><trkpt lat="45.6690122203172" lon="-0.18613674344476164"><ele>25.0</ele><time>2026-03-22T13:35:27Z</time></trkpt><trkpt lat="45.66907209148396" lon="-0.18643873584949067"><ele>27.0</ele><time>2026-03-22T13:35:28Z</time></trkpt><trkpt lat="45.669131344562935" lon="-0.18674326615315903"><ele>28.666666666666664</ele><time>2026-03-22T13:35:29Z</time></trkpt><trkpt lat="45.669191417207706" lon="-0.18704241438196945"><ele>30.333333333333332</ele><time>2026-03-22T13:35:30Z</time></trkpt><trkpt lat="45.669240034999454" lon="-0.1873184054323319"><ele>32.0</ele><time>2026-03-22T13:35:31Z</time></trkpt><trkpt lat="45.669289576834004" lon="-0.18759273729786288"><ele>34.0</ele><time>2026-03-22T13:35:32Z</time></trkpt><trkpt lat="45.669356768623565" lon="-0.18786378922531866"><ele>36.0</ele><time>2026-03-22T13:35:33Z</time></trkpt><trkpt lat="45.669441283486684" lon="-0.18808087029965515"><ele>38.0</ele><time>2026-03-22T13:35:34Z</time></trkpt><trkpt lat="45.66953094743382" lon="-0.18824855798344853"><ele>33.25</ele><time>2026-03-22T13:35:35Z</time></trkpt><trkpt lat="45.66960032009116" lon="-0.18841103078729446"><ele>28.5</ele><time>2026-03-22T13:35:36Z</time></trkpt><trkpt lat="45.66962210954836" lon="-0.18857134589659932"><ele>23.75</ele><time>2026-03-22T13:35:37Z</time></trkpt><trkpt lat="45.66961671262647" lon="-0.1887189088760577"><ele>19.0</ele><time>2026-03-22T13:35:38Z</time></trkpt><trkpt lat="45.66957665484183" lon="-0.18885248964099932"><ele>19.0</ele><time>2026-03-22T13:35:39Z</time></trkpt><trkpt lat="45.66954425618311" lon="-0.18897557501164367"><ele>19.0</ele><time>2026-03-22T13:35:40Z</time></trkpt><trkpt lat="45.669534233014964" lon="-0.18911808134591546"><ele>19.0</ele><time>2026-03-22T13:35:41Z</time></trkpt><trkpt lat="45.66952675081715" lon="-0.189237263495603"><ele>19.0</ele><time>2026-03-22T13:35:42Z</time></trkpt><trkpt lat="45.6694816792187" lon="-0.18930802956511614"><ele>19.0</ele><time>2026-03-22T13:35:43Z</time></trkpt><trkpt lat="45.6694125682346" lon="-0.18931646294799664"><ele>19.0</ele><time>2026-03-22T13:35:44Z</time></trkpt><trkpt lat="45.66932270254633" lon="-0.18928456018304365"><ele>24.0</ele><time>2026-03-22T13:35:45Z</time></trkpt><trkpt lat="45.66920789949752" lon="-0.18920534854088425"><ele>29.0</ele><time>2026-03-22T13:35:46Z</time></trkpt><trkpt lat="45.6690606738515" lon="-0.18914102500001112"><ele>34.0</ele><time>2026-03-22T13:35:47Z</time></trkpt><trkpt lat="45.6689106559712" lon="-0.18913645408657426"><ele>39.0</ele><time>2026-03-22T13:35:48Z</time></trkpt><trkpt lat="45.66879256798415" lon="-0.1891515140328402"><ele>39.0</ele><time>2026-03-22T13:35:49Z</time></trkpt><trkpt lat="45.66868815293357" lon="-0.18916859976873956"><ele>39.0</ele><time>2026-03-22T13:35:50Z</time></trkpt><trkpt lat="45.66860211821041" lon="-0.1892088015347517"><ele>39.0</ele><time>2026-03-22T13:35:51Z</time></trkpt><trkpt lat="45.6685159114874" lon="-0.18926863712955275"><ele>39.0</ele><time>2026-03-22T13:35:52Z</time></trkpt><trkpt lat="45.66844210562877" lon="-0.1893104719782737"><ele>39.0</ele><time>2026-03-22T13:35:53Z</time></trkpt><trkpt lat="45.66837707380897" lon="-0.1892819451854235"><ele>39.0</ele><time>2026-03-22T13:35:54Z</time></trkpt><trkpt lat="45.66834277236622" lon="-0.1891735820209134"><ele>40.25</ele><time>2026-03-22T13:35:55Z</time></trkpt><trkpt lat="45.66831907621076" lon="-0.18904711584443748"><ele>41.5</ele><time>2026-03-22T13:35:56Z</time></trkpt><trkpt lat="45.66833119057222" lon="-0.18883942996385578"><ele>42.75</ele><time>2026-03-22T13:35:57Z</time></trkpt><trkpt lat="45.668299904184856" lon="-0.18859896996674638"><ele>44.0</ele><time>2026-03-22T13:35:58Z</time></trkpt><trkpt lat="45.66826273743951" lon="-0.1883221760310243"><ele>45.666666666666664</ele><time>2026-03-22T13:35:59Z</time></trkpt><trkpt lat="45.66819825859392" lon="-0.18804691948195704"><ele>47.33333333333333</ele><time>2026-03-22T13:36:00Z</time></trkpt><trkpt lat="45.66813031489153" lon="-0.18783265746552413"><ele>49.0</ele><time>2026-03-22T13:36:01Z</time></trkpt><trkpt lat="45.66804833266657" lon="-0.18764691534769198"><ele>49.0</ele><time>2026-03-22T13:36:02Z</time></trkpt><trkpt lat="45.66794176477204" lon="-0.18747237620779297"><ele>49.0</ele><time>2026-03-22T13:36:03Z</time></trkpt><trkpt lat="45.66780856426378" lon="-0.18731475241372425"><ele>49.0</ele><time>2026-03-22T13:36:04Z</time></trkpt><trkpt lat="45.6676538263145" lon="-0.18716748661420415"><ele>51.0</ele><time>2026-03-22T13:36:05Z</time></trkpt><trkpt lat="45.66747426684679" lon="-0.1870559218998041"><ele>53.0</ele><time>2026-03-22T13:36:06Z</time></trkpt><trkpt lat="45.66727576227368" lon="-0.18695155692611862"><ele>55.0</ele><time>2026-03-22T13:36:07Z</time></trkpt><trkpt lat="45.66704535489037" lon="-0.18682880927636616"><ele>55.0</ele><time>2026-03-22T13:36:08Z</time></trkpt><trkpt lat="45.66680808014762" lon="-0.18673703884498385"><ele>55.0</ele><time>2026-03-22T13:36:09Z</time></trkpt><trkpt lat="45.666577297132065" lon="-0.18661956168049365"><ele>55.0</ele><time>2026-03-22T13:36:10Z</time></trkpt><trkpt lat="45.6663769769708" lon="-0.18652980740639016"><ele>55.0</ele><time>2026-03-22T13:36:11Z</time></trkpt><trkpt lat="45.666189706175444" lon="-0.1864682504291278"><ele>55.0</ele><time>2026-03-22T13:36:12Z</time></trkpt><trkpt lat="45.6660214916154" lon="-0.18645936452989897"><ele>55.666666666666664</ele><time>2026-03-22T13:36:13Z</time></trkpt><trkpt lat="45.66583060969394" lon="-0.18648484891871095"><ele>56.33333333333333</ele><time>2026-03-22T13:36:14Z</time></trkpt><trkpt lat="45.66562943822562" lon="-0.18658424669836277"><ele>57.0</ele><time>2026-03-22T13:36:15Z</time></trkpt><trkpt lat="45.665411151802545" lon="-0.1866843546466788"><ele>54.0</ele><time>2026-03-22T13:36:16Z</time></trkpt><trkpt lat="45.6651791534339" lon="-0.18677928676551198"><ele>51.0</ele><time>2026-03-22T13:36:17Z</time></trkpt><trkpt lat="45.66492721630735" lon="-0.18687549806096793"><ele>51.0</ele><time>2026-03-22T13:36:18Z</time></trkpt><trkpt lat="45.664670156594475" lon="-0.18697575627771182"><ele>51.0</ele><time>2026-03-22T13:36:19Z</time></trkpt><trkpt lat="45.66441842569888" lon="-0.18707212964250333"><ele>51.0</ele><time>2026-03-22T13:36:20Z</time></trkpt><trkpt lat="45.66416244103922" lon="-0.1871742426246839"><ele>51.0</ele><time>2026-03-22T13:36:21Z</time></trkpt><trkpt lat="45.66390795043054" lon="-0.18730121727743518"><ele>51.0</ele><time>2026-03-22T13:36:22Z</time></trkpt><trkpt lat="45.663657040937636" lon="-0.18738677443271043"><ele>51.0</ele><time>2026-03-22T13:36:23Z</time></trkpt><trkpt lat="45.66340864049014" lon="-0.18747854939930977"><ele>51.0</ele><time>2026-03-22T13:36:24Z</time></trkpt><trkpt lat="45.66315577424346" lon="-0.18757587492036099"><ele>51.0</ele><time>2026-03-22T13:36:25Z</time></trkpt><trkpt lat="45.66292670981318" lon="-0.18767114346235855"><ele>50.5</ele><time>2026-03-22T13:36:26Z</time></trkpt><trkpt lat="45.66270216777593" lon="-0.18775931197905046"><ele>50.0</ele><time>2026-03-22T13:36:27Z</time></trkpt><trkpt lat="45.66247319430824" lon="-0.1878468700106626"><ele>50.0</ele><time>2026-03-22T13:36:28Z</time></trkpt><trkpt lat="45.66223197845804" lon="-0.1879496814529661"><ele>50.0</ele><time>2026-03-22T13:36:29Z</time></trkpt><trkpt lat="45.661985049059396" lon="-0.1880611607627076"><ele>49.5</ele><time>2026-03-22T13:36:30Z</time></trkpt><trkpt lat="45.66172564921647" lon="-0.18818647841813388"><ele>49.0</ele><time>2026-03-22T13:36:31Z</time></trkpt><trkpt lat="45.66146005179075" lon="-0.18831751595140403"><ele>49.0</ele><time>2026-03-22T13:36:32Z</time></trkpt><trkpt lat="45.661199211060875" lon="-0.1884631047751622"><ele>49.0</ele><time>2026-03-22T13:36:33Z</time></trkpt><trkpt lat="45.66093205977569" lon="-0.1885905780541476"><ele>47.0</ele><time>2026-03-22T13:36:34Z</time></trkpt><trkpt lat="45.66068722213443" lon="-0.18872049588763984"><ele>45.0</ele><time>2026-03-22T13:36:35Z</time></trkpt><trkpt lat="45.66043793139554" lon="-0.1888504894376285"><ele>43.0</ele><time>2026-03-22T13:36:36Z</time></trkpt><trkpt lat="45.66019187004077" lon="-0.1889772237015179"><ele>41.0</ele><time>2026-03-22T13:36:37Z</time></trkpt><trkpt lat="45.65994408226364" lon="-0.18909588043614847"><ele>40.5</ele><time>2026-03-22T13:36:38Z</time></trkpt><trkpt lat="45.659701915046575" lon="-0.1892160955814198"><ele>40.0</ele><time>2026-03-22T13:36:39Z</time></trkpt><trkpt lat="45.659459780585095" lon="-0.18934660414520726"><ele>39.5</ele><time>2026-03-22T13:36:40Z</time></trkpt><trkpt lat="45.659222264030305" lon="-0.18947603032303045"><ele>39.0</ele><time>2026-03-22T13:36:41Z</time></trkpt><trkpt lat="45.65899892582324" lon="-0.18961148415036802"><ele>39.0</ele><time>2026-03-22T13:36:42Z</time></trkpt><trkpt lat="45.65877364200679" lon="-0.18975204446282715"><ele>39.0</ele><time>2026-03-22T13:36:43Z</time></trkpt><trkpt lat="45.6585528035266" lon="-0.1898879399582138"><ele>36.5</ele><time>2026-03-22T13:36:44Z</time></trkpt><trkpt lat="45.65831834571277" lon="-0.18999246860170896"><ele>34.0</ele><time>2026-03-22T13:36:45Z</time></trkpt><trkpt lat="45.65806288827284" lon="-0.19009645745957865"><ele>33.0</ele><time>2026-03-22T13:36:46Z</time></trkpt><trkpt lat="45.65778470290154" lon="-0.19017802477933832"><ele>32.0</ele><time>2026-03-22T13:36:47Z</time></trkpt><trkpt lat="45.657511434673594" lon="-0.19027699169477194"><ele>32.0</ele><time>2026-03-22T13:36:48Z</time></trkpt><trkpt lat="45.65726395199747" lon="-0.19034996445771737"><ele>32.0</ele><time>2026-03-22T13:36:49Z</time></trkpt><trkpt lat="45.65699574422025" lon="-0.19039340541452018"><ele>30.5</ele><time>2026-03-22T13:36:50Z</time></trkpt><trkpt lat="45.65673553427179" lon="-0.19041771304027982"><ele>29.0</ele><time>2026-03-22T13:36:51Z</time></trkpt><trkpt lat="45.656502899592454" lon="-0.19044419048026717"><ele>29.0</ele><time>2026-03-22T13:36:52Z</time></trkpt><trkpt lat="45.6562986334547" lon="-0.1905102095839515"><ele>29.0</ele><time>2026-03-22T13:36:53Z</time></trkpt><trkpt lat="45.65609564300796" lon="-0.19060506518892012"><ele>29.0</ele><time>2026-03-22T13:36:54Z</time></trkpt><trkpt lat="45.65591853119082" lon="-0.1907537985338864"><ele>28.0</ele><time>2026-03-22T13:36:55Z</time></trkpt><trkpt lat="45.65575112630926" lon="-0.1909589024372731"><ele>27.0</ele><time>2026-03-22T13:36:56Z</time></trkpt><trkpt lat="45.655580007094954" lon="-0.1911945698157523"><ele>27.0</ele><time>2026-03-22T13:36:57Z</time></trkpt><trkpt lat="45.655398039704934" lon="-0.1914090171107121"><ele>27.0</ele><time>2026-03-22T13:36:58Z</time></trkpt><trkpt lat="45.65521297275257" lon="-0.1915835032747582"><ele>24.5</ele><time>2026-03-22T13:36:59Z</time></trkpt><trkpt lat="45.65500927226508" lon="-0.1917117919285034"><ele>22.0</ele><time>2026-03-22T13:37:00Z</time></trkpt><trkpt lat="45.65478259130144" lon="-0.1918123493879126"><ele>22.0</ele><time>2026-03-22T13:37:01Z</time></trkpt><trkpt lat="45.654551961750116" lon="-0.19189893511902253"><ele>22.0</ele><time>2026-03-22T13:37:02Z</time></trkpt><trkpt lat="45.65428345767501" lon="-0.19197280304284206"><ele>21.5</ele><time>2026-03-22T13:37:03Z</time></trkpt><trkpt lat="45.65401246420487" lon="-0.19204805143275844"><ele>21.0</ele><time>2026-03-22T13:37:04Z</time></trkpt><trkpt lat="45.65373867825051" lon="-0.19212438848949095"><ele>21.0</ele><time>2026-03-22T13:37:05Z</time></trkpt><trkpt lat="45.65346666640496" lon="-0.19217056581258593"><ele>21.0</ele><time>2026-03-22T13:37:06Z</time></trkpt><trkpt lat="45.653222752002065" lon="-0.19220752031800747"><ele>21.0</ele><time>2026-03-22T13:37:07Z</time></trkpt><trkpt lat="45.652978095239654" lon="-0.1922172232525954"><ele>21.0</ele><time>2026-03-22T13:37:08Z</time></trkpt><trkpt lat="45.652737207642204" lon="-0.19218829628603679"><ele>21.5</ele><time>2026-03-22T13:37:09Z</time></trkpt><trkpt lat="45.65250503783562" lon="-0.19214269485692698"><ele>22.0</ele><time>2026-03-22T13:37:10Z</time></trkpt><trkpt lat="45.65225549994794" lon="-0.1920596982519754"><ele>22.0</ele><time>2026-03-22T13:37:11Z</time></trkpt><trkpt lat="45.652006073559484" lon="-0.19195929338449766"><ele>22.0</ele><time>2026-03-22T13:37:12Z</time></trkpt><trkpt lat="45.651774432428574" lon="-0.19187102296772374"><ele>23.666666666666664</ele><time>2026-03-22T13:37:13Z</time></trkpt><trkpt lat="45.65155919509816" lon="-0.1917961303393205"><ele>25.333333333333332</ele><time>2026-03-22T13:37:14Z</time></trkpt><trkpt lat="45.65134885164317" lon="-0.19180421032212758"><ele>27.0</ele><time>2026-03-22T13:37:15Z</time></trkpt><trkpt lat="45.6511612620194" lon="-0.19181432049103112"><ele>27.0</ele><time>2026-03-22T13:37:16Z</time></trkpt><trkpt lat="45.65093499490386" lon="-0.19188389860429997"><ele>27.0</ele><time>2026-03-22T13:37:17Z</time></trkpt><trkpt lat="45.650739424922584" lon="-0.19196871476495628"><ele>27.0</ele><time>2026-03-22T13:37:18Z</time></trkpt><trkpt lat="45.650573429427716" lon="-0.19201263883307293"><ele>27.0</ele><time>2026-03-22T13:37:19Z</time></trkpt><trkpt lat="45.65041602090845" lon="-0.19200251359137016"><ele>27.0</ele><time>2026-03-22T13:37:20Z</time></trkpt><trkpt lat="45.650262568191565" lon="-0.19192110462471146"><ele>27.0</ele><time>2026-03-22T13:37:21Z</time></trkpt><trkpt lat="45.65009590466543" lon="-0.19181440281003478"><ele>27.666666666666664</ele><time>2026-03-22T13:37:22Z</time></trkpt><trkpt lat="45.64991503736835" lon="-0.19167859135576004"><ele>28.333333333333332</ele><time>2026-03-22T13:37:23Z</time></trkpt><trkpt lat="45.649728721218445" lon="-0.19152685099766578"><ele>29.0</ele><time>2026-03-22T13:37:24Z</time></trkpt><trkpt lat="45.64954744109093" lon="-0.19138307647706235"><ele>28.666666666666664</ele><time>2026-03-22T13:37:25Z</time></trkpt><trkpt lat="45.649376356737754" lon="-0.1912818498275735"><ele>28.333333333333336</ele><time>2026-03-22T13:37:26Z</time></trkpt><trkpt lat="45.64920761670019" lon="-0.19123228184892144"><ele>28.0</ele><time>2026-03-22T13:37:27Z</time></trkpt><trkpt lat="45.64904176523499" lon="-0.19121365161389897"><ele>28.0</ele><time>2026-03-22T13:37:28Z</time></trkpt><trkpt lat="45.648848701801974" lon="-0.19124531614034188"><ele>28.0</ele><time>2026-03-22T13:37:29Z</time></trkpt><trkpt lat="45.648645673938745" lon="-0.1913098447071645"><ele>28.0</ele><time>2026-03-22T13:37:30Z</time></trkpt><trkpt lat="45.64843828108018" lon="-0.19141249686647938"><ele>29.0</ele><time>2026-03-22T13:37:31Z</time></trkpt><trkpt lat="45.64821630745271" lon="-0.19152662482480856"><ele>30.0</ele><time>2026-03-22T13:37:32Z</time></trkpt><trkpt lat="45.64798097969248" lon="-0.19164198384407058"><ele>30.0</ele><time>2026-03-22T13:37:33Z</time></trkpt><trkpt lat="45.64775086398234" lon="-0.19174425419832353"><ele>30.0</ele><time>2026-03-22T13:37:34Z</time></trkpt><trkpt lat="45.64753344504294" lon="-0.19187462019405363"><ele>30.0</ele><time>2026-03-22T13:37:35Z</time></trkpt><trkpt lat="45.647330195489154" lon="-0.1919877087104371"><ele>30.0</ele><time>2026-03-22T13:37:36Z</time></trkpt><trkpt lat="45.64714017123307" lon="-0.19212057550047718"><ele>30.0</ele><time>2026-03-22T13:37:37Z</time></trkpt><trkpt lat="45.64696535623761" lon="-0.1923002925717558"><ele>28.5</ele><time>2026-03-22T13:37:38Z</time></trkpt><trkpt lat="45.64679149415559" lon="-0.19252476216726433"><ele>27.0</ele><time>2026-03-22T13:37:39Z</time></trkpt><trkpt lat="45.64661424928825" lon="-0.19275515911984567"><ele>27.0</ele><time>2026-03-22T13:37:40Z</time></trkpt><trkpt lat="45.6464403242197" lon="-0.1929846458683436"><ele>27.0</ele><time>2026-03-22T13:37:41Z</time></trkpt><trkpt lat="45.64624626820366" lon="-0.19324265473804994"><ele>26.5</ele><time>2026-03-22T13:37:42Z</time></trkpt><trkpt lat="45.64605514781837" lon="-0.19348118215254156"><ele>26.0</ele><time>2026-03-22T13:37:43Z</time></trkpt><trkpt lat="45.64586976848866" lon="-0.19370322619958144"><ele>26.0</ele><time>2026-03-22T13:37:44Z</time></trkpt><trkpt lat="45.64571011195596" lon="-0.19390842159521082"><ele>26.0</ele><time>2026-03-22T13:37:45Z</time></trkpt><trkpt lat="45.64555091316337" lon="-0.19410615799210254"><ele>26.0</ele><time>2026-03-22T13:37:46Z</time></trkpt><trkpt lat="45.645381909798544" lon="-0.1942889268888775"><ele>25.333333333333332</ele><time>2026-03-22T13:37:47Z</time></trkpt><trkpt lat="45.64521004139758" lon="-0.19442639131905323"><ele>24.666666666666664</ele><time>2026-03-22T13:37:48Z</time></trkpt><trkpt lat="45.645036748970085" lon="-0.19452301644542747"><ele>24.0</ele><time>2026-03-22T13:37:49Z</time></trkpt><trkpt lat="45.64484066963216" lon="-0.19462252753177886"><ele>24.0</ele><time>2026-03-22T13:37:50Z</time></trkpt><trkpt lat="45.64465289718045" lon="-0.1946818295320249"><ele>24.0</ele><time>2026-03-22T13:37:51Z</time></trkpt><trkpt lat="45.64447502312286" lon="-0.19473847502956196"><ele>24.0</ele><time>2026-03-22T13:37:52Z</time></trkpt><trkpt lat="45.644276419427655" lon="-0.19468051830109942"><ele>25.0</ele><time>2026-03-22T13:37:53Z</time></trkpt><trkpt lat="45.64408575376862" lon="-0.19463966507046274"><ele>26.0</ele><time>2026-03-22T13:37:54Z</time></trkpt><trkpt lat="45.64388908517843" lon="-0.19457494145769613"><ele>27.0</ele><time>2026-03-22T13:37:55Z</time></trkpt><trkpt lat="45.64369055279672" lon="-0.19450616760372252"><ele>27.666666666666664</ele><time>2026-03-22T13:37:56Z</time></trkpt><trkpt lat="45.64348186410754" lon="-0.19447497104360373"><ele>28.333333333333332</ele><time>2026-03-22T13:37:57Z</time></trkpt><trkpt lat="45.64327167019017" lon="-0.1943920905074966"><ele>29.0</ele><time>2026-03-22T13:37:58Z</time></trkpt><trkpt lat="45.6430622352736" lon="-0.1943401460534907"><ele>29.0</ele><time>2026-03-22T13:37:59Z</time></trkpt><trkpt lat="45.64284051743154" lon="-0.19431381283307883"><ele>29.0</ele><time>2026-03-22T13:38:00Z</time></trkpt><trkpt lat="45.6426265764943" lon="-0.1943386086352595"><ele>29.0</ele><time>2026-03-22T13:38:01Z</time></trkpt><trkpt lat="45.642406124024575" lon="-0.19433301241882484"><ele>27.5</ele><time>2026-03-22T13:38:02Z</time></trkpt><trkpt lat="45.642146577185365" lon="-0.1942822406509863"><ele>26.0</ele><time>2026-03-22T13:38:03Z</time></trkpt><trkpt lat="45.64191759280294" lon="-0.19422777661033488"><ele>26.0</ele><time>2026-03-22T13:38:04Z</time></trkpt><trkpt lat="45.64169797217668" lon="-0.19418260816331945"><ele>26.0</ele><time>2026-03-22T13:38:05Z</time></trkpt><trkpt lat="45.64147078561614" lon="-0.19415299493597019"><ele>26.0</ele><time>2026-03-22T13:38:06Z</time></trkpt><trkpt lat="45.64124147732778" lon="-0.1941666150258252"><ele>26.0</ele><time>2026-03-22T13:38:07Z</time></trkpt><trkpt lat="45.64101689401418" lon="-0.19421898350383562"><ele>25.5</ele><time>2026-03-22T13:38:08Z</time></trkpt><trkpt lat="45.64077818096983" lon="-0.194308836919546"><ele>25.0</ele><time>2026-03-22T13:38:09Z</time></trkpt><trkpt lat="45.640540281318536" lon="-0.1944170390961084"><ele>25.0</ele><time>2026-03-22T13:38:10Z</time></trkpt><trkpt lat="45.64030351559598" lon="-0.19455141032670456"><ele>25.0</ele><time>2026-03-22T13:38:11Z</time></trkpt><trkpt lat="45.64005125509332" lon="-0.194693771147186"><ele>25.0</ele><time>2026-03-22T13:38:12Z</time></trkpt><trkpt lat="45.639791797084484" lon="-0.1948303634159879"><ele>25.0</ele><time>2026-03-22T13:38:13Z</time></trkpt><trkpt lat="45.639529494102774" lon="-0.1949368179728795"><ele>26.0</ele><time>2026-03-22T13:38:14Z</time></trkpt><trkpt lat="45.63926603028259" lon="-0.19500856979423195"><ele>27.0</ele><time>2026-03-22T13:38:15Z</time></trkpt><trkpt lat="45.63900765400238" lon="-0.19506987403636317"><ele>27.0</ele><time>2026-03-22T13:38:16Z</time></trkpt><trkpt lat="45.638755246461464" lon="-0.19512876812859442"><ele>27.0</ele><time>2026-03-22T13:38:17Z</time></trkpt><trkpt lat="45.63850017512584" lon="-0.19523580770439963"><ele>29.0</ele><time>2026-03-22T13:38:18Z</time></trkpt><trkpt lat="45.637998092523155" lon="-0.1955184433431258"><ele>29.0</ele><time>2026-03-22T13:38:20Z</time></trkpt><trkpt lat="45.637749990525236" lon="-0.19568538854177653"><ele>29.0</ele><time>2026-03-22T13:38:21Z</time></trkpt><trkpt lat="45.637504174569905" lon="-0.19586507756704616"><ele>29.0</ele><time>2026-03-22T13:38:22Z</time></trkpt><trkpt lat="45.637257118392625" lon="-0.19604059344207825"><ele>29.0</ele><time>2026-03-22T13:38:23Z</time></trkpt><trkpt lat="45.63701991180539" lon="-0.1962298384494217"><ele>29.5</ele><time>2026-03-22T13:38:24Z</time></trkpt><trkpt lat="45.63678489868924" lon="-0.19642400756458542"><ele>30.0</ele><time>2026-03-22T13:38:25Z</time></trkpt><trkpt lat="45.636550217166146" lon="-0.1966217266036716"><ele>31.0</ele><time>2026-03-22T13:38:26Z</time></trkpt><trkpt lat="45.63631681811958" lon="-0.19681421947506755"><ele>32.0</ele><time>2026-03-22T13:38:27Z</time></trkpt><trkpt lat="45.63607806311907" lon="-0.1970100745889501"><ele>32.0</ele><time>2026-03-22T13:38:28Z</time></trkpt><trkpt lat="45.635845927150065" lon="-0.19720401039271931"><ele>32.0</ele><time>2026-03-22T13:38:29Z</time></trkpt><trkpt lat="45.63562152400288" lon="-0.19738720084737554"><ele>31.5</ele><time>2026-03-22T13:38:30Z</time></trkpt><trkpt lat="45.63541562348236" lon="-0.1975538831367974"><ele>31.0</ele><time>2026-03-22T13:38:31Z</time></trkpt><trkpt lat="45.63521812870342" lon="-0.19772247362054715"><ele>31.0</ele><time>2026-03-22T13:38:32Z</time></trkpt><trkpt lat="45.63501791052185" lon="-0.19789412389005884"><ele>31.0</ele><time>2026-03-22T13:38:33Z</time></trkpt><trkpt lat="45.63483152179235" lon="-0.19807350133312"><ele>31.5</ele><time>2026-03-22T13:38:34Z</time></trkpt><trkpt lat="45.634636416353004" lon="-0.19826894475464318"><ele>32.0</ele><time>2026-03-22T13:38:35Z</time></trkpt><trkpt lat="45.63446639769949" lon="-0.1984566022970272"><ele>33.0</ele><time>2026-03-22T13:38:36Z</time></trkpt><trkpt lat="45.63430844456571" lon="-0.19862437193934135"><ele>34.0</ele><time>2026-03-22T13:38:37Z</time></trkpt><trkpt lat="45.634127944330906" lon="-0.19878978838095207"><ele>35.0</ele><time>2026-03-22T13:38:38Z</time></trkpt><trkpt lat="45.63395020818002" lon="-0.19893875584505483"><ele>35.0</ele><time>2026-03-22T13:38:39Z</time></trkpt><trkpt lat="45.63378785745058" lon="-0.19906503026597633"><ele>35.0</ele><time>2026-03-22T13:38:40Z</time></trkpt><trkpt lat="45.63364621739005" lon="-0.19918010286043322"><ele>35.0</ele><time>2026-03-22T13:38:41Z</time></trkpt><trkpt lat="45.63352890829871" lon="-0.19927602655590024"><ele>35.0</ele><time>2026-03-22T13:38:42Z</time></trkpt><trkpt lat="45.63343757651083" lon="-0.19934672595003367"><ele>35.0</ele><time>2026-03-22T13:38:43Z</time></trkpt><trkpt lat="45.633379565474826" lon="-0.19940754756554863"><ele>35.0</ele><time>2026-03-22T13:38:44Z</time></trkpt><trkpt lat="45.63328734179284" lon="-0.19938572913281336"><ele>35.0</ele><time>2026-03-22T13:38:46Z</time></trkpt><trkpt lat="45.633244212018475" lon="-0.19931673594253468"><ele>35.0</ele><time>2026-03-22T13:38:47Z</time></trkpt><trkpt lat="45.63321104204581" lon="-0.19914273326637164"><ele>34.666666666666664</ele><time>2026-03-22T13:38:48Z</time></trkpt><trkpt lat="45.63318419989324" lon="-0.19895162876534764"><ele>34.333333333333336</ele><time>2026-03-22T13:38:49Z</time></trkpt><trkpt lat="45.63313189376402" lon="-0.19871073405330952"><ele>34.0</ele><time>2026-03-22T13:38:50Z</time></trkpt><trkpt lat="45.633068134349834" lon="-0.19841588990955608"><ele>34.5</ele><time>2026-03-22T13:38:51Z</time></trkpt><trkpt lat="45.63299404145639" lon="-0.1980861142089595"><ele>35.0</ele><time>2026-03-22T13:38:52Z</time></trkpt><trkpt lat="45.63291553246816" lon="-0.19778519292990768"><ele>35.0</ele><time>2026-03-22T13:38:53Z</time></trkpt><trkpt lat="45.63283348053561" lon="-0.19755142145593033"><ele>35.0</ele><time>2026-03-22T13:38:54Z</time></trkpt><trkpt lat="45.63271404860658" lon="-0.19734040635455502"><ele>35.0</ele><time>2026-03-22T13:38:55Z</time></trkpt><trkpt lat="45.632567467327675" lon="-0.19711110689800984"><ele>36.0</ele><time>2026-03-22T13:38:56Z</time></trkpt><trkpt lat="45.63242496671238" lon="-0.19690021998630577"><ele>37.0</ele><time>2026-03-22T13:38:57Z</time></trkpt><trkpt lat="45.6322649958211" lon="-0.19669538361172742"><ele>38.0</ele><time>2026-03-22T13:38:58Z</time></trkpt><trkpt lat="45.63208991578302" lon="-0.196505135961884"><ele>38.0</ele><time>2026-03-22T13:38:59Z</time></trkpt><trkpt lat="45.631927943391844" lon="-0.19626677659978764"><ele>38.0</ele><time>2026-03-22T13:39:00Z</time></trkpt><trkpt lat="45.631767679640035" lon="-0.1960254603408333"><ele>38.0</ele><time>2026-03-22T13:39:01Z</time></trkpt><trkpt lat="45.63160372054525" lon="-0.1957915385916062"><ele>38.0</ele><time>2026-03-22T13:39:02Z</time></trkpt><trkpt lat="45.631464048104625" lon="-0.195587141306891"><ele>38.0</ele><time>2026-03-22T13:39:03Z</time></trkpt><trkpt lat="45.63132491603315" lon="-0.1953988147623443"><ele>37.666666666666664</ele><time>2026-03-22T13:39:04Z</time></trkpt><trkpt lat="45.63118774821534" lon="-0.19522101782377252"><ele>37.333333333333336</ele><time>2026-03-22T13:39:05Z</time></trkpt><trkpt lat="45.631058451577275" lon="-0.19504844083276687"><ele>37.0</ele><time>2026-03-22T13:39:06Z</time></trkpt><trkpt lat="45.630946043567505" lon="-0.19487013693668964"><ele>37.25</ele><time>2026-03-22T13:39:07Z</time></trkpt><trkpt lat="45.63083188532544" lon="-0.19472745821342707"><ele>37.5</ele><time>2026-03-22T13:39:08Z</time></trkpt><trkpt lat="45.630733033929644" lon="-0.19457890688659574"><ele>37.75</ele><time>2026-03-22T13:39:09Z</time></trkpt><trkpt lat="45.63063155718258" lon="-0.1944576278668163"><ele>38.0</ele><time>2026-03-22T13:39:10Z</time></trkpt><trkpt lat="45.63053003846953" lon="-0.19430936315704983"><ele>38.0</ele><time>2026-03-22T13:39:11Z</time></trkpt><trkpt lat="45.63041188698965" lon="-0.1941904740109963"><ele>38.0</ele><time>2026-03-22T13:39:12Z</time></trkpt><trkpt lat="45.63028489592852" lon="-0.1940948070141437"><ele>38.0</ele><time>2026-03-22T13:39:13Z</time></trkpt><trkpt lat="45.630168902934805" lon="-0.19398145179184623"><ele>38.0</ele><time>2026-03-22T13:39:14Z</time></trkpt><trkpt lat="45.630045110468046" lon="-0.19383502004781206"><ele>39.0</ele><time>2026-03-22T13:39:15Z</time></trkpt><trkpt lat="45.629912650957586" lon="-0.19364065050255821"><ele>40.0</ele><time>2026-03-22T13:39:16Z</time></trkpt><trkpt lat="45.62977252198574" lon="-0.19342133489871596"><ele>41.0</ele><time>2026-03-22T13:39:17Z</time></trkpt><trkpt lat="45.62962518457541" lon="-0.19320078120454115"><ele>41.0</ele><time>2026-03-22T13:39:18Z</time></trkpt><trkpt lat="45.629476176242065" lon="-0.1929763237687887"><ele>41.0</ele><time>2026-03-22T13:39:19Z</time></trkpt><trkpt lat="45.629324480681234" lon="-0.19275888014796824"><ele>41.0</ele><time>2026-03-22T13:39:20Z</time></trkpt><trkpt lat="45.62917948379335" lon="-0.19256605731731452"><ele>41.0</ele><time>2026-03-22T13:39:21Z</time></trkpt><trkpt lat="45.62905275115913" lon="-0.19238544143379674"><ele>41.0</ele><time>2026-03-22T13:39:22Z</time></trkpt><trkpt lat="45.62894001829533" lon="-0.19220903714814916"><ele>41.0</ele><time>2026-03-22T13:39:23Z</time></trkpt><trkpt lat="45.62883051585379" lon="-0.19204441436925485"><ele>41.0</ele><time>2026-03-22T13:39:24Z</time></trkpt><trkpt lat="45.62872831799941" lon="-0.19189397270459957"><ele>41.0</ele><time>2026-03-22T13:39:25Z</time></trkpt><trkpt lat="45.628615474833424" lon="-0.1917276895899168"><ele>41.0</ele><time>2026-03-22T13:39:26Z</time></trkpt><trkpt lat="45.62849779200655" lon="-0.19155502905417804"><ele>41.666666666666664</ele><time>2026-03-22T13:39:27Z</time></trkpt><trkpt lat="45.62837927239318" lon="-0.19137938116530026"><ele>42.333333333333336</ele><time>2026-03-22T13:39:28Z</time></trkpt><trkpt lat="45.62825578614416" lon="-0.19119352034690118"><ele>43.0</ele><time>2026-03-22T13:39:29Z</time></trkpt><trkpt lat="45.62814217255536" lon="-0.19102490488255"><ele>43.0</ele><time>2026-03-22T13:39:30Z</time></trkpt><trkpt lat="45.62803773466642" lon="-0.19086552504611284"><ele>43.0</ele><time>2026-03-22T13:39:31Z</time></trkpt><trkpt lat="45.62794041222747" lon="-0.1907291638304957"><ele>43.0</ele><time>2026-03-22T13:39:32Z</time></trkpt><trkpt lat="45.62785270189425" lon="-0.19060181667285814"><ele>43.0</ele><time>2026-03-22T13:39:33Z</time></trkpt><trkpt lat="45.627785075564425" lon="-0.1905018476077353"><ele>43.2</ele><time>2026-03-22T13:39:34Z</time></trkpt><trkpt lat="45.627725891106884" lon="-0.19042709397911906"><ele>43.4</ele><time>2026-03-22T13:39:35Z</time></trkpt><trkpt lat="45.62767946973996" lon="-0.19036592725202825"><ele>43.6</ele><time>2026-03-22T13:39:36Z</time></trkpt><trkpt lat="45.627605782301444" lon="-0.1903381463199224"><ele>43.800000000000004</ele><time>2026-03-22T13:39:46Z</time></trkpt><trkpt lat="45.627528880246274" lon="-0.19049254029532345"><ele>44.0</ele><time>2026-03-22T13:39:47Z</time></trkpt><trkpt lat="45.62749968513542" lon="-0.19063023887370084"><ele>44.0</ele><time>2026-03-22T13:39:48Z</time></trkpt><trkpt lat="45.627447853591995" lon="-0.19080650942339716"><ele>44.0</ele><time>2026-03-22T13:39:49Z</time></trkpt><trkpt lat="45.627394311645396" lon="-0.1910075564061072"><ele>44.0</ele><time>2026-03-22T13:39:50Z</time></trkpt><trkpt lat="45.62732653675184" lon="-0.19123125724818432"><ele>44.0</ele><time>2026-03-22T13:39:51Z</time></trkpt><trkpt lat="45.62727252076673" lon="-0.1914575501882005"><ele>44.0</ele><time>2026-03-22T13:39:52Z</time></trkpt><trkpt lat="45.62718962032685" lon="-0.1917112853185693"><ele>44.0</ele><time>2026-03-22T13:39:53Z</time></trkpt><trkpt lat="45.62711501272311" lon="-0.19196277229399625"><ele>43.666666666666664</ele><time>2026-03-22T13:39:54Z</time></trkpt><trkpt lat="45.62704323216976" lon="-0.19221795566347216"><ele>43.333333333333336</ele><time>2026-03-22T13:39:55Z</time></trkpt><trkpt lat="45.626965436301276" lon="-0.19248548297939944"><ele>43.0</ele><time>2026-03-22T13:39:56Z</time></trkpt><trkpt lat="45.62687780658315" lon="-0.19276935685998198"><ele>43.333333333333336</ele><time>2026-03-22T13:39:57Z</time></trkpt><trkpt lat="45.62679510615594" lon="-0.1930549679425773"><ele>43.666666666666664</ele><time>2026-03-22T13:39:58Z</time></trkpt><trkpt lat="45.62671005071254" lon="-0.1933516317701306"><ele>44.0</ele><time>2026-03-22T13:39:59Z</time></trkpt><trkpt lat="45.626620820966785" lon="-0.193638062474972"><ele>44.0</ele><time>2026-03-22T13:40:00Z</time></trkpt><trkpt lat="45.6265389276774" lon="-0.193946612247919"><ele>44.0</ele><time>2026-03-22T13:40:01Z</time></trkpt><trkpt lat="45.62644202678209" lon="-0.19422908761729046"><ele>44.0</ele><time>2026-03-22T13:40:02Z</time></trkpt><trkpt lat="45.626354760213076" lon="-0.1945477881059787"><ele>44.0</ele><time>2026-03-22T13:40:03Z</time></trkpt><trkpt lat="45.626267371679674" lon="-0.1948528700123688"><ele>44.0</ele><time>2026-03-22T13:40:04Z</time></trkpt><trkpt lat="45.62619314773678" lon="-0.19513752560500872"><ele>44.0</ele><time>2026-03-22T13:40:05Z</time></trkpt><trkpt lat="45.62610586439717" lon="-0.19540333461942586"><ele>44.0</ele><time>2026-03-22T13:40:06Z</time></trkpt><trkpt lat="45.62600271931102" lon="-0.1956737849967817"><ele>44.0</ele><time>2026-03-22T13:40:07Z</time></trkpt><trkpt lat="45.62589386714272" lon="-0.19594882702739425"><ele>44.0</ele><time>2026-03-22T13:40:08Z</time></trkpt><trkpt lat="45.625630800815884" lon="-0.19645787043375607"><ele>44.0</ele><time>2026-03-22T13:40:10Z</time></trkpt><trkpt lat="45.62548088220751" lon="-0.19672665769283643"><ele>44.0</ele><time>2026-03-22T13:40:11Z</time></trkpt><trkpt lat="45.625328847179546" lon="-0.19695867021059005"><ele>44.666666666666664</ele><time>2026-03-22T13:40:12Z</time></trkpt><trkpt lat="45.62518880993669" lon="-0.19718692902660936"><ele>45.333333333333336</ele><time>2026-03-22T13:40:13Z</time></trkpt><trkpt lat="45.62506151299017" lon="-0.1974187518171241"><ele>46.0</ele><time>2026-03-22T13:40:14Z</time></trkpt><trkpt lat="45.62493821020464" lon="-0.19763270360748467"><ele>46.0</ele><time>2026-03-22T13:40:15Z</time></trkpt><trkpt lat="45.62483104163674" lon="-0.1978224118868339"><ele>46.0</ele><time>2026-03-22T13:40:16Z</time></trkpt><trkpt lat="45.62472033573652" lon="-0.19800816393200382"><ele>46.0</ele><time>2026-03-22T13:40:17Z</time></trkpt><trkpt lat="45.62460568117105" lon="-0.19819289092802675"><ele>46.333333333333336</ele><time>2026-03-22T13:40:18Z</time></trkpt><trkpt lat="45.62450089386319" lon="-0.19837467188179175"><ele>46.666666666666664</ele><time>2026-03-22T13:40:19Z</time></trkpt><trkpt lat="45.62439188175341" lon="-0.19859219931411537"><ele>47.0</ele><time>2026-03-22T13:40:20Z</time></trkpt><trkpt lat="45.62429303242132" lon="-0.19876218758280284"><ele>47.25</ele><time>2026-03-22T13:40:21Z</time></trkpt><trkpt lat="45.624183009334494" lon="-0.1989254418128994"><ele>47.5</ele><time>2026-03-22T13:40:22Z</time></trkpt><trkpt lat="45.624088538086" lon="-0.19906839465122625"><ele>47.75</ele><time>2026-03-22T13:40:23Z</time></trkpt><trkpt lat="45.62401425317821" lon="-0.1991967872373407"><ele>48.0</ele><time>2026-03-22T13:40:24Z</time></trkpt><trkpt lat="45.62394835040437" lon="-0.1993011084507013"><ele>48.0</ele><time>2026-03-22T13:40:25Z</time></trkpt><trkpt lat="45.62389364181257" lon="-0.19939507143510155"><ele>48.0</ele><time>2026-03-22T13:40:26Z</time></trkpt><trkpt lat="45.623843220332155" lon="-0.19946245763842732"><ele>48.0</ele><time>2026-03-22T13:40:27Z</time></trkpt><trkpt lat="45.62377488624243" lon="-0.19954589174936627"><ele>48.0</ele><time>2026-03-22T13:40:29Z</time></trkpt><trkpt lat="45.62367080699675" lon="-0.19946064794245427"><ele>48.0</ele><time>2026-03-22T13:40:30Z</time></trkpt><trkpt lat="45.62359607580042" lon="-0.19940530258295702"><ele>48.0</ele><time>2026-03-22T13:40:31Z</time></trkpt><trkpt lat="45.62352478985368" lon="-0.19936583021216756"><ele>49.0</ele><time>2026-03-22T13:40:32Z</time></trkpt><trkpt lat="45.62346129256121" lon="-0.19934481615211314"><ele>50.0</ele><time>2026-03-22T13:40:33Z</time></trkpt><trkpt lat="45.623391379878676" lon="-0.19931996795483992"><ele>51.0</ele><time>2026-03-22T13:40:35Z</time></trkpt><trkpt lat="45.623328831479014" lon="-0.19927427974640144"><ele>52.0</ele><time>2026-03-22T13:40:38Z</time></trkpt><trkpt lat="45.62335358763139" lon="-0.19890125252823565"><ele>52.33333333333333</ele><time>2026-03-22T13:40:40Z</time></trkpt><trkpt lat="45.62337037253147" lon="-0.19880300242388232"><ele>52.666666666666664</ele><time>2026-03-22T13:40:41Z</time></trkpt><trkpt lat="45.62338880017147" lon="-0.19868458444690565"><ele>53.0</ele><time>2026-03-22T13:40:42Z</time></trkpt><trkpt lat="45.62339268152033" lon="-0.1985629354590563"><ele>53.33333333333333</ele><time>2026-03-22T13:40:43Z</time></trkpt><trkpt lat="45.62338494747003" lon="-0.1984607764753143"><ele>53.666666666666664</ele><time>2026-03-22T13:40:44Z</time></trkpt><trkpt lat="45.62338294469494" lon="-0.19835277930468853"><ele>54.0</ele><time>2026-03-22T13:40:45Z</time></trkpt><trkpt lat="45.623383430076565" lon="-0.1982364759907041"><ele>54.166666666666664</ele><time>2026-03-22T13:40:46Z</time></trkpt><trkpt lat="45.62338341259913" lon="-0.19812804599201078"><ele>54.33333333333333</ele><time>2026-03-22T13:40:47Z</time></trkpt><trkpt lat="45.62338112347146" lon="-0.19802431959762914"><ele>54.5</ele><time>2026-03-22T13:40:48Z</time></trkpt><trkpt lat="45.623381544433485" lon="-0.1979311245028647"><ele>54.666666666666664</ele><time>2026-03-22T13:40:49Z</time></trkpt><trkpt lat="45.623382711744114" lon="-0.19776992407073435"><ele>54.83333333333333</ele><time>2026-03-22T13:40:51Z</time></trkpt><trkpt lat="45.62337140967366" lon="-0.19763034333315826"><ele>55.0</ele><time>2026-03-22T13:40:53Z</time></trkpt><trkpt lat="45.62333369476962" lon="-0.19754720405320741"><ele>55.0</ele><time>2026-03-22T13:40:55Z</time></trkpt><trkpt lat="45.623243393650085" lon="-0.1974832921440795"><ele>55.0</ele><time>2026-03-22T13:40:57Z</time></trkpt><trkpt lat="45.623133547271514" lon="-0.1974357120150087"><ele>55.0</ele><time>2026-03-22T13:40:59Z</time></trkpt><trkpt lat="45.6230175409469" lon="-0.19739025673841615"><ele>55.0</ele><time>2026-03-22T13:41:01Z</time></trkpt><trkpt lat="45.622956740267966" lon="-0.19735629406545568"><ele>55.0</ele><time>2026-03-22T13:41:02Z</time></trkpt><trkpt lat="45.6228943742435" lon="-0.19733296032181635"><ele>55.14285714285714</ele><time>2026-03-22T13:41:03Z</time></trkpt><trkpt lat="45.62282983777949" lon="-0.19730794963791487"><ele>55.285714285714285</ele><time>2026-03-22T13:41:04Z</time></trkpt><trkpt lat="45.6227656346827" lon="-0.19727975473141793"><ele>55.42857142857143</ele><time>2026-03-22T13:41:05Z</time></trkpt><trkpt lat="45.622701345940634" lon="-0.19724753195681383"><ele>55.57142857142857</ele><time>2026-03-22T13:41:06Z</time></trkpt><trkpt lat="45.622636763953366" lon="-0.19721478895625832"><ele>55.714285714285715</ele><time>2026-03-22T13:41:07Z</time></trkpt><trkpt lat="45.62256952753497" lon="-0.19718490555898832"><ele>55.857142857142854</ele><time>2026-03-22T13:41:08Z</time></trkpt><trkpt lat="45.62250355908926" lon="-0.19715619882583513"><ele>56.0</ele><time>2026-03-22T13:41:09Z</time></trkpt><trkpt lat="45.62244136564096" lon="-0.19712519466324832"><ele>57.599999999999994</ele><time>2026-03-22T13:41:10Z</time></trkpt><trkpt lat="45.62237921702228" lon="-0.19709329665664282"><ele>59.199999999999996</ele><time>2026-03-22T13:41:11Z</time></trkpt><trkpt lat="45.62226908987864" lon="-0.1970399565155073"><ele>60.800000000000004</ele><time>2026-03-22T13:41:13Z</time></trkpt><trkpt lat="45.62215653432007" lon="-0.1969828156585624"><ele>62.400000000000006</ele><time>2026-03-22T13:41:15Z</time></trkpt><trkpt lat="45.62208794463255" lon="-0.19693052276730447"><ele>64.0</ele><time>2026-03-22T13:41:17Z</time></trkpt><trkpt lat="45.622066248828155" lon="-0.1968259641607834"><ele>63.99999999999999</ele><time>2026-03-22T13:41:19Z</time></trkpt><trkpt lat="45.62205743836354" lon="-0.196735932167674"><ele>64.0</ele><time>2026-03-22T13:41:20Z</time></trkpt><trkpt lat="45.6220321949311" lon="-0.1966408156895462"><ele>64.0</ele><time>2026-03-22T13:41:21Z</time></trkpt><trkpt lat="45.62196541424063" lon="-0.1965127546747848"><ele>64.0</ele><time>2026-03-22T13:41:23Z</time></trkpt><trkpt lat="45.6219053943847" lon="-0.19641762456916348"><ele>63.99999999999999</ele><time>2026-03-22T13:41:24Z</time></trkpt><trkpt lat="45.62185485373251" lon="-0.19633372541266786"><ele>64.0</ele><time>2026-03-22T13:41:25Z</time></trkpt><trkpt lat="45.62179812774778" lon="-0.19623949331106422"><ele>67.0</ele><time>2026-03-22T13:41:26Z</time></trkpt><trkpt lat="45.621739460093515" lon="-0.19615332995307924"><ele>70.0</ele><time>2026-03-22T13:41:27Z</time></trkpt><trkpt lat="45.621698173876524" lon="-0.19607976598227214"><ele>73.0</ele><time>2026-03-22T13:41:28Z</time></trkpt><trkpt lat="45.621662609777886" lon="-0.19599595295422018"><ele>76.0</ele><time>2026-03-22T13:41:29Z</time></trkpt><trkpt lat="45.62161975628344" lon="-0.1959104690229701"><ele>79.0</ele><time>2026-03-22T13:41:30Z</time></trkpt><trkpt lat="45.62156592647805" lon="-0.19579268061894448"><ele>82.0</ele><time>2026-03-22T13:41:32Z</time></trkpt><trkpt lat="45.621525869234496" lon="-0.19569397231074442"><ele>83.0</ele><time>2026-03-22T13:41:34Z</time></trkpt><trkpt lat="45.62148699453447" lon="-0.1956096958628399"><ele>84.0</ele><time>2026-03-22T13:41:37.001Z</time></trkpt><trkpt lat="45.62143479022065" lon="-0.19552562775437268"><ele>85.0</ele><time>2026-03-22T13:41:51.001Z</time></trkpt><trkpt lat="45.62142196404461" lon="-0.19543174948420317"><ele>86.0</ele><time>2026-03-22T13:41:53Z</time></trkpt><trkpt lat="45.62140023919963" lon="-0.1953025063865116"><ele>87.0</ele><time>2026-03-22T13:41:55Z</time></trkpt><trkpt lat="45.6213716839092" lon="-0.19518981538150476"><ele>88.0</ele><time>2026-03-22T13:41:57Z</time></trkpt><trkpt lat="45.62133370040558" lon="-0.19505783083349787"><ele>88.0</ele><time>2026-03-22T13:41:59Z</time></trkpt><trkpt lat="45.62130005094949" lon="-0.19492748073431693"><ele>88.0</ele><time>2026-03-22T13:42:01Z</time></trkpt><trkpt lat="45.621259417817946" lon="-0.19480892034438266"><ele>88.0</ele><time>2026-03-22T13:42:03Z</time></trkpt><trkpt lat="45.621200562451286" lon="-0.1946563571643471"><ele>88.0</ele><time>2026-03-22T13:42:05Z</time></trkpt><trkpt lat="45.621158524440645" lon="-0.19452990643305193"><ele>88.0</ele><time>2026-03-22T13:42:07Z</time></trkpt><trkpt lat="45.62110661630572" lon="-0.19437362290232513"><ele>87.80000000000001</ele><time>2026-03-22T13:42:09Z</time></trkpt><trkpt lat="45.62108073429014" lon="-0.1942519674865603"><ele>87.6</ele><time>2026-03-22T13:42:11Z</time></trkpt><trkpt lat="45.62101000324837" lon="-0.19413502396199708"><ele>87.4</ele><time>2026-03-22T13:42:13Z</time></trkpt><trkpt lat="45.62098233817205" lon="-0.19405357519120978"><ele>87.19999999999999</ele><time>2026-03-22T13:42:14Z</time></trkpt><trkpt lat="45.62093393360789" lon="-0.19390758189067675"><ele>87.0</ele><time>2026-03-22T13:42:16Z</time></trkpt><trkpt lat="45.62085089033742" lon="-0.1937716077122803"><ele>88.39999999999999</ele><time>2026-03-22T13:42:18Z</time></trkpt><trkpt lat="45.62080538927172" lon="-0.19370870827652478"><ele>89.8</ele><time>2026-03-22T13:42:19Z</time></trkpt><trkpt lat="45.620766436900254" lon="-0.19362904485789195"><ele>91.2</ele><time>2026-03-22T13:42:20Z</time></trkpt><trkpt lat="45.6206925646439" lon="-0.1934916261940138"><ele>92.6</ele><time>2026-03-22T13:42:22Z</time></trkpt><trkpt lat="45.62060046752034" lon="-0.1933671611911847"><ele>94.0</ele><time>2026-03-22T13:42:24Z</time></trkpt><trkpt lat="45.62055049408163" lon="-0.1932952206950806"><ele>94.2</ele><time>2026-03-22T13:42:25Z</time></trkpt><trkpt lat="45.62046432845035" lon="-0.1931595306959611"><ele>94.4</ele><time>2026-03-22T13:42:27Z</time></trkpt><trkpt lat="45.62041432337822" lon="-0.19309002264122055"><ele>94.6</ele><time>2026-03-22T13:42:28Z</time></trkpt><trkpt lat="45.62036547173962" lon="-0.19300564993707747"><ele>94.8</ele><time>2026-03-22T13:42:29Z</time></trkpt><trkpt lat="45.620328393807256" lon="-0.19293117847341482"><ele>95.0</ele><time>2026-03-22T13:42:30Z</time></trkpt><trkpt lat="45.62025909223893" lon="-0.19278995241653887"><ele>94.66666666666667</ele><time>2026-03-22T13:42:32Z</time></trkpt><trkpt lat="45.620210385653294" lon="-0.19267601469184265"><ele>94.33333333333334</ele><time>2026-03-22T13:42:33Z</time></trkpt><trkpt lat="45.62017074341385" lon="-0.19260411439394512"><ele>94.0</ele><time>2026-03-22T13:42:34Z</time></trkpt><trkpt lat="45.620137800956265" lon="-0.1925207979523794"><ele>93.66666666666667</ele><time>2026-03-22T13:42:35Z</time></trkpt><trkpt lat="45.620074677977264" lon="-0.19237935931735883"><ele>93.33333333333333</ele><time>2026-03-22T13:42:37Z</time></trkpt><trkpt lat="45.620040634919846" lon="-0.19229246136399267"><ele>93.0</ele><time>2026-03-22T13:42:38Z</time></trkpt><trkpt lat="45.619965766543444" lon="-0.19216685560230048"><ele>93.83333333333333</ele><time>2026-03-22T13:42:40Z</time></trkpt><trkpt lat="45.61991594676678" lon="-0.19210129014979213"><ele>94.66666666666666</ele><time>2026-03-22T13:42:41Z</time></trkpt><trkpt lat="45.61983247565484" lon="-0.1919820786621674"><ele>95.5</ele><time>2026-03-22T13:42:43Z</time></trkpt><trkpt lat="45.61976709750314" lon="-0.19193352264294108"><ele>96.33333333333333</ele><time>2026-03-22T13:42:44Z</time></trkpt><trkpt lat="45.61970836581557" lon="-0.19188668038227397"><ele>97.16666666666666</ele><time>2026-03-22T13:42:45Z</time></trkpt><trkpt lat="45.61964566937857" lon="-0.19184796781357896"><ele>98.0</ele><time>2026-03-22T13:42:46Z</time></trkpt><trkpt lat="45.619542131004" lon="-0.19179110562035373"><ele>98.0</ele><time>2026-03-22T13:42:48Z</time></trkpt><trkpt lat="45.619474024917736" lon="-0.19176238544056665"><ele>98.0</ele><time>2026-03-22T13:42:49Z</time></trkpt><trkpt lat="45.61933673368158" lon="-0.1916992462068023"><ele>98.0</ele><time>2026-03-22T13:42:51Z</time></trkpt><trkpt lat="45.6192295667331" lon="-0.19168907626553783"><ele>98.0</ele><time>2026-03-22T13:42:53Z</time></trkpt><trkpt lat="45.61916532082334" lon="-0.19169694011102803"><ele>98.0</ele><time>2026-03-22T13:42:54Z</time></trkpt><trkpt lat="45.619067095614376" lon="-0.19172397752658024"><ele>98.0</ele><time>2026-03-22T13:42:56Z</time></trkpt><trkpt lat="45.61900684453216" lon="-0.19176848906263008"><ele>98.0</ele><time>2026-03-22T13:42:57Z</time></trkpt><trkpt lat="45.6188915101494" lon="-0.1918874920627841"><ele>98.0</ele><time>2026-03-22T13:42:59Z</time></trkpt><trkpt lat="45.618825878229174" lon="-0.19196448553032647"><ele>98.0</ele><time>2026-03-22T13:43:00Z</time></trkpt><trkpt lat="45.61875574768937" lon="-0.19202953575975648"><ele>98.0</ele><time>2026-03-22T13:43:01Z</time></trkpt><trkpt lat="45.618662011938774" lon="-0.19211024355702885"><ele>97.4</ele><time>2026-03-22T13:43:03Z</time></trkpt><trkpt lat="45.618577141326554" lon="-0.1921230416652988"><ele>96.80000000000001</ele><time>2026-03-22T13:43:05Z</time></trkpt><trkpt lat="45.61844891425322" lon="-0.19209385421061434"><ele>96.2</ele><time>2026-03-22T13:43:07Z</time></trkpt><trkpt lat="45.618386626775106" lon="-0.19206714512683248"><ele>95.6</ele><time>2026-03-22T13:43:08Z</time></trkpt><trkpt lat="45.61827280414812" lon="-0.19202159609230185"><ele>95.0</ele><time>2026-03-22T13:43:10Z</time></trkpt><trkpt lat="45.61815252154134" lon="-0.19197808436335434"><ele>95.0</ele><time>2026-03-22T13:43:12Z</time></trkpt><trkpt lat="45.618095731935284" lon="-0.19193763858002497"><ele>95.0</ele><time>2026-03-22T13:43:13Z</time></trkpt><trkpt lat="45.61798741114006" lon="-0.19187679393836243"><ele>95.0</ele><time>2026-03-22T13:43:15Z</time></trkpt><trkpt lat="45.61788935595228" lon="-0.19180594239775248"><ele>95.0</ele><time>2026-03-22T13:43:17Z</time></trkpt><trkpt lat="45.61781444916388" lon="-0.19169706350104856"><ele>95.0</ele><time>2026-03-22T13:43:19Z</time></trkpt><trkpt lat="45.61775851791101" lon="-0.19161324466199542"><ele>95.2</ele><time>2026-03-22T13:43:21Z</time></trkpt><trkpt lat="45.61770833619874" lon="-0.1914915103526678"><ele>95.4</ele><time>2026-03-22T13:43:23Z</time></trkpt><trkpt lat="45.617677446410994" lon="-0.19133451891644118"><ele>95.6</ele><time>2026-03-22T13:43:25Z</time></trkpt><trkpt lat="45.61766448519335" lon="-0.19121930442454468"><ele>95.8</ele><time>2026-03-22T13:43:27Z</time></trkpt><trkpt lat="45.617651281885614" lon="-0.1910943184060793"><ele>96.0</ele><time>2026-03-22T13:43:29Z</time></trkpt><trkpt lat="45.61757303507895" lon="-0.19104591913365773"><ele>96.0</ele><time>2026-03-22T13:43:32Z</time></trkpt><trkpt lat="45.61748278041069" lon="-0.19108640396398777"><ele>96.0</ele><time>2026-03-22T13:43:35Z</time></trkpt><trkpt lat="45.61744274257306" lon="-0.19115749379956076"><ele>96.0</ele><time>2026-03-22T13:43:38Z</time></trkpt><trkpt lat="45.617405615068805" lon="-0.19129383140770367"><ele>96.0</ele><time>2026-03-22T13:43:41Z</time></trkpt><trkpt lat="45.61739340638511" lon="-0.19144755043313183"><ele>96.0</ele><time>2026-03-22T13:43:43Z</time></trkpt><trkpt lat="45.61737957223863" lon="-0.19153607962908636"><ele>96.0</ele><time>2026-03-22T13:43:44Z</time></trkpt><trkpt lat="45.617351412769345" lon="-0.19170206529806008"><ele>94.4</ele><time>2026-03-22T13:43:46Z</time></trkpt><trkpt lat="45.6173111490987" lon="-0.19185797747202693"><ele>92.8</ele><time>2026-03-22T13:43:48Z</time></trkpt><trkpt lat="45.61727590590444" lon="-0.19200603316529885"><ele>91.2</ele><time>2026-03-22T13:43:50.001Z</time></trkpt><trkpt lat="45.61723262937883" lon="-0.1921552271187147"><ele>89.60000000000001</ele><time>2026-03-22T13:43:52.001Z</time></trkpt><trkpt lat="45.61721250842554" lon="-0.19225167890955636"><ele>88.0</ele><time>2026-03-22T13:43:53.001Z</time></trkpt><trkpt lat="45.61718590611796" lon="-0.19235390753138018"><ele>85.80000000000001</ele><time>2026-03-22T13:43:54.001Z</time></trkpt><trkpt lat="45.6171625925693" lon="-0.1925040283345693"><ele>83.60000000000001</ele><time>2026-03-22T13:43:56.001Z</time></trkpt><trkpt lat="45.61713760956201" lon="-0.19262692416360055"><ele>81.4</ele><time>2026-03-22T13:43:58.001Z</time></trkpt><trkpt lat="45.61710178427927" lon="-0.19279763943378936"><ele>79.2</ele><time>2026-03-22T13:44:00Z</time></trkpt><trkpt lat="45.61706785327157" lon="-0.1929160522296623"><ele>77.0</ele><time>2026-03-22T13:44:02Z</time></trkpt><trkpt lat="45.617033044315505" lon="-0.19301114377321538"><ele>77.0</ele><time>2026-03-22T13:44:05Z</time></trkpt><trkpt lat="45.617144429566544" lon="-0.19308847496477927"><ele>77.0</ele><time>2026-03-22T13:44:08Z</time></trkpt><trkpt lat="45.61721084212252" lon="-0.19314937951193245"><ele>77.0</ele><time>2026-03-22T13:44:09Z</time></trkpt><trkpt lat="45.61727951333533" lon="-0.19320718118962443"><ele>77.0</ele><time>2026-03-22T13:44:10Z</time></trkpt><trkpt lat="45.6173636795423" lon="-0.19327061065585238"><ele>77.0</ele><time>2026-03-22T13:44:11Z</time></trkpt><trkpt lat="45.617444367158065" lon="-0.19332600442619716"><ele>75.2</ele><time>2026-03-22T13:44:12Z</time></trkpt><trkpt lat="45.61753897864819" lon="-0.19338130129600367"><ele>73.4</ele><time>2026-03-22T13:44:13Z</time></trkpt><trkpt lat="45.61763469761232" lon="-0.19343528276619382"><ele>71.6</ele><time>2026-03-22T13:44:14Z</time></trkpt><trkpt lat="45.61774173698482" lon="-0.19349564846773845"><ele>69.8</ele><time>2026-03-22T13:44:15Z</time></trkpt><trkpt lat="45.61783746071182" lon="-0.19354963268775294"><ele>68.0</ele><time>2026-03-22T13:44:16Z</time></trkpt><trkpt lat="45.61795102606946" lon="-0.19361367878437855"><ele>68.0</ele><time>2026-03-22T13:44:17Z</time></trkpt><trkpt lat="45.61806469599395" lon="-0.19368102311907473"><ele>68.0</ele><time>2026-03-22T13:44:18Z</time></trkpt><trkpt lat="45.61816829480887" lon="-0.19377753283270177"><ele>68.0</ele><time>2026-03-22T13:44:19Z</time></trkpt><trkpt lat="45.61828312220211" lon="-0.19384393596545993"><ele>68.0</ele><time>2026-03-22T13:44:20Z</time></trkpt><trkpt lat="45.618393463083365" lon="-0.19391165144345343"><ele>68.0</ele><time>2026-03-22T13:44:21Z</time></trkpt><trkpt lat="45.61850099990424" lon="-0.19398121000448376"><ele>68.0</ele><time>2026-03-22T13:44:22Z</time></trkpt><trkpt lat="45.61861017916216" lon="-0.1940447173595056"><ele>68.0</ele><time>2026-03-22T13:44:23Z</time></trkpt><trkpt lat="45.61872031413242" lon="-0.19411590430531597"><ele>68.0</ele><time>2026-03-22T13:44:24Z</time></trkpt><trkpt lat="45.61883820866656" lon="-0.1941856175799099"><ele>67.2</ele><time>2026-03-22T13:44:25Z</time></trkpt><trkpt lat="45.61892911393328" lon="-0.1942428758132424"><ele>66.4</ele><time>2026-03-22T13:44:26Z</time></trkpt><trkpt lat="45.619030412345666" lon="-0.19432264709268682"><ele>65.60000000000001</ele><time>2026-03-22T13:44:27Z</time></trkpt><trkpt lat="45.6191325368539" lon="-0.19439990567490706"><ele>64.8</ele><time>2026-03-22T13:44:28Z</time></trkpt><trkpt lat="45.61922370429883" lon="-0.1944876074560182"><ele>64.0</ele><time>2026-03-22T13:44:29Z</time></trkpt><trkpt lat="45.619314926213455" lon="-0.1945668067491292"><ele>64.0</ele><time>2026-03-22T13:44:30Z</time></trkpt><trkpt lat="45.61940060148372" lon="-0.19464662535780022"><ele>64.0</ele><time>2026-03-22T13:44:31Z</time></trkpt><trkpt lat="45.619473682175496" lon="-0.19472768700776824"><ele>64.0</ele><time>2026-03-22T13:44:32Z</time></trkpt><trkpt lat="45.61954287082742" lon="-0.19480781394460778"><ele>64.0</ele><time>2026-03-22T13:44:33Z</time></trkpt><trkpt lat="45.619588959968524" lon="-0.1948722252025656"><ele>64.0</ele><time>2026-03-22T13:44:34Z</time></trkpt><trkpt lat="45.61969512371422" lon="-0.19472827107408333"><ele>65.2</ele><time>2026-03-22T13:44:40Z</time></trkpt><trkpt lat="45.619750164808316" lon="-0.19462606847971292"><ele>66.4</ele><time>2026-03-22T13:44:42Z</time></trkpt><trkpt lat="45.61981709629652" lon="-0.19451770475849825"><ele>67.6</ele><time>2026-03-22T13:44:44Z</time></trkpt><trkpt lat="45.61985854013447" lon="-0.19443906807004052"><ele>68.8</ele><time>2026-03-22T13:44:45Z</time></trkpt><trkpt lat="45.619948123334254" lon="-0.19428795668626145"><ele>70.0</ele><time>2026-03-22T13:44:47Z</time></trkpt><trkpt lat="45.62000707654127" lon="-0.19417800476159258"><ele>70.0</ele><time>2026-03-22T13:44:48Z</time></trkpt><trkpt lat="45.6200561754891" lon="-0.1940944542401147"><ele>70.0</ele><time>2026-03-22T13:44:49Z</time></trkpt><trkpt lat="45.62009280383957" lon="-0.19401556700304576"><ele>70.0</ele><time>2026-03-22T13:44:50Z</time></trkpt><trkpt lat="45.62014713323085" lon="-0.19392890966378673"><ele>70.0</ele><time>2026-03-22T13:44:51Z</time></trkpt><trkpt lat="45.62019345058342" lon="-0.1938603277153194"><ele>70.0</ele><time>2026-03-22T13:44:53Z</time></trkpt><trkpt lat="45.6201486097607" lon="-0.19377703615389677"><ele>70.0</ele><time>2026-03-22T13:45:01Z</time></trkpt><trkpt lat="45.62009340989855" lon="-0.19372402676577846"><ele>70.0</ele><time>2026-03-22T13:45:02Z</time></trkpt><trkpt lat="45.62001675640787" lon="-0.19367598370243208"><ele>72.0</ele><time>2026-03-22T13:45:03Z</time></trkpt><trkpt lat="45.619936687046845" lon="-0.19361214504407595"><ele>74.0</ele><time>2026-03-22T13:45:04Z</time></trkpt><trkpt lat="45.61985644688017" lon="-0.19353311269909537"><ele>76.0</ele><time>2026-03-22T13:45:05Z</time></trkpt><trkpt lat="45.61978104898928" lon="-0.1934609267574317"><ele>78.0</ele><time>2026-03-22T13:45:06Z</time></trkpt><trkpt lat="45.619707588642804" lon="-0.19338868479051538"><ele>80.0</ele><time>2026-03-22T13:45:07Z</time></trkpt><trkpt lat="45.61963229858101" lon="-0.19332415541180514"><ele>80.0</ele><time>2026-03-22T13:45:08Z</time></trkpt><trkpt lat="45.61955545896978" lon="-0.19325386346116608"><ele>80.0</ele><time>2026-03-22T13:45:09Z</time></trkpt><trkpt lat="45.61948110820225" lon="-0.19318572900457337"><ele>80.0</ele><time>2026-03-22T13:45:10Z</time></trkpt><trkpt lat="45.619397200743855" lon="-0.19310822474277134"><ele>80.0</ele><time>2026-03-22T13:45:11Z</time></trkpt><trkpt lat="45.619324809236296" lon="-0.19304156336783546"><ele>80.0</ele><time>2026-03-22T13:45:12Z</time></trkpt><trkpt lat="45.61926306992745" lon="-0.19298488391596016"><ele>80.0</ele><time>2026-03-22T13:45:13Z</time></trkpt><trkpt lat="45.61919673097232" lon="-0.19292650827117022"><ele>81.0</ele><time>2026-03-22T13:45:14Z</time></trkpt><trkpt lat="45.619132285826836" lon="-0.19286939640418893"><ele>82.0</ele><time>2026-03-22T13:45:15Z</time></trkpt><trkpt lat="45.61903488192552" lon="-0.19279927847919104"><ele>83.0</ele><time>2026-03-22T13:45:17Z</time></trkpt><trkpt lat="45.61894685234517" lon="-0.19275493996804338"><ele>84.0</ele><time>2026-03-22T13:45:19Z</time></trkpt><trkpt lat="45.61886212973677" lon="-0.19266696740954947"><ele>85.0</ele><time>2026-03-22T13:45:21Z</time></trkpt><trkpt lat="45.618805070948866" lon="-0.19259122839804751"><ele>85.0</ele><time>2026-03-22T13:45:22Z</time></trkpt><trkpt lat="45.61875012663435" lon="-0.1924871024618494"><ele>85.0</ele><time>2026-03-22T13:45:24Z</time></trkpt><trkpt lat="45.61878275563461" lon="-0.19256553809840876"><ele>85.0</ele><time>2026-03-22T13:49:44Z</time></trkpt><trkpt lat="45.6188411370687" lon="-0.19265856409144488"><ele>85.0</ele><time>2026-03-22T13:50:18Z</time></trkpt><trkpt lat="45.61889872875315" lon="-0.1927226865522227"><ele>85.0</ele><time>2026-03-22T13:50:27Z</time></trkpt><trkpt lat="45.61897345071071" lon="-0.19278664931436065"><ele>85.0</ele><time>2026-03-22T13:50:30Z</time></trkpt><trkpt lat="45.61905450447243" lon="-0.19283779766386983"><ele>85.0</ele><time>2026-03-22T13:50:33Z</time></trkpt><trkpt lat="45.61912495101312" lon="-0.19288153187571966"><ele>85.0</ele><time>2026-03-22T13:50:35Z</time></trkpt><trkpt lat="45.619209859874026" lon="-0.19294174006273518"><ele>85.0</ele><time>2026-03-22T13:50:37Z</time></trkpt><trkpt lat="45.61926313994427" lon="-0.19299504684759142"><ele>85.0</ele><time>2026-03-22T13:50:39Z</time></trkpt><trkpt lat="45.619323723071595" lon="-0.19304215124829313"><ele>85.0</ele><time>2026-03-22T13:50:41Z</time></trkpt><trkpt lat="45.619406362162124" lon="-0.19313077976664558"><ele>85.0</ele><time>2026-03-22T13:50:43Z</time></trkpt><trkpt lat="45.61949660409533" lon="-0.19322445649508826"><ele>84.0</ele><time>2026-03-22T13:50:45Z</time></trkpt><trkpt lat="45.619573470791096" lon="-0.19328892366747388"><ele>83.0</ele><time>2026-03-22T13:50:47Z</time></trkpt><trkpt lat="45.6196660955333" lon="-0.1933791438841585"><ele>82.0</ele><time>2026-03-22T13:50:49Z</time></trkpt><trkpt lat="45.61972143023695" lon="-0.1934247536722706"><ele>81.0</ele><time>2026-03-22T13:50:50Z</time></trkpt><trkpt lat="45.619779902945524" lon="-0.19347406646595333"><ele>80.0</ele><time>2026-03-22T13:50:51Z</time></trkpt><trkpt lat="45.61987938116958" lon="-0.1935627881840182"><ele>80.0</ele><time>2026-03-22T13:50:53Z</time></trkpt><trkpt lat="45.619979767300144" lon="-0.19366736750330432"><ele>80.0</ele><time>2026-03-22T13:50:55Z</time></trkpt><trkpt lat="45.62005918889844" lon="-0.19373728798207349"><ele>80.0</ele><time>2026-03-22T13:50:57Z</time></trkpt><trkpt lat="45.620143154596896" lon="-0.1938062225819712"><ele>80.0</ele><time>2026-03-22T13:50:59Z</time></trkpt><trkpt lat="45.620185230550746" lon="-0.19389431560197412"><ele>80.0</ele><time>2026-03-22T13:51:01Z</time></trkpt><trkpt lat="45.62012733088531" lon="-0.19401281985671012"><ele>78.0</ele><time>2026-03-22T13:51:04Z</time></trkpt><trkpt lat="45.6200631415098" lon="-0.19409647390001233"><ele>76.0</ele><time>2026-03-22T13:51:06Z</time></trkpt><trkpt lat="45.619993844055955" lon="-0.19421277482153845"><ele>74.0</ele><time>2026-03-22T13:51:08Z</time></trkpt><trkpt lat="45.619937921833994" lon="-0.19432863858665086"><ele>72.0</ele><time>2026-03-22T13:51:10Z</time></trkpt><trkpt lat="45.61987306134618" lon="-0.19443442691771554"><ele>70.0</ele><time>2026-03-22T13:51:12Z</time></trkpt><trkpt lat="45.61981294886404" lon="-0.19454043365420817"><ele>70.0</ele><time>2026-03-22T13:51:14Z</time></trkpt><trkpt lat="45.6197510636276" lon="-0.19464741578542594"><ele>70.0</ele><time>2026-03-22T13:51:16Z</time></trkpt><trkpt lat="45.61969256126716" lon="-0.19475002079113116"><ele>70.0</ele><time>2026-03-22T13:51:18Z</time></trkpt><trkpt lat="45.61964523829939" lon="-0.19483344023411592"><ele>70.0</ele><time>2026-03-22T13:51:20Z</time></trkpt><trkpt lat="45.61960776010856" lon="-0.19492867438903272"><ele>70.0</ele><time>2026-03-22T13:51:23Z</time></trkpt><trkpt lat="45.619670627952" lon="-0.19501434512616922"><ele>70.0</ele><time>2026-03-22T13:51:26Z</time></trkpt><trkpt lat="45.61974133904703" lon="-0.19502701529740887"><ele>68.8</ele><time>2026-03-22T13:51:27Z</time></trkpt><trkpt lat="45.61980366272843" lon="-0.19513180238942623"><ele>67.6</ele><time>2026-03-22T13:51:29Z</time></trkpt><trkpt lat="45.61986359638817" lon="-0.19525768419616715"><ele>66.4</ele><time>2026-03-22T13:51:31Z</time></trkpt><trkpt lat="45.61993433711878" lon="-0.1953704208002478"><ele>65.2</ele><time>2026-03-22T13:51:33Z</time></trkpt><trkpt lat="45.61997148263896" lon="-0.19548760929330916"><ele>64.0</ele><time>2026-03-22T13:51:35Z</time></trkpt><trkpt lat="45.620038561380305" lon="-0.19561321977828544"><ele>63.0</ele><time>2026-03-22T13:51:37Z</time></trkpt><trkpt lat="45.62009816044241" lon="-0.19575310896480405"><ele>62.0</ele><time>2026-03-22T13:51:39Z</time></trkpt><trkpt lat="45.62016938731872" lon="-0.19591079895023183"><ele>61.0</ele><time>2026-03-22T13:51:41Z</time></trkpt><trkpt lat="45.62022487373171" lon="-0.19605373776745635"><ele>60.0</ele><time>2026-03-22T13:51:43Z</time></trkpt><trkpt lat="45.62029551739017" lon="-0.19617046221851064"><ele>60.2</ele><time>2026-03-22T13:51:45Z</time></trkpt><trkpt lat="45.62035912510663" lon="-0.19630011183878535"><ele>60.4</ele><time>2026-03-22T13:51:47Z</time></trkpt><trkpt lat="45.62040091223509" lon="-0.19642585544584906"><ele>60.599999999999994</ele><time>2026-03-22T13:51:49Z</time></trkpt><trkpt lat="45.62045776443794" lon="-0.1965217983136391"><ele>60.8</ele><time>2026-03-22T13:51:51Z</time></trkpt><trkpt lat="45.62051224633935" lon="-0.1966152313194556"><ele>61.0</ele><time>2026-03-22T13:51:53Z</time></trkpt><trkpt lat="45.62057763189426" lon="-0.19671941274477334"><ele>60.99999999999999</ele><time>2026-03-22T13:51:55Z</time></trkpt><trkpt lat="45.62064818067037" lon="-0.19684583941519546"><ele>61.0</ele><time>2026-03-22T13:51:57Z</time></trkpt><trkpt lat="45.62072902530425" lon="-0.19698149259247622"><ele>61.0</ele><time>2026-03-22T13:51:59Z</time></trkpt><trkpt lat="45.620761090564685" lon="-0.19706220964282872"><ele>61.0</ele><time>2026-03-22T13:52:00Z</time></trkpt><trkpt lat="45.62079512560319" lon="-0.19714590164604306"><ele>60.99999999999999</ele><time>2026-03-22T13:52:01Z</time></trkpt><trkpt lat="45.620830916711306" lon="-0.19723629917149468"><ele>61.0</ele><time>2026-03-22T13:52:02Z</time></trkpt><trkpt lat="45.62086494723507" lon="-0.19732609805010357"><ele>60.99999999999999</ele><time>2026-03-22T13:52:03Z</time></trkpt><trkpt lat="45.620902707677274" lon="-0.19741745870810815"><ele>61.0</ele><time>2026-03-22T13:52:04Z</time></trkpt><trkpt lat="45.62093892891052" lon="-0.19750265455512767"><ele>60.99999999999999</ele><time>2026-03-22T13:52:05Z</time></trkpt><trkpt lat="45.620976085397984" lon="-0.19758991195940512"><ele>60.99999999999999</ele><time>2026-03-22T13:52:06Z</time></trkpt><trkpt lat="45.621016058818014" lon="-0.1976790424505826"><ele>61.0</ele><time>2026-03-22T13:52:07Z</time></trkpt><trkpt lat="45.62105627971961" lon="-0.19776226295510893"><ele>60.99999999999999</ele><time>2026-03-22T13:52:08Z</time></trkpt><trkpt lat="45.62110155224618" lon="-0.1978463509847977"><ele>60.99999999999999</ele><time>2026-03-22T13:52:09Z</time></trkpt><trkpt lat="45.62115033981019" lon="-0.1979277630696844"><ele>60.99999999999999</ele><time>2026-03-22T13:52:10Z</time></trkpt><trkpt lat="45.621201521378374" lon="-0.1979985200620134"><ele>61.0</ele><time>2026-03-22T13:52:11Z</time></trkpt><trkpt lat="45.621258127335274" lon="-0.19807635356090972"><ele>60.99999999999999</ele><time>2026-03-22T13:52:12Z</time></trkpt><trkpt lat="45.621312123903714" lon="-0.19814378868929594"><ele>60.99999999999999</ele><time>2026-03-22T13:52:13Z</time></trkpt><trkpt lat="45.62136830859678" lon="-0.19820398563121977"><ele>61.0</ele><time>2026-03-22T13:52:14Z</time></trkpt><trkpt lat="45.621431091222895" lon="-0.19827013898626972"><ele>60.99999999999999</ele><time>2026-03-22T13:52:15Z</time></trkpt><trkpt lat="45.62150745205182" lon="-0.19830238729739086"><ele>60.99999999999999</ele><time>2026-03-22T13:52:16Z</time></trkpt><trkpt lat="45.6215772120391" lon="-0.1983537312526926"><ele>60.166666666666664</ele><time>2026-03-22T13:52:17Z</time></trkpt><trkpt lat="45.621650670799355" lon="-0.1984041582124772"><ele>59.33333333333333</ele><time>2026-03-22T13:52:18Z</time></trkpt><trkpt lat="45.62172575000336" lon="-0.19845338051104036"><ele>58.5</ele><time>2026-03-22T13:52:19Z</time></trkpt><trkpt lat="45.62180420149225" lon="-0.19850176558058555"><ele>57.66666666666667</ele><time>2026-03-22T13:52:20Z</time></trkpt><trkpt lat="45.62187999870495" lon="-0.1985440404901357"><ele>56.833333333333336</ele><time>2026-03-22T13:52:21Z</time></trkpt><trkpt lat="45.621947269853905" lon="-0.19858089748910265"><ele>56.0</ele><time>2026-03-22T13:52:22Z</time></trkpt><trkpt lat="45.62201347962105" lon="-0.198617172981951"><ele>56.00000000000001</ele><time>2026-03-22T13:52:23Z</time></trkpt><trkpt lat="45.62207492593707" lon="-0.19865234689466096"><ele>56.0</ele><time>2026-03-22T13:52:24Z</time></trkpt><trkpt lat="45.62213632826719" lon="-0.1986879630472583"><ele>56.0</ele><time>2026-03-22T13:52:25Z</time></trkpt><trkpt lat="45.62221216881383" lon="-0.19873195401730695"><ele>56.0</ele><time>2026-03-22T13:52:26Z</time></trkpt><trkpt lat="45.62227792767923" lon="-0.19879508310512836"><ele>56.00000000000001</ele><time>2026-03-22T13:52:27Z</time></trkpt><trkpt lat="45.62235496251461" lon="-0.1988378691171917"><ele>56.0</ele><time>2026-03-22T13:52:28Z</time></trkpt><trkpt lat="45.622437690109784" lon="-0.19887810969403702"><ele>56.0</ele><time>2026-03-22T13:52:29Z</time></trkpt><trkpt lat="45.62252906193348" lon="-0.19890111204330402"><ele>55.99999999999999</ele><time>2026-03-22T13:52:30Z</time></trkpt><trkpt lat="45.62261462123572" lon="-0.19896522280978945"><ele>55.99999999999999</ele><time>2026-03-22T13:52:31Z</time></trkpt><trkpt lat="45.62270333544217" lon="-0.19901025691340424"><ele>56.0</ele><time>2026-03-22T13:52:32Z</time></trkpt><trkpt lat="45.622791777993555" lon="-0.19904907124134608"><ele>56.0</ele><time>2026-03-22T13:52:33Z</time></trkpt><trkpt lat="45.62287441566682" lon="-0.19907980188377075"><ele>55.333333333333336</ele><time>2026-03-22T13:52:34Z</time></trkpt><trkpt lat="45.62296226686118" lon="-0.19911819786096024"><ele>54.66666666666667</ele><time>2026-03-22T13:52:35Z</time></trkpt><trkpt lat="45.62305004185073" lon="-0.19914668275091793"><ele>54.0</ele><time>2026-03-22T13:52:36Z</time></trkpt><trkpt lat="45.62313206897415" lon="-0.19918067280747115"><ele>53.33333333333333</ele><time>2026-03-22T13:52:37Z</time></trkpt><trkpt lat="45.62320715729804" lon="-0.1992150067389011"><ele>52.666666666666664</ele><time>2026-03-22T13:52:38Z</time></trkpt><trkpt lat="45.62328042866119" lon="-0.19924033812891961"><ele>52.0</ele><time>2026-03-22T13:52:39Z</time></trkpt><trkpt lat="45.62337923113626" lon="-0.1992758163172491"><ele>52.0</ele><time>2026-03-22T13:52:41Z</time></trkpt><trkpt lat="45.6233812380741" lon="-0.19903632228875884"><ele>52.0</ele><time>2026-03-22T13:52:47Z</time></trkpt><trkpt lat="45.62335754658913" lon="-0.1988697055575992"><ele>52.0</ele><time>2026-03-22T13:52:49Z</time></trkpt><trkpt lat="45.62336619745113" lon="-0.1987723229919192"><ele>52.0</ele><time>2026-03-22T13:52:50Z</time></trkpt><trkpt lat="45.62337716138125" lon="-0.1986827952631497"><ele>52.0</ele><time>2026-03-22T13:52:51Z</time></trkpt><trkpt lat="45.62339321901467" lon="-0.19851865931031873"><ele>52.5</ele><time>2026-03-22T13:52:53Z</time></trkpt><trkpt lat="45.6233951322741" lon="-0.19835475393664964"><ele>53.0</ele><time>2026-03-22T13:52:55Z</time></trkpt><trkpt lat="45.62340097935762" lon="-0.19820886939723875"><ele>53.5</ele><time>2026-03-22T13:52:57Z</time></trkpt><trkpt lat="45.62341092382979" lon="-0.19805758765677337"><ele>54.0</ele><time>2026-03-22T13:52:59Z</time></trkpt><trkpt lat="45.62339414934613" lon="-0.1978646995858839"><ele>54.2</ele><time>2026-03-22T13:53:01Z</time></trkpt><trkpt lat="45.62340601959263" lon="-0.19770129768519693"><ele>54.400000000000006</ele><time>2026-03-22T13:53:03Z</time></trkpt><trkpt lat="45.62339050519023" lon="-0.19757323632588872"><ele>54.6</ele><time>2026-03-22T13:53:05Z</time></trkpt><trkpt lat="45.62333127167611" lon="-0.19749052067623707"><ele>54.8</ele><time>2026-03-22T13:53:07Z</time></trkpt><trkpt lat="45.62323728512312" lon="-0.19748783340231377"><ele>55.0</ele><time>2026-03-22T13:53:10Z</time></trkpt><trkpt lat="45.623143508964134" lon="-0.19740195396581667"><ele>54.99999999999999</ele><time>2026-03-22T13:55:57Z</time></trkpt><trkpt lat="45.62303415652739" lon="-0.19736382633832086"><ele>55.0</ele><time>2026-03-22T13:55:59Z</time></trkpt><trkpt lat="45.6229676422989" lon="-0.19734919440740692"><ele>55.0</ele><time>2026-03-22T13:56:00Z</time></trkpt><trkpt lat="45.62285738097498" lon="-0.1972881760768493"><ele>55.0</ele><time>2026-03-22T13:56:02Z</time></trkpt><trkpt lat="45.622792519736514" lon="-0.19725816209888947"><ele>54.99999999999999</ele><time>2026-03-22T13:56:03Z</time></trkpt><trkpt lat="45.62272710432015" lon="-0.1972361522038488"><ele>55.0</ele><time>2026-03-22T13:56:04Z</time></trkpt><trkpt lat="45.62266381074898" lon="-0.19721711553851"><ele>56.8</ele><time>2026-03-22T13:56:05Z</time></trkpt><trkpt lat="45.622587879004456" lon="-0.19716891505262696"><ele>58.6</ele><time>2026-03-22T13:56:06Z</time></trkpt><trkpt lat="45.6225146135276" lon="-0.19714049195331582"><ele>60.400000000000006</ele><time>2026-03-22T13:56:07Z</time></trkpt><trkpt lat="45.622441658769915" lon="-0.19706687951841687"><ele>62.2</ele><time>2026-03-22T13:56:08Z</time></trkpt><trkpt lat="45.62230493512352" lon="-0.1970271335565945"><ele>64.0</ele><time>2026-03-22T13:56:10Z</time></trkpt><trkpt lat="45.622243607755294" lon="-0.19700674559008421"><ele>64.0</ele><time>2026-03-22T13:56:11Z</time></trkpt><trkpt lat="45.62214249917679" lon="-0.196961240781933"><ele>64.0</ele><time>2026-03-22T13:56:13Z</time></trkpt><trkpt lat="45.622092283208254" lon="-0.1968899934917715"><ele>64.0</ele><time>2026-03-22T13:56:15Z</time></trkpt><trkpt lat="45.6221003996539" lon="-0.19676345285118052"><ele>64.0</ele><time>2026-03-22T13:56:17Z</time></trkpt><trkpt lat="45.62204862281646" lon="-0.19660082294760736"><ele>64.0</ele><time>2026-03-22T13:56:19Z</time></trkpt><trkpt lat="45.62201004192829" lon="-0.1965188988588005"><ele>67.0</ele><time>2026-03-22T13:56:20Z</time></trkpt><trkpt lat="45.621954906059194" lon="-0.19643119288150535"><ele>70.0</ele><time>2026-03-22T13:56:21Z</time></trkpt><trkpt lat="45.62191500848906" lon="-0.19635668944284593"><ele>73.0</ele><time>2026-03-22T13:56:22Z</time></trkpt><trkpt lat="45.621850619195634" lon="-0.19630326652124774"><ele>76.0</ele><time>2026-03-22T13:56:23Z</time></trkpt><trkpt lat="45.62179413709359" lon="-0.19623637974956695"><ele>79.0</ele><time>2026-03-22T13:56:24Z</time></trkpt><trkpt lat="45.62170992349342" lon="-0.19607129332511142"><ele>82.0</ele><time>2026-03-22T13:56:26Z</time></trkpt><trkpt lat="45.62166786887472" lon="-0.1959785378572986"><ele>82.0</ele><time>2026-03-22T13:56:27Z</time></trkpt><trkpt lat="45.62163258311689" lon="-0.19589685658767908"><ele>82.0</ele><time>2026-03-22T13:56:28Z</time></trkpt><trkpt lat="45.62159231695397" lon="-0.19582077711622856"><ele>82.0</ele><time>2026-03-22T13:56:29Z</time></trkpt><trkpt lat="45.621550766312524" lon="-0.19567329626294308"><ele>82.0</ele><time>2026-03-22T13:56:31Z</time></trkpt><trkpt lat="45.62151571372727" lon="-0.19557922427022112"><ele>82.0</ele><time>2026-03-22T13:56:32Z</time></trkpt><trkpt lat="45.621482714733304" lon="-0.19547196249688015"><ele>82.0</ele><time>2026-03-22T13:56:33Z</time></trkpt><trkpt lat="45.62145033628564" lon="-0.19538443118923554"><ele>83.19999999999999</ele><time>2026-03-22T13:56:34Z</time></trkpt><trkpt lat="45.62142792864585" lon="-0.19526972260957481"><ele>84.4</ele><time>2026-03-22T13:56:35.999Z</time></trkpt><trkpt lat="45.62139493645352" lon="-0.19516547965756875"><ele>85.6</ele><time>2026-03-22T13:56:36.999Z</time></trkpt><trkpt lat="45.62136251722665" lon="-0.19500600749497954"><ele>86.80000000000001</ele><time>2026-03-22T13:56:38.999Z</time></trkpt><trkpt lat="45.62130984423312" lon="-0.19485909266344578"><ele>88.0</ele><time>2026-03-22T13:56:40.999Z</time></trkpt><trkpt lat="45.62128054211958" lon="-0.1947657210141229"><ele>88.16666666666666</ele><time>2026-03-22T13:56:41.999Z</time></trkpt><trkpt lat="45.621267611806104" lon="-0.1946539237986877"><ele>88.33333333333333</ele><time>2026-03-22T13:56:42.999Z</time></trkpt><trkpt lat="45.62119602832608" lon="-0.19449810798152478"><ele>88.5</ele><time>2026-03-22T13:56:44.999Z</time></trkpt><trkpt lat="45.62117000169572" lon="-0.19440429657852207"><ele>88.66666666666667</ele><time>2026-03-22T13:56:45.999Z</time></trkpt><trkpt lat="45.62114524507261" lon="-0.19431951786324086"><ele>88.83333333333334</ele><time>2026-03-22T13:56:46.999Z</time></trkpt><trkpt lat="45.62111293803212" lon="-0.19423169650865166"><ele>89.0</ele><time>2026-03-22T13:56:47.999Z</time></trkpt><trkpt lat="45.62107711453731" lon="-0.19414599364285043"><ele>88.66666666666667</ele><time>2026-03-22T13:56:48.999Z</time></trkpt><trkpt lat="45.62104069004175" lon="-0.19405635301839333"><ele>88.33333333333334</ele><time>2026-03-22T13:56:49.999Z</time></trkpt><trkpt lat="45.62100628372391" lon="-0.19397214648372776"><ele>88.0</ele><time>2026-03-22T13:56:50.999Z</time></trkpt><trkpt lat="45.62096227076679" lon="-0.19388744790425333"><ele>87.66666666666667</ele><time>2026-03-22T13:56:51.999Z</time></trkpt><trkpt lat="45.620904074298956" lon="-0.19375409731302923"><ele>87.33333333333333</ele><time>2026-03-22T13:56:54Z</time></trkpt><trkpt lat="45.62086858938973" lon="-0.19367422405509538"><ele>87.0</ele><time>2026-03-22T13:56:55Z</time></trkpt><trkpt lat="45.62080797886194" lon="-0.193587822065736"><ele>88.16666666666667</ele><time>2026-03-22T13:56:56Z</time></trkpt><trkpt lat="45.62075810097019" lon="-0.1935119256382709"><ele>89.33333333333333</ele><time>2026-03-22T13:56:57Z</time></trkpt><trkpt lat="45.62070676089917" lon="-0.19343165011800686"><ele>90.5</ele><time>2026-03-22T13:56:58Z</time></trkpt><trkpt lat="45.6206584950614" lon="-0.19336551605482852"><ele>91.66666666666666</ele><time>2026-03-22T13:56:59Z</time></trkpt><trkpt lat="45.62061202497686" lon="-0.1932917802593949"><ele>92.83333333333333</ele><time>2026-03-22T13:57:00Z</time></trkpt><trkpt lat="45.62056036574763" lon="-0.1932296159839754"><ele>94.0</ele><time>2026-03-22T13:57:01Z</time></trkpt><trkpt lat="45.62048631614782" lon="-0.1931144944900313"><ele>94.16666666666666</ele><time>2026-03-22T13:57:03Z</time></trkpt><trkpt lat="45.6204057458906" lon="-0.19298311837627347"><ele>94.33333333333333</ele><time>2026-03-22T13:57:05Z</time></trkpt><trkpt lat="45.62036121712603" lon="-0.19290489799387062"><ele>94.5</ele><time>2026-03-22T13:57:06Z</time></trkpt><trkpt lat="45.620317475116785" lon="-0.1928231558933626"><ele>94.66666666666667</ele><time>2026-03-22T13:57:07Z</time></trkpt><trkpt lat="45.6202630138422" lon="-0.19273026739803303"><ele>94.83333333333334</ele><time>2026-03-22T13:57:08Z</time></trkpt><trkpt lat="45.62021360750979" lon="-0.19264789320957035"><ele>95.0</ele><time>2026-03-22T13:57:09Z</time></trkpt><trkpt lat="45.620178937656355" lon="-0.1925459744426991"><ele>94.66666666666667</ele><time>2026-03-22T13:57:10Z</time></trkpt><trkpt lat="45.620140159305755" lon="-0.19244573901215506"><ele>94.33333333333334</ele><time>2026-03-22T13:57:11Z</time></trkpt><trkpt lat="45.62011301829138" lon="-0.19234980845885327"><ele>94.0</ele><time>2026-03-22T13:57:12Z</time></trkpt><trkpt lat="45.62005946868004" lon="-0.1922516013950423"><ele>93.66666666666667</ele><time>2026-03-22T13:57:13Z</time></trkpt><trkpt lat="45.62000890168365" lon="-0.1921570921617385"><ele>93.33333333333333</ele><time>2026-03-22T13:57:14Z</time></trkpt><trkpt lat="45.61993485692588" lon="-0.19204882972244763"><ele>93.0</ele><time>2026-03-22T13:57:15Z</time></trkpt><trkpt lat="45.619867540492365" lon="-0.1919930499662315"><ele>93.83333333333333</ele><time>2026-03-22T13:57:16Z</time></trkpt><trkpt lat="45.619798285980444" lon="-0.19193267559223395"><ele>94.66666666666666</ele><time>2026-03-22T13:57:17Z</time></trkpt><trkpt lat="45.61973211329408" lon="-0.1918709497360431"><ele>95.5</ele><time>2026-03-22T13:57:18Z</time></trkpt><trkpt lat="45.61966153699177" lon="-0.19179885143461828"><ele>96.33333333333333</ele><time>2026-03-22T13:57:19Z</time></trkpt><trkpt lat="45.61957438867112" lon="-0.19175616750067284"><ele>97.16666666666666</ele><time>2026-03-22T13:57:20Z</time></trkpt><trkpt lat="45.61950416574843" lon="-0.19173731173846364"><ele>98.0</ele><time>2026-03-22T13:57:21Z</time></trkpt><trkpt lat="45.619425971704175" lon="-0.19170571264748384"><ele>97.99999999999999</ele><time>2026-03-22T13:57:22Z</time></trkpt><trkpt lat="45.61935622040026" lon="-0.191672968425083"><ele>98.0</ele><time>2026-03-22T13:57:23Z</time></trkpt><trkpt lat="45.61928676290493" lon="-0.19166596935432317"><ele>98.0</ele><time>2026-03-22T13:57:24Z</time></trkpt><trkpt lat="45.61920948676672" lon="-0.19167936799609817"><ele>98.0</ele><time>2026-03-22T13:57:25Z</time></trkpt><trkpt lat="45.61913440217774" lon="-0.19170661997793834"><ele>97.99999999999999</ele><time>2026-03-22T13:57:26Z</time></trkpt><trkpt lat="45.619057173391894" lon="-0.19174624777582203"><ele>98.0</ele><time>2026-03-22T13:57:27Z</time></trkpt><trkpt lat="45.61897201427455" lon="-0.19182722536721086"><ele>97.99999999999999</ele><time>2026-03-22T13:57:28Z</time></trkpt><trkpt lat="45.618898282660076" lon="-0.19191823328192356"><ele>98.0</ele><time>2026-03-22T13:57:29Z</time></trkpt><trkpt lat="45.61883266536516" lon="-0.19199377221812383"><ele>98.0</ele><time>2026-03-22T13:57:30Z</time></trkpt><trkpt lat="45.618782056588806" lon="-0.1920663323568967"><ele>98.0</ele><time>2026-03-22T13:57:31Z</time></trkpt><trkpt lat="45.61869222961399" lon="-0.1921363338706815"><ele>97.99999999999999</ele><time>2026-03-22T13:57:33Z</time></trkpt><trkpt lat="45.61861985898632" lon="-0.19212735254486638"><ele>98.0</ele><time>2026-03-22T13:57:34Z</time></trkpt><trkpt lat="45.61854459130283" lon="-0.1920894098782135"><ele>97.25</ele><time>2026-03-22T13:57:35Z</time></trkpt><trkpt lat="45.618455235430226" lon="-0.19206481627813687"><ele>96.5</ele><time>2026-03-22T13:57:36Z</time></trkpt><trkpt lat="45.618337528674786" lon="-0.19204522434886911"><ele>95.75</ele><time>2026-03-22T13:57:37Z</time></trkpt><trkpt lat="45.61819699474828" lon="-0.19197311209922593"><ele>95.0</ele><time>2026-03-22T13:57:38Z</time></trkpt><trkpt lat="45.61808432090981" lon="-0.19192550187943422"><ele>95.0</ele><time>2026-03-22T13:57:39Z</time></trkpt><trkpt lat="45.61801149726728" lon="-0.1918775672796631"><ele>95.0</ele><time>2026-03-22T13:57:40Z</time></trkpt><trkpt lat="45.617902897346724" lon="-0.19178053549115015"><ele>95.0</ele><time>2026-03-22T13:57:42Z</time></trkpt><trkpt lat="45.61781713684302" lon="-0.19164351776491514"><ele>95.0</ele><time>2026-03-22T13:57:44Z</time></trkpt><trkpt lat="45.617782420213686" lon="-0.19155973553108513"><ele>95.0</ele><time>2026-03-22T13:57:45Z</time></trkpt><trkpt lat="45.61774951448709" lon="-0.19146474541331987"><ele>95.16666666666667</ele><time>2026-03-22T13:57:46Z</time></trkpt><trkpt lat="45.6177157736753" lon="-0.19137259863974226"><ele>95.33333333333334</ele><time>2026-03-22T13:57:47Z</time></trkpt><trkpt lat="45.617696731634624" lon="-0.1912852997672584"><ele>95.5</ele><time>2026-03-22T13:57:48Z</time></trkpt><trkpt lat="45.617687757238" lon="-0.1911926766080537"><ele>95.66666666666667</ele><time>2026-03-22T13:57:49Z</time></trkpt><trkpt lat="45.617665400985054" lon="-0.19106372083173487"><ele>95.83333333333333</ele><time>2026-03-22T13:57:51Z</time></trkpt><trkpt lat="45.617584795092725" lon="-0.1910662090989382"><ele>96.0</ele><time>2026-03-22T13:57:54Z</time></trkpt><trkpt lat="45.617509533512916" lon="-0.19112268773362184"><ele>95.99999999999999</ele><time>2026-03-22T13:57:56Z</time></trkpt><trkpt lat="45.6174626782185" lon="-0.19123225334364252"><ele>96.0</ele><time>2026-03-22T13:57:58Z</time></trkpt><trkpt lat="45.6174446269689" lon="-0.191326908080267"><ele>96.0</ele><time>2026-03-22T13:57:59Z</time></trkpt><trkpt lat="45.61741091906049" lon="-0.19142040709789454"><ele>96.0</ele><time>2026-03-22T13:58:00Z</time></trkpt><trkpt lat="45.61740375817981" lon="-0.1915223108943769"><ele>96.0</ele><time>2026-03-22T13:58:01Z</time></trkpt><trkpt lat="45.61739758506511" lon="-0.19162020760354043"><ele>95.99999999999999</ele><time>2026-03-22T13:58:02Z</time></trkpt><trkpt lat="45.61737857007788" lon="-0.19172177352606679"><ele>96.0</ele><time>2026-03-22T13:58:03Z</time></trkpt><trkpt lat="45.6173564740614" lon="-0.19182776910980734"><ele>94.66666666666667</ele><time>2026-03-22T13:58:04Z</time></trkpt><trkpt lat="45.617322849432405" lon="-0.19194926849345031"><ele>93.33333333333333</ele><time>2026-03-22T13:58:05Z</time></trkpt><trkpt lat="45.61729044954853" lon="-0.1920543796866562"><ele>92.0</ele><time>2026-03-22T13:58:06Z</time></trkpt><trkpt lat="45.61725999794389" lon="-0.19216327546398654"><ele>90.66666666666666</ele><time>2026-03-22T13:58:07Z</time></trkpt><trkpt lat="45.61723784564803" lon="-0.19225447749161653"><ele>89.33333333333333</ele><time>2026-03-22T13:58:08Z</time></trkpt><trkpt lat="45.617212888291206" lon="-0.19235084715719392"><ele>88.0</ele><time>2026-03-22T13:58:09Z</time></trkpt><trkpt lat="45.61719744287797" lon="-0.19243840007415616"><ele>86.16666666666666</ele><time>2026-03-22T13:58:10Z</time></trkpt><trkpt lat="45.61717732994861" lon="-0.1926179508306276"><ele>84.33333333333333</ele><time>2026-03-22T13:58:12Z</time></trkpt><trkpt lat="45.617139780378835" lon="-0.19269558437880038"><ele>82.5</ele><time>2026-03-22T13:58:13Z</time></trkpt><trkpt lat="45.61711229728157" lon="-0.19282774252692697"><ele>80.66666666666667</ele><time>2026-03-22T13:58:15Z</time></trkpt><trkpt lat="45.61710159026907" lon="-0.19293633619012"><ele>78.83333333333334</ele><time>2026-03-22T13:58:20Z</time></trkpt><trkpt lat="45.6170583140663" lon="-0.19300602346908666"><ele>77.0</ele><time>2026-03-22T13:58:30Z</time></trkpt><trkpt lat="45.61708656514034" lon="-0.19288961779573605"><ele>77.0</ele><time>2026-03-22T13:58:36Z</time></trkpt><trkpt lat="45.61714362652848" lon="-0.19275047777645682"><ele>77.0</ele><time>2026-03-22T13:58:39Z</time></trkpt><trkpt lat="45.61716450515085" lon="-0.19266309735328327"><ele>77.0</ele><time>2026-03-22T13:58:40Z</time></trkpt><trkpt lat="45.61718163622923" lon="-0.19253740313573162"><ele>77.0</ele><time>2026-03-22T13:58:41.999Z</time></trkpt><trkpt lat="45.61720629893463" lon="-0.19242038187307972"><ele>77.0</ele><time>2026-03-22T13:58:43.999Z</time></trkpt><trkpt lat="45.61722181527558" lon="-0.19232866316432434"><ele>77.0</ele><time>2026-03-22T13:58:45.999Z</time></trkpt><trkpt lat="45.617238493286536" lon="-0.19223013203200226"><ele>78.83333333333334</ele><time>2026-03-22T13:58:47.999Z</time></trkpt><trkpt lat="45.61727913313349" lon="-0.192135608356215"><ele>80.66666666666667</ele><time>2026-03-22T13:58:49.999Z</time></trkpt><trkpt lat="45.61728532972543" lon="-0.19201584838687233"><ele>82.5</ele><time>2026-03-22T13:58:51.999Z</time></trkpt><trkpt lat="45.617320596570885" lon="-0.191904963165517"><ele>84.33333333333333</ele><time>2026-03-22T13:58:53.999Z</time></trkpt><trkpt lat="45.61735176172702" lon="-0.1917869842778562"><ele>86.16666666666666</ele><time>2026-03-22T14:00:11Z</time></trkpt><trkpt lat="45.61738537857044" lon="-0.19167708586173146"><ele>88.0</ele><time>2026-03-22T14:00:13Z</time></trkpt><trkpt lat="45.61740663263581" lon="-0.19153724982249642"><ele>89.60000000000001</ele><time>2026-03-22T14:00:15Z</time></trkpt><trkpt lat="45.61742227036546" lon="-0.1914128362189965"><ele>91.2</ele><time>2026-03-22T14:00:17Z</time></trkpt><trkpt lat="45.617442113175535" lon="-0.19126142506087154"><ele>92.8</ele><time>2026-03-22T14:00:19Z</time></trkpt><trkpt lat="45.61748405605306" lon="-0.191138737905414"><ele>94.4</ele><time>2026-03-22T14:00:21Z</time></trkpt><trkpt lat="45.61754617730387" lon="-0.19104636965062186"><ele>96.0</ele><time>2026-03-22T14:00:23Z</time></trkpt><trkpt lat="45.61761715049696" lon="-0.19103363731063444"><ele>96.0</ele><time>2026-03-22T14:00:25Z</time></trkpt><trkpt lat="45.61768949187131" lon="-0.1910565783934365"><ele>96.0</ele><time>2026-03-22T14:00:27Z</time></trkpt><trkpt lat="45.61776311954493" lon="-0.19100619527084775"><ele>96.0</ele><time>2026-03-22T14:00:50Z</time></trkpt><trkpt lat="45.61779703252195" lon="-0.19084224356482385"><ele>96.0</ele><time>2026-03-22T14:00:53Z</time></trkpt><trkpt lat="45.61783280920544" lon="-0.19076366590009058"><ele>96.0</ele><time>2026-03-22T14:00:55Z</time></trkpt><trkpt lat="45.61788027251868" lon="-0.19069975816792126"><ele>96.0</ele><time>2026-03-22T14:00:57Z</time></trkpt><trkpt lat="45.61792466814032" lon="-0.1907781180909843"><ele>95.99999999999999</ele><time>2026-03-22T14:01:00Z</time></trkpt><trkpt lat="45.61786168132081" lon="-0.19085796016800513"><ele>96.0</ele><time>2026-03-22T14:01:03Z</time></trkpt><trkpt lat="45.61780583153187" lon="-0.19091166419712416"><ele>96.0</ele><time>2026-03-22T14:01:05Z</time></trkpt><trkpt lat="45.61774741092313" lon="-0.19096019407676978"><ele>96.0</ele><time>2026-03-22T14:01:07Z</time></trkpt><trkpt lat="45.61770324069989" lon="-0.19104074847069216"><ele>96.0</ele><time>2026-03-22T14:01:10Z</time></trkpt><trkpt lat="45.61764457642078" lon="-0.191074379694774"><ele>95.99999999999999</ele><time>2026-03-22T14:01:14Z</time></trkpt><trkpt lat="45.6175647110654" lon="-0.19104859704926413"><ele>96.0</ele><time>2026-03-22T14:01:46.001Z</time></trkpt><trkpt lat="45.61750245088237" lon="-0.19106905022618553"><ele>96.0</ele><time>2026-03-22T14:01:49.001Z</time></trkpt><trkpt lat="45.617475569855145" lon="-0.19115102967957592"><ele>96.0</ele><time>2026-03-22T14:01:56.001Z</time></trkpt><trkpt lat="45.61743956706619" lon="-0.19124549795117674"><ele>96.0</ele><time>2026-03-22T14:02:02.001Z</time></trkpt><trkpt lat="45.617428678227625" lon="-0.19136718680787293"><ele>96.0</ele><time>2026-03-22T14:02:05.001Z</time></trkpt><trkpt lat="45.61741999552747" lon="-0.1914583620561679"><ele>96.0</ele><time>2026-03-22T14:02:07.001Z</time></trkpt><trkpt lat="45.617395127144306" lon="-0.19158949172650544"><ele>96.0</ele><time>2026-03-22T14:02:10.001Z</time></trkpt><trkpt lat="45.61737819976431" lon="-0.19169242337583062"><ele>94.66666666666667</ele><time>2026-03-22T14:02:13.001Z</time></trkpt><trkpt lat="45.61733525119085" lon="-0.19180561713344327"><ele>93.33333333333333</ele><time>2026-03-22T14:02:16.001Z</time></trkpt><trkpt lat="45.617319692330966" lon="-0.19191161164311676"><ele>92.0</ele><time>2026-03-22T14:02:19.001Z</time></trkpt><trkpt lat="45.61728673732258" lon="-0.1920051678753054"><ele>90.66666666666666</ele><time>2026-03-22T14:02:22.001Z</time></trkpt><trkpt lat="45.61726770123022" lon="-0.19212222944095875"><ele>89.33333333333333</ele><time>2026-03-22T14:02:25.001Z</time></trkpt><trkpt lat="45.61722639572145" lon="-0.19219795291749717"><ele>88.0</ele><time>2026-03-22T14:02:29.001Z</time></trkpt><trkpt lat="45.617200872638335" lon="-0.1922914592909633"><ele>88.0</ele><time>2026-03-22T14:04:33.001Z</time></trkpt><trkpt lat="45.617194218617385" lon="-0.19238548862138552"><ele>88.0</ele><time>2026-03-22T14:04:37.001Z</time></trkpt><trkpt lat="45.61726743362899" lon="-0.19241224625480258"><ele>88.0</ele><time>2026-03-22T14:04:46.001Z</time></trkpt><trkpt lat="45.61733197570019" lon="-0.19241992246512354"><ele>88.0</ele><time>2026-03-22T14:04:49.001Z</time></trkpt><trkpt lat="45.61726731882993" lon="-0.1923994103855078"><ele>88.0</ele><time>2026-03-22T14:05:15Z</time></trkpt><trkpt lat="45.61721614965862" lon="-0.19231822934654977"><ele>88.0</ele><time>2026-03-22T14:05:21Z</time></trkpt><trkpt lat="45.617235622861536" lon="-0.19222053337782313"><ele>88.0</ele><time>2026-03-22T14:05:28Z</time></trkpt><trkpt lat="45.61721999428869" lon="-0.19211860486601465"><ele>88.0</ele><time>2026-03-22T14:07:45Z</time></trkpt><trkpt lat="45.61722323362398" lon="-0.19222149826840176"><ele>88.0</ele><time>2026-03-22T14:07:58Z</time></trkpt><trkpt lat="45.61719435228388" lon="-0.1923065741648499"><ele>88.0</ele><time>2026-03-22T14:08:04Z</time></trkpt><trkpt lat="45.6171687488029" lon="-0.19240251492053706"><ele>88.0</ele><time>2026-03-22T14:08:10Z</time></trkpt><trkpt lat="45.617117222010144" lon="-0.19234654284567876"><ele>88.0</ele><time>2026-03-22T14:08:16Z</time></trkpt><trkpt lat="45.61715700212311" lon="-0.1922634288588329"><ele>88.0</ele><time>2026-03-22T14:08:21.001Z</time></trkpt><trkpt lat="45.61717062927477" lon="-0.1921644005391874"><ele>88.0</ele><time>2026-03-22T14:08:27.001Z</time></trkpt><trkpt lat="45.61716892375616" lon="-0.19225711566094414"><ele>86.42857142857143</ele><time>2026-03-22T14:08:51.001Z</time></trkpt><trkpt lat="45.61715254491963" lon="-0.19235774011434326"><ele>84.85714285714286</ele><time>2026-03-22T14:08:56.001Z</time></trkpt><trkpt lat="45.61714003219328" lon="-0.19245074797930695"><ele>83.28571428571428</ele><time>2026-03-22T14:09:01.001Z</time></trkpt><trkpt lat="45.61721273987092" lon="-0.19243808723618425"><ele>81.71428571428572</ele><time>2026-03-22T14:09:13Z</time></trkpt><trkpt lat="45.61728040346213" lon="-0.19240564597527055"><ele>80.14285714285714</ele><time>2026-03-22T14:09:20Z</time></trkpt><trkpt lat="45.617351539755745" lon="-0.19242779399525545"><ele>78.57142857142857</ele><time>2026-03-22T14:10:34.001Z</time></trkpt><trkpt lat="45.617368351118465" lon="-0.19251986859373485"><ele>77.0</ele><time>2026-03-22T14:11:54Z</time></trkpt><trkpt lat="45.61729672794027" lon="-0.19249046011614188"><ele>77.0</ele><time>2026-03-22T14:12:02Z</time></trkpt><trkpt lat="45.61722845205273" lon="-0.19243795145140224"><ele>77.0</ele><time>2026-03-22T14:12:05Z</time></trkpt><trkpt lat="45.617160026086765" lon="-0.1925223131940381"><ele>77.0</ele><time>2026-03-22T14:12:10Z</time></trkpt><trkpt lat="45.61715154202183" lon="-0.19262465158809294"><ele>77.0</ele><time>2026-03-22T14:12:12Z</time></trkpt><trkpt lat="45.61713168384206" lon="-0.19272360682758075"><ele>77.0</ele><time>2026-03-22T14:12:14Z</time></trkpt><trkpt lat="45.617111974999276" lon="-0.1928214230356093"><ele>77.0</ele><time>2026-03-22T14:12:16Z</time></trkpt><trkpt lat="45.617084113661086" lon="-0.192904141974387"><ele>77.0</ele><time>2026-03-22T14:12:18Z</time></trkpt><trkpt lat="45.61701956433335" lon="-0.1929738270932176"><ele>75.66666666666667</ele><time>2026-03-22T14:12:22Z</time></trkpt><trkpt lat="45.616975552571176" lon="-0.19289603228711502"><ele>74.33333333333334</ele><time>2026-03-22T14:12:24Z</time></trkpt><trkpt lat="45.616943889875564" lon="-0.19281469864033712"><ele>73.0</ele><time>2026-03-22T14:12:25.001Z</time></trkpt><trkpt lat="45.61692038444543" lon="-0.1927239931976142"><ele>71.66666666666667</ele><time>2026-03-22T14:12:26.001Z</time></trkpt><trkpt lat="45.6168842566848" lon="-0.19262383548185538"><ele>70.33333333333333</ele><time>2026-03-22T14:12:27.001Z</time></trkpt><trkpt lat="45.61680851477841" lon="-0.1925291789523788"><ele>69.0</ele><time>2026-03-22T14:12:28.001Z</time></trkpt><trkpt lat="45.616772911182785" lon="-0.1924048521454706"><ele>70.0</ele><time>2026-03-22T14:12:29.001Z</time></trkpt><trkpt lat="45.616739814992265" lon="-0.1922895863125058"><ele>71.0</ele><time>2026-03-22T14:12:30.001Z</time></trkpt><trkpt lat="45.61670996038763" lon="-0.19218203557656352"><ele>72.0</ele><time>2026-03-22T14:12:31.001Z</time></trkpt><trkpt lat="45.61667870404299" lon="-0.192069435207074"><ele>73.0</ele><time>2026-03-22T14:12:32.001Z</time></trkpt><trkpt lat="45.61664547459858" lon="-0.19194972682254455"><ele>74.0</ele><time>2026-03-22T14:12:33.001Z</time></trkpt><trkpt lat="45.6166114002699" lon="-0.1918269745748748"><ele>75.0</ele><time>2026-03-22T14:12:34.001Z</time></trkpt><trkpt lat="45.61658274021143" lon="-0.1917181349027011"><ele>75.0</ele><time>2026-03-22T14:12:35.001Z</time></trkpt><trkpt lat="45.61655003046427" lon="-0.19159479450981728"><ele>75.0</ele><time>2026-03-22T14:12:36.001Z</time></trkpt><trkpt lat="45.61651832883814" lon="-0.19147525541453436"><ele>75.0</ele><time>2026-03-22T14:12:37.001Z</time></trkpt><trkpt lat="45.61648494490996" lon="-0.19135502507857616"><ele>75.0</ele><time>2026-03-22T14:12:38.001Z</time></trkpt><trkpt lat="45.616449715610486" lon="-0.19123247399694002"><ele>75.0</ele><time>2026-03-22T14:12:39.001Z</time></trkpt><trkpt lat="45.61639575108585" lon="-0.19106940715866555"><ele>76.0</ele><time>2026-03-22T14:12:40.001Z</time></trkpt><trkpt lat="45.616341405055884" lon="-0.19094732255016653"><ele>77.0</ele><time>2026-03-22T14:12:41.001Z</time></trkpt><trkpt lat="45.61625707003132" lon="-0.19080857989268607"><ele>78.0</ele><time>2026-03-22T14:12:42.001Z</time></trkpt><trkpt lat="45.61617873659262" lon="-0.19070947349911657"><ele>79.0</ele><time>2026-03-22T14:12:43.001Z</time></trkpt><trkpt lat="45.61607439735605" lon="-0.19060976714603411"><ele>79.25</ele><time>2026-03-22T14:12:44.001Z</time></trkpt><trkpt lat="45.61595451309297" lon="-0.19050843966347414"><ele>79.5</ele><time>2026-03-22T14:12:45.001Z</time></trkpt><trkpt lat="45.61581782291061" lon="-0.1904043077529888"><ele>79.75</ele><time>2026-03-22T14:12:46.001Z</time></trkpt><trkpt lat="45.61571694668899" lon="-0.1902891358196932"><ele>80.0</ele><time>2026-03-22T14:12:47.001Z</time></trkpt><trkpt lat="45.61561434814522" lon="-0.19020715263778884"><ele>80.0</ele><time>2026-03-22T14:12:48.001Z</time></trkpt><trkpt lat="45.61551758638134" lon="-0.19007238013551628"><ele>80.0</ele><time>2026-03-22T14:12:49.001Z</time></trkpt><trkpt lat="45.61535557616529" lon="-0.18979213203893824"><ele>80.0</ele><time>2026-03-22T14:12:51.001Z</time></trkpt><trkpt lat="45.615281883681476" lon="-0.18965548039683197"><ele>82.25</ele><time>2026-03-22T14:12:52.001Z</time></trkpt><trkpt lat="45.61521178832158" lon="-0.1895192586070625"><ele>84.5</ele><time>2026-03-22T14:12:53.001Z</time></trkpt><trkpt lat="45.61514243052162" lon="-0.18939469556568445"><ele>86.75</ele><time>2026-03-22T14:12:54.001Z</time></trkpt><trkpt lat="45.61507215899538" lon="-0.18926302948283308"><ele>89.0</ele><time>2026-03-22T14:12:55.001Z</time></trkpt><trkpt lat="45.61500640691008" lon="-0.18911423149733708"><ele>89.5</ele><time>2026-03-22T14:12:56.001Z</time></trkpt><trkpt lat="45.614924508181495" lon="-0.18899250183932523"><ele>90.0</ele><time>2026-03-22T14:12:57.001Z</time></trkpt><trkpt lat="45.61485015633256" lon="-0.18885499995289817"><ele>90.5</ele><time>2026-03-22T14:12:58.001Z</time></trkpt><trkpt lat="45.614783312496435" lon="-0.18872171065283805"><ele>91.0</ele><time>2026-03-22T14:12:59.001Z</time></trkpt><trkpt lat="45.61471675992558" lon="-0.18858350000033025"><ele>91.0</ele><time>2026-03-22T14:13:00.001Z</time></trkpt><trkpt lat="45.61465365076089" lon="-0.18842265834852212"><ele>91.0</ele><time>2026-03-22T14:13:01.001Z</time></trkpt><trkpt lat="45.61459501135697" lon="-0.18827096020274778"><ele>91.0</ele><time>2026-03-22T14:13:02.001Z</time></trkpt><trkpt lat="45.61453771861844" lon="-0.18812274583858754"><ele>91.0</ele><time>2026-03-22T14:13:03.001Z</time></trkpt><trkpt lat="45.614477773093995" lon="-0.18796766879679694"><ele>93.25</ele><time>2026-03-22T14:13:04.001Z</time></trkpt><trkpt lat="45.61441949329808" lon="-0.18782027461121603"><ele>95.5</ele><time>2026-03-22T14:13:05.001Z</time></trkpt><trkpt lat="45.61436346420166" lon="-0.18767998692153695"><ele>97.75</ele><time>2026-03-22T14:13:06.001Z</time></trkpt><trkpt lat="45.614302498616695" lon="-0.18753353449050042"><ele>100.0</ele><time>2026-03-22T14:13:07.001Z</time></trkpt><trkpt lat="45.614237545426896" lon="-0.18739350366923374"><ele>100.5</ele><time>2026-03-22T14:13:08.001Z</time></trkpt><trkpt lat="45.61416693790394" lon="-0.18725846380524944"><ele>101.0</ele><time>2026-03-22T14:13:09.001Z</time></trkpt><trkpt lat="45.61410258615684" lon="-0.18713629334085133"><ele>101.5</ele><time>2026-03-22T14:13:10.001Z</time></trkpt><trkpt lat="45.6140357863234" lon="-0.18699900986018367"><ele>102.0</ele><time>2026-03-22T14:13:11.001Z</time></trkpt><trkpt lat="45.61396684855367" lon="-0.18688079844006955"><ele>102.0</ele><time>2026-03-22T14:13:12.001Z</time></trkpt><trkpt lat="45.61389231464915" lon="-0.18675740293372015"><ele>102.0</ele><time>2026-03-22T14:13:13.001Z</time></trkpt><trkpt lat="45.61382179606059" lon="-0.18663806372482755"><ele>102.0</ele><time>2026-03-22T14:13:14.001Z</time></trkpt><trkpt lat="45.613749881693614" lon="-0.1865163613913214"><ele>102.0</ele><time>2026-03-22T14:13:15.001Z</time></trkpt><trkpt lat="45.613672179109145" lon="-0.18638937896126667"><ele>104.39999999999999</ele><time>2026-03-22T14:13:16.001Z</time></trkpt><trkpt lat="45.613617601506654" lon="-0.18628884101179835"><ele>106.8</ele><time>2026-03-22T14:13:17.001Z</time></trkpt><trkpt lat="45.6135584280133" lon="-0.1862287100500962"><ele>109.2</ele><time>2026-03-22T14:13:18.001Z</time></trkpt><trkpt lat="45.6134269005046" lon="-0.18622344782174266"><ele>111.6</ele><time>2026-03-22T14:13:20.001Z</time></trkpt><trkpt lat="45.6133548569263" lon="-0.1862985897339523"><ele>114.0</ele><time>2026-03-22T14:13:21.001Z</time></trkpt><trkpt lat="45.61330594564553" lon="-0.18642095071899087"><ele>113.4</ele><time>2026-03-22T14:13:22.001Z</time></trkpt><trkpt lat="45.613229661312445" lon="-0.1865380771077206"><ele>112.80000000000001</ele><time>2026-03-22T14:13:23Z</time></trkpt><trkpt lat="45.61313384644006" lon="-0.18664796691441649"><ele>112.19999999999999</ele><time>2026-03-22T14:13:24Z</time></trkpt><trkpt lat="45.613039353447476" lon="-0.18672825671497062"><ele>111.6</ele><time>2026-03-22T14:13:25Z</time></trkpt><trkpt lat="45.612981768089824" lon="-0.18679022481728577"><ele>111.0</ele><time>2026-03-22T14:13:26Z</time></trkpt><trkpt lat="45.61287077165989" lon="-0.18685100700981147"><ele>112.4</ele><time>2026-03-22T14:13:28Z</time></trkpt><trkpt lat="45.612779773484604" lon="-0.1868322771801664"><ele>113.8</ele><time>2026-03-22T14:13:29Z</time></trkpt><trkpt lat="45.612682846834424" lon="-0.18674668896713975"><ele>115.20000000000002</ele><time>2026-03-22T14:13:30Z</time></trkpt><trkpt lat="45.61257891587155" lon="-0.18670272902324953"><ele>116.60000000000001</ele><time>2026-03-22T14:13:31Z</time></trkpt><trkpt lat="45.612475226559795" lon="-0.18663305231318691"><ele>118.0</ele><time>2026-03-22T14:13:32Z</time></trkpt><trkpt lat="45.61236482982701" lon="-0.18655411667549066"><ele>119.2</ele><time>2026-03-22T14:13:33Z</time></trkpt><trkpt lat="45.61225138673774" lon="-0.18645870728385688"><ele>120.4</ele><time>2026-03-22T14:13:34Z</time></trkpt><trkpt lat="45.612158637947125" lon="-0.18637267664709067"><ele>121.60000000000001</ele><time>2026-03-22T14:13:35Z</time></trkpt><trkpt lat="45.61209891820749" lon="-0.186273762591636"><ele>122.80000000000001</ele><time>2026-03-22T14:13:36Z</time></trkpt><trkpt lat="45.61203563656378" lon="-0.18618506997475195"><ele>124.0</ele><time>2026-03-22T14:13:37Z</time></trkpt><trkpt lat="45.6119919751726" lon="-0.18608239839954352"><ele>125.0</ele><time>2026-03-22T14:13:38Z</time></trkpt><trkpt lat="45.61194485234821" lon="-0.1859581842877365"><ele>126.0</ele><time>2026-03-22T14:13:39Z</time></trkpt><trkpt lat="45.611899741648706" lon="-0.18580884773845255"><ele>127.0</ele><time>2026-03-22T14:13:40Z</time></trkpt><trkpt lat="45.61185529722666" lon="-0.1856685270991226"><ele>128.0</ele><time>2026-03-22T14:13:41Z</time></trkpt><trkpt lat="45.61180789515094" lon="-0.1855220855528291"><ele>129.0</ele><time>2026-03-22T14:13:42Z</time></trkpt><trkpt lat="45.61176374418068" lon="-0.18538568803415295"><ele>131.0</ele><time>2026-03-22T14:13:43Z</time></trkpt><trkpt lat="45.6117177046862" lon="-0.18522555027715853"><ele>133.0</ele><time>2026-03-22T14:13:44Z</time></trkpt><trkpt lat="45.61167308163216" lon="-0.1850679708543063"><ele>135.0</ele><time>2026-03-22T14:13:45Z</time></trkpt><trkpt lat="45.611631538602104" lon="-0.1848923914012248"><ele>137.0</ele><time>2026-03-22T14:13:46Z</time></trkpt><trkpt lat="45.61156301097312" lon="-0.1847019665110559"><ele>138.75</ele><time>2026-03-22T14:13:47Z</time></trkpt><trkpt lat="45.6114889900825" lon="-0.18454646201596206"><ele>140.5</ele><time>2026-03-22T14:13:48Z</time></trkpt><trkpt lat="45.61143385083056" lon="-0.18434379261699993"><ele>142.25</ele><time>2026-03-22T14:13:49Z</time></trkpt><trkpt lat="45.61136293730017" lon="-0.18416682012838778"><ele>144.0</ele><time>2026-03-22T14:13:50Z</time></trkpt><trkpt lat="45.61126941752657" lon="-0.18400352932733263"><ele>144.0</ele><time>2026-03-22T14:13:51Z</time></trkpt><trkpt lat="45.61119413603933" lon="-0.18385437978335453"><ele>144.0</ele><time>2026-03-22T14:13:52Z</time></trkpt><trkpt lat="45.611120022011185" lon="-0.1837131051504983"><ele>144.0</ele><time>2026-03-22T14:13:53Z</time></trkpt><trkpt lat="45.61104980358666" lon="-0.1835379575574139"><ele>144.0</ele><time>2026-03-22T14:13:54Z</time></trkpt><trkpt lat="45.61098311196509" lon="-0.1834118226039155"><ele>144.0</ele><time>2026-03-22T14:13:55Z</time></trkpt><trkpt lat="45.61093151265315" lon="-0.18328792729924587"><ele>144.0</ele><time>2026-03-22T14:13:56Z</time></trkpt><trkpt lat="45.610863961147004" lon="-0.18320863020659398"><ele>144.0</ele><time>2026-03-22T14:13:57Z</time></trkpt><trkpt lat="45.61079140011418" lon="-0.18310611383146094"><ele>144.0</ele><time>2026-03-22T14:13:58Z</time></trkpt><trkpt lat="45.6106980732741" lon="-0.18298351910402672"><ele>144.0</ele><time>2026-03-22T14:13:59Z</time></trkpt><trkpt lat="45.610582206616016" lon="-0.18292163718691537"><ele>144.0</ele><time>2026-03-22T14:14:00Z</time></trkpt><trkpt lat="45.61048898600165" lon="-0.18286588724246713"><ele>144.0</ele><time>2026-03-22T14:14:01Z</time></trkpt><trkpt lat="45.61038304920545" lon="-0.182808947080569"><ele>144.0</ele><time>2026-03-22T14:14:02Z</time></trkpt><trkpt lat="45.61026038244233" lon="-0.18276331456520836"><ele>144.0</ele><time>2026-03-22T14:14:03Z</time></trkpt><trkpt lat="45.610135639275896" lon="-0.1827225119394663"><ele>144.0</ele><time>2026-03-22T14:14:04Z</time></trkpt><trkpt lat="45.60999711961789" lon="-0.18268250867337152"><ele>144.0</ele><time>2026-03-22T14:14:05Z</time></trkpt><trkpt lat="45.60986593705503" lon="-0.18264011940415822"><ele>144.0</ele><time>2026-03-22T14:14:06Z</time></trkpt><trkpt lat="45.609767740902356" lon="-0.1825831775805404"><ele>144.0</ele><time>2026-03-22T14:14:07Z</time></trkpt><trkpt lat="45.609629887045884" lon="-0.18258629094279485"><ele>143.25</ele><time>2026-03-22T14:14:08Z</time></trkpt><trkpt lat="45.60948876412713" lon="-0.18258561010425178"><ele>142.5</ele><time>2026-03-22T14:14:09Z</time></trkpt><trkpt lat="45.60933465247758" lon="-0.18257638337175672"><ele>141.75</ele><time>2026-03-22T14:14:10Z</time></trkpt><trkpt lat="45.60921915002849" lon="-0.18259562954809275"><ele>141.0</ele><time>2026-03-22T14:14:11Z</time></trkpt><trkpt lat="45.60907451446818" lon="-0.18259041014676367"><ele>141.0</ele><time>2026-03-22T14:14:12Z</time></trkpt><trkpt lat="45.608945388674684" lon="-0.18260886287942418"><ele>141.0</ele><time>2026-03-22T14:14:13Z</time></trkpt><trkpt lat="45.60882472617725" lon="-0.18261078510442508"><ele>141.0</ele><time>2026-03-22T14:14:14Z</time></trkpt><trkpt lat="45.608712699011065" lon="-0.18257888729076474"><ele>141.0</ele><time>2026-03-22T14:14:15Z</time></trkpt><trkpt lat="45.60860566815043" lon="-0.1825338350963341"><ele>141.25</ele><time>2026-03-22T14:14:16Z</time></trkpt><trkpt lat="45.60849502000869" lon="-0.1824776201735114"><ele>141.5</ele><time>2026-03-22T14:14:17Z</time></trkpt><trkpt lat="45.60840612943583" lon="-0.18239701489935098"><ele>141.75</ele><time>2026-03-22T14:14:18Z</time></trkpt><trkpt lat="45.60830787025892" lon="-0.1823273055233843"><ele>142.0</ele><time>2026-03-22T14:14:19Z</time></trkpt><trkpt lat="45.60816134310474" lon="-0.18218152783119987"><ele>141.6</ele><time>2026-03-22T14:14:21Z</time></trkpt><trkpt lat="45.60807133688658" lon="-0.18208073053331708"><ele>141.2</ele><time>2026-03-22T14:14:22Z</time></trkpt><trkpt lat="45.608000696648794" lon="-0.1819911251646046"><ele>140.8</ele><time>2026-03-22T14:14:23Z</time></trkpt><trkpt lat="45.60792958598969" lon="-0.18189124395079928"><ele>140.4</ele><time>2026-03-22T14:14:24Z</time></trkpt><trkpt lat="45.607869213763685" lon="-0.1817965313303521"><ele>140.0</ele><time>2026-03-22T14:14:25Z</time></trkpt><trkpt lat="45.60780448385683" lon="-0.18167490328504582"><ele>139.8</ele><time>2026-03-22T14:14:26Z</time></trkpt><trkpt lat="45.60775067594555" lon="-0.18156254645198833"><ele>139.6</ele><time>2026-03-22T14:14:27Z</time></trkpt><trkpt lat="45.60770414515462" lon="-0.18146210009470354"><ele>139.4</ele><time>2026-03-22T14:14:28Z</time></trkpt><trkpt lat="45.60764652002238" lon="-0.18133510668138722"><ele>139.2</ele><time>2026-03-22T14:14:29Z</time></trkpt><trkpt lat="45.60759545233541" lon="-0.1812078488327959"><ele>139.0</ele><time>2026-03-22T14:14:30Z</time></trkpt><trkpt lat="45.60754304842511" lon="-0.18106457340943605"><ele>138.0</ele><time>2026-03-22T14:14:31Z</time></trkpt><trkpt lat="45.60749573930633" lon="-0.18092669677724288"><ele>137.0</ele><time>2026-03-22T14:14:32.001Z</time></trkpt><trkpt lat="45.60745112314556" lon="-0.18079666844903702"><ele>136.0</ele><time>2026-03-22T14:14:33.001Z</time></trkpt><trkpt lat="45.6074073891533" lon="-0.18065307687397092"><ele>135.0</ele><time>2026-03-22T14:14:34.001Z</time></trkpt><trkpt lat="45.60736315714102" lon="-0.1805195581053287"><ele>134.0</ele><time>2026-03-22T14:14:35.001Z</time></trkpt><trkpt lat="45.60731554257203" lon="-0.1803933988162629"><ele>133.4</ele><time>2026-03-22T14:14:36.001Z</time></trkpt><trkpt lat="45.607267201403005" lon="-0.18026530265645888"><ele>132.8</ele><time>2026-03-22T14:14:37.001Z</time></trkpt><trkpt lat="45.60721567206925" lon="-0.18013744327229322"><ele>132.2</ele><time>2026-03-22T14:14:38.001Z</time></trkpt><trkpt lat="45.607167024085804" lon="-0.18002646436196487"><ele>131.6</ele><time>2026-03-22T14:14:39.001Z</time></trkpt><trkpt lat="45.60710883841506" lon="-0.1799087890746811"><ele>131.0</ele><time>2026-03-22T14:14:40.001Z</time></trkpt><trkpt lat="45.60705407267345" lon="-0.17979803026470015"><ele>130.83333333333331</ele><time>2026-03-22T14:14:41.001Z</time></trkpt><trkpt lat="45.606999196125585" lon="-0.17968704746112002"><ele>130.66666666666666</ele><time>2026-03-22T14:14:42.001Z</time></trkpt><trkpt lat="45.60694094900253" lon="-0.17957808106407186"><ele>130.5</ele><time>2026-03-22T14:14:43.001Z</time></trkpt><trkpt lat="45.60688812913152" lon="-0.1794791363778787"><ele>130.33333333333334</ele><time>2026-03-22T14:14:44.001Z</time></trkpt><trkpt lat="45.606836723876356" lon="-0.17938284163190463"><ele>130.16666666666669</ele><time>2026-03-22T14:14:45.001Z</time></trkpt><trkpt lat="45.606787209189385" lon="-0.17928854519731383"><ele>130.0</ele><time>2026-03-22T14:14:46.001Z</time></trkpt><trkpt lat="45.60673960899112" lon="-0.1791972666319983"><ele>130.0</ele><time>2026-03-22T14:14:47.001Z</time></trkpt><trkpt lat="45.6066955001822" lon="-0.1791130736248856"><ele>130.0</ele><time>2026-03-22T14:14:48.001Z</time></trkpt><trkpt lat="45.60664232664436" lon="-0.17901869283100685"><ele>130.0</ele><time>2026-03-22T14:14:49.001Z</time></trkpt><trkpt lat="45.60659112821551" lon="-0.17892936523013134"><ele>130.0</ele><time>2026-03-22T14:14:50.001Z</time></trkpt><trkpt lat="45.60653597068451" lon="-0.17883312500794943"><ele>130.0</ele><time>2026-03-22T14:14:51.001Z</time></trkpt><trkpt lat="45.606478550082606" lon="-0.17873480491643665"><ele>130.0</ele><time>2026-03-22T14:14:52.001Z</time></trkpt><trkpt lat="45.60641922869517" lon="-0.1786436701758497"><ele>129.66666666666669</ele><time>2026-03-22T14:14:53.001Z</time></trkpt><trkpt lat="45.60636494464265" lon="-0.178568038637466"><ele>129.33333333333334</ele><time>2026-03-22T14:14:54.001Z</time></trkpt><trkpt lat="45.60630025413748" lon="-0.17848739737849467"><ele>129.0</ele><time>2026-03-22T14:14:55.001Z</time></trkpt><trkpt lat="45.606225373876825" lon="-0.1784300056562568"><ele>128.66666666666666</ele><time>2026-03-22T14:14:56.001Z</time></trkpt><trkpt lat="45.606145995919896" lon="-0.1783404083593183"><ele>128.33333333333331</ele><time>2026-03-22T14:14:57.001Z</time></trkpt><trkpt lat="45.60607233967223" lon="-0.17824757875439365"><ele>128.0</ele><time>2026-03-22T14:14:58.001Z</time></trkpt><trkpt lat="45.60599440987487" lon="-0.1781493631755383"><ele>129.6</ele><time>2026-03-22T14:14:59.001Z</time></trkpt><trkpt lat="45.605912804724944" lon="-0.1780465154941832"><ele>131.20000000000002</ele><time>2026-03-22T14:15:00.001Z</time></trkpt><trkpt lat="45.605838394549735" lon="-0.17795273571631626"><ele>132.8</ele><time>2026-03-22T14:15:01.001Z</time></trkpt><trkpt lat="45.60576410260073" lon="-0.1778650654694333"><ele>134.4</ele><time>2026-03-22T14:15:02.001Z</time></trkpt><trkpt lat="45.6056946154401" lon="-0.17778817393930335"><ele>136.0</ele><time>2026-03-22T14:15:03.001Z</time></trkpt><trkpt lat="45.60561270955683" lon="-0.17769625406073672"><ele>136.0</ele><time>2026-03-22T14:15:04.001Z</time></trkpt><trkpt lat="45.605539022715796" lon="-0.17758698496242342"><ele>136.0</ele><time>2026-03-22T14:15:05.001Z</time></trkpt><trkpt lat="45.60548087796046" lon="-0.1774642531856885"><ele>136.0</ele><time>2026-03-22T14:15:06.001Z</time></trkpt><trkpt lat="45.60543871084332" lon="-0.17733033008291157"><ele>136.0</ele><time>2026-03-22T14:15:07.001Z</time></trkpt><trkpt lat="45.60541810835289" lon="-0.17719637358977622"><ele>136.0</ele><time>2026-03-22T14:15:08.001Z</time></trkpt><trkpt lat="45.605407671440496" lon="-0.17706352446870702"><ele>135.5</ele><time>2026-03-22T14:15:09.001Z</time></trkpt><trkpt lat="45.60540491538401" lon="-0.1769401408703018"><ele>135.0</ele><time>2026-03-22T14:15:10.001Z</time></trkpt><trkpt lat="45.60540652849264" lon="-0.17681271562804643"><ele>134.5</ele><time>2026-03-22T14:15:11.001Z</time></trkpt><trkpt lat="45.605412098637686" lon="-0.17669219696988198"><ele>134.0</ele><time>2026-03-22T14:15:12.001Z</time></trkpt><trkpt lat="45.60542111192863" lon="-0.1765648411985722"><ele>133.5</ele><time>2026-03-22T14:15:13.001Z</time></trkpt><trkpt lat="45.605436236642454" lon="-0.1764363020394927"><ele>133.0</ele><time>2026-03-22T14:15:14.001Z</time></trkpt><trkpt lat="45.60545541501538" lon="-0.17630718829498923"><ele>133.0</ele><time>2026-03-22T14:15:15.001Z</time></trkpt><trkpt lat="45.605473887665056" lon="-0.17618585018655994"><ele>133.0</ele><time>2026-03-22T14:15:16.001Z</time></trkpt><trkpt lat="45.605506792530996" lon="-0.17606778157292582"><ele>133.0</ele><time>2026-03-22T14:15:17.001Z</time></trkpt><trkpt lat="45.60551706442713" lon="-0.17594157724594583"><ele>133.0</ele><time>2026-03-22T14:15:18.001Z</time></trkpt><trkpt lat="45.60553519339238" lon="-0.17581112022855344"><ele>133.0</ele><time>2026-03-22T14:15:19.001Z</time></trkpt><trkpt lat="45.60555864671764" lon="-0.1757072325545058"><ele>133.0</ele><time>2026-03-22T14:15:20.001Z</time></trkpt><trkpt lat="45.60558240983656" lon="-0.17561634855308053"><ele>133.0</ele><time>2026-03-22T14:15:21.001Z</time></trkpt><trkpt lat="45.60560119801809" lon="-0.17551336886982255"><ele>133.0</ele><time>2026-03-22T14:15:22.001Z</time></trkpt><trkpt lat="45.605623569477736" lon="-0.17540412831495739"><ele>133.0</ele><time>2026-03-22T14:15:23.001Z</time></trkpt><trkpt lat="45.60562043599023" lon="-0.1752962408495603"><ele>133.0</ele><time>2026-03-22T14:15:24.001Z</time></trkpt><trkpt lat="45.6056345117751" lon="-0.17518620760404732"><ele>133.0</ele><time>2026-03-22T14:15:25.001Z</time></trkpt><trkpt lat="45.60566173930695" lon="-0.1750716528603519"><ele>133.0</ele><time>2026-03-22T14:15:26.001Z</time></trkpt><trkpt lat="45.60567602502573" lon="-0.1749527324650508"><ele>133.0</ele><time>2026-03-22T14:15:27.001Z</time></trkpt><trkpt lat="45.60570053540459" lon="-0.17484180053053996"><ele>133.0</ele><time>2026-03-22T14:15:28.001Z</time></trkpt><trkpt lat="45.60572744404614" lon="-0.1747261916817094"><ele>133.0</ele><time>2026-03-22T14:15:29Z</time></trkpt><trkpt lat="45.605728502197" lon="-0.17462191943256405"><ele>133.0</ele><time>2026-03-22T14:15:30Z</time></trkpt><trkpt lat="45.605736105702995" lon="-0.1745244984746367"><ele>133.0</ele><time>2026-03-22T14:15:31Z</time></trkpt><trkpt lat="45.605742242148985" lon="-0.17442952507438467"><ele>133.0</ele><time>2026-03-22T14:15:32Z</time></trkpt><trkpt lat="45.605742163049705" lon="-0.1743318848948565"><ele>133.0</ele><time>2026-03-22T14:15:33Z</time></trkpt><trkpt lat="45.60573242705438" lon="-0.1741789807857531"><ele>133.0</ele><time>2026-03-22T14:15:35Z</time></trkpt><trkpt lat="45.60572034837956" lon="-0.17408061861373458"><ele>133.0</ele><time>2026-03-22T14:15:36Z</time></trkpt><trkpt lat="45.60569398947583" lon="-0.17395932787093665"><ele>133.0</ele><time>2026-03-22T14:15:37Z</time></trkpt><trkpt lat="45.605664159262254" lon="-0.17385239131325558"><ele>133.0</ele><time>2026-03-22T14:15:38Z</time></trkpt><trkpt lat="45.60563193671286" lon="-0.17375462573408657"><ele>133.0</ele><time>2026-03-22T14:15:39Z</time></trkpt><trkpt lat="45.60559574136779" lon="-0.17365615293652747"><ele>133.0</ele><time>2026-03-22T14:15:40Z</time></trkpt><trkpt lat="45.605554054786765" lon="-0.17355150811287418"><ele>132.5</ele><time>2026-03-22T14:15:41Z</time></trkpt><trkpt lat="45.60550883883299" lon="-0.17344243947715537"><ele>132.0</ele><time>2026-03-22T14:15:42Z</time></trkpt><trkpt lat="45.605461604955224" lon="-0.17333914736124947"><ele>131.5</ele><time>2026-03-22T14:15:43Z</time></trkpt><trkpt lat="45.60541458700811" lon="-0.1732392960555157"><ele>131.0</ele><time>2026-03-22T14:15:44Z</time></trkpt><trkpt lat="45.60536649462686" lon="-0.17313685902054568"><ele>130.5</ele><time>2026-03-22T14:15:45Z</time></trkpt><trkpt lat="45.60532151759837" lon="-0.1730421996122673"><ele>130.0</ele><time>2026-03-22T14:15:46Z</time></trkpt><trkpt lat="45.605275953093624" lon="-0.17294684312098824"><ele>130.0</ele><time>2026-03-22T14:15:47Z</time></trkpt><trkpt lat="45.605233936457026" lon="-0.17284738845276718"><ele>130.0</ele><time>2026-03-22T14:15:48Z</time></trkpt><trkpt lat="45.60519187368553" lon="-0.172742777670599"><ele>130.0</ele><time>2026-03-22T14:15:49Z</time></trkpt><trkpt lat="45.60515372357552" lon="-0.17262561930600448"><ele>130.0</ele><time>2026-03-22T14:15:50Z</time></trkpt><trkpt lat="45.6051177403426" lon="-0.172510103361176"><ele>130.0</ele><time>2026-03-22T14:15:51Z</time></trkpt><trkpt lat="45.605082353658325" lon="-0.17239650250766786"><ele>130.0</ele><time>2026-03-22T14:15:52Z</time></trkpt><trkpt lat="45.605046285059736" lon="-0.17227522057231007"><ele>129.4</ele><time>2026-03-22T14:15:53Z</time></trkpt><trkpt lat="45.60501257743788" lon="-0.17214923142967756"><ele>128.8</ele><time>2026-03-22T14:15:54Z</time></trkpt><trkpt lat="45.60498092207074" lon="-0.17202427486325647"><ele>128.2</ele><time>2026-03-22T14:15:55Z</time></trkpt><trkpt lat="45.60495193936462" lon="-0.17189810347659892"><ele>127.6</ele><time>2026-03-22T14:15:56Z</time></trkpt><trkpt lat="45.60492546269884" lon="-0.17177148336303807"><ele>127.0</ele><time>2026-03-22T14:15:57Z</time></trkpt><trkpt lat="45.604901027206026" lon="-0.17165204681027016"><ele>127.00000000000001</ele><time>2026-03-22T14:15:58Z</time></trkpt><trkpt lat="45.60487622045317" lon="-0.17153393597681707"><ele>127.0</ele><time>2026-03-22T14:15:59Z</time></trkpt><trkpt lat="45.6048505749085" lon="-0.17141571088657145"><ele>127.0</ele><time>2026-03-22T14:16:00Z</time></trkpt><trkpt lat="45.60482511580273" lon="-0.17129834526694407"><ele>127.0</ele><time>2026-03-22T14:16:01Z</time></trkpt><trkpt lat="45.60479605975694" lon="-0.17117682028095377"><ele>127.00000000000001</ele><time>2026-03-22T14:16:02Z</time></trkpt><trkpt lat="45.604770555050834" lon="-0.17106150983172216"><ele>127.0</ele><time>2026-03-22T14:16:03Z</time></trkpt><trkpt lat="45.60474568253988" lon="-0.17094704969237687"><ele>126.83333333333334</ele><time>2026-03-22T14:16:04Z</time></trkpt><trkpt lat="45.60471864544649" lon="-0.17082262839987947"><ele>126.66666666666667</ele><time>2026-03-22T14:16:05Z</time></trkpt><trkpt lat="45.60469361899961" lon="-0.17070298004041032"><ele>126.5</ele><time>2026-03-22T14:16:06Z</time></trkpt><trkpt lat="45.60467232405565" lon="-0.1705828170977369"><ele>126.33333333333334</ele><time>2026-03-22T14:16:07Z</time></trkpt><trkpt lat="45.604657119679416" lon="-0.170455512080138"><ele>126.16666666666667</ele><time>2026-03-22T14:16:08Z</time></trkpt><trkpt lat="45.604648931719275" lon="-0.17033140316069925"><ele>126.0</ele><time>2026-03-22T14:16:09Z</time></trkpt><trkpt lat="45.604672618771055" lon="-0.17021911789816965"><ele>125.83333333333333</ele><time>2026-03-22T14:16:10Z</time></trkpt><trkpt lat="45.604668315702064" lon="-0.17010524733931046"><ele>125.66666666666666</ele><time>2026-03-22T14:16:11Z</time></trkpt><trkpt lat="45.60468280427783" lon="-0.17000210451973485"><ele>125.5</ele><time>2026-03-22T14:16:12Z</time></trkpt><trkpt lat="45.604700400466974" lon="-0.16990254099820032"><ele>125.33333333333333</ele><time>2026-03-22T14:16:13Z</time></trkpt><trkpt lat="45.604725468441934" lon="-0.16977867102866798"><ele>125.16666666666666</ele><time>2026-03-22T14:16:14Z</time></trkpt><trkpt lat="45.60475222095621" lon="-0.16967083169365285"><ele>125.0</ele><time>2026-03-22T14:16:15Z</time></trkpt><trkpt lat="45.604800690983105" lon="-0.16957101617272566"><ele>124.49999999999999</ele><time>2026-03-22T14:16:16Z</time></trkpt><trkpt lat="45.60481995433783" lon="-0.16945266005884255"><ele>124.0</ele><time>2026-03-22T14:16:17Z</time></trkpt><trkpt lat="45.604857366008794" lon="-0.1693439144942834"><ele>123.5</ele><time>2026-03-22T14:16:18Z</time></trkpt><trkpt lat="45.60489580506751" lon="-0.16924024037730925"><ele>123.0</ele><time>2026-03-22T14:16:19Z</time></trkpt><trkpt lat="45.60493438396942" lon="-0.1691333074721327"><ele>122.49999999999999</ele><time>2026-03-22T14:16:20Z</time></trkpt><trkpt lat="45.60497308672102" lon="-0.16902604650459077"><ele>122.0</ele><time>2026-03-22T14:16:21Z</time></trkpt><trkpt lat="45.60501486218573" lon="-0.168916012269567"><ele>121.66666666666666</ele><time>2026-03-22T14:16:22Z</time></trkpt><trkpt lat="45.605054015837865" lon="-0.16880756940806946"><ele>121.33333333333333</ele><time>2026-03-22T14:16:23Z</time></trkpt><trkpt lat="45.605094575963356" lon="-0.16869698533638544"><ele>121.0</ele><time>2026-03-22T14:16:24Z</time></trkpt><trkpt lat="45.60513899254161" lon="-0.16860167802319895"><ele>120.66666666666666</ele><time>2026-03-22T14:16:25Z</time></trkpt><trkpt lat="45.605199939670825" lon="-0.16851681944296615"><ele>120.33333333333333</ele><time>2026-03-22T14:16:26Z</time></trkpt><trkpt lat="45.605252298384436" lon="-0.1684420015260359"><ele>120.0</ele><time>2026-03-22T14:16:27Z</time></trkpt><trkpt lat="45.60533651421549" lon="-0.1683158162343895"><ele>120.0</ele><time>2026-03-22T14:16:29Z</time></trkpt><trkpt lat="45.605407630869806" lon="-0.16825640648462514"><ele>120.0</ele><time>2026-03-22T14:16:31Z</time></trkpt><trkpt lat="45.60545429560908" lon="-0.16819004357595127"><ele>120.0</ele><time>2026-03-22T14:16:32Z</time></trkpt><trkpt lat="45.60553981564159" lon="-0.16811019636464924"><ele>120.0</ele><time>2026-03-22T14:16:34.001Z</time></trkpt><trkpt lat="45.605553533506146" lon="-0.16801247432456423"><ele>120.0</ele><time>2026-03-22T14:16:36.001Z</time></trkpt><trkpt lat="45.605442416161175" lon="-0.16804296228596918"><ele>120.0</ele><time>2026-03-22T14:16:40.001Z</time></trkpt><trkpt lat="45.605339333144784" lon="-0.16805832213657151"><ele>116.33333333333334</ele><time>2026-03-22T14:16:41.001Z</time></trkpt><trkpt lat="45.605206582423826" lon="-0.16807776786405243"><ele>112.66666666666667</ele><time>2026-03-22T14:16:42.001Z</time></trkpt><trkpt lat="45.605058605028994" lon="-0.16809735923768004"><ele>109.0</ele><time>2026-03-22T14:16:43.001Z</time></trkpt><trkpt lat="45.604870343718595" lon="-0.16812927422860663"><ele>109.0</ele><time>2026-03-22T14:16:44.001Z</time></trkpt><trkpt lat="45.60466689229271" lon="-0.16817168007234645"><ele>109.0</ele><time>2026-03-22T14:16:45.001Z</time></trkpt><trkpt lat="45.60445693800441" lon="-0.16822097402546157"><ele>109.0</ele><time>2026-03-22T14:16:46.001Z</time></trkpt><trkpt lat="45.604274590956535" lon="-0.16826546253433403"><ele>109.66666666666667</ele><time>2026-03-22T14:16:47.001Z</time></trkpt><trkpt lat="45.60409908590957" lon="-0.16828561172389228"><ele>110.33333333333334</ele><time>2026-03-22T14:16:48.001Z</time></trkpt><trkpt lat="45.6039325539519" lon="-0.1683285227399806"><ele>111.0</ele><time>2026-03-22T14:16:49.001Z</time></trkpt><trkpt lat="45.603773004405376" lon="-0.16837439204945528"><ele>109.5</ele><time>2026-03-22T14:16:50.001Z</time></trkpt><trkpt lat="45.603620880089274" lon="-0.1684140904073854"><ele>108.0</ele><time>2026-03-22T14:16:51.001Z</time></trkpt><trkpt lat="45.60347341321607" lon="-0.1684483074335435"><ele>106.5</ele><time>2026-03-22T14:16:52.001Z</time></trkpt><trkpt lat="45.60334195124005" lon="-0.16847889492204424"><ele>105.0</ele><time>2026-03-22T14:16:53.001Z</time></trkpt><trkpt lat="45.603225123120765" lon="-0.16851375951734995"><ele>105.0</ele><time>2026-03-22T14:16:54.001Z</time></trkpt><trkpt lat="45.603116691499636" lon="-0.1685458933079231"><ele>105.0</ele><time>2026-03-22T14:16:55.001Z</time></trkpt><trkpt lat="45.60302071522033" lon="-0.1685709745317453"><ele>105.0</ele><time>2026-03-22T14:16:56.001Z</time></trkpt><trkpt lat="45.602940083838355" lon="-0.168593360335904"><ele>105.0</ele><time>2026-03-22T14:16:57.001Z</time></trkpt><trkpt lat="45.60287249857027" lon="-0.1686158114976195"><ele>105.0</ele><time>2026-03-22T14:16:58.001Z</time></trkpt><trkpt lat="45.60280709822899" lon="-0.16863940164105634"><ele>105.0</ele><time>2026-03-22T14:16:59.001Z</time></trkpt><trkpt lat="45.60269577839902" lon="-0.1684978524463355"><ele>105.0</ele><time>2026-03-22T14:17:02.001Z</time></trkpt><trkpt lat="45.60278785942981" lon="-0.1683581209250096"><ele>105.0</ele><time>2026-03-22T14:17:03.001Z</time></trkpt><trkpt lat="45.602851925925805" lon="-0.16827365221295612"><ele>105.0</ele><time>2026-03-22T14:17:04.001Z</time></trkpt><trkpt lat="45.602924718627854" lon="-0.16816606294953998"><ele>105.0</ele><time>2026-03-22T14:17:05.001Z</time></trkpt><trkpt lat="45.603038967254484" lon="-0.1680019833406111"><ele>103.0</ele><time>2026-03-22T14:17:06.001Z</time></trkpt><trkpt lat="45.60312920183731" lon="-0.16787067255511118"><ele>101.0</ele><time>2026-03-22T14:17:07.001Z</time></trkpt><trkpt lat="45.60322853429306" lon="-0.16773023652243826"><ele>99.0</ele><time>2026-03-22T14:17:08.001Z</time></trkpt><trkpt lat="45.60335960677736" lon="-0.16754162954941332"><ele>99.0</ele><time>2026-03-22T14:17:09.001Z</time></trkpt><trkpt lat="45.60349613559195" lon="-0.16734168715665046"><ele>99.0</ele><time>2026-03-22T14:17:10.001Z</time></trkpt><trkpt lat="45.603609571415575" lon="-0.1671517720259427"><ele>99.0</ele><time>2026-03-22T14:17:11.001Z</time></trkpt><trkpt lat="45.60367214465153" lon="-0.16697255687837384"><ele>99.0</ele><time>2026-03-22T14:17:12.001Z</time></trkpt><trkpt lat="45.6037045484753" lon="-0.1667939917064954"><ele>99.0</ele><time>2026-03-22T14:17:13.001Z</time></trkpt><trkpt lat="45.60372433856593" lon="-0.1665649522257414"><ele>99.0</ele><time>2026-03-22T14:17:14.001Z</time></trkpt><trkpt lat="45.60374389163529" lon="-0.16628444081794092"><ele>99.0</ele><time>2026-03-22T14:17:15.001Z</time></trkpt><trkpt lat="45.6037694002022" lon="-0.16604688906098813"><ele>99.0</ele><time>2026-03-22T14:17:16.001Z</time></trkpt><trkpt lat="45.60381675166698" lon="-0.16579866029916898"><ele>99.0</ele><time>2026-03-22T14:17:17.001Z</time></trkpt><trkpt lat="45.603878581976645" lon="-0.16556116346500024"><ele>98.33333333333334</ele><time>2026-03-22T14:17:18.001Z</time></trkpt><trkpt lat="45.60395121948344" lon="-0.16532569921456736"><ele>97.66666666666667</ele><time>2026-03-22T14:17:19.001Z</time></trkpt><trkpt lat="45.60402359527296" lon="-0.16511667316462744"><ele>97.0</ele><time>2026-03-22T14:17:20.001Z</time></trkpt><trkpt lat="45.60410797932731" lon="-0.16490128056106315"><ele>96.33333333333334</ele><time>2026-03-22T14:17:21.001Z</time></trkpt><trkpt lat="45.604201199353604" lon="-0.16469958163334295"><ele>95.66666666666667</ele><time>2026-03-22T14:17:22.001Z</time></trkpt><trkpt lat="45.60428825127976" lon="-0.16451159894555473"><ele>95.0</ele><time>2026-03-22T14:17:23.001Z</time></trkpt><trkpt lat="45.604383427555355" lon="-0.1643113357339335"><ele>95.0</ele><time>2026-03-22T14:17:24.001Z</time></trkpt><trkpt lat="45.604473188066" lon="-0.1641225534536364"><ele>95.0</ele><time>2026-03-22T14:17:25.001Z</time></trkpt><trkpt lat="45.60456965158036" lon="-0.16391967359203602"><ele>95.0</ele><time>2026-03-22T14:17:26.001Z</time></trkpt><trkpt lat="45.604663751118274" lon="-0.16372042955600702"><ele>95.66666666666667</ele><time>2026-03-22T14:17:27.001Z</time></trkpt><trkpt lat="45.60476318001029" lon="-0.16351593057108282"><ele>96.33333333333334</ele><time>2026-03-22T14:17:28.001Z</time></trkpt><trkpt lat="45.6048573626633" lon="-0.16332258578171024"><ele>97.0</ele><time>2026-03-22T14:17:29.001Z</time></trkpt><trkpt lat="45.60495759155234" lon="-0.16312181398531475"><ele>97.0</ele><time>2026-03-22T14:17:30.001Z</time></trkpt><trkpt lat="45.6050587263015" lon="-0.16291675207265946"><ele>97.0</ele><time>2026-03-22T14:17:31.001Z</time></trkpt><trkpt lat="45.60515825754787" lon="-0.16271214078431487"><ele>97.0</ele><time>2026-03-22T14:17:32.001Z</time></trkpt><trkpt lat="45.60525625714643" lon="-0.1625072085890522"><ele>99.0</ele><time>2026-03-22T14:17:33.001Z</time></trkpt><trkpt lat="45.605348645657486" lon="-0.16231347069711569"><ele>101.0</ele><time>2026-03-22T14:17:34.001Z</time></trkpt><trkpt lat="45.60543288269009" lon="-0.16212224224436034"><ele>103.0</ele><time>2026-03-22T14:17:35Z</time></trkpt><trkpt lat="45.605503051311636" lon="-0.1619348825022468"><ele>103.0</ele><time>2026-03-22T14:17:36Z</time></trkpt><trkpt lat="45.605556199691414" lon="-0.16175450372721817"><ele>103.0</ele><time>2026-03-22T14:17:37Z</time></trkpt><trkpt lat="45.60559709915789" lon="-0.1615680005724718"><ele>103.0</ele><time>2026-03-22T14:17:38Z</time></trkpt><trkpt lat="45.605626447343084" lon="-0.1613823392163348"><ele>103.0</ele><time>2026-03-22T14:17:39Z</time></trkpt><trkpt lat="45.60564140491793" lon="-0.16118972766753636"><ele>103.0</ele><time>2026-03-22T14:17:40Z</time></trkpt><trkpt lat="45.60564992216037" lon="-0.16097769324002753"><ele>103.0</ele><time>2026-03-22T14:17:41Z</time></trkpt><trkpt lat="45.60565095283264" lon="-0.1607520739846365"><ele>103.0</ele><time>2026-03-22T14:17:42Z</time></trkpt><trkpt lat="45.605650090299285" lon="-0.16052969933411249"><ele>103.0</ele><time>2026-03-22T14:17:43Z</time></trkpt><trkpt lat="45.605647183927275" lon="-0.1602930375501782"><ele>103.0</ele><time>2026-03-22T14:17:44Z</time></trkpt><trkpt lat="45.605644177913845" lon="-0.16006525376404632"><ele>103.0</ele><time>2026-03-22T14:17:45Z</time></trkpt><trkpt lat="45.60564058688827" lon="-0.15982523977290988"><ele>103.33333333333334</ele><time>2026-03-22T14:17:46Z</time></trkpt><trkpt lat="45.60563896645678" lon="-0.15959904427990013"><ele>103.66666666666666</ele><time>2026-03-22T14:17:47Z</time></trkpt><trkpt lat="45.605638599469735" lon="-0.15937799535124023"><ele>104.0</ele><time>2026-03-22T14:17:48Z</time></trkpt><trkpt lat="45.60564071051554" lon="-0.1591558031590925"><ele>105.33333333333333</ele><time>2026-03-22T14:17:49Z</time></trkpt><trkpt lat="45.60564681222195" lon="-0.15893213725966318"><ele>106.66666666666666</ele><time>2026-03-22T14:17:50Z</time></trkpt><trkpt lat="45.60565515673964" lon="-0.15870233965869376"><ele>108.0</ele><time>2026-03-22T14:17:51Z</time></trkpt><trkpt lat="45.60566182826716" lon="-0.15848029525688687"><ele>108.0</ele><time>2026-03-22T14:17:52Z</time></trkpt><trkpt lat="45.60566847948452" lon="-0.15825892677784145"><ele>108.0</ele><time>2026-03-22T14:17:53Z</time></trkpt><trkpt lat="45.60567522627432" lon="-0.15803437746231733"><ele>108.0</ele><time>2026-03-22T14:17:54Z</time></trkpt><trkpt lat="45.60568377181966" lon="-0.15780238265740998"><ele>109.0</ele><time>2026-03-22T14:17:55Z</time></trkpt><trkpt lat="45.60569300203095" lon="-0.15756433147349042"><ele>110.0</ele><time>2026-03-22T14:17:56Z</time></trkpt><trkpt lat="45.605702009040435" lon="-0.15733203678420732"><ele>111.0</ele><time>2026-03-22T14:17:57Z</time></trkpt><trkpt lat="45.60571004902615" lon="-0.15710028234991183"><ele>111.66666666666666</ele><time>2026-03-22T14:17:58Z</time></trkpt><trkpt lat="45.60571811946502" lon="-0.15685971162023446"><ele>112.33333333333333</ele><time>2026-03-22T14:17:59Z</time></trkpt><trkpt lat="45.60572602185432" lon="-0.156624150223684"><ele>113.0</ele><time>2026-03-22T14:18:00Z</time></trkpt><trkpt lat="45.60573598519749" lon="-0.15638398847127757"><ele>113.66666666666666</ele><time>2026-03-22T14:18:01Z</time></trkpt><trkpt lat="45.60574434586185" lon="-0.15613916784614726"><ele>114.33333333333334</ele><time>2026-03-22T14:18:02Z</time></trkpt><trkpt lat="45.60575661649923" lon="-0.15589930970480137"><ele>115.0</ele><time>2026-03-22T14:18:03Z</time></trkpt><trkpt lat="45.60577312681497" lon="-0.1556618962679627"><ele>115.8</ele><time>2026-03-22T14:18:04Z</time></trkpt><trkpt lat="45.605791549217294" lon="-0.1554684610853341"><ele>116.6</ele><time>2026-03-22T14:18:05Z</time></trkpt><trkpt lat="45.60581016113667" lon="-0.15530103100215958"><ele>117.4</ele><time>2026-03-22T14:18:06Z</time></trkpt><trkpt lat="45.605823794225536" lon="-0.1551792905805431"><ele>118.2</ele><time>2026-03-22T14:18:07Z</time></trkpt><trkpt lat="45.60583342831783" lon="-0.15507808670738646"><ele>119.0</ele><time>2026-03-22T14:18:08Z</time></trkpt><trkpt lat="45.60584304328241" lon="-0.15496576641626938"><ele>119.4</ele><time>2026-03-22T14:18:09Z</time></trkpt><trkpt lat="45.60586036912032" lon="-0.15482769350147874"><ele>119.80000000000001</ele><time>2026-03-22T14:18:10Z</time></trkpt><trkpt lat="45.60587876076641" lon="-0.15467432318703236"><ele>120.19999999999999</ele><time>2026-03-22T14:18:11Z</time></trkpt><trkpt lat="45.605894743925795" lon="-0.15451256964353885"><ele>120.6</ele><time>2026-03-22T14:18:12Z</time></trkpt><trkpt lat="45.60590549603842" lon="-0.1543423370365648"><ele>121.0</ele><time>2026-03-22T14:18:13Z</time></trkpt><trkpt lat="45.60590449554998" lon="-0.15416053126497897"><ele>122.25</ele><time>2026-03-22T14:18:14Z</time></trkpt><trkpt lat="45.60589207140835" lon="-0.15397734674973282"><ele>123.5</ele><time>2026-03-22T14:18:15Z</time></trkpt><trkpt lat="45.60586537087528" lon="-0.15379365038387907"><ele>124.75</ele><time>2026-03-22T14:18:16Z</time></trkpt><trkpt lat="45.60583000114705" lon="-0.1536214794193447"><ele>126.0</ele><time>2026-03-22T14:18:17Z</time></trkpt><trkpt lat="45.6057878572356" lon="-0.1534308636957518"><ele>126.0</ele><time>2026-03-22T14:18:18Z</time></trkpt><trkpt lat="45.60574673313061" lon="-0.15324491826660194"><ele>126.0</ele><time>2026-03-22T14:18:19Z</time></trkpt><trkpt lat="45.60570385653483" lon="-0.15306163841376372"><ele>126.0</ele><time>2026-03-22T14:18:20Z</time></trkpt><trkpt lat="45.60561858682315" lon="-0.15272654205722636"><ele>128.5</ele><time>2026-03-22T14:18:22Z</time></trkpt><trkpt lat="45.60556481940888" lon="-0.15257666209833093"><ele>131.0</ele><time>2026-03-22T14:18:23Z</time></trkpt><trkpt lat="45.60549293524112" lon="-0.1524309708390328"><ele>133.5</ele><time>2026-03-22T14:18:24Z</time></trkpt><trkpt lat="45.605401398189215" lon="-0.15229419393594315"><ele>136.0</ele><time>2026-03-22T14:18:25Z</time></trkpt><trkpt lat="45.60528385322667" lon="-0.1521566130690656"><ele>137.66666666666669</ele><time>2026-03-22T14:18:26Z</time></trkpt><trkpt lat="45.605146870010415" lon="-0.15201795191644474"><ele>139.33333333333334</ele><time>2026-03-22T14:18:27Z</time></trkpt><trkpt lat="45.60499055869091" lon="-0.15185981343604035"><ele>141.0</ele><time>2026-03-22T14:18:28Z</time></trkpt><trkpt lat="45.60483505729196" lon="-0.15170229864291737"><ele>141.66666666666666</ele><time>2026-03-22T14:18:29Z</time></trkpt><trkpt lat="45.60466948594514" lon="-0.15153496591285837"><ele>142.33333333333331</ele><time>2026-03-22T14:18:30Z</time></trkpt><trkpt lat="45.604505372500974" lon="-0.15136678771566775"><ele>143.0</ele><time>2026-03-22T14:18:31Z</time></trkpt><trkpt lat="45.60434543319325" lon="-0.1512025979729713"><ele>144.0</ele><time>2026-03-22T14:18:32Z</time></trkpt><trkpt lat="45.60420357179241" lon="-0.15105477271579093"><ele>145.0</ele><time>2026-03-22T14:18:33Z</time></trkpt><trkpt lat="45.60408106537691" lon="-0.1509312786300218"><ele>146.0</ele><time>2026-03-22T14:18:34Z</time></trkpt><trkpt lat="45.60397807987612" lon="-0.15078138904826266"><ele>146.0</ele><time>2026-03-22T14:18:35Z</time></trkpt><trkpt lat="45.603903614497426" lon="-0.15071869089216927"><ele>146.0</ele><time>2026-03-22T14:18:36Z</time></trkpt><trkpt lat="45.60386896507709" lon="-0.15060273854441314"><ele>146.0</ele><time>2026-03-22T14:18:37Z</time></trkpt><trkpt lat="45.603802313658484" lon="-0.15040981763434688"><ele>146.0</ele><time>2026-03-22T14:18:38Z</time></trkpt><trkpt lat="45.60375964701633" lon="-0.1502358254183201"><ele>146.25</ele><time>2026-03-22T14:18:39Z</time></trkpt><trkpt lat="45.603698031484505" lon="-0.15009701377206505"><ele>146.5</ele><time>2026-03-22T14:18:40Z</time></trkpt><trkpt lat="45.60364795641647" lon="-0.1499419533671213"><ele>146.75</ele><time>2026-03-22T14:18:41Z</time></trkpt><trkpt lat="45.60360002101223" lon="-0.14978857954125474"><ele>147.0</ele><time>2026-03-22T14:18:42Z</time></trkpt><trkpt lat="45.60355571450443" lon="-0.14963463315552972"><ele>146.0</ele><time>2026-03-22T14:18:43Z</time></trkpt><trkpt lat="45.60353571096042" lon="-0.1494712416474978"><ele>145.0</ele><time>2026-03-22T14:18:44Z</time></trkpt><trkpt lat="45.603483777602555" lon="-0.1491559188460834"><ele>144.0</ele><time>2026-03-22T14:18:46Z</time></trkpt><trkpt lat="45.60348185522551" lon="-0.14900607686794734"><ele>143.0</ele><time>2026-03-22T14:18:47Z</time></trkpt><trkpt lat="45.603484891534116" lon="-0.14885065969651992"><ele>141.0</ele><time>2026-03-22T14:18:48Z</time></trkpt><trkpt lat="45.603488878668465" lon="-0.14870293164177747"><ele>139.0</ele><time>2026-03-22T14:18:49Z</time></trkpt><trkpt lat="45.60349086669006" lon="-0.14855532086680745"><ele>137.0</ele><time>2026-03-22T14:18:50Z</time></trkpt><trkpt lat="45.603487281960916" lon="-0.14841497209262605"><ele>135.0</ele><time>2026-03-22T14:18:51Z</time></trkpt><trkpt lat="45.603477002816724" lon="-0.14828414534392276"><ele>133.0</ele><time>2026-03-22T14:18:52Z</time></trkpt><trkpt lat="45.60346155209419" lon="-0.14815498458527526"><ele>132.20000000000002</ele><time>2026-03-22T14:18:53Z</time></trkpt><trkpt lat="45.603441070506925" lon="-0.14802847370142694"><ele>131.4</ele><time>2026-03-22T14:18:54Z</time></trkpt><trkpt lat="45.603430153786654" lon="-0.1478796228148072"><ele>130.60000000000002</ele><time>2026-03-22T14:18:55.001Z</time></trkpt><trkpt lat="45.603389923582" lon="-0.1477336689425648"><ele>129.8</ele><time>2026-03-22T14:18:56.001Z</time></trkpt><trkpt lat="45.60338489317132" lon="-0.14760837313518596"><ele>129.0</ele><time>2026-03-22T14:18:57.001Z</time></trkpt><trkpt lat="45.603361427621095" lon="-0.14747846717940807"><ele>128.4</ele><time>2026-03-22T14:18:58.001Z</time></trkpt><trkpt lat="45.603339507628924" lon="-0.14736174124750534"><ele>127.80000000000001</ele><time>2026-03-22T14:18:59.001Z</time></trkpt><trkpt lat="45.60330882354952" lon="-0.14720025307272588"><ele>127.19999999999999</ele><time>2026-03-22T14:19:00.001Z</time></trkpt><trkpt lat="45.60328720546926" lon="-0.14708122152424152"><ele>126.6</ele><time>2026-03-22T14:19:01.001Z</time></trkpt><trkpt lat="45.60326031350372" lon="-0.14696561185718476"><ele>126.0</ele><time>2026-03-22T14:19:02.001Z</time></trkpt><trkpt lat="45.603240871280754" lon="-0.14685108610158573"><ele>126.0</ele><time>2026-03-22T14:19:03.001Z</time></trkpt><trkpt lat="45.603221196133966" lon="-0.14673518830618576"><ele>126.0</ele><time>2026-03-22T14:19:04.001Z</time></trkpt><trkpt lat="45.60320086848892" lon="-0.1466154469272282"><ele>126.0</ele><time>2026-03-22T14:19:05.001Z</time></trkpt><trkpt lat="45.60318136039011" lon="-0.1465005331419049"><ele>126.0</ele><time>2026-03-22T14:19:06.001Z</time></trkpt><trkpt lat="45.603162554407874" lon="-0.14638959109125083"><ele>126.0</ele><time>2026-03-22T14:19:07.001Z</time></trkpt><trkpt lat="45.60315286284717" lon="-0.14626414791422002"><ele>126.0</ele><time>2026-03-22T14:19:08.001Z</time></trkpt><trkpt lat="45.60312394388195" lon="-0.14615371648435294"><ele>125.33333333333333</ele><time>2026-03-22T14:19:09.001Z</time></trkpt><trkpt lat="45.603106030391544" lon="-0.14604428161845515"><ele>124.66666666666666</ele><time>2026-03-22T14:19:10.001Z</time></trkpt><trkpt lat="45.603100691427045" lon="-0.14592511075072534"><ele>124.0</ele><time>2026-03-22T14:19:11.001Z</time></trkpt><trkpt lat="45.60308450141442" lon="-0.14581327866101743"><ele>123.33333333333333</ele><time>2026-03-22T14:19:12.001Z</time></trkpt><trkpt lat="45.60306286983096" lon="-0.1457023935329121"><ele>122.66666666666666</ele><time>2026-03-22T14:19:13.001Z</time></trkpt><trkpt lat="45.60304366351978" lon="-0.14559273887909419"><ele>122.0</ele><time>2026-03-22T14:19:14.001Z</time></trkpt><trkpt lat="45.603027073422275" lon="-0.1454891195566811"><ele>121.66666666666666</ele><time>2026-03-22T14:19:15.001Z</time></trkpt><trkpt lat="45.60299653745093" lon="-0.1453896530333476"><ele>121.33333333333333</ele><time>2026-03-22T14:19:16.001Z</time></trkpt><trkpt lat="45.602978100332386" lon="-0.14528265691595585"><ele>121.0</ele><time>2026-03-22T14:19:17.001Z</time></trkpt><trkpt lat="45.602959152765564" lon="-0.14517360658455108"><ele>120.66666666666666</ele><time>2026-03-22T14:19:18.001Z</time></trkpt><trkpt lat="45.602938268455425" lon="-0.14505598927687413"><ele>120.33333333333333</ele><time>2026-03-22T14:19:19.001Z</time></trkpt><trkpt lat="45.60291740544254" lon="-0.14493849190015753"><ele>120.0</ele><time>2026-03-22T14:19:20.001Z</time></trkpt><trkpt lat="45.60289628124884" lon="-0.14481952358977596"><ele>119.33333333333333</ele><time>2026-03-22T14:19:21.001Z</time></trkpt><trkpt lat="45.602876666308646" lon="-0.14470905517872346"><ele>118.66666666666666</ele><time>2026-03-22T14:19:22.001Z</time></trkpt><trkpt lat="45.60285569900371" lon="-0.14458902965017792"><ele>118.0</ele><time>2026-03-22T14:19:23.001Z</time></trkpt><trkpt lat="45.60283556501618" lon="-0.14447239550073454"><ele>117.33333333333333</ele><time>2026-03-22T14:19:24.001Z</time></trkpt><trkpt lat="45.60281790431583" lon="-0.14435732021914932"><ele>116.66666666666666</ele><time>2026-03-22T14:19:25.001Z</time></trkpt><trkpt lat="45.60279901328495" lon="-0.14424533608010082"><ele>116.0</ele><time>2026-03-22T14:19:26.001Z</time></trkpt><trkpt lat="45.60279560666832" lon="-0.14411199309045256"><ele>114.83333333333333</ele><time>2026-03-22T14:19:27.001Z</time></trkpt><trkpt lat="45.60278492465328" lon="-0.1440033888603953"><ele>113.66666666666666</ele><time>2026-03-22T14:19:28.001Z</time></trkpt><trkpt lat="45.602777044394905" lon="-0.1439050294338401"><ele>112.5</ele><time>2026-03-22T14:19:29.001Z</time></trkpt><trkpt lat="45.60278376064001" lon="-0.143791206572489"><ele>111.33333333333334</ele><time>2026-03-22T14:19:30.001Z</time></trkpt><trkpt lat="45.60281055051099" lon="-0.14367885516159995"><ele>110.16666666666667</ele><time>2026-03-22T14:19:31.001Z</time></trkpt><trkpt lat="45.60283598307834" lon="-0.14358497582236196"><ele>109.0</ele><time>2026-03-22T14:19:32.001Z</time></trkpt><trkpt lat="45.60287584140444" lon="-0.14347120444311068"><ele>109.0</ele><time>2026-03-22T14:19:33.001Z</time></trkpt><trkpt lat="45.60292894466511" lon="-0.14336053975660246"><ele>109.0</ele><time>2026-03-22T14:19:34.001Z</time></trkpt><trkpt lat="45.602981898174164" lon="-0.14325815676960257"><ele>109.0</ele><time>2026-03-22T14:19:35.001Z</time></trkpt><trkpt lat="45.60304586811551" lon="-0.143159239217756"><ele>109.0</ele><time>2026-03-22T14:19:36.001Z</time></trkpt><trkpt lat="45.60311661781568" lon="-0.1430605260457689"><ele>109.0</ele><time>2026-03-22T14:19:37.001Z</time></trkpt><trkpt lat="45.60318526933397" lon="-0.1429702006392775"><ele>107.33333333333334</ele><time>2026-03-22T14:19:38.001Z</time></trkpt><trkpt lat="45.60326100855825" lon="-0.14287426646711723"><ele>105.66666666666667</ele><time>2026-03-22T14:19:39.001Z</time></trkpt><trkpt lat="45.60331785211295" lon="-0.14280313040887269"><ele>104.0</ele><time>2026-03-22T14:19:40.001Z</time></trkpt><trkpt lat="45.60338063941288" lon="-0.1427215437667079"><ele>102.33333333333334</ele><time>2026-03-22T14:19:41Z</time></trkpt><trkpt lat="45.60343335049648" lon="-0.1426533674053071"><ele>100.66666666666667</ele><time>2026-03-22T14:19:42Z</time></trkpt><trkpt lat="45.60348530753058" lon="-0.14252894101642913"><ele>99.0</ele><time>2026-03-22T14:19:44Z</time></trkpt><trkpt lat="45.60357291587363" lon="-0.14244164368513978"><ele>97.25</ele><time>2026-03-22T14:19:46Z</time></trkpt><trkpt lat="45.60365845139868" lon="-0.14233288469566846"><ele>95.5</ele><time>2026-03-22T14:19:48Z</time></trkpt><trkpt lat="45.60374374445455" lon="-0.14222595227300439"><ele>93.75</ele><time>2026-03-22T14:19:50Z</time></trkpt><trkpt lat="45.60379247454125" lon="-0.1421503088992189"><ele>92.0</ele><time>2026-03-22T14:19:51Z</time></trkpt><trkpt lat="45.60359450123098" lon="-0.1416606626011265"><ele>89.8</ele><time>2026-03-22T14:19:53Z</time></trkpt><trkpt lat="45.60356143293418" lon="-0.14154392684408332"><ele>87.6</ele><time>2026-03-22T14:19:54Z</time></trkpt><trkpt lat="45.60352345520111" lon="-0.14140955854737433"><ele>85.39999999999999</ele><time>2026-03-22T14:19:55Z</time></trkpt><trkpt lat="45.603458353154934" lon="-0.1412341550208826"><ele>83.19999999999999</ele><time>2026-03-22T14:19:56Z</time></trkpt><trkpt lat="45.60341065291074" lon="-0.1410961037803663"><ele>81.0</ele><time>2026-03-22T14:19:57Z</time></trkpt><trkpt lat="45.60336029802112" lon="-0.14098121265911812"><ele>81.0</ele><time>2026-03-22T14:19:58Z</time></trkpt><trkpt lat="45.603297887513826" lon="-0.14087537665655883"><ele>81.0</ele><time>2026-03-22T14:19:59Z</time></trkpt><trkpt lat="45.60323178985871" lon="-0.1407903187536801"><ele>81.0</ele><time>2026-03-22T14:20:00Z</time></trkpt><trkpt lat="45.603150259627036" lon="-0.14069920810934772"><ele>81.0</ele><time>2026-03-22T14:20:01Z</time></trkpt><trkpt lat="45.6030902849429" lon="-0.14059394248227966"><ele>81.0</ele><time>2026-03-22T14:20:02Z</time></trkpt><trkpt lat="45.60302727382678" lon="-0.14050410033722768"><ele>80.33333333333333</ele><time>2026-03-22T14:20:03Z</time></trkpt><trkpt lat="45.60295670531541" lon="-0.14037867105939889"><ele>79.66666666666667</ele><time>2026-03-22T14:20:05Z</time></trkpt><trkpt lat="45.60290886815673" lon="-0.1402971970313844"><ele>79.0</ele><time>2026-03-22T14:20:07Z</time></trkpt><trkpt lat="45.6028501960969" lon="-0.14021196643046144"><ele>78.33333333333334</ele><time>2026-03-22T14:20:10Z</time></trkpt><trkpt lat="45.60277431009254" lon="-0.14020246594159455"><ele>77.66666666666667</ele><time>2026-03-22T14:20:11Z</time></trkpt><trkpt lat="45.60267677959786" lon="-0.14023341824486923"><ele>77.0</ele><time>2026-03-22T14:20:12Z</time></trkpt><trkpt lat="45.60258197851428" lon="-0.14018337564745367"><ele>76.6</ele><time>2026-03-22T14:20:13Z</time></trkpt><trkpt lat="45.60248852212987" lon="-0.14012989556421646"><ele>76.2</ele><time>2026-03-22T14:20:14Z</time></trkpt><trkpt lat="45.60242779347678" lon="-0.14008973274343298"><ele>75.8</ele><time>2026-03-22T14:20:15Z</time></trkpt><trkpt lat="45.6023255565379" lon="-0.13998712587891884"><ele>75.4</ele><time>2026-03-22T14:20:17Z</time></trkpt><trkpt lat="45.60226026028124" lon="-0.1398878493755045"><ele>75.0</ele><time>2026-03-22T14:20:18Z</time></trkpt><trkpt lat="45.602204824332915" lon="-0.13978714961872357"><ele>74.5</ele><time>2026-03-22T14:20:19Z</time></trkpt><trkpt lat="45.60215369917146" lon="-0.13969428043952045"><ele>74.0</ele><time>2026-03-22T14:20:20Z</time></trkpt><trkpt lat="45.602101839619074" lon="-0.13959722954399498"><ele>73.5</ele><time>2026-03-22T14:20:21Z</time></trkpt><trkpt lat="45.60205573935206" lon="-0.13951003559627187"><ele>73.0</ele><time>2026-03-22T14:20:22Z</time></trkpt><trkpt lat="45.60200888434465" lon="-0.13942413475315257"><ele>72.5</ele><time>2026-03-22T14:20:23Z</time></trkpt><trkpt lat="45.601959505393786" lon="-0.13933360667880065"><ele>72.0</ele><time>2026-03-22T14:20:24Z</time></trkpt><trkpt lat="45.60191071189634" lon="-0.13924278306708965"><ele>72.0</ele><time>2026-03-22T14:20:25Z</time></trkpt><trkpt lat="45.60185943761589" lon="-0.1391448468800957"><ele>72.0</ele><time>2026-03-22T14:20:26Z</time></trkpt><trkpt lat="45.60180440227228" lon="-0.13904280739264338"><ele>72.0</ele><time>2026-03-22T14:20:27Z</time></trkpt><trkpt lat="45.60174961733589" lon="-0.13894110462383416"><ele>72.0</ele><time>2026-03-22T14:20:28Z</time></trkpt><trkpt lat="45.60169616447463" lon="-0.13884300383460252"><ele>72.0</ele><time>2026-03-22T14:20:29Z</time></trkpt><trkpt lat="45.601645109593136" lon="-0.138753045652451"><ele>72.0</ele><time>2026-03-22T14:20:30Z</time></trkpt><trkpt lat="45.60158911140016" lon="-0.13866288965490067"><ele>72.5</ele><time>2026-03-22T14:20:31Z</time></trkpt><trkpt lat="45.60153322389431" lon="-0.1385762644475995"><ele>73.0</ele><time>2026-03-22T14:20:32Z</time></trkpt><trkpt lat="45.60147332244691" lon="-0.13848715332409542"><ele>73.5</ele><time>2026-03-22T14:20:33Z</time></trkpt><trkpt lat="45.60140961197179" lon="-0.1384010491390823"><ele>74.0</ele><time>2026-03-22T14:20:34Z</time></trkpt><trkpt lat="45.60134658502881" lon="-0.13831738662995108"><ele>74.5</ele><time>2026-03-22T14:20:35Z</time></trkpt><trkpt lat="45.60128983322258" lon="-0.1382248637362087"><ele>75.0</ele><time>2026-03-22T14:20:36Z</time></trkpt><trkpt lat="45.60122976276797" lon="-0.1381939299822587"><ele>75.8</ele><time>2026-03-22T14:20:37Z</time></trkpt><trkpt lat="45.60116989019389" lon="-0.1381443124779841"><ele>76.6</ele><time>2026-03-22T14:20:39Z</time></trkpt><trkpt lat="45.60123729403905" lon="-0.13792120419411968"><ele>77.4</ele><time>2026-03-22T14:20:41Z</time></trkpt><trkpt lat="45.60131246431344" lon="-0.13782965557297056"><ele>78.2</ele><time>2026-03-22T14:20:43Z</time></trkpt><trkpt lat="45.60138374089962" lon="-0.1377285190536257"><ele>79.0</ele><time>2026-03-22T14:20:45Z</time></trkpt><trkpt lat="45.60146234571321" lon="-0.13760134074245486"><ele>79.0</ele><time>2026-03-22T14:20:47Z</time></trkpt><trkpt lat="45.601500573203715" lon="-0.13752420711614202"><ele>79.0</ele><time>2026-03-22T14:20:48Z</time></trkpt><trkpt lat="45.601539113170105" lon="-0.13743546767813652"><ele>79.0</ele><time>2026-03-22T14:20:49Z</time></trkpt><trkpt lat="45.6015776942846" lon="-0.1373437650255422"><ele>79.0</ele><time>2026-03-22T14:20:50Z</time></trkpt><trkpt lat="45.601616123452715" lon="-0.13725280109763527"><ele>79.0</ele><time>2026-03-22T14:20:51Z</time></trkpt><trkpt lat="45.60168449306403" lon="-0.1371262071938736"><ele>79.0</ele><time>2026-03-22T14:20:53.001Z</time></trkpt><trkpt lat="45.60174255103099" lon="-0.1370128353890594"><ele>80.5</ele><time>2026-03-22T14:20:55.001Z</time></trkpt><trkpt lat="45.6017716837978" lon="-0.13690059400343857"><ele>82.0</ele><time>2026-03-22T14:20:56.001Z</time></trkpt><trkpt lat="45.60183654861734" lon="-0.13678447041043024"><ele>83.5</ele><time>2026-03-22T14:20:58.001Z</time></trkpt><trkpt lat="45.6018873826245" lon="-0.13668480026493973"><ele>85.0</ele><time>2026-03-22T14:21:00.001Z</time></trkpt><trkpt lat="45.601728978347126" lon="-0.13643250854991548"><ele>86.0</ele><time>2026-03-22T14:21:03.001Z</time></trkpt><trkpt lat="45.60163671098831" lon="-0.1363198959508022"><ele>87.0</ele><time>2026-03-22T14:21:05.001Z</time></trkpt><trkpt lat="45.60157816896729" lon="-0.13621552597716857"><ele>88.0</ele><time>2026-03-22T14:21:07.001Z</time></trkpt><trkpt lat="45.6015794055003" lon="-0.1361214881502709"><ele>89.0</ele><time>2026-03-22T14:21:09.001Z</time></trkpt><trkpt lat="45.60160801832582" lon="-0.1359944649698767"><ele>90.0</ele><time>2026-03-22T14:21:11.001Z</time></trkpt><trkpt lat="45.60163620871284" lon="-0.13587176043795432"><ele>90.0</ele><time>2026-03-22T14:21:13.001Z</time></trkpt><trkpt lat="45.601671204222924" lon="-0.13577307871477273"><ele>90.0</ele><time>2026-03-22T14:21:15.001Z</time></trkpt><trkpt lat="45.601697486755455" lon="-0.13566391739984607"><ele>90.0</ele><time>2026-03-22T14:21:17.001Z</time></trkpt><trkpt lat="45.60172154989861" lon="-0.1355591077515025"><ele>90.0</ele><time>2026-03-22T14:21:19.001Z</time></trkpt><trkpt lat="45.60173510036691" lon="-0.13544502910861747"><ele>90.0</ele><time>2026-03-22T14:21:21.001Z</time></trkpt><trkpt lat="45.60174124731501" lon="-0.13533373066704796"><ele>90.0</ele><time>2026-03-22T14:21:23.001Z</time></trkpt><trkpt lat="45.60173144114915" lon="-0.13522710532161356"><ele>89.71428571428571</ele><time>2026-03-22T14:21:25.001Z</time></trkpt><trkpt lat="45.60173816117314" lon="-0.13512572845793935"><ele>89.42857142857143</ele><time>2026-03-22T14:21:27.001Z</time></trkpt><trkpt lat="45.60172724916344" lon="-0.13499998162723953"><ele>89.14285714285714</ele><time>2026-03-22T14:21:30.001Z</time></trkpt><trkpt lat="45.6017169154263" lon="-0.1349088613188198"><ele>88.85714285714286</ele><time>2026-03-22T14:21:32.001Z</time></trkpt><trkpt lat="45.601702320707005" lon="-0.1348065978961187"><ele>88.57142857142857</ele><time>2026-03-22T14:21:35.001Z</time></trkpt><trkpt lat="45.60173575946925" lon="-0.13472687717752818"><ele>88.28571428571429</ele><time>2026-03-22T14:21:38.001Z</time></trkpt><trkpt lat="45.60179610841786" lon="-0.13469714380784317"><ele>88.0</ele><time>2026-03-22T14:21:40.001Z</time></trkpt><trkpt lat="45.60186171038259" lon="-0.13470666786404686"><ele>87.80000000000001</ele><time>2026-03-22T14:21:42.001Z</time></trkpt><trkpt lat="45.60191989470976" lon="-0.1347451938207703"><ele>87.6</ele><time>2026-03-22T14:21:44.001Z</time></trkpt><trkpt lat="45.601988727019695" lon="-0.13481360591204908"><ele>87.4</ele><time>2026-03-22T14:21:46.001Z</time></trkpt><trkpt lat="45.60208231558884" lon="-0.13490473813136952"><ele>87.19999999999999</ele><time>2026-03-22T14:21:48Z</time></trkpt><trkpt lat="45.60218351166593" lon="-0.1349761255779806"><ele>87.0</ele><time>2026-03-22T14:21:50Z</time></trkpt><trkpt lat="45.60225929406135" lon="-0.13495816367953675"><ele>85.19999999999999</ele><time>2026-03-22T14:21:52Z</time></trkpt><trkpt lat="45.60235774660928" lon="-0.13493647379709997"><ele>83.39999999999999</ele><time>2026-03-22T14:21:54Z</time></trkpt><trkpt lat="45.60244860202263" lon="-0.13489489878168082"><ele>81.6</ele><time>2026-03-22T14:21:56Z</time></trkpt><trkpt lat="45.60253413773123" lon="-0.1348561529990974"><ele>79.8</ele><time>2026-03-22T14:21:58Z</time></trkpt><trkpt lat="45.60261793125158" lon="-0.13480346558867584"><ele>78.0</ele><time>2026-03-22T14:22:00Z</time></trkpt><trkpt lat="45.60268357610853" lon="-0.13473911751728454"><ele>77.8</ele><time>2026-03-22T14:22:03Z</time></trkpt><trkpt lat="45.60269658545688" lon="-0.13462592501455706"><ele>77.6</ele><time>2026-03-22T14:22:05Z</time></trkpt><trkpt lat="45.602678003124716" lon="-0.13446361569175885"><ele>77.4</ele><time>2026-03-22T14:22:07Z</time></trkpt><trkpt lat="45.60268805829747" lon="-0.1342956344444439"><ele>77.2</ele><time>2026-03-22T14:22:09Z</time></trkpt><trkpt lat="45.60268125064687" lon="-0.1341304328670603"><ele>77.0</ele><time>2026-03-22T14:22:11Z</time></trkpt><trkpt lat="45.60266678129421" lon="-0.1339632814717398"><ele>76.8</ele><time>2026-03-22T14:22:13Z</time></trkpt><trkpt lat="45.6026509380725" lon="-0.13381565245107438"><ele>76.6</ele><time>2026-03-22T14:22:15Z</time></trkpt><trkpt lat="45.602625043006995" lon="-0.13368231059516658"><ele>76.39999999999999</ele><time>2026-03-22T14:22:17Z</time></trkpt><trkpt lat="45.60260978541089" lon="-0.13357939446224998"><ele>76.2</ele><time>2026-03-22T14:22:19Z</time></trkpt><trkpt lat="45.602621748144564" lon="-0.13347631151770184"><ele>76.0</ele><time>2026-03-22T14:22:22Z</time></trkpt><trkpt lat="45.602758441833544" lon="-0.13342396236614784"><ele>75.25</ele><time>2026-03-22T14:22:24Z</time></trkpt><trkpt lat="45.602860374262676" lon="-0.13340874477733136"><ele>74.5</ele><time>2026-03-22T14:22:25Z</time></trkpt><trkpt lat="45.60297939056585" lon="-0.13337466371904533"><ele>73.75</ele><time>2026-03-22T14:22:26Z</time></trkpt><trkpt lat="45.60313472302675" lon="-0.1333034374985168"><ele>73.0</ele><time>2026-03-22T14:22:27Z</time></trkpt><trkpt lat="45.603292695951076" lon="-0.13317054173075546"><ele>72.66666666666666</ele><time>2026-03-22T14:22:28Z</time></trkpt><trkpt lat="45.603479155587586" lon="-0.133022278030623"><ele>72.33333333333333</ele><time>2026-03-22T14:22:29Z</time></trkpt><trkpt lat="45.603668343462324" lon="-0.13286953479567942"><ele>72.0</ele><time>2026-03-22T14:22:30Z</time></trkpt><trkpt lat="45.60384472465704" lon="-0.13275347141435412"><ele>70.66666666666667</ele><time>2026-03-22T14:22:31Z</time></trkpt><trkpt lat="45.604001753742075" lon="-0.13262721814081854"><ele>69.33333333333334</ele><time>2026-03-22T14:22:32Z</time></trkpt><trkpt lat="45.60414749870885" lon="-0.13250904346650025"><ele>68.0</ele><time>2026-03-22T14:22:33Z</time></trkpt><trkpt lat="45.60428561989776" lon="-0.13240393470973652"><ele>68.0</ele><time>2026-03-22T14:22:34Z</time></trkpt><trkpt lat="45.60442159955715" lon="-0.1323004623834333"><ele>68.0</ele><time>2026-03-22T14:22:35Z</time></trkpt><trkpt lat="45.60454843327475" lon="-0.1321699169264237"><ele>68.0</ele><time>2026-03-22T14:22:36Z</time></trkpt><trkpt lat="45.604719465101944" lon="-0.1320871980327723"><ele>67.33333333333334</ele><time>2026-03-22T14:22:37Z</time></trkpt><trkpt lat="45.604885390638096" lon="-0.1319626973729233"><ele>66.66666666666667</ele><time>2026-03-22T14:22:38Z</time></trkpt><trkpt lat="45.60503296250998" lon="-0.13184019342866374"><ele>66.0</ele><time>2026-03-22T14:22:39Z</time></trkpt><trkpt lat="45.60517476248439" lon="-0.13171737038647788"><ele>66.0</ele><time>2026-03-22T14:22:40Z</time></trkpt><trkpt lat="45.60530278665211" lon="-0.1315775797365953"><ele>66.0</ele><time>2026-03-22T14:22:41Z</time></trkpt><trkpt lat="45.605440783099745" lon="-0.13145613516506996"><ele>66.0</ele><time>2026-03-22T14:22:42Z</time></trkpt><trkpt lat="45.6055980290714" lon="-0.1313244145728456"><ele>65.66666666666667</ele><time>2026-03-22T14:22:43Z</time></trkpt><trkpt lat="45.6057507375487" lon="-0.13120216466513546"><ele>65.33333333333334</ele><time>2026-03-22T14:22:44Z</time></trkpt><trkpt lat="45.60590500362357" lon="-0.13108409781397473"><ele>65.0</ele><time>2026-03-22T14:22:45Z</time></trkpt><trkpt lat="45.60604925928369" lon="-0.13098154227978895"><ele>65.33333333333334</ele><time>2026-03-22T14:22:46Z</time></trkpt><trkpt lat="45.60619453906217" lon="-0.13088167221263589"><ele>65.66666666666667</ele><time>2026-03-22T14:22:47Z</time></trkpt><trkpt lat="45.606340896378924" lon="-0.1307920989067732"><ele>66.0</ele><time>2026-03-22T14:22:48Z</time></trkpt><trkpt lat="45.60649785487444" lon="-0.13070090719016322"><ele>66.0</ele><time>2026-03-22T14:22:49Z</time></trkpt><trkpt lat="45.606643806498916" lon="-0.13061611041496585"><ele>66.0</ele><time>2026-03-22T14:22:50Z</time></trkpt><trkpt lat="45.60678551376404" lon="-0.13055684722048533"><ele>66.0</ele><time>2026-03-22T14:22:51Z</time></trkpt><trkpt lat="45.60691051437414" lon="-0.13046957840053644"><ele>66.0</ele><time>2026-03-22T14:22:52Z</time></trkpt><trkpt lat="45.60704721712202" lon="-0.13036610156681802"><ele>66.33333333333333</ele><time>2026-03-22T14:22:53Z</time></trkpt><trkpt lat="45.6071850856973" lon="-0.13025103486399459"><ele>66.66666666666666</ele><time>2026-03-22T14:22:54.001Z</time></trkpt><trkpt lat="45.60732163163897" lon="-0.13013019699078088"><ele>67.0</ele><time>2026-03-22T14:22:55.001Z</time></trkpt><trkpt lat="45.60744122970444" lon="-0.13002535009083047"><ele>67.0</ele><time>2026-03-22T14:22:56.001Z</time></trkpt><trkpt lat="45.607546353167294" lon="-0.12991827558460012"><ele>67.0</ele><time>2026-03-22T14:22:57.001Z</time></trkpt><trkpt lat="45.60763448915719" lon="-0.1298212781118536"><ele>67.0</ele><time>2026-03-22T14:22:58.001Z</time></trkpt><trkpt lat="45.60771956014469" lon="-0.12972252152244806"><ele>67.0</ele><time>2026-03-22T14:22:59.001Z</time></trkpt><trkpt lat="45.60778911409946" lon="-0.1296289038931793"><ele>67.0</ele><time>2026-03-22T14:23:00.001Z</time></trkpt><trkpt lat="45.60785863966071" lon="-0.12952853230384767"><ele>65.6</ele><time>2026-03-22T14:23:01.001Z</time></trkpt><trkpt lat="45.60792625066232" lon="-0.1294193580532175"><ele>64.2</ele><time>2026-03-22T14:23:02.001Z</time></trkpt><trkpt lat="45.607972022174955" lon="-0.12929120428099425"><ele>62.8</ele><time>2026-03-22T14:23:03.001Z</time></trkpt><trkpt lat="45.60804776785673" lon="-0.12918737089736704"><ele>61.4</ele><time>2026-03-22T14:23:04.001Z</time></trkpt><trkpt lat="45.608118288395566" lon="-0.1290658372699419"><ele>60.0</ele><time>2026-03-22T14:23:05.001Z</time></trkpt><trkpt lat="45.60818383626621" lon="-0.12896258245013387"><ele>59.166666666666664</ele><time>2026-03-22T14:23:06.001Z</time></trkpt><trkpt lat="45.60823845712058" lon="-0.1288862233102823"><ele>58.33333333333333</ele><time>2026-03-22T14:23:07.001Z</time></trkpt><trkpt lat="45.60829356354515" lon="-0.12880687730403426"><ele>57.5</ele><time>2026-03-22T14:23:08.001Z</time></trkpt><trkpt lat="45.60837065142083" lon="-0.12873831562492957"><ele>56.666666666666664</ele><time>2026-03-22T14:23:09.001Z</time></trkpt><trkpt lat="45.60843907501504" lon="-0.12866245477641014"><ele>55.83333333333333</ele><time>2026-03-22T14:23:10.001Z</time></trkpt><trkpt lat="45.6085283948306" lon="-0.1285769227422931"><ele>55.0</ele><time>2026-03-22T14:23:11.001Z</time></trkpt><trkpt lat="45.608629833793714" lon="-0.1284845047586198"><ele>54.5</ele><time>2026-03-22T14:23:12.001Z</time></trkpt><trkpt lat="45.608745328749634" lon="-0.1284143785877463"><ele>54.0</ele><time>2026-03-22T14:23:13.001Z</time></trkpt><trkpt lat="45.60884501284328" lon="-0.1282992099432921"><ele>53.5</ele><time>2026-03-22T14:23:14.001Z</time></trkpt><trkpt lat="45.608929601162764" lon="-0.12821069442061972"><ele>53.0</ele><time>2026-03-22T14:23:15.001Z</time></trkpt><trkpt lat="45.609021513307006" lon="-0.128097424164217"><ele>52.8</ele><time>2026-03-22T14:23:16.001Z</time></trkpt><trkpt lat="45.60909732781623" lon="-0.1279893555072638"><ele>52.599999999999994</ele><time>2026-03-22T14:23:17.001Z</time></trkpt><trkpt lat="45.60916210134333" lon="-0.12787780522047162"><ele>52.400000000000006</ele><time>2026-03-22T14:23:18.001Z</time></trkpt><trkpt lat="45.60920864236226" lon="-0.12779464497293896"><ele>52.2</ele><time>2026-03-22T14:23:19.001Z</time></trkpt><trkpt lat="45.60929687245035" lon="-0.1276474399337108"><ele>52.0</ele><time>2026-03-22T14:23:20.001Z</time></trkpt><trkpt lat="45.60937917216937" lon="-0.12748744725638364"><ele>51.75</ele><time>2026-03-22T14:23:21.001Z</time></trkpt><trkpt lat="45.6094369500259" lon="-0.12734131166204274"><ele>51.5</ele><time>2026-03-22T14:23:22.001Z</time></trkpt><trkpt lat="45.60951183569397" lon="-0.12718441126138796"><ele>51.25</ele><time>2026-03-22T14:23:23.001Z</time></trkpt><trkpt lat="45.60958771866888" lon="-0.12706391138366246"><ele>51.0</ele><time>2026-03-22T14:23:24.001Z</time></trkpt><trkpt lat="45.609630454802236" lon="-0.12691537233282235"><ele>50.833333333333336</ele><time>2026-03-22T14:23:25.001Z</time></trkpt><trkpt lat="45.60966711381275" lon="-0.12680838771292302"><ele>50.66666666666667</ele><time>2026-03-22T14:23:26.001Z</time></trkpt><trkpt lat="45.60968358803671" lon="-0.12671979212965617"><ele>50.5</ele><time>2026-03-22T14:23:27.001Z</time></trkpt><trkpt lat="45.609700016651495" lon="-0.12662904071824327"><ele>50.333333333333336</ele><time>2026-03-22T14:23:28.001Z</time></trkpt><trkpt lat="45.60972295863294" lon="-0.12648128841462958"><ele>50.16666666666667</ele><time>2026-03-22T14:23:30.001Z</time></trkpt><trkpt lat="45.60973400564105" lon="-0.12637488887754694"><ele>50.0</ele><time>2026-03-22T14:23:32.001Z</time></trkpt><trkpt lat="45.60974480253401" lon="-0.12623530627848556"><ele>50.0</ele><time>2026-03-22T14:23:34.001Z</time></trkpt><trkpt lat="45.60975286662635" lon="-0.12606314507585945"><ele>50.0</ele><time>2026-03-22T14:23:36.001Z</time></trkpt><trkpt lat="45.60975799250023" lon="-0.12595371221966892"><ele>50.0</ele><time>2026-03-22T14:23:37.001Z</time></trkpt><trkpt lat="45.60977965549714" lon="-0.12582266795062125"><ele>50.0</ele><time>2026-03-22T14:23:38.001Z</time></trkpt><trkpt lat="45.60978847788755" lon="-0.12570316390844047"><ele>50.0</ele><time>2026-03-22T14:23:39.001Z</time></trkpt><trkpt lat="45.60979598968626" lon="-0.12555787705081994"><ele>49.833333333333336</ele><time>2026-03-22T14:23:40.001Z</time></trkpt><trkpt lat="45.609800650363866" lon="-0.12543236574614475"><ele>49.66666666666667</ele><time>2026-03-22T14:23:41.001Z</time></trkpt><trkpt lat="45.609793179202946" lon="-0.1253134282025015"><ele>49.5</ele><time>2026-03-22T14:23:42.001Z</time></trkpt><trkpt lat="45.60979670254563" lon="-0.12520498432487984"><ele>49.33333333333333</ele><time>2026-03-22T14:23:43.001Z</time></trkpt><trkpt lat="45.60980057848844" lon="-0.12508568787407506"><ele>49.166666666666664</ele><time>2026-03-22T14:23:44.001Z</time></trkpt><trkpt lat="45.60980426768845" lon="-0.12497213909693972"><ele>49.0</ele><time>2026-03-22T14:23:45.001Z</time></trkpt><trkpt lat="45.60980311632443" lon="-0.12487684661262231"><ele>49.0</ele><time>2026-03-22T14:23:46.001Z</time></trkpt><trkpt lat="45.60982740991232" lon="-0.12477890204909038"><ele>49.0</ele><time>2026-03-22T14:23:47.001Z</time></trkpt><trkpt lat="45.60987162811078" lon="-0.1246353000910492"><ele>49.0</ele><time>2026-03-22T14:23:49.001Z</time></trkpt><trkpt lat="45.60997801942748" lon="-0.12455623694947715"><ele>49.0</ele><time>2026-03-22T14:23:51.001Z</time></trkpt><trkpt lat="45.610045332039476" lon="-0.12453091862886648"><ele>49.0</ele><time>2026-03-22T14:23:52.001Z</time></trkpt><trkpt lat="45.61012877242696" lon="-0.1244938667203137"><ele>49.0</ele><time>2026-03-22T14:23:53Z</time></trkpt><trkpt lat="45.61023512390041" lon="-0.12445286441875154"><ele>49.0</ele><time>2026-03-22T14:23:54Z</time></trkpt><trkpt lat="45.61035489740093" lon="-0.12438231916497403"><ele>49.0</ele><time>2026-03-22T14:23:55Z</time></trkpt><trkpt lat="45.61047640821313" lon="-0.1243433721247824"><ele>49.0</ele><time>2026-03-22T14:23:56Z</time></trkpt><trkpt lat="45.61057396126344" lon="-0.12428984172843952"><ele>48.800000000000004</ele><time>2026-03-22T14:23:57Z</time></trkpt><trkpt lat="45.61066490092141" lon="-0.12423977712610572"><ele>48.6</ele><time>2026-03-22T14:23:58Z</time></trkpt><trkpt lat="45.61076029170475" lon="-0.1241872986335674"><ele>48.4</ele><time>2026-03-22T14:23:59Z</time></trkpt><trkpt lat="45.61085116090528" lon="-0.12412948740855587"><ele>48.2</ele><time>2026-03-22T14:24:00Z</time></trkpt><trkpt lat="45.610941144417644" lon="-0.12405671272377294"><ele>48.0</ele><time>2026-03-22T14:24:01Z</time></trkpt><trkpt lat="45.61102859252966" lon="-0.12397086518757953"><ele>48.0</ele><time>2026-03-22T14:24:02Z</time></trkpt><trkpt lat="45.61111901950397" lon="-0.1238892497152181"><ele>48.0</ele><time>2026-03-22T14:24:03Z</time></trkpt><trkpt lat="45.61120382840574" lon="-0.12380658657271264"><ele>48.0</ele><time>2026-03-22T14:24:04Z</time></trkpt><trkpt lat="45.611287662268865" lon="-0.12372309099314653"><ele>48.0</ele><time>2026-03-22T14:24:05Z</time></trkpt><trkpt lat="45.61136775834843" lon="-0.12363890309121063"><ele>48.0</ele><time>2026-03-22T14:24:06Z</time></trkpt><trkpt lat="45.61144021547963" lon="-0.12355872798950447"><ele>48.0</ele><time>2026-03-22T14:24:07Z</time></trkpt><trkpt lat="45.61151153230382" lon="-0.12347844905132455"><ele>48.0</ele><time>2026-03-22T14:24:08Z</time></trkpt><trkpt lat="45.61160242244245" lon="-0.123376137112229"><ele>48.0</ele><time>2026-03-22T14:24:09Z</time></trkpt><trkpt lat="45.611686874660364" lon="-0.12331289934194073"><ele>48.0</ele><time>2026-03-22T14:24:10Z</time></trkpt><trkpt lat="45.611769011799105" lon="-0.12322245964413402"><ele>48.0</ele><time>2026-03-22T14:24:11Z</time></trkpt><trkpt lat="45.611856410388015" lon="-0.12314425432461149"><ele>48.2</ele><time>2026-03-22T14:24:12Z</time></trkpt><trkpt lat="45.61193755869969" lon="-0.12307061122477168"><ele>48.4</ele><time>2026-03-22T14:24:13Z</time></trkpt><trkpt lat="45.61202154346079" lon="-0.12298693521345236"><ele>48.6</ele><time>2026-03-22T14:24:14Z</time></trkpt><trkpt lat="45.61211720758207" lon="-0.12293554106048984"><ele>48.800000000000004</ele><time>2026-03-22T14:24:15Z</time></trkpt><trkpt lat="45.61220413969285" lon="-0.12286216973988304"><ele>49.0</ele><time>2026-03-22T14:24:16Z</time></trkpt><trkpt lat="45.612295580079945" lon="-0.12279872010122111"><ele>49.0</ele><time>2026-03-22T14:24:17Z</time></trkpt><trkpt lat="45.612383506848154" lon="-0.12272820872627684"><ele>49.0</ele><time>2026-03-22T14:24:18Z</time></trkpt><trkpt lat="45.61246694022726" lon="-0.12264803314706896"><ele>49.0</ele><time>2026-03-22T14:24:19Z</time></trkpt><trkpt lat="45.61254603432606" lon="-0.12256610774075516"><ele>49.0</ele><time>2026-03-22T14:24:20Z</time></trkpt><trkpt lat="45.61262588750657" lon="-0.12247915031175909"><ele>49.0</ele><time>2026-03-22T14:24:21Z</time></trkpt><trkpt lat="45.612757978961604" lon="-0.1223442439459645"><ele>48.800000000000004</ele><time>2026-03-22T14:24:22Z</time></trkpt><trkpt lat="45.612833003401555" lon="-0.12224530445667839"><ele>48.6</ele><time>2026-03-22T14:24:23Z</time></trkpt><trkpt lat="45.61291505763949" lon="-0.12215191649748999"><ele>48.4</ele><time>2026-03-22T14:24:24Z</time></trkpt><trkpt lat="45.6129926715638" lon="-0.12206106031609348"><ele>48.2</ele><time>2026-03-22T14:24:25Z</time></trkpt><trkpt lat="45.613066670297904" lon="-0.12196541685006078"><ele>48.0</ele><time>2026-03-22T14:24:26Z</time></trkpt><trkpt lat="45.61313931201084" lon="-0.12187225418161514"><ele>48.0</ele><time>2026-03-22T14:24:27Z</time></trkpt><trkpt lat="45.6132381264426" lon="-0.12173499726086613"><ele>48.0</ele><time>2026-03-22T14:24:28Z</time></trkpt><trkpt lat="45.6132958341434" lon="-0.12164762776847061"><ele>48.0</ele><time>2026-03-22T14:24:29Z</time></trkpt><trkpt lat="45.61337320016171" lon="-0.12153844620740518"><ele>48.0</ele><time>2026-03-22T14:24:30Z</time></trkpt><trkpt lat="45.61344262614155" lon="-0.12143891410881956"><ele>48.0</ele><time>2026-03-22T14:24:31Z</time></trkpt><trkpt lat="45.61351619085" lon="-0.12133012645788598"><ele>47.8</ele><time>2026-03-22T14:24:32Z</time></trkpt><trkpt lat="45.61358673590396" lon="-0.1212238166788612"><ele>47.599999999999994</ele><time>2026-03-22T14:24:33Z</time></trkpt><trkpt lat="45.61365379980252" lon="-0.1211189358175619"><ele>47.400000000000006</ele><time>2026-03-22T14:24:34Z</time></trkpt><trkpt lat="45.61369931631442" lon="-0.12101306436468405"><ele>47.2</ele><time>2026-03-22T14:24:35Z</time></trkpt><trkpt lat="45.613757828958214" lon="-0.12092511201008735"><ele>47.0</ele><time>2026-03-22T14:24:36Z</time></trkpt><trkpt lat="45.61381063954312" lon="-0.12084573052741052"><ele>47.0</ele><time>2026-03-22T14:24:37Z</time></trkpt><trkpt lat="45.61386641902967" lon="-0.12076377945039084"><ele>47.0</ele><time>2026-03-22T14:24:38Z</time></trkpt><trkpt lat="45.61391415374866" lon="-0.12069393319009628"><ele>47.0</ele><time>2026-03-22T14:24:39Z</time></trkpt><trkpt lat="45.61396574640909" lon="-0.12061844193621243"><ele>47.0</ele><time>2026-03-22T14:24:40Z</time></trkpt><trkpt lat="45.6140222057472" lon="-0.12053972146907158"><ele>47.0</ele><time>2026-03-22T14:24:41Z</time></trkpt><trkpt lat="45.614107466513566" lon="-0.12043563109136862"><ele>47.0</ele><time>2026-03-22T14:24:43Z</time></trkpt><trkpt lat="45.61415709415713" lon="-0.120290437392128"><ele>47.5</ele><time>2026-03-22T14:24:44Z</time></trkpt><trkpt lat="45.61427042204345" lon="-0.12019402973301876"><ele>48.0</ele><time>2026-03-22T14:24:45Z</time></trkpt><trkpt lat="45.614351428149185" lon="-0.12004996353394447"><ele>48.5</ele><time>2026-03-22T14:24:46Z</time></trkpt><trkpt lat="45.614448123117754" lon="-0.1199158555983866"><ele>49.0</ele><time>2026-03-22T14:24:47Z</time></trkpt><trkpt lat="45.61452169418154" lon="-0.11980207673572826"><ele>50.0</ele><time>2026-03-22T14:24:48Z</time></trkpt><trkpt lat="45.61461522213499" lon="-0.11967148877095579"><ele>51.0</ele><time>2026-03-22T14:24:49Z</time></trkpt><trkpt lat="45.61472203028284" lon="-0.1195211691743577"><ele>52.0</ele><time>2026-03-22T14:24:50Z</time></trkpt><trkpt lat="45.61481982115468" lon="-0.11937743822223704"><ele>53.0</ele><time>2026-03-22T14:24:51Z</time></trkpt><trkpt lat="45.614915496162965" lon="-0.11923662940283823"><ele>53.0</ele><time>2026-03-22T14:24:52Z</time></trkpt><trkpt lat="45.61501118867394" lon="-0.1190947665580566"><ele>53.0</ele><time>2026-03-22T14:24:53Z</time></trkpt><trkpt lat="45.615103458204956" lon="-0.11895796848510959"><ele>53.0</ele><time>2026-03-22T14:24:54Z</time></trkpt><trkpt lat="45.615195536439295" lon="-0.11881614837628789"><ele>53.0</ele><time>2026-03-22T14:24:55Z</time></trkpt><trkpt lat="45.61528414919203" lon="-0.11867966585898157"><ele>55.25</ele><time>2026-03-22T14:24:56Z</time></trkpt><trkpt lat="45.61537153399409" lon="-0.11854778081123482"><ele>57.5</ele><time>2026-03-22T14:24:57Z</time></trkpt><trkpt lat="45.61545841217734" lon="-0.11841776982594544"><ele>59.75</ele><time>2026-03-22T14:24:58Z</time></trkpt><trkpt lat="45.61554746425761" lon="-0.11828450565847466"><ele>62.0</ele><time>2026-03-22T14:24:59Z</time></trkpt><trkpt lat="45.615633625981765" lon="-0.11815354479947489"><ele>62.75</ele><time>2026-03-22T14:25:00Z</time></trkpt><trkpt lat="45.615722656608106" lon="-0.11801742148040079"><ele>63.5</ele><time>2026-03-22T14:25:01Z</time></trkpt><trkpt lat="45.615811940886864" lon="-0.1178999110123116"><ele>64.25</ele><time>2026-03-22T14:25:02Z</time></trkpt><trkpt lat="45.61589926252511" lon="-0.1177747575882984"><ele>65.0</ele><time>2026-03-22T14:25:03Z</time></trkpt><trkpt lat="45.61596828343434" lon="-0.11764843987889324"><ele>65.0</ele><time>2026-03-22T14:25:04Z</time></trkpt><trkpt lat="45.6160410143541" lon="-0.11751432027116292"><ele>65.0</ele><time>2026-03-22T14:25:05Z</time></trkpt><trkpt lat="45.61610638327513" lon="-0.11738036403887148"><ele>65.0</ele><time>2026-03-22T14:25:06Z</time></trkpt><trkpt lat="45.6161691643098" lon="-0.1172417919723013"><ele>65.0</ele><time>2026-03-22T14:25:07Z</time></trkpt><trkpt lat="45.61624059897403" lon="-0.11709923939993278"><ele>65.2</ele><time>2026-03-22T14:25:08Z</time></trkpt><trkpt lat="45.61630984969402" lon="-0.11695730967297872"><ele>65.4</ele><time>2026-03-22T14:25:09Z</time></trkpt><trkpt lat="45.61637338598951" lon="-0.11683551599920677"><ele>65.6</ele><time>2026-03-22T14:25:10Z</time></trkpt><trkpt lat="45.61644261969279" lon="-0.11672404054999949"><ele>65.8</ele><time>2026-03-22T14:25:11Z</time></trkpt><trkpt lat="45.616519239979176" lon="-0.1166132455647447"><ele>66.0</ele><time>2026-03-22T14:25:12.001Z</time></trkpt><trkpt lat="45.61659796777714" lon="-0.11650308522594119"><ele>66.0</ele><time>2026-03-22T14:25:13.001Z</time></trkpt><trkpt lat="45.616667643262666" lon="-0.11639824050668868"><ele>66.0</ele><time>2026-03-22T14:25:14.001Z</time></trkpt><trkpt lat="45.616733444401255" lon="-0.11630259813870562"><ele>66.0</ele><time>2026-03-22T14:25:15.001Z</time></trkpt><trkpt lat="45.61679368047603" lon="-0.11620542424920537"><ele>66.0</ele><time>2026-03-22T14:25:16.001Z</time></trkpt><trkpt lat="45.61685351398627" lon="-0.1161151677811775"><ele>66.0</ele><time>2026-03-22T14:25:17.001Z</time></trkpt><trkpt lat="45.61691487945764" lon="-0.11602052408360017"><ele>66.0</ele><time>2026-03-22T14:25:18.001Z</time></trkpt><trkpt lat="45.61696752955957" lon="-0.11593999917146283"><ele>66.0</ele><time>2026-03-22T14:25:19.001Z</time></trkpt><trkpt lat="45.61700864400542" lon="-0.1158501970148496"><ele>66.0</ele><time>2026-03-22T14:25:20.001Z</time></trkpt><trkpt lat="45.617074832737764" lon="-0.11577128222363386"><ele>66.0</ele><time>2026-03-22T14:25:21.001Z</time></trkpt><trkpt lat="45.61715560501114" lon="-0.11570877160133639"><ele>66.0</ele><time>2026-03-22T14:25:22.001Z</time></trkpt><trkpt lat="45.61723623050194" lon="-0.11560254250407188"><ele>66.0</ele><time>2026-03-22T14:25:23.001Z</time></trkpt><trkpt lat="45.617314365201224" lon="-0.11552630361355636"><ele>65.16666666666667</ele><time>2026-03-22T14:25:24.001Z</time></trkpt><trkpt lat="45.61741031904473" lon="-0.11543961125633127"><ele>64.33333333333333</ele><time>2026-03-22T14:25:25.001Z</time></trkpt><trkpt lat="45.617478908432325" lon="-0.11538627503605142"><ele>63.5</ele><time>2026-03-22T14:25:26.001Z</time></trkpt><trkpt lat="45.61755980258781" lon="-0.11534710094492034"><ele>62.666666666666664</ele><time>2026-03-22T14:25:27.001Z</time></trkpt><trkpt lat="45.61763586202038" lon="-0.11532075239051401"><ele>61.83333333333333</ele><time>2026-03-22T14:25:28.001Z</time></trkpt><trkpt lat="45.617697330265614" lon="-0.11528053321093215"><ele>61.0</ele><time>2026-03-22T14:25:29.001Z</time></trkpt><trkpt lat="45.61778055562132" lon="-0.11521896619940722"><ele>62.0</ele><time>2026-03-22T14:25:31.001Z</time></trkpt><trkpt lat="45.617870818529816" lon="-0.1151331009839747"><ele>62.99999999999999</ele><time>2026-03-22T14:25:34.001Z</time></trkpt><trkpt lat="45.61795363947792" lon="-0.11498985963985933"><ele>63.99999999999999</ele><time>2026-03-22T14:25:36.001Z</time></trkpt><trkpt lat="45.618032137860986" lon="-0.11492274731211184"><ele>65.0</ele><time>2026-03-22T14:25:37.001Z</time></trkpt><trkpt lat="45.6181012464211" lon="-0.11485132530183154"><ele>66.0</ele><time>2026-03-22T14:25:38.001Z</time></trkpt><trkpt lat="45.61815063494443" lon="-0.1147735043606281"><ele>66.66666666666667</ele><time>2026-03-22T14:25:39.001Z</time></trkpt><trkpt lat="45.61819181551831" lon="-0.11470306928595736"><ele>67.33333333333333</ele><time>2026-03-22T14:25:40.001Z</time></trkpt><trkpt lat="45.6182290997719" lon="-0.11463021458825276"><ele>68.0</ele><time>2026-03-22T14:25:41.001Z</time></trkpt><trkpt lat="45.6182974195788" lon="-0.11448771204979795"><ele>68.66666666666666</ele><time>2026-03-22T14:25:43.001Z</time></trkpt><trkpt lat="45.61831897263444" lon="-0.11439304391725057"><ele>69.33333333333333</ele><time>2026-03-22T14:25:44.001Z</time></trkpt><trkpt lat="45.61836449944279" lon="-0.11428524561554246"><ele>70.0</ele><time>2026-03-22T14:25:45.001Z</time></trkpt><trkpt lat="45.618437066834865" lon="-0.11418438720902467"><ele>70.66666666666666</ele><time>2026-03-22T14:25:46.001Z</time></trkpt><trkpt lat="45.61848987730149" lon="-0.11405517678918028"><ele>71.33333333333333</ele><time>2026-03-22T14:25:47.001Z</time></trkpt><trkpt lat="45.61852647049859" lon="-0.1139652235468587"><ele>72.0</ele><time>2026-03-22T14:25:48.001Z</time></trkpt><trkpt lat="45.61856747585169" lon="-0.11386249912727807"><ele>72.66666666666667</ele><time>2026-03-22T14:25:49.001Z</time></trkpt><trkpt lat="45.6186278043407" lon="-0.11375366472178305"><ele>73.33333333333334</ele><time>2026-03-22T14:25:50.001Z</time></trkpt><trkpt lat="45.61866806995379" lon="-0.11363627564479706"><ele>74.0</ele><time>2026-03-22T14:25:51.001Z</time></trkpt><trkpt lat="45.6187044092707" lon="-0.11350864924181606"><ele>75.16666666666667</ele><time>2026-03-22T14:25:52.001Z</time></trkpt><trkpt lat="45.61875464465064" lon="-0.11336813215336804"><ele>76.33333333333334</ele><time>2026-03-22T14:25:53.001Z</time></trkpt><trkpt lat="45.6188049263306" lon="-0.1132642980334248"><ele>77.5</ele><time>2026-03-22T14:25:54.001Z</time></trkpt><trkpt lat="45.61884035899455" lon="-0.11318111146381217"><ele>78.66666666666667</ele><time>2026-03-22T14:25:55.001Z</time></trkpt><trkpt lat="45.61889221075119" lon="-0.11307888715203776"><ele>79.83333333333333</ele><time>2026-03-22T14:25:56.001Z</time></trkpt><trkpt lat="45.61896540501772" lon="-0.11301206702136651"><ele>81.0</ele><time>2026-03-22T14:25:57.001Z</time></trkpt><trkpt lat="45.6190277997044" lon="-0.1129261919440942"><ele>81.8</ele><time>2026-03-22T14:25:58.001Z</time></trkpt><trkpt lat="45.61908040374101" lon="-0.11284764404206399"><ele>82.6</ele><time>2026-03-22T14:25:59Z</time></trkpt><trkpt lat="45.61915239352775" lon="-0.11277506007407755"><ele>83.4</ele><time>2026-03-22T14:26:00Z</time></trkpt><trkpt lat="45.61922930220181" lon="-0.11266397929439308"><ele>84.2</ele><time>2026-03-22T14:26:01Z</time></trkpt><trkpt lat="45.61929763800028" lon="-0.11256335624558522"><ele>85.0</ele><time>2026-03-22T14:26:02Z</time></trkpt><trkpt lat="45.619358928503914" lon="-0.11248301911090859"><ele>85.0</ele><time>2026-03-22T14:26:03Z</time></trkpt><trkpt lat="45.61942217894712" lon="-0.11241039101260693"><ele>85.0</ele><time>2026-03-22T14:26:04Z</time></trkpt><trkpt lat="45.61948325441881" lon="-0.11232234375468922"><ele>85.0</ele><time>2026-03-22T14:26:05Z</time></trkpt><trkpt lat="45.61953665857677" lon="-0.1122447500258754"><ele>85.0</ele><time>2026-03-22T14:26:06Z</time></trkpt><trkpt lat="45.61961674607266" lon="-0.11215589729522452"><ele>85.0</ele><time>2026-03-22T14:26:07Z</time></trkpt><trkpt lat="45.61971436784842" lon="-0.11205982083476497"><ele>86.25</ele><time>2026-03-22T14:26:08Z</time></trkpt><trkpt lat="45.61981694164235" lon="-0.11194763572096662"><ele>87.5</ele><time>2026-03-22T14:26:09Z</time></trkpt><trkpt lat="45.61993149398854" lon="-0.11183081107653065"><ele>88.75</ele><time>2026-03-22T14:26:10Z</time></trkpt><trkpt lat="45.62001974483676" lon="-0.11173017911089503"><ele>90.0</ele><time>2026-03-22T14:26:11Z</time></trkpt><trkpt lat="45.62009197859575" lon="-0.11166525289689576"><ele>90.0</ele><time>2026-03-22T14:26:12Z</time></trkpt><trkpt lat="45.62015143616453" lon="-0.11161606383699038"><ele>90.0</ele><time>2026-03-22T14:26:13Z</time></trkpt><trkpt lat="45.620235918028605" lon="-0.11154249597287279"><ele>90.0</ele><time>2026-03-22T14:26:15Z</time></trkpt><trkpt lat="45.62033281649453" lon="-0.1114953325049452"><ele>90.0</ele><time>2026-03-22T14:26:19Z</time></trkpt><trkpt lat="45.62037456984844" lon="-0.11141996756831299"><ele>90.0</ele><time>2026-03-22T14:26:20Z</time></trkpt><trkpt lat="45.620428281913874" lon="-0.11134230281875598"><ele>90.0</ele><time>2026-03-22T14:26:21Z</time></trkpt><trkpt lat="45.620483475530186" lon="-0.11124067116761868"><ele>90.5</ele><time>2026-03-22T14:26:22Z</time></trkpt><trkpt lat="45.62057170587924" lon="-0.11111333736428249"><ele>91.0</ele><time>2026-03-22T14:26:23Z</time></trkpt><trkpt lat="45.62066245013862" lon="-0.11095548592504169"><ele>91.5</ele><time>2026-03-22T14:26:24Z</time></trkpt><trkpt lat="45.620752942108254" lon="-0.11081057779158227"><ele>92.0</ele><time>2026-03-22T14:26:25Z</time></trkpt><trkpt lat="45.62081173891605" lon="-0.11071317391116518"><ele>92.0</ele><time>2026-03-22T14:26:26Z</time></trkpt><trkpt lat="45.62086172187899" lon="-0.11063037084054336"><ele>92.0</ele><time>2026-03-22T14:26:27Z</time></trkpt><trkpt lat="45.62091657537431" lon="-0.11054037220183355"><ele>92.0</ele><time>2026-03-22T14:26:28Z</time></trkpt><trkpt lat="45.62101891843066" lon="-0.11040606034273451"><ele>92.0</ele><time>2026-03-22T14:26:29Z</time></trkpt><trkpt lat="45.62106846769335" lon="-0.11029031545374113"><ele>92.0</ele><time>2026-03-22T14:26:30Z</time></trkpt><trkpt lat="45.62111895651284" lon="-0.11022176636320194"><ele>92.39999999999999</ele><time>2026-03-22T14:26:31Z</time></trkpt><trkpt lat="45.6211677959439" lon="-0.1101277351746125"><ele>92.8</ele><time>2026-03-22T14:26:32Z</time></trkpt><trkpt lat="45.62123411617759" lon="-0.11005450276212558"><ele>93.2</ele><time>2026-03-22T14:26:33Z</time></trkpt><trkpt lat="45.621320956006386" lon="-0.1099551437265987"><ele>93.6</ele><time>2026-03-22T14:26:35Z</time></trkpt><trkpt lat="45.6214049130157" lon="-0.10985198073360733"><ele>94.0</ele><time>2026-03-22T14:26:36Z</time></trkpt><trkpt lat="45.62148013399863" lon="-0.10978467203062912"><ele>93.2</ele><time>2026-03-22T14:26:37Z</time></trkpt><trkpt lat="45.621537123076884" lon="-0.10972210959747893"><ele>92.4</ele><time>2026-03-22T14:26:38Z</time></trkpt><trkpt lat="45.62158329039483" lon="-0.10964823281810006"><ele>91.6</ele><time>2026-03-22T14:26:40Z</time></trkpt><trkpt lat="45.62164019250607" lon="-0.10958535332168487"><ele>90.8</ele><time>2026-03-22T14:26:41Z</time></trkpt><trkpt lat="45.62178043075819" lon="-0.10945877636561532"><ele>90.0</ele><time>2026-03-22T14:26:43Z</time></trkpt><trkpt lat="45.621838416623696" lon="-0.10937076635569608"><ele>90.0</ele><time>2026-03-22T14:26:44Z</time></trkpt><trkpt lat="45.62191497420948" lon="-0.109288859120059"><ele>90.0</ele><time>2026-03-22T14:26:45Z</time></trkpt><trkpt lat="45.62200837678478" lon="-0.10921524889778907"><ele>90.0</ele><time>2026-03-22T14:26:46Z</time></trkpt><trkpt lat="45.62209907997503" lon="-0.10911779557431854"><ele>90.0</ele><time>2026-03-22T14:26:47Z</time></trkpt><trkpt lat="45.62217554205907" lon="-0.10903925124446674"><ele>90.0</ele><time>2026-03-22T14:26:48Z</time></trkpt><trkpt lat="45.622245223015064" lon="-0.10894333008551783"><ele>89.16666666666667</ele><time>2026-03-22T14:26:49Z</time></trkpt><trkpt lat="45.62232703327696" lon="-0.10888717843556123"><ele>88.33333333333333</ele><time>2026-03-22T14:26:50Z</time></trkpt><trkpt lat="45.62239192348942" lon="-0.10882205965706039"><ele>87.5</ele><time>2026-03-22T14:26:51Z</time></trkpt><trkpt lat="45.62245273281424" lon="-0.10873122425931715"><ele>86.66666666666666</ele><time>2026-03-22T14:26:52Z</time></trkpt><trkpt lat="45.622516010501606" lon="-0.10866665972004305"><ele>85.83333333333333</ele><time>2026-03-22T14:26:53Z</time></trkpt><trkpt lat="45.622574289499134" lon="-0.10860315076861539"><ele>85.0</ele><time>2026-03-22T14:26:54.001Z</time></trkpt><trkpt lat="45.62264389183132" lon="-0.1085192541468326"><ele>85.0</ele><time>2026-03-22T14:26:55.001Z</time></trkpt><trkpt lat="45.62272084638913" lon="-0.10842614922875833"><ele>85.0</ele><time>2026-03-22T14:26:56.001Z</time></trkpt><trkpt lat="45.62279250482958" lon="-0.10834742402264355"><ele>85.0</ele><time>2026-03-22T14:26:57.001Z</time></trkpt><trkpt lat="45.62286239927783" lon="-0.10829507611010425"><ele>85.0</ele><time>2026-03-22T14:26:58.001Z</time></trkpt><trkpt lat="45.62292280840936" lon="-0.10825895071024073"><ele>85.0</ele><time>2026-03-22T14:26:59.001Z</time></trkpt><trkpt lat="45.623013779029854" lon="-0.10824161712013394"><ele>85.0</ele><time>2026-03-22T14:27:00.001Z</time></trkpt><trkpt lat="45.62308700865105" lon="-0.10824012001207957"><ele>85.2</ele><time>2026-03-22T14:27:01.001Z</time></trkpt><trkpt lat="45.62316095144475" lon="-0.10824727746887178"><ele>85.4</ele><time>2026-03-22T14:27:02.001Z</time></trkpt><trkpt lat="45.62323309550066" lon="-0.10825270976398124"><ele>85.6</ele><time>2026-03-22T14:27:03.001Z</time></trkpt><trkpt lat="45.62330912957469" lon="-0.10827807976730522"><ele>85.8</ele><time>2026-03-22T14:27:04.001Z</time></trkpt><trkpt lat="45.62338638923619" lon="-0.10825004939324205"><ele>86.0</ele><time>2026-03-22T14:27:05.001Z</time></trkpt><trkpt lat="45.623546494097134" lon="-0.10823537006892603"><ele>84.75</ele><time>2026-03-22T14:27:07.001Z</time></trkpt><trkpt lat="45.623655306528015" lon="-0.10822388806506703"><ele>83.5</ele><time>2026-03-22T14:27:08.001Z</time></trkpt><trkpt lat="45.623775481112986" lon="-0.10817992412525336"><ele>82.25</ele><time>2026-03-22T14:27:09.001Z</time></trkpt><trkpt lat="45.62391516057851" lon="-0.10815266852085338"><ele>81.0</ele><time>2026-03-22T14:27:10.001Z</time></trkpt><trkpt lat="45.6240343096236" lon="-0.10812834161567478"><ele>81.0</ele><time>2026-03-22T14:27:11.001Z</time></trkpt><trkpt lat="45.62414653230427" lon="-0.10812909557817044"><ele>81.0</ele><time>2026-03-22T14:27:12.001Z</time></trkpt><trkpt lat="45.624244281152286" lon="-0.10809467861852298"><ele>81.0</ele><time>2026-03-22T14:27:13.001Z</time></trkpt><trkpt lat="45.62434856717519" lon="-0.10807855289432618"><ele>81.0</ele><time>2026-03-22T14:27:14.001Z</time></trkpt><trkpt lat="45.624451049744636" lon="-0.10805821042814581"><ele>81.0</ele><time>2026-03-22T14:27:15.001Z</time></trkpt><trkpt lat="45.62454585818248" lon="-0.10803514266764755"><ele>80.83333333333333</ele><time>2026-03-22T14:27:16.001Z</time></trkpt><trkpt lat="45.62463737232919" lon="-0.10801956600206511"><ele>80.66666666666667</ele><time>2026-03-22T14:27:17.001Z</time></trkpt><trkpt lat="45.62473523304095" lon="-0.10797294828008804"><ele>80.5</ele><time>2026-03-22T14:27:18.001Z</time></trkpt><trkpt lat="45.62481576544003" lon="-0.10795627645337848"><ele>80.33333333333334</ele><time>2026-03-22T14:27:19.001Z</time></trkpt><trkpt lat="45.62489699066443" lon="-0.107927496739621"><ele>80.16666666666667</ele><time>2026-03-22T14:27:20.001Z</time></trkpt><trkpt lat="45.62496967168107" lon="-0.10790258339311869"><ele>80.0</ele><time>2026-03-22T14:27:21.001Z</time></trkpt><trkpt lat="45.62503621947693" lon="-0.10785462022236443"><ele>80.0</ele><time>2026-03-22T14:27:22.001Z</time></trkpt><trkpt lat="45.62513198932438" lon="-0.10780331530874372"><ele>80.0</ele><time>2026-03-22T14:27:24.001Z</time></trkpt><trkpt lat="45.625222525338735" lon="-0.10773513164516352"><ele>80.0</ele><time>2026-03-22T14:27:26.001Z</time></trkpt><trkpt lat="45.62528946461932" lon="-0.10762490069952786"><ele>80.0</ele><time>2026-03-22T14:27:28.001Z</time></trkpt><trkpt lat="45.62535962806555" lon="-0.10749833267644977"><ele>80.0</ele><time>2026-03-22T14:27:30.001Z</time></trkpt><trkpt lat="45.62545784493117" lon="-0.10737303352293642"><ele>79.5</ele><time>2026-03-22T14:27:32.001Z</time></trkpt><trkpt lat="45.62552695378656" lon="-0.10731476528230222"><ele>79.0</ele><time>2026-03-22T14:27:33.001Z</time></trkpt><trkpt lat="45.62558921731554" lon="-0.10724946070808235"><ele>78.5</ele><time>2026-03-22T14:27:34.001Z</time></trkpt><trkpt lat="45.62563703477675" lon="-0.10717748434264936"><ele>78.0</ele><time>2026-03-22T14:27:35.001Z</time></trkpt><trkpt lat="45.62569985637102" lon="-0.10712889667605816"><ele>77.5</ele><time>2026-03-22T14:27:36.001Z</time></trkpt><trkpt lat="45.625787820926874" lon="-0.10710559001965708"><ele>77.0</ele><time>2026-03-22T14:27:37.001Z</time></trkpt><trkpt lat="45.62586832846978" lon="-0.1070310604689377"><ele>77.0</ele><time>2026-03-22T14:27:38.001Z</time></trkpt><trkpt lat="45.625927152946" lon="-0.10699553123795112"><ele>77.0</ele><time>2026-03-22T14:27:39.001Z</time></trkpt><trkpt lat="45.626007503288804" lon="-0.10693445650484525"><ele>77.0</ele><time>2026-03-22T14:27:40.001Z</time></trkpt><trkpt lat="45.6260797290392" lon="-0.10689660096428298"><ele>77.0</ele><time>2026-03-22T14:27:41.001Z</time></trkpt><trkpt lat="45.6261515439666" lon="-0.10683850608427761"><ele>77.0</ele><time>2026-03-22T14:27:42.001Z</time></trkpt><trkpt lat="45.62622474360702" lon="-0.10674814884408662"><ele>77.0</ele><time>2026-03-22T14:27:43.001Z</time></trkpt><trkpt lat="45.62630843663017" lon="-0.10670241135124858"><ele>75.75</ele><time>2026-03-22T14:27:44.001Z</time></trkpt><trkpt lat="45.62638975603524" lon="-0.10662917777704595"><ele>74.5</ele><time>2026-03-22T14:27:46.001Z</time></trkpt><trkpt lat="45.6264511920278" lon="-0.10656119854995913"><ele>73.25</ele><time>2026-03-22T14:27:49.001Z</time></trkpt><trkpt lat="45.6263715229464" lon="-0.106324314956748"><ele>72.0</ele><time>2026-03-22T14:27:54.001Z</time></trkpt><trkpt lat="45.62634468177004" lon="-0.10617694631615111"><ele>70.8</ele><time>2026-03-22T14:27:56.001Z</time></trkpt><trkpt lat="45.62631118763428" lon="-0.10603977030678152"><ele>69.6</ele><time>2026-03-22T14:27:58.001Z</time></trkpt><trkpt lat="45.6262900192668" lon="-0.10595147076407599"><ele>68.39999999999999</ele><time>2026-03-22T14:27:59.001Z</time></trkpt><trkpt lat="45.62625260928425" lon="-0.10580340085339282"><ele>67.2</ele><time>2026-03-22T14:28:01.001Z</time></trkpt><trkpt lat="45.62623054403094" lon="-0.10565607583077809"><ele>66.0</ele><time>2026-03-22T14:28:03.001Z</time></trkpt><trkpt lat="45.626187588089174" lon="-0.105488787731665"><ele>66.5</ele><time>2026-03-22T14:28:05Z</time></trkpt><trkpt lat="45.62614548567282" lon="-0.10532271320694302"><ele>67.0</ele><time>2026-03-22T14:28:07Z</time></trkpt><trkpt lat="45.626094227755516" lon="-0.1051782982802736"><ele>67.5</ele><time>2026-03-22T14:28:09Z</time></trkpt><trkpt lat="45.62604725048025" lon="-0.10503117742888059"><ele>68.0</ele><time>2026-03-22T14:28:11Z</time></trkpt><trkpt lat="45.62598858406343" lon="-0.10487151809299744"><ele>68.0</ele><time>2026-03-22T14:28:13Z</time></trkpt><trkpt lat="45.62595168815106" lon="-0.10478831616098422"><ele>68.0</ele><time>2026-03-22T14:28:14Z</time></trkpt><trkpt lat="45.625890109937906" lon="-0.10464069134861613"><ele>68.0</ele><time>2026-03-22T14:28:16Z</time></trkpt><trkpt lat="45.62582982168272" lon="-0.10448783540037469"><ele>68.0</ele><time>2026-03-22T14:28:18Z</time></trkpt><trkpt lat="45.62579649381821" lon="-0.10440977865900171"><ele>68.0</ele><time>2026-03-22T14:28:19Z</time></trkpt><trkpt lat="45.62574874050523" lon="-0.10427952888344497"><ele>68.0</ele><time>2026-03-22T14:28:21Z</time></trkpt><trkpt lat="45.62572037296919" lon="-0.10417823705938162"><ele>68.0</ele><time>2026-03-22T14:28:23Z</time></trkpt><trkpt lat="45.62573815918824" lon="-0.10408236755499307"><ele>68.0</ele><time>2026-03-22T14:28:25Z</time></trkpt><trkpt lat="45.625805410518204" lon="-0.10395702253868556"><ele>68.0</ele><time>2026-03-22T14:28:27Z</time></trkpt><trkpt lat="45.625867473829814" lon="-0.10387050645920513"><ele>68.0</ele><time>2026-03-22T14:28:29Z</time></trkpt><trkpt lat="45.62592217681849" lon="-0.1037700059381347"><ele>68.0</ele><time>2026-03-22T14:28:31Z</time></trkpt><trkpt lat="45.625959550193556" lon="-0.10366715977766745"><ele>67.8</ele><time>2026-03-22T14:28:34Z</time></trkpt><trkpt lat="45.62601909490211" lon="-0.10355142559099843"><ele>67.6</ele><time>2026-03-22T14:28:36Z</time></trkpt><trkpt lat="45.626058087194096" lon="-0.10340731131847325"><ele>67.4</ele><time>2026-03-22T14:28:38Z</time></trkpt><trkpt lat="45.62606811578129" lon="-0.1033052333354053"><ele>67.2</ele><time>2026-03-22T14:28:39Z</time></trkpt><trkpt lat="45.626081357673534" lon="-0.1031729761947576"><ele>67.0</ele><time>2026-03-22T14:28:40Z</time></trkpt><trkpt lat="45.62610082264974" lon="-0.10304488951804211"><ele>67.0</ele><time>2026-03-22T14:28:41Z</time></trkpt><trkpt lat="45.62613128902599" lon="-0.1029312686884825"><ele>67.0</ele><time>2026-03-22T14:28:42Z</time></trkpt><trkpt lat="45.62616698583545" lon="-0.10282729962660118"><ele>67.0</ele><time>2026-03-22T14:28:43Z</time></trkpt><trkpt lat="45.62621135526258" lon="-0.10271187864224778"><ele>67.0</ele><time>2026-03-22T14:28:44Z</time></trkpt><trkpt lat="45.62625318910397" lon="-0.10260703573002711"><ele>67.0</ele><time>2026-03-22T14:28:45Z</time></trkpt><trkpt lat="45.626300769191324" lon="-0.1024895926835011"><ele>67.0</ele><time>2026-03-22T14:28:46Z</time></trkpt><trkpt lat="45.62634791071099" lon="-0.10238117981781057"><ele>65.33333333333333</ele><time>2026-03-22T14:28:47Z</time></trkpt><trkpt lat="45.62639995454565" lon="-0.10228086658366649"><ele>63.666666666666664</ele><time>2026-03-22T14:28:48Z</time></trkpt><trkpt lat="45.62645167447885" lon="-0.1021886295156796"><ele>62.0</ele><time>2026-03-22T14:28:49Z</time></trkpt><trkpt lat="45.62649423145848" lon="-0.10211158772649831"><ele>60.33333333333333</ele><time>2026-03-22T14:28:50Z</time></trkpt><trkpt lat="45.626539828899794" lon="-0.10201240088258372"><ele>58.666666666666664</ele><time>2026-03-22T14:28:51Z</time></trkpt><trkpt lat="45.62657793655006" lon="-0.10193730846417022"><ele>57.0</ele><time>2026-03-22T14:28:52Z</time></trkpt><trkpt lat="45.626636119190074" lon="-0.1018198487627108"><ele>57.0</ele><time>2026-03-22T14:28:54Z</time></trkpt><trkpt lat="45.62667673850766" lon="-0.10172604494704446"><ele>57.0</ele><time>2026-03-22T14:28:56Z</time></trkpt><trkpt lat="45.626733244201894" lon="-0.10162793407877725"><ele>57.0</ele><time>2026-03-22T14:28:58Z</time></trkpt><trkpt lat="45.626804479534755" lon="-0.10152526089499157"><ele>57.0</ele><time>2026-03-22T14:29:00Z</time></trkpt><trkpt lat="45.62688229018394" lon="-0.1014134124548221"><ele>57.0</ele><time>2026-03-22T14:29:02Z</time></trkpt><trkpt lat="45.626968522372444" lon="-0.10131145765026377"><ele>55.8</ele><time>2026-03-22T14:29:04Z</time></trkpt><trkpt lat="45.62704177184682" lon="-0.10119118503810424"><ele>54.6</ele><time>2026-03-22T14:29:06Z</time></trkpt><trkpt lat="45.62712587113929" lon="-0.1010604871460113"><ele>53.4</ele><time>2026-03-22T14:29:08Z</time></trkpt><trkpt lat="45.62714676222773" lon="-0.10095375197187013"><ele>52.199999999999996</ele><time>2026-03-22T14:29:10Z</time></trkpt><trkpt lat="45.62720742160765" lon="-0.10084269874416484"><ele>51.0</ele><time>2026-03-22T14:29:13Z</time></trkpt><trkpt lat="45.627267923282616" lon="-0.10072845263175824"><ele>50.5</ele><time>2026-03-22T14:29:15Z</time></trkpt><trkpt lat="45.627326985306304" lon="-0.10058138758582251"><ele>50.0</ele><time>2026-03-22T14:29:17Z</time></trkpt><trkpt lat="45.6273637343935" lon="-0.10049995779488109"><ele>49.5</ele><time>2026-03-22T14:29:18Z</time></trkpt><trkpt lat="45.62739440265636" lon="-0.10041287335144"><ele>49.0</ele><time>2026-03-22T14:29:19Z</time></trkpt><trkpt lat="45.62742522547513" lon="-0.10033127916867417"><ele>48.5</ele><time>2026-03-22T14:29:20Z</time></trkpt><trkpt lat="45.627461649647586" lon="-0.1002471943996685"><ele>48.0</ele><time>2026-03-22T14:29:21Z</time></trkpt><trkpt lat="45.627499238412895" lon="-0.10015456041076001"><ele>47.99999999999999</ele><time>2026-03-22T14:29:22.001Z</time></trkpt><trkpt lat="45.62753578677664" lon="-0.1000718931533741"><ele>48.0</ele><time>2026-03-22T14:29:23.001Z</time></trkpt><trkpt lat="45.62757410426735" lon="-0.09998791213198269"><ele>48.0</ele><time>2026-03-22T14:29:24.001Z</time></trkpt><trkpt lat="45.627622911106236" lon="-0.09990494051614172"><ele>48.0</ele><time>2026-03-22T14:29:25.001Z</time></trkpt><trkpt lat="45.6276794630119" lon="-0.09981781255764859"><ele>48.0</ele><time>2026-03-22T14:29:26.001Z</time></trkpt><trkpt lat="45.62772528631952" lon="-0.09973779580893505"><ele>47.99999999999999</ele><time>2026-03-22T14:29:27.001Z</time></trkpt><trkpt lat="45.627746429571715" lon="-0.09965154354133879"><ele>48.0</ele><time>2026-03-22T14:29:28.001Z</time></trkpt><trkpt lat="45.62777753409944" lon="-0.09954848800445638"><ele>47.833333333333336</ele><time>2026-03-22T14:29:29.001Z</time></trkpt><trkpt lat="45.62780196374295" lon="-0.09943849132353509"><ele>47.666666666666664</ele><time>2026-03-22T14:29:30.001Z</time></trkpt><trkpt lat="45.62782776162675" lon="-0.09932854227713653"><ele>47.5</ele><time>2026-03-22T14:29:31.001Z</time></trkpt><trkpt lat="45.62785814639649" lon="-0.09921524723289302"><ele>47.33333333333333</ele><time>2026-03-22T14:29:32.001Z</time></trkpt><trkpt lat="45.627883765729536" lon="-0.0991112847794694"><ele>47.166666666666664</ele><time>2026-03-22T14:29:33.001Z</time></trkpt><trkpt lat="45.62790149792947" lon="-0.09900133737370503"><ele>47.0</ele><time>2026-03-22T14:29:34.001Z</time></trkpt><trkpt lat="45.627914874712154" lon="-0.09889216950084548"><ele>46.5</ele><time>2026-03-22T14:29:35.001Z</time></trkpt><trkpt lat="45.6279263952979" lon="-0.09877272044487377"><ele>46.0</ele><time>2026-03-22T14:29:36.001Z</time></trkpt><trkpt lat="45.627940302775635" lon="-0.09865231697345897"><ele>45.5</ele><time>2026-03-22T14:29:37.001Z</time></trkpt><trkpt lat="45.62796023112659" lon="-0.09853642168629556"><ele>45.0</ele><time>2026-03-22T14:29:38.001Z</time></trkpt><trkpt lat="45.627981548899506" lon="-0.09843268515399975"><ele>44.5</ele><time>2026-03-22T14:29:39.001Z</time></trkpt><trkpt lat="45.62800406105891" lon="-0.09833565844685542"><ele>44.0</ele><time>2026-03-22T14:29:40.001Z</time></trkpt><trkpt lat="45.62803575857767" lon="-0.09823406285946087"><ele>43.666666666666664</ele><time>2026-03-22T14:29:41.001Z</time></trkpt><trkpt lat="45.628064675138695" lon="-0.09812947561722411"><ele>43.33333333333333</ele><time>2026-03-22T14:29:42.001Z</time></trkpt><trkpt lat="45.62809472760426" lon="-0.09803996061074557"><ele>43.0</ele><time>2026-03-22T14:29:43.001Z</time></trkpt><trkpt lat="45.628133244502244" lon="-0.0979453813010571"><ele>42.666666666666664</ele><time>2026-03-22T14:29:44.001Z</time></trkpt><trkpt lat="45.62820207557803" lon="-0.09777886581019228"><ele>42.333333333333336</ele><time>2026-03-22T14:29:46.001Z</time></trkpt><trkpt lat="45.62824552582337" lon="-0.0976778254031235"><ele>42.0</ele><time>2026-03-22T14:29:47.001Z</time></trkpt><trkpt lat="45.62828902869778" lon="-0.09760007540565391"><ele>42.0</ele><time>2026-03-22T14:29:48.001Z</time></trkpt><trkpt lat="45.62833889237975" lon="-0.09751146049676603"><ele>42.0</ele><time>2026-03-22T14:29:49.001Z</time></trkpt><trkpt lat="45.62838378369112" lon="-0.09743589600301791"><ele>42.0</ele><time>2026-03-22T14:29:50.001Z</time></trkpt><trkpt lat="45.62842793401666" lon="-0.09736426442942246"><ele>42.0</ele><time>2026-03-22T14:29:51.001Z</time></trkpt><trkpt lat="45.628507259491826" lon="-0.09725068223063027"><ele>42.0</ele><time>2026-03-22T14:29:53.001Z</time></trkpt><trkpt lat="45.62856944802844" lon="-0.09719534629268665"><ele>42.0</ele><time>2026-03-22T14:29:55.001Z</time></trkpt><trkpt lat="45.62857182546106" lon="-0.09709023962701978"><ele>42.0</ele><time>2026-03-22T14:29:57.001Z</time></trkpt><trkpt lat="45.62862155745146" lon="-0.0969999526728477"><ele>42.0</ele><time>2026-03-22T14:29:59.001Z</time></trkpt><trkpt lat="45.62857001577104" lon="-0.09675865526528885"><ele>42.0</ele><time>2026-03-22T14:30:01.001Z</time></trkpt><trkpt lat="45.62856826477018" lon="-0.09659924128327137"><ele>42.0</ele><time>2026-03-22T14:30:02.001Z</time></trkpt><trkpt lat="45.62856758478852" lon="-0.09640991768491994"><ele>42.5</ele><time>2026-03-22T14:30:03.001Z</time></trkpt><trkpt lat="45.62856684712508" lon="-0.09620453339824178"><ele>43.0</ele><time>2026-03-22T14:30:04.001Z</time></trkpt><trkpt lat="45.62856604829703" lon="-0.09598212013973965"><ele>43.5</ele><time>2026-03-22T14:30:05.001Z</time></trkpt><trkpt lat="45.6285581063933" lon="-0.09577174611505561"><ele>44.0</ele><time>2026-03-22T14:30:06.001Z</time></trkpt><trkpt lat="45.628567708548765" lon="-0.09556427653918176"><ele>44.25</ele><time>2026-03-22T14:30:07.001Z</time></trkpt><trkpt lat="45.628571551683464" lon="-0.09535267144830908"><ele>44.5</ele><time>2026-03-22T14:30:08.001Z</time></trkpt><trkpt lat="45.62857234282938" lon="-0.09514205963026717"><ele>44.75</ele><time>2026-03-22T14:30:09.001Z</time></trkpt><trkpt lat="45.628567500714894" lon="-0.09494042741813159"><ele>45.0</ele><time>2026-03-22T14:30:10.001Z</time></trkpt><trkpt lat="45.628566308431274" lon="-0.0947499269887167"><ele>45.0</ele><time>2026-03-22T14:30:11Z</time></trkpt><trkpt lat="45.62856055094313" lon="-0.09453963444819169"><ele>45.0</ele><time>2026-03-22T14:30:12Z</time></trkpt><trkpt lat="45.62856550211696" lon="-0.0943047640895101"><ele>45.0</ele><time>2026-03-22T14:30:13Z</time></trkpt><trkpt lat="45.62856387867763" lon="-0.09404480673295885"><ele>45.0</ele><time>2026-03-22T14:30:14Z</time></trkpt><trkpt lat="45.62853891589876" lon="-0.09381449992672278"><ele>45.0</ele><time>2026-03-22T14:30:15Z</time></trkpt><trkpt lat="45.62848449629377" lon="-0.0935705688300996"><ele>45.0</ele><time>2026-03-22T14:30:16Z</time></trkpt><trkpt lat="45.62845278938617" lon="-0.09332936064795526"><ele>45.333333333333336</ele><time>2026-03-22T14:30:17Z</time></trkpt><trkpt lat="45.62836305389055" lon="-0.0931241851992042"><ele>45.66666666666667</ele><time>2026-03-22T14:30:18Z</time></trkpt><trkpt lat="45.62828009425121" lon="-0.09289185054893562"><ele>46.0</ele><time>2026-03-22T14:30:19Z</time></trkpt><trkpt lat="45.6281992986585" lon="-0.09261650441053118"><ele>46.333333333333336</ele><time>2026-03-22T14:30:20Z</time></trkpt><trkpt lat="45.628095151996376" lon="-0.09234966370264494"><ele>46.666666666666664</ele><time>2026-03-22T14:30:21Z</time></trkpt><trkpt lat="45.628006199754225" lon="-0.0921142813364265"><ele>47.0</ele><time>2026-03-22T14:30:22Z</time></trkpt><trkpt lat="45.62791636594797" lon="-0.0918766211268814"><ele>47.0</ele><time>2026-03-22T14:30:23Z</time></trkpt><trkpt lat="45.627821662594556" lon="-0.09162610017257923"><ele>47.0</ele><time>2026-03-22T14:30:24Z</time></trkpt><trkpt lat="45.627725411936645" lon="-0.09136767592185865"><ele>47.0</ele><time>2026-03-22T14:30:25Z</time></trkpt><trkpt lat="45.62763548873394" lon="-0.09112670069469125"><ele>45.33333333333333</ele><time>2026-03-22T14:30:26Z</time></trkpt><trkpt lat="45.62753403154241" lon="-0.09085481673008823"><ele>43.666666666666664</ele><time>2026-03-22T14:30:27Z</time></trkpt><trkpt lat="45.62743773410539" lon="-0.09059507755853734"><ele>42.0</ele><time>2026-03-22T14:30:28Z</time></trkpt><trkpt lat="45.62733591241908" lon="-0.09031990023128648"><ele>41.666666666666664</ele><time>2026-03-22T14:30:29Z</time></trkpt><trkpt lat="45.62724807300844" lon="-0.0900319072331039"><ele>41.33333333333333</ele><time>2026-03-22T14:30:30Z</time></trkpt><trkpt lat="45.62714032591597" lon="-0.08976393318807857"><ele>41.0</ele><time>2026-03-22T14:30:31Z</time></trkpt><trkpt lat="45.62704428794099" lon="-0.0894992375313457"><ele>39.33333333333333</ele><time>2026-03-22T14:30:32Z</time></trkpt><trkpt lat="45.626945612995314" lon="-0.08924797058033788"><ele>37.666666666666664</ele><time>2026-03-22T14:30:33Z</time></trkpt><trkpt lat="45.62685514099482" lon="-0.08899241214690584"><ele>36.0</ele><time>2026-03-22T14:30:34Z</time></trkpt><trkpt lat="45.626763959455396" lon="-0.08874095480648007"><ele>36.0</ele><time>2026-03-22T14:30:35Z</time></trkpt><trkpt lat="45.62668138466678" lon="-0.08851589210974965"><ele>36.0</ele><time>2026-03-22T14:30:36Z</time></trkpt><trkpt lat="45.62659957356273" lon="-0.08829193609635576"><ele>36.0</ele><time>2026-03-22T14:30:37Z</time></trkpt><trkpt lat="45.6265099483476" lon="-0.08806017056066251"><ele>36.333333333333336</ele><time>2026-03-22T14:30:38Z</time></trkpt><trkpt lat="45.626426314744165" lon="-0.08782632665343042"><ele>36.66666666666667</ele><time>2026-03-22T14:30:39Z</time></trkpt><trkpt lat="45.62633439894418" lon="-0.0876263711860592"><ele>37.0</ele><time>2026-03-22T14:30:40Z</time></trkpt><trkpt lat="45.62624741906807" lon="-0.08740414114744464"><ele>38.5</ele><time>2026-03-22T14:30:41Z</time></trkpt><trkpt lat="45.626144390139224" lon="-0.0872559014497421"><ele>40.0</ele><time>2026-03-22T14:30:42Z</time></trkpt><trkpt lat="45.626057969713294" lon="-0.08713462779710095"><ele>41.5</ele><time>2026-03-22T14:30:43Z</time></trkpt><trkpt lat="45.62591467721228" lon="-0.08703329668240904"><ele>43.0</ele><time>2026-03-22T14:30:44Z</time></trkpt><trkpt lat="45.62576672201258" lon="-0.08694816583645427"><ele>43.0</ele><time>2026-03-22T14:30:45Z</time></trkpt><trkpt lat="45.625609568502206" lon="-0.08689826342529594"><ele>43.0</ele><time>2026-03-22T14:30:46Z</time></trkpt><trkpt lat="45.62545576717903" lon="-0.08683467005264346"><ele>43.0</ele><time>2026-03-22T14:30:47Z</time></trkpt><trkpt lat="45.62529342102995" lon="-0.08680649223855359"><ele>43.333333333333336</ele><time>2026-03-22T14:30:48Z</time></trkpt><trkpt lat="45.62512811875019" lon="-0.08676479010690075"><ele>43.666666666666664</ele><time>2026-03-22T14:30:49Z</time></trkpt><trkpt lat="45.624957778143866" lon="-0.08671544488788509"><ele>44.0</ele><time>2026-03-22T14:30:50Z</time></trkpt><trkpt lat="45.62478337823433" lon="-0.08667147824154844"><ele>44.0</ele><time>2026-03-22T14:30:51Z</time></trkpt><trkpt lat="45.624614414795886" lon="-0.08662953491314224"><ele>44.0</ele><time>2026-03-22T14:30:52Z</time></trkpt><trkpt lat="45.62445606284863" lon="-0.08658880290146716"><ele>44.0</ele><time>2026-03-22T14:30:53Z</time></trkpt><trkpt lat="45.6243164261802" lon="-0.08653931120544033"><ele>44.33333333333333</ele><time>2026-03-22T14:30:54Z</time></trkpt><trkpt lat="45.62418091845238" lon="-0.08646945960398826"><ele>44.666666666666664</ele><time>2026-03-22T14:30:55Z</time></trkpt><trkpt lat="45.624050192281125" lon="-0.08637729449693264"><ele>45.0</ele><time>2026-03-22T14:30:56Z</time></trkpt><trkpt lat="45.623831431343724" lon="-0.08610017852809017"><ele>45.0</ele><time>2026-03-22T14:30:58Z</time></trkpt><trkpt lat="45.623736401530635" lon="-0.08592708914678494"><ele>45.0</ele><time>2026-03-22T14:30:59Z</time></trkpt><trkpt lat="45.62362483033939" lon="-0.08574654999127078"><ele>45.0</ele><time>2026-03-22T14:31:00Z</time></trkpt><trkpt lat="45.623538944497156" lon="-0.08553875366021339"><ele>43.666666666666664</ele><time>2026-03-22T14:31:01Z</time></trkpt><trkpt lat="45.6234277172085" lon="-0.0853254685484883"><ele>42.33333333333333</ele><time>2026-03-22T14:31:02Z</time></trkpt><trkpt lat="45.62331558446555" lon="-0.08509728226237237"><ele>41.0</ele><time>2026-03-22T14:31:03Z</time></trkpt><trkpt lat="45.623198887564946" lon="-0.08486382775901216"><ele>40.666666666666664</ele><time>2026-03-22T14:31:04Z</time></trkpt><trkpt lat="45.623083741454515" lon="-0.08461876408367315"><ele>40.333333333333336</ele><time>2026-03-22T14:31:05Z</time></trkpt><trkpt lat="45.62296539823384" lon="-0.08437940981630818"><ele>40.0</ele><time>2026-03-22T14:31:06Z</time></trkpt><trkpt lat="45.622840207761016" lon="-0.08412469561157519"><ele>39.333333333333336</ele><time>2026-03-22T14:31:07Z</time></trkpt><trkpt lat="45.62270762767796" lon="-0.08389431272456783"><ele>38.666666666666664</ele><time>2026-03-22T14:31:08Z</time></trkpt><trkpt lat="45.62259813217011" lon="-0.08363035004818269"><ele>38.0</ele><time>2026-03-22T14:31:09Z</time></trkpt><trkpt lat="45.62247365545555" lon="-0.08338217381527302"><ele>39.0</ele><time>2026-03-22T14:31:10Z</time></trkpt><trkpt lat="45.62235023690571" lon="-0.08313571328944551"><ele>40.0</ele><time>2026-03-22T14:31:11Z</time></trkpt><trkpt lat="45.622227452541104" lon="-0.08288687168546756"><ele>41.0</ele><time>2026-03-22T14:31:12Z</time></trkpt><trkpt lat="45.62210312454464" lon="-0.0826325332048329"><ele>42.33333333333333</ele><time>2026-03-22T14:31:13Z</time></trkpt><trkpt lat="45.621979585292515" lon="-0.0823826425581172"><ele>43.666666666666664</ele><time>2026-03-22T14:31:14Z</time></trkpt><trkpt lat="45.62185473774414" lon="-0.0821315532769121"><ele>45.0</ele><time>2026-03-22T14:31:15Z</time></trkpt><trkpt lat="45.621730810407755" lon="-0.08188249829733306"><ele>45.0</ele><time>2026-03-22T14:31:16Z</time></trkpt><trkpt lat="45.62160497884328" lon="-0.08162982673659845"><ele>45.0</ele><time>2026-03-22T14:31:17Z</time></trkpt><trkpt lat="45.62147647548104" lon="-0.081379418329362"><ele>45.0</ele><time>2026-03-22T14:31:18Z</time></trkpt><trkpt lat="45.62135294788367" lon="-0.08112400397794192"><ele>45.333333333333336</ele><time>2026-03-22T14:31:19Z</time></trkpt><trkpt lat="45.62122941548476" lon="-0.08087004182818078"><ele>45.66666666666667</ele><time>2026-03-22T14:31:20Z</time></trkpt><trkpt lat="45.62110479026981" lon="-0.08062154063563592"><ele>46.0</ele><time>2026-03-22T14:31:21Z</time></trkpt><trkpt lat="45.62098572205104" lon="-0.08037167975924779"><ele>47.333333333333336</ele><time>2026-03-22T14:31:22Z</time></trkpt><trkpt lat="45.62085876521983" lon="-0.08011018828809909"><ele>48.66666666666667</ele><time>2026-03-22T14:31:23Z</time></trkpt><trkpt lat="45.62073021621919" lon="-0.07985762763608832"><ele>50.0</ele><time>2026-03-22T14:31:24.001Z</time></trkpt><trkpt lat="45.620608372837346" lon="-0.0796039162102163"><ele>50.66666666666667</ele><time>2026-03-22T14:31:25.001Z</time></trkpt><trkpt lat="45.62050122966853" lon="-0.07937080104857797"><ele>51.33333333333333</ele><time>2026-03-22T14:31:26.001Z</time></trkpt><trkpt lat="45.620413921612226" lon="-0.07913183486501846"><ele>52.0</ele><time>2026-03-22T14:31:27.001Z</time></trkpt><trkpt lat="45.620338861410495" lon="-0.07889109718370531"><ele>52.0</ele><time>2026-03-22T14:31:28.001Z</time></trkpt><trkpt lat="45.620187769130396" lon="-0.07839173921363717"><ele>52.0</ele><time>2026-03-22T14:31:30.001Z</time></trkpt><trkpt lat="45.620041429549254" lon="-0.07787871989985103"><ele>52.666666666666664</ele><time>2026-03-22T14:31:32.001Z</time></trkpt><trkpt lat="45.61995993500807" lon="-0.07759466115512967"><ele>53.33333333333333</ele><time>2026-03-22T14:31:33.001Z</time></trkpt><trkpt lat="45.61987375344804" lon="-0.07729377858040754"><ele>54.0</ele><time>2026-03-22T14:31:34.001Z</time></trkpt><trkpt lat="45.619791675080116" lon="-0.07700315217590217"><ele>54.0</ele><time>2026-03-22T14:31:35.001Z</time></trkpt><trkpt lat="45.61971145704061" lon="-0.07671469101831724"><ele>54.0</ele><time>2026-03-22T14:31:36.001Z</time></trkpt><trkpt lat="45.61963892631198" lon="-0.07645201639616783"><ele>54.0</ele><time>2026-03-22T14:31:37.001Z</time></trkpt><trkpt lat="45.61956791289228" lon="-0.0761948358373647"><ele>54.0</ele><time>2026-03-22T14:31:38.001Z</time></trkpt><trkpt lat="45.61950110341815" lon="-0.07595288093239944"><ele>54.0</ele><time>2026-03-22T14:31:39.001Z</time></trkpt><trkpt lat="45.619433070249656" lon="-0.0757064946486909"><ele>54.0</ele><time>2026-03-22T14:31:40.001Z</time></trkpt><trkpt lat="45.6193649151639" lon="-0.07546737866231161"><ele>54.0</ele><time>2026-03-22T14:31:41.001Z</time></trkpt><trkpt lat="45.619243622211364" lon="-0.07525365227087194"><ele>54.0</ele><time>2026-03-22T14:31:42.001Z</time></trkpt><trkpt lat="45.61911591684344" lon="-0.07504011533569821"><ele>54.0</ele><time>2026-03-22T14:31:43.001Z</time></trkpt><trkpt lat="45.61898215072311" lon="-0.07482449203914712"><ele>53.33333333333333</ele><time>2026-03-22T14:31:44.001Z</time></trkpt><trkpt lat="45.618852428131774" lon="-0.07459050212579107"><ele>52.666666666666664</ele><time>2026-03-22T14:31:45.001Z</time></trkpt><trkpt lat="45.61870879249931" lon="-0.07436225733572469"><ele>52.0</ele><time>2026-03-22T14:31:46.001Z</time></trkpt><trkpt lat="45.61855491385046" lon="-0.07412939765603097"><ele>52.0</ele><time>2026-03-22T14:31:47.001Z</time></trkpt><trkpt lat="45.61840289357992" lon="-0.07389399191549394"><ele>52.0</ele><time>2026-03-22T14:31:48.001Z</time></trkpt><trkpt lat="45.61825339471215" lon="-0.07365409126194909"><ele>52.0</ele><time>2026-03-22T14:31:49.001Z</time></trkpt><trkpt lat="45.618114492638" lon="-0.07342902510276494"><ele>52.0</ele><time>2026-03-22T14:31:50.001Z</time></trkpt><trkpt lat="45.61798398103285" lon="-0.07322571122793836"><ele>52.0</ele><time>2026-03-22T14:31:51.001Z</time></trkpt><trkpt lat="45.617855367513194" lon="-0.07303236132626795"><ele>52.0</ele><time>2026-03-22T14:31:52.001Z</time></trkpt><trkpt lat="45.61772243633385" lon="-0.07286462533315925"><ele>52.0</ele><time>2026-03-22T14:31:53.001Z</time></trkpt><trkpt lat="45.617579849709486" lon="-0.07272596305551249"><ele>52.0</ele><time>2026-03-22T14:31:54.001Z</time></trkpt><trkpt lat="45.61741671312529" lon="-0.07260548957506581"><ele>52.0</ele><time>2026-03-22T14:31:55.001Z</time></trkpt><trkpt lat="45.617253496537096" lon="-0.07248878926027884"><ele>51.33333333333333</ele><time>2026-03-22T14:31:56.001Z</time></trkpt><trkpt lat="45.61707918924645" lon="-0.07237495611854514"><ele>50.66666666666667</ele><time>2026-03-22T14:31:57.001Z</time></trkpt><trkpt lat="45.61689952563822" lon="-0.07225538314110408"><ele>50.0</ele><time>2026-03-22T14:31:58.001Z</time></trkpt><trkpt lat="45.61671731705336" lon="-0.07213686957341174"><ele>49.66666666666667</ele><time>2026-03-22T14:31:59.001Z</time></trkpt><trkpt lat="45.61652960290846" lon="-0.0720160958611103"><ele>49.33333333333333</ele><time>2026-03-22T14:32:00.001Z</time></trkpt><trkpt lat="45.616343665037704" lon="-0.07189287170088347"><ele>49.0</ele><time>2026-03-22T14:32:01.001Z</time></trkpt><trkpt lat="45.61615062368983" lon="-0.07176177563380115"><ele>48.33333333333333</ele><time>2026-03-22T14:32:02.001Z</time></trkpt><trkpt lat="45.61594888351546" lon="-0.07162758693975636"><ele>47.666666666666664</ele><time>2026-03-22T14:32:03.001Z</time></trkpt><trkpt lat="45.61574398913642" lon="-0.07150035263890725"><ele>47.0</ele><time>2026-03-22T14:32:04.001Z</time></trkpt><trkpt lat="45.61534812341923" lon="-0.07125026236941584"><ele>45.0</ele><time>2026-03-22T14:32:06.001Z</time></trkpt><trkpt lat="45.61515376009437" lon="-0.07112058078168479"><ele>43.0</ele><time>2026-03-22T14:32:07.001Z</time></trkpt><trkpt lat="45.614958489562014" lon="-0.07099444174295393"><ele>41.0</ele><time>2026-03-22T14:32:08.001Z</time></trkpt><trkpt lat="45.61476683211834" lon="-0.0708687611631753"><ele>41.0</ele><time>2026-03-22T14:32:09.001Z</time></trkpt><trkpt lat="45.61457386530321" lon="-0.07074559001000547"><ele>41.0</ele><time>2026-03-22T14:32:10.001Z</time></trkpt><trkpt lat="45.61438212878188" lon="-0.07062868895968127"><ele>41.0</ele><time>2026-03-22T14:32:11.001Z</time></trkpt><trkpt lat="45.61418924017829" lon="-0.07051538314489823"><ele>40.0</ele><time>2026-03-22T14:32:12.001Z</time></trkpt><trkpt lat="45.61399521834361" lon="-0.070404332544286"><ele>39.0</ele><time>2026-03-22T14:32:13.001Z</time></trkpt><trkpt lat="45.613798562973784" lon="-0.0702995582553056"><ele>38.0</ele><time>2026-03-22T14:32:14.001Z</time></trkpt><trkpt lat="45.61360220532158" lon="-0.07020509317512022"><ele>36.0</ele><time>2026-03-22T14:32:15.001Z</time></trkpt><trkpt lat="45.61341540861039" lon="-0.07011891263741399"><ele>34.0</ele><time>2026-03-22T14:32:16.001Z</time></trkpt><trkpt lat="45.61323132137278" lon="-0.07002219555276039"><ele>32.0</ele><time>2026-03-22T14:32:17Z</time></trkpt><trkpt lat="45.61304798772279" lon="-0.06993401821338509"><ele>32.0</ele><time>2026-03-22T14:32:18Z</time></trkpt><trkpt lat="45.61286111385653" lon="-0.06984194099260484"><ele>32.0</ele><time>2026-03-22T14:32:19Z</time></trkpt><trkpt lat="45.612675465238084" lon="-0.06974876905328144"><ele>32.0</ele><time>2026-03-22T14:32:20Z</time></trkpt><trkpt lat="45.61249701607307" lon="-0.06965309118232228"><ele>31.333333333333332</ele><time>2026-03-22T14:32:21Z</time></trkpt><trkpt lat="45.61232989730558" lon="-0.06955244071262283"><ele>30.666666666666664</ele><time>2026-03-22T14:32:22Z</time></trkpt><trkpt lat="45.6121722652106" lon="-0.06942809861509606"><ele>30.0</ele><time>2026-03-22T14:32:23Z</time></trkpt><trkpt lat="45.612019364391564" lon="-0.06926955992770706"><ele>31.0</ele><time>2026-03-22T14:32:24Z</time></trkpt><trkpt lat="45.61188041090572" lon="-0.06908940889374039"><ele>32.0</ele><time>2026-03-22T14:32:25Z</time></trkpt><trkpt lat="45.61175157094743" lon="-0.06887876883981446"><ele>33.0</ele><time>2026-03-22T14:32:26Z</time></trkpt><trkpt lat="45.61163132185464" lon="-0.06865586212609305"><ele>33.0</ele><time>2026-03-22T14:32:27Z</time></trkpt><trkpt lat="45.61151460734231" lon="-0.06841766818678134"><ele>33.0</ele><time>2026-03-22T14:32:28Z</time></trkpt><trkpt lat="45.611388319938115" lon="-0.06818023413751602"><ele>33.0</ele><time>2026-03-22T14:32:29Z</time></trkpt><trkpt lat="45.61125407669332" lon="-0.06793600351824375"><ele>33.333333333333336</ele><time>2026-03-22T14:32:30Z</time></trkpt><trkpt lat="45.61112105282149" lon="-0.06770295367855143"><ele>33.66666666666667</ele><time>2026-03-22T14:32:31Z</time></trkpt><trkpt lat="45.61098330392122" lon="-0.06745993089051372"><ele>34.0</ele><time>2026-03-22T14:32:32Z</time></trkpt><trkpt lat="45.61084189082592" lon="-0.06721478279558066"><ele>34.5</ele><time>2026-03-22T14:32:33Z</time></trkpt><trkpt lat="45.610689705947514" lon="-0.06697149597227119"><ele>35.0</ele><time>2026-03-22T14:32:34Z</time></trkpt><trkpt lat="45.610527187947916" lon="-0.0667399035067932"><ele>35.5</ele><time>2026-03-22T14:32:35Z</time></trkpt><trkpt lat="45.61035689076094" lon="-0.06651820564112136"><ele>36.0</ele><time>2026-03-22T14:32:36Z</time></trkpt><trkpt lat="45.61018590822149" lon="-0.06629865439727543"><ele>36.0</ele><time>2026-03-22T14:32:37Z</time></trkpt><trkpt lat="45.61003249226993" lon="-0.06608051744551102"><ele>36.0</ele><time>2026-03-22T14:32:38Z</time></trkpt><trkpt lat="45.60989526804791" lon="-0.06586110826502475"><ele>36.0</ele><time>2026-03-22T14:32:39Z</time></trkpt><trkpt lat="45.60977741269511" lon="-0.06562316806234444"><ele>36.0</ele><time>2026-03-22T14:32:40Z</time></trkpt><trkpt lat="45.60957842718506" lon="-0.06508877782845303"><ele>36.0</ele><time>2026-03-22T14:32:42Z</time></trkpt><trkpt lat="45.60945877190902" lon="-0.0648299726989593"><ele>37.666666666666664</ele><time>2026-03-22T14:32:43Z</time></trkpt><trkpt lat="45.60931853355576" lon="-0.06458935816143015"><ele>39.33333333333333</ele><time>2026-03-22T14:32:44Z</time></trkpt><trkpt lat="45.609166187604984" lon="-0.06436125018069483"><ele>41.0</ele><time>2026-03-22T14:32:45Z</time></trkpt><trkpt lat="45.609004765572756" lon="-0.06414516422413688"><ele>41.0</ele><time>2026-03-22T14:32:46Z</time></trkpt><trkpt lat="45.608842302256356" lon="-0.06392826075446258"><ele>41.0</ele><time>2026-03-22T14:32:47Z</time></trkpt><trkpt lat="45.60867920760085" lon="-0.06371704029629588"><ele>41.0</ele><time>2026-03-22T14:32:48Z</time></trkpt><trkpt lat="45.60851711292203" lon="-0.06351117083058172"><ele>42.33333333333333</ele><time>2026-03-22T14:32:49Z</time></trkpt><trkpt lat="45.60835565734198" lon="-0.06330133597639498"><ele>43.666666666666664</ele><time>2026-03-22T14:32:50Z</time></trkpt><trkpt lat="45.60820951509713" lon="-0.06309724132091471"><ele>45.0</ele><time>2026-03-22T14:32:51Z</time></trkpt><trkpt lat="45.60807469359797" lon="-0.06290921513480015"><ele>45.0</ele><time>2026-03-22T14:32:52Z</time></trkpt><trkpt lat="45.60795336780969" lon="-0.06273575627395418"><ele>45.0</ele><time>2026-03-22T14:32:53Z</time></trkpt><trkpt lat="45.60783577506617" lon="-0.06253606717476355"><ele>45.0</ele><time>2026-03-22T14:32:54Z</time></trkpt><trkpt lat="45.60773710820433" lon="-0.06231780195694304"><ele>46.33333333333333</ele><time>2026-03-22T14:32:55Z</time></trkpt><trkpt lat="45.60764365640961" lon="-0.06209028937448738"><ele>47.666666666666664</ele><time>2026-03-22T14:32:56Z</time></trkpt><trkpt lat="45.6075587429465" lon="-0.06186292927329559"><ele>49.0</ele><time>2026-03-22T14:32:57Z</time></trkpt><trkpt lat="45.60749295741879" lon="-0.06162342933751695"><ele>48.33333333333333</ele><time>2026-03-22T14:32:58Z</time></trkpt><trkpt lat="45.607405761541294" lon="-0.06138970442615739"><ele>47.666666666666664</ele><time>2026-03-22T14:32:59Z</time></trkpt><trkpt lat="45.60735523731254" lon="-0.061152416158413415"><ele>47.0</ele><time>2026-03-22T14:33:00Z</time></trkpt><trkpt lat="45.60729360372324" lon="-0.06092697089541422"><ele>46.666666666666664</ele><time>2026-03-22T14:33:01Z</time></trkpt><trkpt lat="45.60722383176457" lon="-0.06071100869738366"><ele>46.333333333333336</ele><time>2026-03-22T14:33:02Z</time></trkpt><trkpt lat="45.60714978319638" lon="-0.06049647213418953"><ele>46.0</ele><time>2026-03-22T14:33:03Z</time></trkpt><trkpt lat="45.607059455650706" lon="-0.060268567771384896"><ele>46.333333333333336</ele><time>2026-03-22T14:33:04Z</time></trkpt><trkpt lat="45.6069565017365" lon="-0.06005099218858892"><ele>46.666666666666664</ele><time>2026-03-22T14:33:05Z</time></trkpt><trkpt lat="45.606845193158314" lon="-0.059874874018075085"><ele>47.0</ele><time>2026-03-22T14:33:06Z</time></trkpt><trkpt lat="45.60674852008595" lon="-0.05970776664629611"><ele>47.0</ele><time>2026-03-22T14:33:07Z</time></trkpt><trkpt lat="45.60665762768679" lon="-0.05954553895875867"><ele>47.0</ele><time>2026-03-22T14:33:08Z</time></trkpt><trkpt lat="45.606571568628425" lon="-0.059401687944583885"><ele>47.0</ele><time>2026-03-22T14:33:09Z</time></trkpt><trkpt lat="45.60648858442164" lon="-0.059263637420668376"><ele>47.0</ele><time>2026-03-22T14:33:10Z</time></trkpt><trkpt lat="45.606402997975906" lon="-0.0591428347027964"><ele>47.25</ele><time>2026-03-22T14:33:11Z</time></trkpt><trkpt lat="45.606308053383856" lon="-0.05903183988659862"><ele>47.5</ele><time>2026-03-22T14:33:12Z</time></trkpt><trkpt lat="45.60620829808444" lon="-0.05893111935939934"><ele>47.75</ele><time>2026-03-22T14:33:13Z</time></trkpt><trkpt lat="45.606103846347" lon="-0.05883895058734045"><ele>48.0</ele><time>2026-03-22T14:33:14Z</time></trkpt><trkpt lat="45.60599447721311" lon="-0.05875154075406834"><ele>47.25</ele><time>2026-03-22T14:33:15Z</time></trkpt><trkpt lat="45.605883482731606" lon="-0.05867084587482355"><ele>46.5</ele><time>2026-03-22T14:33:16Z</time></trkpt><trkpt lat="45.60577179110076" lon="-0.058591798881754815"><ele>45.75</ele><time>2026-03-22T14:33:17Z</time></trkpt><trkpt lat="45.60566252573446" lon="-0.05851042849957096"><ele>45.0</ele><time>2026-03-22T14:33:18Z</time></trkpt><trkpt lat="45.60555223884747" lon="-0.058432086348804306"><ele>45.0</ele><time>2026-03-22T14:33:19Z</time></trkpt><trkpt lat="45.60544000709534" lon="-0.05834432317774814"><ele>45.0</ele><time>2026-03-22T14:33:20Z</time></trkpt><trkpt lat="45.605322927070326" lon="-0.05825693022368202"><ele>45.0</ele><time>2026-03-22T14:33:21Z</time></trkpt><trkpt lat="45.605204798510954" lon="-0.05817184765924302"><ele>45.0</ele><time>2026-03-22T14:33:22Z</time></trkpt><trkpt lat="45.605085011712916" lon="-0.058093824512944356"><ele>44.5</ele><time>2026-03-22T14:33:23Z</time></trkpt><trkpt lat="45.604971294120396" lon="-0.05801516261354093"><ele>44.0</ele><time>2026-03-22T14:33:24Z</time></trkpt><trkpt lat="45.6048597680904" lon="-0.05793773240435537"><ele>43.5</ele><time>2026-03-22T14:33:25Z</time></trkpt><trkpt lat="45.60474530315367" lon="-0.05785717901606273"><ele>43.0</ele><time>2026-03-22T14:33:26Z</time></trkpt><trkpt lat="45.604634268964936" lon="-0.05777539219341056"><ele>43.0</ele><time>2026-03-22T14:33:27Z</time></trkpt><trkpt lat="45.60452014337014" lon="-0.05769297409882393"><ele>43.0</ele><time>2026-03-22T14:33:28Z</time></trkpt><trkpt lat="45.60441010113689" lon="-0.057617041134109336"><ele>43.0</ele><time>2026-03-22T14:33:29Z</time></trkpt><trkpt lat="45.6042988785979" lon="-0.057543394536663885"><ele>43.0</ele><time>2026-03-22T14:33:30Z</time></trkpt><trkpt lat="45.604187005527855" lon="-0.057463484529983073"><ele>43.0</ele><time>2026-03-22T14:33:31Z</time></trkpt><trkpt lat="45.60407989394169" lon="-0.057380316581332566"><ele>43.0</ele><time>2026-03-22T14:33:32Z</time></trkpt><trkpt lat="45.60397214533276" lon="-0.057304661016859465"><ele>43.0</ele><time>2026-03-22T14:33:33Z</time></trkpt><trkpt lat="45.603862239854095" lon="-0.05722641796973144"><ele>43.0</ele><time>2026-03-22T14:33:34Z</time></trkpt><trkpt lat="45.60375615140114" lon="-0.05714594814285111"><ele>42.0</ele><time>2026-03-22T14:33:35Z</time></trkpt><trkpt lat="45.60364912019462" lon="-0.05706196416064568"><ele>41.0</ele><time>2026-03-22T14:33:36Z</time></trkpt><trkpt lat="45.60354738098313" lon="-0.05696692322371098"><ele>40.0</ele><time>2026-03-22T14:33:37Z</time></trkpt><trkpt lat="45.603445168287024" lon="-0.056874682371309916"><ele>39.0</ele><time>2026-03-22T14:33:38Z</time></trkpt><trkpt lat="45.60334184974427" lon="-0.056779862347991275"><ele>39.0</ele><time>2026-03-22T14:33:39Z</time></trkpt><trkpt lat="45.6032421642628" lon="-0.056681865293662606"><ele>39.0</ele><time>2026-03-22T14:33:40Z</time></trkpt><trkpt lat="45.60313537378186" lon="-0.0565875607767626"><ele>39.0</ele><time>2026-03-22T14:33:41Z</time></trkpt><trkpt lat="45.60302703221351" lon="-0.05649900236285109"><ele>39.0</ele><time>2026-03-22T14:33:42Z</time></trkpt><trkpt lat="45.60292324025794" lon="-0.05641163857906878"><ele>39.0</ele><time>2026-03-22T14:33:43Z</time></trkpt><trkpt lat="45.60282211805692" lon="-0.05631879754587386"><ele>39.0</ele><time>2026-03-22T14:33:44Z</time></trkpt><trkpt lat="45.602724474356904" lon="-0.056226618551118684"><ele>39.0</ele><time>2026-03-22T14:33:45.001Z</time></trkpt><trkpt lat="45.60262789318973" lon="-0.05613760767266116"><ele>39.0</ele><time>2026-03-22T14:33:46.001Z</time></trkpt><trkpt lat="45.60253359654978" lon="-0.05605329490829344"><ele>39.0</ele><time>2026-03-22T14:33:47.001Z</time></trkpt><trkpt lat="45.602446978366814" lon="-0.055972144044503645"><ele>39.0</ele><time>2026-03-22T14:33:48.001Z</time></trkpt><trkpt lat="45.60237685638552" lon="-0.055909610540352886"><ele>39.0</ele><time>2026-03-22T14:33:49.001Z</time></trkpt><trkpt lat="45.602295703429945" lon="-0.055850220934409174"><ele>39.0</ele><time>2026-03-22T14:33:51.001Z</time></trkpt><trkpt lat="45.60231903194773" lon="-0.05573445438415247"><ele>39.0</ele><time>2026-03-22T14:33:52.001Z</time></trkpt><trkpt lat="45.60236697766455" lon="-0.055578091297443274"><ele>38.6</ele><time>2026-03-22T14:33:54.001Z</time></trkpt><trkpt lat="45.60240754712421" lon="-0.05541272480311744"><ele>38.2</ele><time>2026-03-22T14:33:56.001Z</time></trkpt><trkpt lat="45.60245458117891" lon="-0.05526866117954443"><ele>37.800000000000004</ele><time>2026-03-22T14:33:58.001Z</time></trkpt><trkpt lat="45.60247430732452" lon="-0.05515215204129025"><ele>37.4</ele><time>2026-03-22T14:34:00.001Z</time></trkpt><trkpt lat="45.6024811087229" lon="-0.05505180336394005"><ele>37.0</ele><time>2026-03-22T14:34:02.001Z</time></trkpt><trkpt lat="45.602385982394686" lon="-0.05494883264199083"><ele>34.4</ele><time>2026-03-22T14:34:04.001Z</time></trkpt><trkpt lat="45.602333713069235" lon="-0.05488861196001079"><ele>31.800000000000004</ele><time>2026-03-22T14:34:05.001Z</time></trkpt><trkpt lat="45.60227894265686" lon="-0.05482075538403669"><ele>29.2</ele><time>2026-03-22T14:34:06.001Z</time></trkpt><trkpt lat="45.60222973085048" lon="-0.05475626720688107"><ele>26.6</ele><time>2026-03-22T14:34:07.001Z</time></trkpt><trkpt lat="45.602130318383196" lon="-0.054648860233939625"><ele>24.0</ele><time>2026-03-22T14:34:09.001Z</time></trkpt><trkpt lat="45.60202876854872" lon="-0.05453944942482195"><ele>23.71428571428571</ele><time>2026-03-22T14:34:11.001Z</time></trkpt><trkpt lat="45.60197389286772" lon="-0.054486889146927536"><ele>23.428571428571427</ele><time>2026-03-22T14:34:12.001Z</time></trkpt><trkpt lat="45.60192046746078" lon="-0.054432391300291455"><ele>23.142857142857142</ele><time>2026-03-22T14:34:13.001Z</time></trkpt><trkpt lat="45.60186816907921" lon="-0.05437763383821056"><ele>22.857142857142854</ele><time>2026-03-22T14:34:14.001Z</time></trkpt><trkpt lat="45.601815843694574" lon="-0.05432357636974636"><ele>22.57142857142857</ele><time>2026-03-22T14:34:15.001Z</time></trkpt><trkpt lat="45.60175942185942" lon="-0.05427103571524837"><ele>22.285714285714285</ele><time>2026-03-22T14:34:16.001Z</time></trkpt><trkpt lat="45.6016556630529" lon="-0.0541844394069936"><ele>22.0</ele><time>2026-03-22T14:34:18.001Z</time></trkpt><trkpt lat="45.60154900505761" lon="-0.05410719014107528"><ele>22.0</ele><time>2026-03-22T14:34:20.001Z</time></trkpt><trkpt lat="45.60149239093257" lon="-0.0540639578275346"><ele>22.0</ele><time>2026-03-22T14:34:21.001Z</time></trkpt><trkpt lat="45.6013797836105" lon="-0.05399048790552868"><ele>22.0</ele><time>2026-03-22T14:34:23Z</time></trkpt><trkpt lat="45.601320151584694" lon="-0.053956367171731606"><ele>22.0</ele><time>2026-03-22T14:34:24Z</time></trkpt><trkpt lat="45.60126070002972" lon="-0.05392011145309568"><ele>22.0</ele><time>2026-03-22T14:34:25Z</time></trkpt><trkpt lat="45.601146031025124" lon="-0.05385613123025563"><ele>22.0</ele><time>2026-03-22T14:34:27Z</time></trkpt><trkpt lat="45.601061706734306" lon="-0.05380721271197754"><ele>22.0</ele><time>2026-03-22T14:34:29Z</time></trkpt><trkpt lat="45.60100000472611" lon="-0.05373296002909408"><ele>22.0</ele><time>2026-03-22T14:34:33Z</time></trkpt><trkpt lat="45.6010514330371" lon="-0.05353278398828642"><ele>22.0</ele><time>2026-03-22T14:34:36Z</time></trkpt><trkpt lat="45.60112505273328" lon="-0.053393436311524725"><ele>22.0</ele><time>2026-03-22T14:34:38Z</time></trkpt><trkpt lat="45.601168948659314" lon="-0.0533150955841203"><ele>22.0</ele><time>2026-03-22T14:34:39Z</time></trkpt><trkpt lat="45.601250815154415" lon="-0.05316936262587737"><ele>21.666666666666664</ele><time>2026-03-22T14:34:41Z</time></trkpt><trkpt lat="45.60133366937007" lon="-0.05303257138968908"><ele>21.333333333333332</ele><time>2026-03-22T14:34:43Z</time></trkpt><trkpt lat="45.6013809031432" lon="-0.05296157383352873"><ele>21.0</ele><time>2026-03-22T14:34:44Z</time></trkpt><trkpt lat="45.60144988900474" lon="-0.052863998877775265"><ele>20.666666666666668</ele><time>2026-03-22T14:34:46Z</time></trkpt><trkpt lat="45.60150271544615" lon="-0.052790882472836746"><ele>20.333333333333336</ele><time>2026-03-22T14:34:50Z</time></trkpt><trkpt lat="45.601536789220965" lon="-0.05271065994027444"><ele>20.0</ele><time>2026-03-22T14:34:59Z</time></trkpt><trkpt lat="45.601612990881236" lon="-0.052605190482794155"><ele>20.0</ele><time>2026-03-22T14:35:02Z</time></trkpt><trkpt lat="45.601541451665796" lon="-0.05246793391118937"><ele>20.0</ele><time>2026-03-22T14:35:03Z</time></trkpt><trkpt lat="45.60151572911811" lon="-0.052357328089540925"><ele>20.0</ele><time>2026-03-22T14:35:05Z</time></trkpt><trkpt lat="45.60144388265042" lon="-0.052235662313115286"><ele>20.0</ele><time>2026-03-22T14:35:07Z</time></trkpt><trkpt lat="45.60135226721899" lon="-0.05212028596213951"><ele>20.0</ele><time>2026-03-22T14:35:09Z</time></trkpt><trkpt lat="45.60130441594362" lon="-0.05205012493012136"><ele>20.0</ele><time>2026-03-22T14:35:10Z</time></trkpt><trkpt lat="45.601219749467575" lon="-0.05192271390194851"><ele>20.0</ele><time>2026-03-22T14:35:12Z</time></trkpt><trkpt lat="45.601177613293885" lon="-0.05185511630831542"><ele>20.0</ele><time>2026-03-22T14:35:13Z</time></trkpt><trkpt lat="45.601103809525725" lon="-0.0517397369647769"><ele>20.0</ele><time>2026-03-22T14:35:15Z</time></trkpt><trkpt lat="45.601071260341946" lon="-0.05165677028244136"><ele>20.0</ele><time>2026-03-22T14:35:17Z</time></trkpt><trkpt lat="45.60100971545526" lon="-0.05158826461589616"><ele>20.0</ele><time>2026-03-22T14:35:26Z</time></trkpt><trkpt lat="45.60109569192875" lon="-0.05143268263105487"><ele>20.0</ele><time>2026-03-22T14:35:27Z</time></trkpt><trkpt lat="45.60115813798037" lon="-0.05132332999200046"><ele>20.0</ele><time>2026-03-22T14:35:28Z</time></trkpt><trkpt lat="45.601240206837716" lon="-0.0511996870388635"><ele>20.0</ele><time>2026-03-22T14:35:29Z</time></trkpt><trkpt lat="45.60134588333303" lon="-0.051058782127059"><ele>20.0</ele><time>2026-03-22T14:35:30Z</time></trkpt><trkpt lat="45.60146608911567" lon="-0.050879181074153686"><ele>20.25</ele><time>2026-03-22T14:35:31Z</time></trkpt><trkpt lat="45.60156045658261" lon="-0.050706588516340245"><ele>20.5</ele><time>2026-03-22T14:35:32Z</time></trkpt><trkpt lat="45.60166325326409" lon="-0.050569895662266266"><ele>20.75</ele><time>2026-03-22T14:35:33Z</time></trkpt><trkpt lat="45.60176451921424" lon="-0.05044074520390755"><ele>21.0</ele><time>2026-03-22T14:35:34Z</time></trkpt><trkpt lat="45.60187494799963" lon="-0.050342966391494534"><ele>21.0</ele><time>2026-03-22T14:35:35Z</time></trkpt><trkpt lat="45.601984540914074" lon="-0.05026398507840875"><ele>21.0</ele><time>2026-03-22T14:35:36Z</time></trkpt><trkpt lat="45.60210167571552" lon="-0.05020842535722017"><ele>21.0</ele><time>2026-03-22T14:35:37Z</time></trkpt><trkpt lat="45.60222937937737" lon="-0.05017304169541758"><ele>21.0</ele><time>2026-03-22T14:35:38Z</time></trkpt><trkpt lat="45.602360816869016" lon="-0.050144077799034056"><ele>20.75</ele><time>2026-03-22T14:35:39Z</time></trkpt><trkpt lat="45.60249191386642" lon="-0.05010824872170924"><ele>20.5</ele><time>2026-03-22T14:35:40Z</time></trkpt><trkpt lat="45.60262948194385" lon="-0.050056518879712894"><ele>20.25</ele><time>2026-03-22T14:35:41Z</time></trkpt><trkpt lat="45.60276329746863" lon="-0.05000844743317963"><ele>20.0</ele><time>2026-03-22T14:35:42Z</time></trkpt><trkpt lat="45.60289774379757" lon="-0.04995299073502232"><ele>19.75</ele><time>2026-03-22T14:35:43Z</time></trkpt><trkpt lat="45.60303286613621" lon="-0.04990726671820141"><ele>19.5</ele><time>2026-03-22T14:35:44Z</time></trkpt><trkpt lat="45.60318020176367" lon="-0.049862922921190427"><ele>19.25</ele><time>2026-03-22T14:35:45Z</time></trkpt><trkpt lat="45.603329319366225" lon="-0.049821082186816384"><ele>19.0</ele><time>2026-03-22T14:35:46Z</time></trkpt><trkpt lat="45.60347678363177" lon="-0.04977641807221839"><ele>19.0</ele><time>2026-03-22T14:35:47Z</time></trkpt><trkpt lat="45.60362689487971" lon="-0.04973368122496983"><ele>19.0</ele><time>2026-03-22T14:35:48Z</time></trkpt><trkpt lat="45.60377069380219" lon="-0.049684842344887514"><ele>19.0</ele><time>2026-03-22T14:35:49Z</time></trkpt><trkpt lat="45.60391239704561" lon="-0.04963752603511743"><ele>19.0</ele><time>2026-03-22T14:35:50Z</time></trkpt><trkpt lat="45.604058154499235" lon="-0.04959058652480716"><ele>19.25</ele><time>2026-03-22T14:35:51Z</time></trkpt><trkpt lat="45.60420086245751" lon="-0.04954736279765877"><ele>19.5</ele><time>2026-03-22T14:35:52Z</time></trkpt><trkpt lat="45.604342925554405" lon="-0.04950612677404441"><ele>19.75</ele><time>2026-03-22T14:35:53Z</time></trkpt><trkpt lat="45.60448772321508" lon="-0.0494601222152603"><ele>20.0</ele><time>2026-03-22T14:35:54Z</time></trkpt><trkpt lat="45.60463242037301" lon="-0.04940141360867987"><ele>20.0</ele><time>2026-03-22T14:35:55Z</time></trkpt><trkpt lat="45.60475986818703" lon="-0.049287961051191764"><ele>20.0</ele><time>2026-03-22T14:35:56Z</time></trkpt><trkpt lat="45.60488157569703" lon="-0.04917927211838151"><ele>20.0</ele><time>2026-03-22T14:35:57Z</time></trkpt><trkpt lat="45.605007194893375" lon="-0.04906193354299304"><ele>20.0</ele><time>2026-03-22T14:35:58Z</time></trkpt><trkpt lat="45.605137604467934" lon="-0.04896091407767863"><ele>19.666666666666668</ele><time>2026-03-22T14:35:59Z</time></trkpt><trkpt lat="45.6052650759155" lon="-0.04884426154036076"><ele>19.333333333333332</ele><time>2026-03-22T14:36:00Z</time></trkpt><trkpt lat="45.60539011630739" lon="-0.04872943415713046"><ele>19.0</ele><time>2026-03-22T14:36:01Z</time></trkpt><trkpt lat="45.605515691862436" lon="-0.04860817416900413"><ele>20.0</ele><time>2026-03-22T14:36:02Z</time></trkpt><trkpt lat="45.605644983718" lon="-0.048488045817670224"><ele>21.0</ele><time>2026-03-22T14:36:03Z</time></trkpt><trkpt lat="45.60576944179751" lon="-0.04836705823515641"><ele>22.0</ele><time>2026-03-22T14:36:04Z</time></trkpt><trkpt lat="45.60590433520905" lon="-0.04826084066045523"><ele>22.333333333333332</ele><time>2026-03-22T14:36:05Z</time></trkpt><trkpt lat="45.60604436173516" lon="-0.048167001235930214"><ele>22.666666666666668</ele><time>2026-03-22T14:36:06Z</time></trkpt><trkpt lat="45.606183167543186" lon="-0.04806972948240662"><ele>23.0</ele><time>2026-03-22T14:36:07Z</time></trkpt><trkpt lat="45.6063177203411" lon="-0.04797525626151005"><ele>23.25</ele><time>2026-03-22T14:36:08Z</time></trkpt><trkpt lat="45.60645483585374" lon="-0.04787929806448015"><ele>23.5</ele><time>2026-03-22T14:36:09Z</time></trkpt><trkpt lat="45.60658323742799" lon="-0.04777832644671467"><ele>23.75</ele><time>2026-03-22T14:36:10Z</time></trkpt><trkpt lat="45.606715955435284" lon="-0.04767998825527831"><ele>24.0</ele><time>2026-03-22T14:36:11Z</time></trkpt><trkpt lat="45.60684491621638" lon="-0.047577988521832766"><ele>24.0</ele><time>2026-03-22T14:36:12Z</time></trkpt><trkpt lat="45.60697335845992" lon="-0.04747162755691838"><ele>24.0</ele><time>2026-03-22T14:36:13Z</time></trkpt><trkpt lat="45.607101602332115" lon="-0.04737699290662329"><ele>24.0</ele><time>2026-03-22T14:36:14Z</time></trkpt><trkpt lat="45.60723250377141" lon="-0.04728177231550433"><ele>24.0</ele><time>2026-03-22T14:36:15Z</time></trkpt><trkpt lat="45.60736241114984" lon="-0.04718380814481363"><ele>24.25</ele><time>2026-03-22T14:36:16Z</time></trkpt><trkpt lat="45.607495760612366" lon="-0.04709514947509992"><ele>24.5</ele><time>2026-03-22T14:36:17Z</time></trkpt><trkpt lat="45.60763141063616" lon="-0.047002989636988624"><ele>24.75</ele><time>2026-03-22T14:36:18Z</time></trkpt><trkpt lat="45.60777130186013" lon="-0.046921803593205025"><ele>25.0</ele><time>2026-03-22T14:36:19Z</time></trkpt><trkpt lat="45.60791756336104" lon="-0.046840469104409574"><ele>25.0</ele><time>2026-03-22T14:36:20Z</time></trkpt><trkpt lat="45.60806435592268" lon="-0.046760844796177314"><ele>25.0</ele><time>2026-03-22T14:36:21Z</time></trkpt><trkpt lat="45.60821076340064" lon="-0.04669054051081024"><ele>25.0</ele><time>2026-03-22T14:36:22Z</time></trkpt><trkpt lat="45.60835420146809" lon="-0.046615910226439926"><ele>25.0</ele><time>2026-03-22T14:36:23Z</time></trkpt><trkpt lat="45.608508986181334" lon="-0.04653509428299973"><ele>25.0</ele><time>2026-03-22T14:36:24Z</time></trkpt><trkpt lat="45.60865187513844" lon="-0.04649762599235186"><ele>25.0</ele><time>2026-03-22T14:36:25Z</time></trkpt><trkpt lat="45.6087989878912" lon="-0.046441318358412156"><ele>25.0</ele><time>2026-03-22T14:36:26Z</time></trkpt><trkpt lat="45.60894180909196" lon="-0.04637779914566671"><ele>25.0</ele><time>2026-03-22T14:36:27Z</time></trkpt><trkpt lat="45.60908564624601" lon="-0.04631814300096241"><ele>25.0</ele><time>2026-03-22T14:36:28Z</time></trkpt><trkpt lat="45.609223236403004" lon="-0.046273032545851446"><ele>25.0</ele><time>2026-03-22T14:36:29Z</time></trkpt><trkpt lat="45.60933170698148" lon="-0.04626554696439584"><ele>25.0</ele><time>2026-03-22T14:36:30Z</time></trkpt><trkpt lat="45.609416382112904" lon="-0.04620663412459714"><ele>25.0</ele><time>2026-03-22T14:36:31Z</time></trkpt><trkpt lat="45.60947501318392" lon="-0.046102489443386664"><ele>25.0</ele><time>2026-03-22T14:36:32Z</time></trkpt><trkpt lat="45.609531122233605" lon="-0.04593911737952459"><ele>25.0</ele><time>2026-03-22T14:36:33Z</time></trkpt><trkpt lat="45.60959523623973" lon="-0.04576636703913629"><ele>26.0</ele><time>2026-03-22T14:36:34Z</time></trkpt><trkpt lat="45.60968823067982" lon="-0.045543763204035886"><ele>27.0</ele><time>2026-03-22T14:36:35Z</time></trkpt><trkpt lat="45.609782330115735" lon="-0.045320346609086064"><ele>28.0</ele><time>2026-03-22T14:36:36Z</time></trkpt><trkpt lat="45.60989647713827" lon="-0.04505570945015571"><ele>27.5</ele><time>2026-03-22T14:36:37Z</time></trkpt><trkpt lat="45.61004147198949" lon="-0.04473251294946021"><ele>27.0</ele><time>2026-03-22T14:36:38Z</time></trkpt><trkpt lat="45.61019084518466" lon="-0.0443948515312008"><ele>30.0</ele><time>2026-03-22T14:36:39Z</time></trkpt><trkpt lat="45.6103296098367" lon="-0.04406313299312751"><ele>33.0</ele><time>2026-03-22T14:36:40Z</time></trkpt><trkpt lat="45.610448268219876" lon="-0.04377823404932122"><ele>33.0</ele><time>2026-03-22T14:36:41Z</time></trkpt><trkpt lat="45.6105338823508" lon="-0.04346143976228545"><ele>33.0</ele><time>2026-03-22T14:36:42Z</time></trkpt><trkpt lat="45.61061154050702" lon="-0.04312382252223036"><ele>33.0</ele><time>2026-03-22T14:36:43Z</time></trkpt><trkpt lat="45.61068583817676" lon="-0.04275346160273591"><ele>33.0</ele><time>2026-03-22T14:36:44Z</time></trkpt><trkpt lat="45.61075792462738" lon="-0.04236888630487513"><ele>33.0</ele><time>2026-03-22T14:36:45Z</time></trkpt><trkpt lat="45.610831287247485" lon="-0.04198396926642823"><ele>33.0</ele><time>2026-03-22T14:36:46Z</time></trkpt><trkpt lat="45.6109085158889" lon="-0.04158620997862622"><ele>33.5</ele><time>2026-03-22T14:36:47Z</time></trkpt><trkpt lat="45.61100322051859" lon="-0.04118851023030932"><ele>34.0</ele><time>2026-03-22T14:36:48Z</time></trkpt><trkpt lat="45.61107517808528" lon="-0.040788673517591065"><ele>35.0</ele><time>2026-03-22T14:36:49Z</time></trkpt><trkpt lat="45.61115517249508" lon="-0.040377930627153835"><ele>36.0</ele><time>2026-03-22T14:36:50Z</time></trkpt><trkpt lat="45.61123196294239" lon="-0.03996839896338243"><ele>37.0</ele><time>2026-03-22T14:36:51Z</time></trkpt><trkpt lat="45.6113142053358" lon="-0.039547419377208015"><ele>38.0</ele><time>2026-03-22T14:36:52Z</time></trkpt><trkpt lat="45.6113967634019" lon="-0.03912867838638794"><ele>39.5</ele><time>2026-03-22T14:36:53Z</time></trkpt><trkpt lat="45.61148094355469" lon="-0.038702221354149136"><ele>41.0</ele><time>2026-03-22T14:36:54Z</time></trkpt><trkpt lat="45.611568611610664" lon="-0.03827444693440631"><ele>42.5</ele><time>2026-03-22T14:36:55Z</time></trkpt><trkpt lat="45.61165258878101" lon="-0.03784419402524164"><ele>44.0</ele><time>2026-03-22T14:36:56Z</time></trkpt><trkpt lat="45.61172969653857" lon="-0.03744025751961368"><ele>44.0</ele><time>2026-03-22T14:36:57Z</time></trkpt><trkpt lat="45.611802071463906" lon="-0.03707461252165345"><ele>44.0</ele><time>2026-03-22T14:36:58Z</time></trkpt><trkpt lat="45.611868007841395" lon="-0.03674691944044385"><ele>44.33333333333333</ele><time>2026-03-22T14:36:59Z</time></trkpt><trkpt lat="45.6119298613702" lon="-0.036439800975244255"><ele>44.666666666666664</ele><time>2026-03-22T14:37:00Z</time></trkpt><trkpt lat="45.6119696486195" lon="-0.03614617984107992"><ele>45.0</ele><time>2026-03-22T14:37:01Z</time></trkpt><trkpt lat="45.612041572006554" lon="-0.03588213876473852"><ele>44.333333333333336</ele><time>2026-03-22T14:37:02Z</time></trkpt><trkpt lat="45.61210463314302" lon="-0.03563285754548504"><ele>43.66666666666667</ele><time>2026-03-22T14:37:03Z</time></trkpt><trkpt lat="45.61217680955999" lon="-0.03540925699516445"><ele>43.0</ele><time>2026-03-22T14:37:04Z</time></trkpt><trkpt lat="45.61225999839416" lon="-0.03518341335109338"><ele>43.0</ele><time>2026-03-22T14:37:05Z</time></trkpt><trkpt lat="45.61235037413293" lon="-0.03498535823042732"><ele>43.0</ele><time>2026-03-22T14:37:06Z</time></trkpt><trkpt lat="45.612456513132216" lon="-0.03478110845989019"><ele>43.0</ele><time>2026-03-22T14:37:07Z</time></trkpt><trkpt lat="45.61257911125837" lon="-0.034577337438044115"><ele>43.0</ele><time>2026-03-22T14:37:08Z</time></trkpt><trkpt lat="45.612718616508026" lon="-0.034393201461227804"><ele>43.0</ele><time>2026-03-22T14:37:09Z</time></trkpt><trkpt lat="45.612860376509964" lon="-0.0342339350658359"><ele>43.0</ele><time>2026-03-22T14:37:10Z</time></trkpt><trkpt lat="45.61300306249995" lon="-0.03408584223266381"><ele>37.0</ele><time>2026-03-22T14:37:11Z</time></trkpt><trkpt lat="45.613151218063706" lon="-0.03393236240155322"><ele>31.0</ele><time>2026-03-22T14:37:12Z</time></trkpt><trkpt lat="45.61332021888352" lon="-0.03377359475218646"><ele>25.0</ele><time>2026-03-22T14:37:13Z</time></trkpt><trkpt lat="45.6134880534103" lon="-0.03366461885198622"><ele>28.333333333333336</ele><time>2026-03-22T14:37:14Z</time></trkpt><trkpt lat="45.61367678912131" lon="-0.033576868361559806"><ele>31.666666666666664</ele><time>2026-03-22T14:37:15Z</time></trkpt><trkpt lat="45.61385759094401" lon="-0.03348048925721156"><ele>35.0</ele><time>2026-03-22T14:37:16Z</time></trkpt><trkpt lat="45.61403772774422" lon="-0.033377232935481914"><ele>33.0</ele><time>2026-03-22T14:37:17Z</time></trkpt><trkpt lat="45.61421397492963" lon="-0.033256367734174994"><ele>31.0</ele><time>2026-03-22T14:37:18Z</time></trkpt><trkpt lat="45.614395307720926" lon="-0.033162795457311094"><ele>29.0</ele><time>2026-03-22T14:37:19Z</time></trkpt><trkpt lat="45.6145607519814" lon="-0.03306667457798635"><ele>29.0</ele><time>2026-03-22T14:37:20Z</time></trkpt><trkpt lat="45.61472036430745" lon="-0.032985288700643434"><ele>29.0</ele><time>2026-03-22T14:37:21Z</time></trkpt><trkpt lat="45.61487367985304" lon="-0.032905762651622934"><ele>29.0</ele><time>2026-03-22T14:37:22Z</time></trkpt><trkpt lat="45.61502725737168" lon="-0.03281772962594335"><ele>29.0</ele><time>2026-03-22T14:37:23Z</time></trkpt><trkpt lat="45.61517950816312" lon="-0.03272778914968287"><ele>29.0</ele><time>2026-03-22T14:37:24Z</time></trkpt><trkpt lat="45.615339380198094" lon="-0.0326508702243257"><ele>29.0</ele><time>2026-03-22T14:37:25Z</time></trkpt><trkpt lat="45.61549456644036" lon="-0.032593458545604706"><ele>30.333333333333332</ele><time>2026-03-22T14:37:26Z</time></trkpt><trkpt lat="45.61565592525618" lon="-0.032550816274845906"><ele>31.666666666666664</ele><time>2026-03-22T14:37:27Z</time></trkpt><trkpt lat="45.61580794130074" lon="-0.0325195995304783"><ele>33.0</ele><time>2026-03-22T14:37:28Z</time></trkpt><trkpt lat="45.61596704279382" lon="-0.03249441107101296"><ele>33.0</ele><time>2026-03-22T14:37:29Z</time></trkpt><trkpt lat="45.61612796907288" lon="-0.03248010249566641"><ele>33.0</ele><time>2026-03-22T14:37:30Z</time></trkpt><trkpt lat="45.61627969335415" lon="-0.032469412086322307"><ele>33.0</ele><time>2026-03-22T14:37:31Z</time></trkpt><trkpt lat="45.616435841526325" lon="-0.032460068106502704"><ele>30.0</ele><time>2026-03-22T14:37:32Z</time></trkpt><trkpt lat="45.6165874706569" lon="-0.032451782772655466"><ele>27.0</ele><time>2026-03-22T14:37:33Z</time></trkpt><trkpt lat="45.616741937895526" lon="-0.032440990002235985"><ele>24.0</ele><time>2026-03-22T14:37:34Z</time></trkpt><trkpt lat="45.61688922340169" lon="-0.03242181708501285"><ele>24.5</ele><time>2026-03-22T14:37:35Z</time></trkpt><trkpt lat="45.617043924664394" lon="-0.03240907958398806"><ele>25.0</ele><time>2026-03-22T14:37:36Z</time></trkpt><trkpt lat="45.617188099147164" lon="-0.032387873987784394"><ele>25.5</ele><time>2026-03-22T14:37:37Z</time></trkpt><trkpt lat="45.617334974717366" lon="-0.03236109641864646"><ele>26.0</ele><time>2026-03-22T14:37:38Z</time></trkpt><trkpt lat="45.61748021677281" lon="-0.03232118090706538"><ele>26.0</ele><time>2026-03-22T14:37:39Z</time></trkpt><trkpt lat="45.61762966244117" lon="-0.032266643861296046"><ele>26.0</ele><time>2026-03-22T14:37:40Z</time></trkpt><trkpt lat="45.61777383457256" lon="-0.032198762773489153"><ele>26.0</ele><time>2026-03-22T14:37:41Z</time></trkpt><trkpt lat="45.61791945326653" lon="-0.0321257387675715"><ele>28.0</ele><time>2026-03-22T14:37:42Z</time></trkpt><trkpt lat="45.618064509153726" lon="-0.0320418151253138"><ele>30.0</ele><time>2026-03-22T14:37:43Z</time></trkpt><trkpt lat="45.618212348857355" lon="-0.03195453001993814"><ele>32.0</ele><time>2026-03-22T14:37:44Z</time></trkpt><trkpt lat="45.61835372747282" lon="-0.03186599605799064"><ele>32.0</ele><time>2026-03-22T14:37:45Z</time></trkpt><trkpt lat="45.61850217692728" lon="-0.031780644835548794"><ele>32.0</ele><time>2026-03-22T14:37:46Z</time></trkpt><trkpt lat="45.61864335850817" lon="-0.03169709876557553"><ele>32.0</ele><time>2026-03-22T14:37:47Z</time></trkpt><trkpt lat="45.618785969304746" lon="-0.03161153674224085"><ele>31.0</ele><time>2026-03-22T14:37:48Z</time></trkpt><trkpt lat="45.61893362145602" lon="-0.03152053651719044"><ele>30.0</ele><time>2026-03-22T14:37:49Z</time></trkpt><trkpt lat="45.619078316520685" lon="-0.031438224966971615"><ele>29.0</ele><time>2026-03-22T14:37:50Z</time></trkpt><trkpt lat="45.61922716714739" lon="-0.03135691908160149"><ele>29.0</ele><time>2026-03-22T14:37:51Z</time></trkpt><trkpt lat="45.61937241578321" lon="-0.03128325656551494"><ele>29.0</ele><time>2026-03-22T14:37:52Z</time></trkpt><trkpt lat="45.6195240198732" lon="-0.031214241914998168"><ele>29.0</ele><time>2026-03-22T14:37:53Z</time></trkpt><trkpt lat="45.61967816985625" lon="-0.0311382514826217"><ele>31.333333333333332</ele><time>2026-03-22T14:37:54Z</time></trkpt><trkpt lat="45.61983075501293" lon="-0.031062417355225545"><ele>33.666666666666664</ele><time>2026-03-22T14:37:55Z</time></trkpt><trkpt lat="45.619983267524496" lon="-0.030992270244978085"><ele>36.0</ele><time>2026-03-22T14:37:56Z</time></trkpt><trkpt lat="45.62012960573283" lon="-0.030915845498743936"><ele>36.0</ele><time>2026-03-22T14:37:57Z</time></trkpt><trkpt lat="45.620278081360915" lon="-0.03085032199321989"><ele>36.0</ele><time>2026-03-22T14:37:58Z</time></trkpt><trkpt lat="45.62041504128714" lon="-0.0307708372382998"><ele>36.0</ele><time>2026-03-22T14:37:59Z</time></trkpt><trkpt lat="45.62055210519095" lon="-0.030690422487771863"><ele>34.25</ele><time>2026-03-22T14:38:00Z</time></trkpt><trkpt lat="45.620686574029364" lon="-0.030604304936131872"><ele>32.5</ele><time>2026-03-22T14:38:01Z</time></trkpt><trkpt lat="45.62081126863196" lon="-0.030512333601710635"><ele>30.75</ele><time>2026-03-22T14:38:02Z</time></trkpt><trkpt lat="45.62093345352594" lon="-0.03041051561509937"><ele>29.0</ele><time>2026-03-22T14:38:03Z</time></trkpt><trkpt lat="45.62105763589153" lon="-0.03030919936692979"><ele>28.5</ele><time>2026-03-22T14:38:04Z</time></trkpt><trkpt lat="45.62118851783374" lon="-0.030206815896484777"><ele>28.0</ele><time>2026-03-22T14:38:05Z</time></trkpt><trkpt lat="45.621316046414016" lon="-0.03010057984178096"><ele>27.5</ele><time>2026-03-22T14:38:06Z</time></trkpt><trkpt lat="45.621440980504495" lon="-0.0299969728160403"><ele>27.0</ele><time>2026-03-22T14:38:07Z</time></trkpt><trkpt lat="45.62157023656589" lon="-0.029899079128575475"><ele>27.0</ele><time>2026-03-22T14:38:08Z</time></trkpt><trkpt lat="45.621692476368146" lon="-0.029787864911451762"><ele>27.0</ele><time>2026-03-22T14:38:09Z</time></trkpt><trkpt lat="45.621814506179035" lon="-0.029687228627663206"><ele>27.0</ele><time>2026-03-22T14:38:10Z</time></trkpt><trkpt lat="45.621933364192586" lon="-0.02958313622552408"><ele>27.0</ele><time>2026-03-22T14:38:11Z</time></trkpt><trkpt lat="45.622055302021515" lon="-0.029477982979145428"><ele>26.5</ele><time>2026-03-22T14:38:12Z</time></trkpt><trkpt lat="45.62218604632622" lon="-0.02938025703150221"><ele>26.0</ele><time>2026-03-22T14:38:13Z</time></trkpt><trkpt lat="45.62232344918709" lon="-0.0292768186006405"><ele>25.5</ele><time>2026-03-22T14:38:14Z</time></trkpt><trkpt lat="45.6224535325628" lon="-0.029182513799155062"><ele>25.0</ele><time>2026-03-22T14:38:15Z</time></trkpt><trkpt lat="45.622577890320855" lon="-0.029081560732620724"><ele>25.0</ele><time>2026-03-22T14:38:16Z</time></trkpt><trkpt lat="45.6226912377189" lon="-0.02898453121854049"><ele>25.0</ele><time>2026-03-22T14:38:17Z</time></trkpt><trkpt lat="45.62281288584783" lon="-0.028880176297584072"><ele>25.0</ele><time>2026-03-22T14:38:18Z</time></trkpt><trkpt lat="45.622924609171555" lon="-0.028787808430473665"><ele>25.0</ele><time>2026-03-22T14:38:19Z</time></trkpt><trkpt lat="45.62302709380309" lon="-0.02870543970123286"><ele>25.166666666666668</ele><time>2026-03-22T14:38:20Z</time></trkpt><trkpt lat="45.62312401858842" lon="-0.028626990842639803"><ele>25.333333333333336</ele><time>2026-03-22T14:38:21Z</time></trkpt><trkpt lat="45.623212099691294" lon="-0.028552365581842667"><ele>25.5</ele><time>2026-03-22T14:38:22Z</time></trkpt><trkpt lat="45.62328067453717" lon="-0.028488643367541602"><ele>25.666666666666664</ele><time>2026-03-22T14:38:23Z</time></trkpt><trkpt lat="45.62333290417393" lon="-0.028417145894319405"><ele>25.833333333333332</ele><time>2026-03-22T14:38:24Z</time></trkpt><trkpt lat="45.623394981228635" lon="-0.02834994363911763"><ele>26.0</ele><time>2026-03-22T14:38:25Z</time></trkpt><trkpt lat="45.62348610000757" lon="-0.028295253440869805"><ele>25.25</ele><time>2026-03-22T14:38:26Z</time></trkpt><trkpt lat="45.62355546469718" lon="-0.028171068237139"><ele>24.5</ele><time>2026-03-22T14:38:27Z</time></trkpt><trkpt lat="45.62365665947564" lon="-0.028071215759167274"><ele>23.75</ele><time>2026-03-22T14:38:28Z</time></trkpt><trkpt lat="45.62375284331332" lon="-0.027968027281472938"><ele>23.0</ele><time>2026-03-22T14:38:29Z</time></trkpt><trkpt lat="45.6238492466848" lon="-0.027862800911763727"><ele>22.75</ele><time>2026-03-22T14:38:30Z</time></trkpt><trkpt lat="45.623933213786486" lon="-0.02777435870431032"><ele>22.5</ele><time>2026-03-22T14:38:31Z</time></trkpt><trkpt lat="45.623994900121225" lon="-0.027709384738878788"><ele>22.25</ele><time>2026-03-22T14:38:32Z</time></trkpt><trkpt lat="45.62404864437344" lon="-0.027652776129767093"><ele>22.0</ele><time>2026-03-22T14:38:34Z</time></trkpt><trkpt lat="45.62417092339218" lon="-0.027952857868635505"><ele>22.0</ele><time>2026-03-22T14:38:37Z</time></trkpt><trkpt lat="45.624168608341215" lon="-0.028057137902162316"><ele>22.0</ele><time>2026-03-22T14:38:38Z</time></trkpt><trkpt lat="45.624125838029286" lon="-0.028168666771905958"><ele>22.0</ele><time>2026-03-22T14:38:39Z</time></trkpt><trkpt lat="45.62406434688696" lon="-0.02829073406996277"><ele>22.0</ele><time>2026-03-22T14:38:40Z</time></trkpt><trkpt lat="45.62398474493147" lon="-0.028441532486139866"><ele>22.0</ele><time>2026-03-22T14:38:41Z</time></trkpt><trkpt lat="45.62392370008015" lon="-0.028533682721722558"><ele>24.200000000000003</ele><time>2026-03-22T14:38:42Z</time></trkpt><trkpt lat="45.62395619407819" lon="-0.028644609814596416"><ele>26.4</ele><time>2026-03-22T14:38:43Z</time></trkpt><trkpt lat="45.62406367824007" lon="-0.02870493612728838"><ele>28.599999999999998</ele><time>2026-03-22T14:38:46Z</time></trkpt><trkpt lat="45.62411655794015" lon="-0.028611892284457555"><ele>30.799999999999997</ele><time>2026-03-22T14:38:47Z</time></trkpt><trkpt lat="45.62421240632376" lon="-0.028572710352037095"><ele>33.0</ele><time>2026-03-22T14:38:48Z</time></trkpt><trkpt lat="45.62430685844987" lon="-0.028525061596074614"><ele>33.0</ele><time>2026-03-22T14:38:49Z</time></trkpt><trkpt lat="45.624381558249105" lon="-0.02853495683427594"><ele>33.0</ele><time>2026-03-22T14:38:50Z</time></trkpt><trkpt lat="45.62447904586753" lon="-0.028559255200879277"><ele>33.0</ele><time>2026-03-22T14:38:51Z</time></trkpt><trkpt lat="45.62455058831197" lon="-0.028589135081765315"><ele>33.0</ele><time>2026-03-22T14:38:52Z</time></trkpt><trkpt lat="45.62461374382148" lon="-0.028605582571505323"><ele>33.0</ele><time>2026-03-22T14:38:53Z</time></trkpt><trkpt lat="45.62471696313677" lon="-0.028676500250731814"><ele>33.0</ele><time>2026-03-22T14:38:55Z</time></trkpt><trkpt lat="45.62473837462137" lon="-0.028775431630045218"><ele>33.166666666666664</ele><time>2026-03-22T14:38:56Z</time></trkpt><trkpt lat="45.62471196165991" lon="-0.028886456493717995"><ele>33.333333333333336</ele><time>2026-03-22T14:38:57Z</time></trkpt><trkpt lat="45.62466132013877" lon="-0.029005437969472168"><ele>33.5</ele><time>2026-03-22T14:38:58Z</time></trkpt><trkpt lat="45.62466925506957" lon="-0.02909892822261736"><ele>33.66666666666667</ele><time>2026-03-22T14:38:59Z</time></trkpt><trkpt lat="45.624692848319654" lon="-0.029250311088717645"><ele>33.833333333333336</ele><time>2026-03-22T14:39:01Z</time></trkpt><trkpt lat="45.62472063857548" lon="-0.029357615726718474"><ele>34.0</ele><time>2026-03-22T14:39:02Z</time></trkpt><trkpt lat="45.624747921247724" lon="-0.029493139662287365"><ele>36.6</ele><time>2026-03-22T14:39:03Z</time></trkpt><trkpt lat="45.624765644469264" lon="-0.02961314470669272"><ele>39.2</ele><time>2026-03-22T14:39:04Z</time></trkpt><trkpt lat="45.62478184366204" lon="-0.02972997128727327"><ele>41.800000000000004</ele><time>2026-03-22T14:39:05Z</time></trkpt><trkpt lat="45.6248044278313" lon="-0.02985075152774161"><ele>44.4</ele><time>2026-03-22T14:39:06Z</time></trkpt><trkpt lat="45.624830936993405" lon="-0.03008152646482734"><ele>47.0</ele><time>2026-03-22T14:39:08Z</time></trkpt><trkpt lat="45.62483189450686" lon="-0.03020106096846495"><ele>47.8</ele><time>2026-03-22T14:39:09Z</time></trkpt><trkpt lat="45.6248345797741" lon="-0.030303202689042495"><ele>48.6</ele><time>2026-03-22T14:39:10Z</time></trkpt><trkpt lat="45.624843255429035" lon="-0.030424847857050366"><ele>49.4</ele><time>2026-03-22T14:39:11Z</time></trkpt><trkpt lat="45.624840614331944" lon="-0.030543161484126752"><ele>50.199999999999996</ele><time>2026-03-22T14:39:12Z</time></trkpt><trkpt lat="45.62485086080056" lon="-0.030698405363482527"><ele>51.0</ele><time>2026-03-22T14:39:13Z</time></trkpt><trkpt lat="45.62485946183193" lon="-0.030852008053584925"><ele>52.0</ele><time>2026-03-22T14:39:14Z</time></trkpt><trkpt lat="45.62487190736789" lon="-0.031003424481045008"><ele>53.0</ele><time>2026-03-22T14:39:15Z</time></trkpt><trkpt lat="45.62487959403548" lon="-0.031156005883945785"><ele>53.99999999999999</ele><time>2026-03-22T14:39:16Z</time></trkpt><trkpt lat="45.62488786689019" lon="-0.031294910856221075"><ele>55.0</ele><time>2026-03-22T14:39:17Z</time></trkpt><trkpt lat="45.62489627913707" lon="-0.03142426691684362"><ele>56.0</ele><time>2026-03-22T14:39:18Z</time></trkpt><trkpt lat="45.6249238224543" lon="-0.03153825191500519"><ele>56.599999999999994</ele><time>2026-03-22T14:39:19Z</time></trkpt><trkpt lat="45.624939571732824" lon="-0.03165953147989781"><ele>57.199999999999996</ele><time>2026-03-22T14:39:20Z</time></trkpt><trkpt lat="45.62495983199234" lon="-0.03180074459047582"><ele>57.800000000000004</ele><time>2026-03-22T14:39:21Z</time></trkpt><trkpt lat="45.62498901261369" lon="-0.03193528690414235"><ele>58.400000000000006</ele><time>2026-03-22T14:39:22Z</time></trkpt><trkpt lat="45.62501961463791" lon="-0.03207578050815284"><ele>59.0</ele><time>2026-03-22T14:39:23Z</time></trkpt><trkpt lat="45.62504397990279" lon="-0.03221618414139743"><ele>59.0</ele><time>2026-03-22T14:39:24Z</time></trkpt><trkpt lat="45.625074850241184" lon="-0.03235323581783751"><ele>59.00000000000001</ele><time>2026-03-22T14:39:25Z</time></trkpt><trkpt lat="45.625108597612055" lon="-0.03250770494551846"><ele>59.00000000000001</ele><time>2026-03-22T14:39:26Z</time></trkpt><trkpt lat="45.62514610638686" lon="-0.032646476144566956"><ele>59.0</ele><time>2026-03-22T14:39:27Z</time></trkpt><trkpt lat="45.625191168723205" lon="-0.032786869021442344"><ele>59.0</ele><time>2026-03-22T14:39:28Z</time></trkpt><trkpt lat="45.62523824315486" lon="-0.03291657515911395"><ele>59.0</ele><time>2026-03-22T14:39:29Z</time></trkpt><trkpt lat="45.6252872264722" lon="-0.03304342286526532"><ele>59.00000000000001</ele><time>2026-03-22T14:39:30Z</time></trkpt><trkpt lat="45.62533977292267" lon="-0.0331710883247338"><ele>59.00000000000001</ele><time>2026-03-22T14:39:31Z</time></trkpt><trkpt lat="45.6253976599833" lon="-0.03329411071107406"><ele>59.0</ele><time>2026-03-22T14:39:32Z</time></trkpt><trkpt lat="45.62545584347193" lon="-0.03341889631886055"><ele>59.0</ele><time>2026-03-22T14:39:33Z</time></trkpt><trkpt lat="45.625506371177785" lon="-0.0335416730010362"><ele>59.400000000000006</ele><time>2026-03-22T14:39:34Z</time></trkpt><trkpt lat="45.625553621973765" lon="-0.03366997383302333"><ele>59.800000000000004</ele><time>2026-03-22T14:39:35Z</time></trkpt><trkpt lat="45.62558911525519" lon="-0.03379461900339361"><ele>60.199999999999996</ele><time>2026-03-22T14:39:36Z</time></trkpt><trkpt lat="45.62563648526422" lon="-0.03392934234680697"><ele>60.599999999999994</ele><time>2026-03-22T14:39:37Z</time></trkpt><trkpt lat="45.62567592627766" lon="-0.03406814066259131"><ele>61.0</ele><time>2026-03-22T14:39:38Z</time></trkpt><trkpt lat="45.625714048104605" lon="-0.03419861189900449"><ele>61.4</ele><time>2026-03-22T14:39:39Z</time></trkpt><trkpt lat="45.62575295264461" lon="-0.034338259788004345"><ele>61.8</ele><time>2026-03-22T14:39:40Z</time></trkpt><trkpt lat="45.62579196712145" lon="-0.034479282019167314"><ele>62.199999999999996</ele><time>2026-03-22T14:39:41Z</time></trkpt><trkpt lat="45.62582639348323" lon="-0.034633499984748885"><ele>62.599999999999994</ele><time>2026-03-22T14:39:42Z</time></trkpt><trkpt lat="45.62586506326147" lon="-0.03477473670840483"><ele>63.0</ele><time>2026-03-22T14:39:43Z</time></trkpt><trkpt lat="45.62588993957484" lon="-0.03488153782312994"><ele>64.0</ele><time>2026-03-22T14:39:44Z</time></trkpt><trkpt lat="45.62592890098598" lon="-0.03502300099527978"><ele>65.0</ele><time>2026-03-22T14:39:46Z</time></trkpt><trkpt lat="45.62599080546506" lon="-0.03522959783398988"><ele>66.0</ele><time>2026-03-22T14:39:48Z</time></trkpt><trkpt lat="45.62604242666342" lon="-0.035355848875644455"><ele>67.0</ele><time>2026-03-22T14:39:49Z</time></trkpt><trkpt lat="45.626102931892" lon="-0.03548427027312006"><ele>66.8</ele><time>2026-03-22T14:39:50Z</time></trkpt><trkpt lat="45.62615724913058" lon="-0.035618100439930654"><ele>66.6</ele><time>2026-03-22T14:39:51Z</time></trkpt><trkpt lat="45.626208510380955" lon="-0.03575417781198032"><ele>66.39999999999999</ele><time>2026-03-22T14:39:52Z</time></trkpt><trkpt lat="45.62625931596867" lon="-0.03589467806163453"><ele>66.2</ele><time>2026-03-22T14:39:53Z</time></trkpt><trkpt lat="45.626305920689475" lon="-0.036042385934139054"><ele>66.0</ele><time>2026-03-22T14:39:54Z</time></trkpt><trkpt lat="45.6263345990954" lon="-0.03614926311243386"><ele>66.0</ele><time>2026-03-22T14:39:55Z</time></trkpt><trkpt lat="45.626376377861796" lon="-0.03630271247710736"><ele>66.0</ele><time>2026-03-22T14:39:56Z</time></trkpt><trkpt lat="45.62641607088861" lon="-0.03646097440710543"><ele>66.0</ele><time>2026-03-22T14:39:57Z</time></trkpt><trkpt lat="45.62645053813925" lon="-0.03661605051904499"><ele>66.0</ele><time>2026-03-22T14:39:58Z</time></trkpt><trkpt lat="45.626494097937574" lon="-0.03677189468293743"><ele>66.6</ele><time>2026-03-22T14:39:59Z</time></trkpt><trkpt lat="45.626519952888216" lon="-0.03691736743616297"><ele>67.19999999999999</ele><time>2026-03-22T14:40:00Z</time></trkpt><trkpt lat="45.62654545374369" lon="-0.03706425887222217"><ele>67.80000000000001</ele><time>2026-03-22T14:40:01Z</time></trkpt><trkpt lat="45.626569757771364" lon="-0.03720621959975074"><ele>68.4</ele><time>2026-03-22T14:40:02Z</time></trkpt><trkpt lat="45.62659212409983" lon="-0.03734539307573338"><ele>69.0</ele><time>2026-03-22T14:40:03Z</time></trkpt><trkpt lat="45.62661456839726" lon="-0.037485167744817104"><ele>69.0</ele><time>2026-03-22T14:40:04Z</time></trkpt><trkpt lat="45.6266372722259" lon="-0.03763134087545707"><ele>69.0</ele><time>2026-03-22T14:40:05Z</time></trkpt><trkpt lat="45.62665697290451" lon="-0.037756188576902244"><ele>69.0</ele><time>2026-03-22T14:40:06Z</time></trkpt><trkpt lat="45.62667284913662" lon="-0.037859867960851314"><ele>69.0</ele><time>2026-03-22T14:40:07Z</time></trkpt><trkpt lat="45.626689030356296" lon="-0.037952003785060716"><ele>69.0</ele><time>2026-03-22T14:40:08Z</time></trkpt><trkpt lat="45.626704022242514" lon="-0.03806523210920738"><ele>69.0</ele><time>2026-03-22T14:40:11Z</time></trkpt><trkpt lat="45.62657049981132" lon="-0.03805222897711656"><ele>69.0</ele><time>2026-03-22T14:40:13Z</time></trkpt><trkpt lat="45.626456869305464" lon="-0.038042809593153634"><ele>69.0</ele><time>2026-03-22T14:40:14Z</time></trkpt><trkpt lat="45.62630147405171" lon="-0.038028624473659185"><ele>69.0</ele><time>2026-03-22T14:40:15Z</time></trkpt><trkpt lat="45.626126458085224" lon="-0.038024148216089335"><ele>69.0</ele><time>2026-03-22T14:40:16Z</time></trkpt><trkpt lat="45.6259361489637" lon="-0.03800387833321377"><ele>69.66666666666667</ele><time>2026-03-22T14:40:17Z</time></trkpt><trkpt lat="45.625691693338176" lon="-0.03795460491328484"><ele>70.33333333333334</ele><time>2026-03-22T14:40:18Z</time></trkpt><trkpt lat="45.62551395700581" lon="-0.03794451698816562"><ele>71.0</ele><time>2026-03-22T14:40:19Z</time></trkpt><trkpt lat="45.62530548351692" lon="-0.03792001744507467"><ele>71.33333333333334</ele><time>2026-03-22T14:40:20Z</time></trkpt><trkpt lat="45.625086798254905" lon="-0.03790180551230405"><ele>71.66666666666667</ele><time>2026-03-22T14:40:21Z</time></trkpt><trkpt lat="45.62487384776586" lon="-0.03788585910086596"><ele>72.0</ele><time>2026-03-22T14:40:22Z</time></trkpt><trkpt lat="45.62466435971763" lon="-0.037861092336847"><ele>72.66666666666667</ele><time>2026-03-22T14:40:23Z</time></trkpt><trkpt lat="45.62444650661688" lon="-0.037827280111323656"><ele>73.33333333333334</ele><time>2026-03-22T14:40:24Z</time></trkpt><trkpt lat="45.62424453459628" lon="-0.03782632924675714"><ele>74.0</ele><time>2026-03-22T14:40:25Z</time></trkpt><trkpt lat="45.624014849263126" lon="-0.037807371820646064"><ele>74.0</ele><time>2026-03-22T14:40:26Z</time></trkpt><trkpt lat="45.6237864470123" lon="-0.03777964186645556"><ele>74.0</ele><time>2026-03-22T14:40:27Z</time></trkpt><trkpt lat="45.62357903052596" lon="-0.03775996937980911"><ele>74.0</ele><time>2026-03-22T14:40:28Z</time></trkpt><trkpt lat="45.62338393203664" lon="-0.0377348082905957"><ele>74.66666666666667</ele><time>2026-03-22T14:40:29Z</time></trkpt><trkpt lat="45.623200941350824" lon="-0.03771725519258463"><ele>75.33333333333333</ele><time>2026-03-22T14:40:30Z</time></trkpt><trkpt lat="45.62301449908184" lon="-0.037696716777170874"><ele>76.0</ele><time>2026-03-22T14:40:31Z</time></trkpt><trkpt lat="45.62281689663671" lon="-0.03767845131321792"><ele>75.66666666666666</ele><time>2026-03-22T14:40:32Z</time></trkpt><trkpt lat="45.62262031771948" lon="-0.03766063811010836"><ele>75.33333333333333</ele><time>2026-03-22T14:40:33Z</time></trkpt><trkpt lat="45.622411641618896" lon="-0.037633967457326646"><ele>75.0</ele><time>2026-03-22T14:40:34Z</time></trkpt><trkpt lat="45.622207593222726" lon="-0.03760554100755187"><ele>75.0</ele><time>2026-03-22T14:40:35Z</time></trkpt><trkpt lat="45.62202075954964" lon="-0.0375882213836968"><ele>75.0</ele><time>2026-03-22T14:40:36Z</time></trkpt><trkpt lat="45.62183931121576" lon="-0.03757592833223075"><ele>75.0</ele><time>2026-03-22T14:40:37Z</time></trkpt><trkpt lat="45.621665162712866" lon="-0.03755708044562692"><ele>74.66666666666667</ele><time>2026-03-22T14:40:38Z</time></trkpt><trkpt lat="45.621486834282976" lon="-0.0375296778632562"><ele>74.33333333333334</ele><time>2026-03-22T14:40:39Z</time></trkpt><trkpt lat="45.62131441855577" lon="-0.03750992372958481"><ele>74.0</ele><time>2026-03-22T14:40:40Z</time></trkpt><trkpt lat="45.621140987577114" lon="-0.03749216563144096"><ele>74.0</ele><time>2026-03-22T14:40:41Z</time></trkpt><trkpt lat="45.62097364589433" lon="-0.03748894872033577"><ele>74.0</ele><time>2026-03-22T14:40:42Z</time></trkpt><trkpt lat="45.62080892440738" lon="-0.037501472233678834"><ele>74.0</ele><time>2026-03-22T14:40:43Z</time></trkpt><trkpt lat="45.62064300086244" lon="-0.03754016555218122"><ele>74.0</ele><time>2026-03-22T14:40:44Z</time></trkpt><trkpt lat="45.62047152181866" lon="-0.03759335433315176"><ele>74.0</ele><time>2026-03-22T14:40:45Z</time></trkpt><trkpt lat="45.62030685846515" lon="-0.03766108781242121"><ele>74.0</ele><time>2026-03-22T14:40:46Z</time></trkpt><trkpt lat="45.620142697988705" lon="-0.037745163655231125"><ele>74.0</ele><time>2026-03-22T14:40:47Z</time></trkpt><trkpt lat="45.61999254673017" lon="-0.03783300389780327"><ele>74.0</ele><time>2026-03-22T14:40:48Z</time></trkpt><trkpt lat="45.61985090184329" lon="-0.03793643964776039"><ele>74.0</ele><time>2026-03-22T14:40:49Z</time></trkpt><trkpt lat="45.619702309415416" lon="-0.03803398965792229"><ele>74.0</ele><time>2026-03-22T14:40:50Z</time></trkpt><trkpt lat="45.61957083434522" lon="-0.038119272402680995"><ele>74.0</ele><time>2026-03-22T14:40:51Z</time></trkpt><trkpt lat="45.61944015241103" lon="-0.038194180253875665"><ele>74.0</ele><time>2026-03-22T14:40:52Z</time></trkpt><trkpt lat="45.6193221348721" lon="-0.03827119037946242"><ele>74.0</ele><time>2026-03-22T14:40:53Z</time></trkpt><trkpt lat="45.6192257851612" lon="-0.038339815385877656"><ele>74.0</ele><time>2026-03-22T14:40:54Z</time></trkpt><trkpt lat="45.61914055024244" lon="-0.03840152023577985"><ele>74.0</ele><time>2026-03-22T14:40:55Z</time></trkpt><trkpt lat="45.6190738865191" lon="-0.03843786111316355"><ele>74.0</ele><time>2026-03-22T14:40:56Z</time></trkpt><trkpt lat="45.619009343974106" lon="-0.03845968089334925"><ele>74.0</ele><time>2026-03-22T14:40:58Z</time></trkpt><trkpt lat="45.61892996000749" lon="-0.03828357938693754"><ele>74.0</ele><time>2026-03-22T14:41:00Z</time></trkpt><trkpt lat="45.61891917725024" lon="-0.03819057912562908"><ele>74.0</ele><time>2026-03-22T14:41:01Z</time></trkpt><trkpt lat="45.61890595458479" lon="-0.03808360032649734"><ele>74.0</ele><time>2026-03-22T14:41:02Z</time></trkpt><trkpt lat="45.618892088496715" lon="-0.037971415352268216"><ele>74.0</ele><time>2026-03-22T14:41:03Z</time></trkpt><trkpt lat="45.61887733592762" lon="-0.03785205825249077"><ele>74.0</ele><time>2026-03-22T14:41:04Z</time></trkpt><trkpt lat="45.618860533749796" lon="-0.03771611854035334"><ele>74.0</ele><time>2026-03-22T14:41:05Z</time></trkpt><trkpt lat="45.61884274248287" lon="-0.03757217655489282"><ele>74.0</ele><time>2026-03-22T14:41:06Z</time></trkpt><trkpt lat="45.61882450171781" lon="-0.037420980634519395"><ele>74.2</ele><time>2026-03-22T14:41:07Z</time></trkpt><trkpt lat="45.61880637853224" lon="-0.03726548430759436"><ele>74.4</ele><time>2026-03-22T14:41:08Z</time></trkpt><trkpt lat="45.61878821481921" lon="-0.03710964027615742"><ele>74.6</ele><time>2026-03-22T14:41:09Z</time></trkpt><trkpt lat="45.61876987531795" lon="-0.03695243008305829"><ele>74.8</ele><time>2026-03-22T14:41:10Z</time></trkpt><trkpt lat="45.61875117831619" lon="-0.03681164875972561"><ele>75.0</ele><time>2026-03-22T14:41:11Z</time></trkpt><trkpt lat="45.6187279222269" lon="-0.03666288915218476"><ele>74.8</ele><time>2026-03-22T14:41:12Z</time></trkpt><trkpt lat="45.61869891768117" lon="-0.03651459621737983"><ele>74.6</ele><time>2026-03-22T14:41:13Z</time></trkpt><trkpt lat="45.61866993732478" lon="-0.03637285118418196"><ele>74.4</ele><time>2026-03-22T14:41:14Z</time></trkpt><trkpt lat="45.6186455395938" lon="-0.036230695302030345"><ele>74.2</ele><time>2026-03-22T14:41:15Z</time></trkpt><trkpt lat="45.6186261493012" lon="-0.03609170659152999"><ele>74.0</ele><time>2026-03-22T14:41:16Z</time></trkpt><trkpt lat="45.61860797138091" lon="-0.03595515402128753"><ele>73.83333333333334</ele><time>2026-03-22T14:41:17Z</time></trkpt><trkpt lat="45.618590856200306" lon="-0.035832579025550225"><ele>73.66666666666667</ele><time>2026-03-22T14:41:18Z</time></trkpt><trkpt lat="45.61857304730249" lon="-0.03570694128099792"><ele>73.5</ele><time>2026-03-22T14:41:19Z</time></trkpt><trkpt lat="45.61855576998126" lon="-0.03558505404017406"><ele>73.33333333333333</ele><time>2026-03-22T14:41:20Z</time></trkpt><trkpt lat="45.61853985106853" lon="-0.0354727499478783"><ele>73.16666666666666</ele><time>2026-03-22T14:41:21Z</time></trkpt><trkpt lat="45.618523065554626" lon="-0.035357201098895556"><ele>73.0</ele><time>2026-03-22T14:41:22Z</time></trkpt><trkpt lat="45.61850665044675" lon="-0.035245480008578044"><ele>73.0</ele><time>2026-03-22T14:41:23Z</time></trkpt><trkpt lat="45.61849045774768" lon="-0.03513527298554723"><ele>73.0</ele><time>2026-03-22T14:41:24Z</time></trkpt><trkpt lat="45.6184735100073" lon="-0.03502870311255246"><ele>73.0</ele><time>2026-03-22T14:41:25Z</time></trkpt><trkpt lat="45.61845636181871" lon="-0.03492256699134903"><ele>73.0</ele><time>2026-03-22T14:41:26Z</time></trkpt><trkpt lat="45.61843876989692" lon="-0.034827644132978265"><ele>73.0</ele><time>2026-03-22T14:41:27Z</time></trkpt><trkpt lat="45.6184189734634" lon="-0.03472670174384779"><ele>73.0</ele><time>2026-03-22T14:41:28Z</time></trkpt><trkpt lat="45.61839955495163" lon="-0.034632739492096346"><ele>73.0</ele><time>2026-03-22T14:41:29Z</time></trkpt><trkpt lat="45.61837995516117" lon="-0.03454273768399499"><ele>72.85714285714286</ele><time>2026-03-22T14:41:30Z</time></trkpt><trkpt lat="45.61835662382982" lon="-0.03445427528734638"><ele>72.71428571428572</ele><time>2026-03-22T14:41:31Z</time></trkpt><trkpt lat="45.61833346997864" lon="-0.03436950948465781"><ele>72.57142857142858</ele><time>2026-03-22T14:41:32Z</time></trkpt><trkpt lat="45.61830719527527" lon="-0.034279235908596745"><ele>72.42857142857143</ele><time>2026-03-22T14:41:33Z</time></trkpt><trkpt lat="45.6182812721546" lon="-0.03419552871425851"><ele>72.28571428571429</ele><time>2026-03-22T14:41:34Z</time></trkpt><trkpt lat="45.618253534715954" lon="-0.0341108388575859"><ele>72.14285714285715</ele><time>2026-03-22T14:41:35Z</time></trkpt><trkpt lat="45.61823883486848" lon="-0.03401133292581768"><ele>72.0</ele><time>2026-03-22T14:41:36Z</time></trkpt><trkpt lat="45.61818472766795" lon="-0.033861037936408295"><ele>71.5</ele><time>2026-03-22T14:41:38Z</time></trkpt><trkpt lat="45.61813256053037" lon="-0.03372164812565862"><ele>71.0</ele><time>2026-03-22T14:41:40Z</time></trkpt><trkpt lat="45.61808857241993" lon="-0.03362663052611373"><ele>70.5</ele><time>2026-03-22T14:41:43Z</time></trkpt><trkpt lat="45.617991525138" lon="-0.033621342565068456"><ele>70.0</ele><time>2026-03-22T14:41:46Z</time></trkpt><trkpt lat="45.61790688961248" lon="-0.033626426587553826"><ele>69.5</ele><time>2026-03-22T14:41:48Z</time></trkpt><trkpt lat="45.61783317882542" lon="-0.03361263102355557"><ele>69.0</ele><time>2026-03-22T14:41:50Z</time></trkpt><trkpt lat="45.617762807932245" lon="-0.03359202334958081"><ele>65.0</ele><time>2026-03-22T14:41:52Z</time></trkpt><trkpt lat="45.6176804744771" lon="-0.0335709392241746"><ele>61.0</ele><time>2026-03-22T14:41:55Z</time></trkpt><trkpt lat="45.617589014524924" lon="-0.033942072933510446"><ele>57.0</ele><time>2026-03-22T14:41:57Z</time></trkpt><trkpt lat="45.617514479887994" lon="-0.034055920885116435"><ele>58.8</ele><time>2026-03-22T14:41:59Z</time></trkpt><trkpt lat="45.617438416210035" lon="-0.034181595540596306"><ele>60.6</ele><time>2026-03-22T14:42:01Z</time></trkpt><trkpt lat="45.61735078936472" lon="-0.03431710651162495"><ele>62.39999999999999</ele><time>2026-03-22T14:42:03Z</time></trkpt><trkpt lat="45.61729840907629" lon="-0.034383596197745336"><ele>64.2</ele><time>2026-03-22T14:42:04Z</time></trkpt><trkpt lat="45.617245933183604" lon="-0.03445420037602622"><ele>66.0</ele><time>2026-03-22T14:42:05Z</time></trkpt><trkpt lat="45.61719678621955" lon="-0.03452127872812083"><ele>66.0</ele><time>2026-03-22T14:42:06Z</time></trkpt><trkpt lat="45.61713812048233" lon="-0.03458630414501484"><ele>66.0</ele><time>2026-03-22T14:42:07Z</time></trkpt><trkpt lat="45.61708395426572" lon="-0.03464064488219916"><ele>66.0</ele><time>2026-03-22T14:42:08Z</time></trkpt><trkpt lat="45.61703265009804" lon="-0.0346938952710454"><ele>66.0</ele><time>2026-03-22T14:42:09Z</time></trkpt><trkpt lat="45.61694104488387" lon="-0.03479904108853548"><ele>66.0</ele><time>2026-03-22T14:42:11Z</time></trkpt><trkpt lat="45.616879400234524" lon="-0.034877788475573546"><ele>66.0</ele><time>2026-03-22T14:42:13Z</time></trkpt><trkpt lat="45.61680204159009" lon="-0.03496386720103136"><ele>66.75</ele><time>2026-03-22T14:42:15Z</time></trkpt><trkpt lat="45.616693424591766" lon="-0.03501763014893266"><ele>67.5</ele><time>2026-03-22T14:42:17Z</time></trkpt><trkpt lat="45.6165762322098" lon="-0.03506619315933783"><ele>68.25</ele><time>2026-03-22T14:42:19Z</time></trkpt><trkpt lat="45.616455213557686" lon="-0.03512123066832266"><ele>69.0</ele><time>2026-03-22T14:42:21Z</time></trkpt><trkpt lat="45.61635460077367" lon="-0.03516012829146607"><ele>69.0</ele><time>2026-03-22T14:42:23Z</time></trkpt><trkpt lat="45.61627585513083" lon="-0.03516588455680311"><ele>69.0</ele><time>2026-03-22T14:42:25Z</time></trkpt><trkpt lat="45.6162048744659" lon="-0.03510986647479868"><ele>69.0</ele><time>2026-03-22T14:42:27Z</time></trkpt><trkpt lat="45.61614434083635" lon="-0.0350222859248834"><ele>69.0</ele><time>2026-03-22T14:42:29Z</time></trkpt><trkpt lat="45.61606419190752" lon="-0.03496891931882151"><ele>69.0</ele><time>2026-03-22T14:42:31Z</time></trkpt><trkpt lat="45.61596271885797" lon="-0.03494964452120514"><ele>69.0</ele><time>2026-03-22T14:42:33Z</time></trkpt><trkpt lat="45.615858063362474" lon="-0.03493751798766045"><ele>68.0</ele><time>2026-03-22T14:42:35Z</time></trkpt><trkpt lat="45.615755402185684" lon="-0.03492212951997576"><ele>67.0</ele><time>2026-03-22T14:42:37Z</time></trkpt><trkpt lat="45.6156533857072" lon="-0.03490162089131161"><ele>66.0</ele><time>2026-03-22T14:42:39Z</time></trkpt><trkpt lat="45.61553740355015" lon="-0.03487917971139151"><ele>65.0</ele><time>2026-03-22T14:42:41Z</time></trkpt><trkpt lat="45.61541554094677" lon="-0.0348546153131953"><ele>64.0</ele><time>2026-03-22T14:42:43Z</time></trkpt><trkpt lat="45.61535180719196" lon="-0.034839772620255366"><ele>63.166666666666664</ele><time>2026-03-22T14:42:44Z</time></trkpt><trkpt lat="45.615282662896185" lon="-0.034822825055324504"><ele>62.33333333333333</ele><time>2026-03-22T14:42:45Z</time></trkpt><trkpt lat="45.61520625733543" lon="-0.034802109629019404"><ele>61.5</ele><time>2026-03-22T14:42:46Z</time></trkpt><trkpt lat="45.61513898314522" lon="-0.03478140314471459"><ele>60.66666666666667</ele><time>2026-03-22T14:42:47Z</time></trkpt><trkpt lat="45.615060585194634" lon="-0.03475901176967369"><ele>59.833333333333336</ele><time>2026-03-22T14:42:48Z</time></trkpt><trkpt lat="45.61498672996341" lon="-0.034735724621934756"><ele>59.0</ele><time>2026-03-22T14:42:49Z</time></trkpt><trkpt lat="45.61490662391407" lon="-0.034715205397521834"><ele>59.00000000000001</ele><time>2026-03-22T14:42:50Z</time></trkpt><trkpt lat="45.614824524431185" lon="-0.03470475060183572"><ele>59.0</ele><time>2026-03-22T14:42:51Z</time></trkpt><trkpt lat="45.61474870084706" lon="-0.03468055242572764"><ele>59.0</ele><time>2026-03-22T14:42:52Z</time></trkpt><trkpt lat="45.61465018567809" lon="-0.03466233711911446"><ele>59.0</ele><time>2026-03-22T14:42:54Z</time></trkpt><trkpt lat="45.61458375371249" lon="-0.03465206459938563"><ele>59.00000000000001</ele><time>2026-03-22T14:42:56Z</time></trkpt><trkpt lat="45.61453910730103" lon="-0.03456960732162578"><ele>59.0</ele><time>2026-03-22T14:42:59Z</time></trkpt><trkpt lat="45.61454331014704" lon="-0.03444994000869029"><ele>59.00000000000001</ele><time>2026-03-22T14:43:01Z</time></trkpt><trkpt lat="45.61456252217181" lon="-0.034358200493255525"><ele>59.0</ele><time>2026-03-22T14:43:03Z</time></trkpt><trkpt lat="45.61460161819152" lon="-0.03423947979963395"><ele>59.0</ele><time>2026-03-22T14:43:06Z</time></trkpt><trkpt lat="45.61464368025498" lon="-0.03415800142730474"><ele>59.0</ele><time>2026-03-22T14:43:09Z</time></trkpt><trkpt lat="45.61475324107987" lon="-0.034104211344920914"><ele>59.00000000000001</ele><time>2026-03-22T14:43:11Z</time></trkpt><trkpt lat="45.61481633617811" lon="-0.03407545010354992"><ele>59.0</ele><time>2026-03-22T14:43:12Z</time></trkpt><trkpt lat="45.6148785650075" lon="-0.03403735797348457"><ele>56.50000000000001</ele><time>2026-03-22T14:43:13Z</time></trkpt><trkpt lat="45.61494144548483" lon="-0.03399396882109135"><ele>54.0</ele><time>2026-03-22T14:43:14Z</time></trkpt><trkpt lat="45.61498421631943" lon="-0.03389812137041529"><ele>51.5</ele><time>2026-03-22T14:43:15Z</time></trkpt><trkpt lat="45.615044334225956" lon="-0.033860841975187704"><ele>49.0</ele><time>2026-03-22T14:43:16Z</time></trkpt><trkpt lat="45.61510554399492" lon="-0.033821401363167095"><ele>46.5</ele><time>2026-03-22T14:43:17Z</time></trkpt><trkpt lat="45.615167730886675" lon="-0.03379065714870278"><ele>44.0</ele><time>2026-03-22T14:43:18Z</time></trkpt><trkpt lat="45.61527523146381" lon="-0.033749366118638026"><ele>45.2</ele><time>2026-03-22T14:43:20Z</time></trkpt><trkpt lat="45.61540202382695" lon="-0.0336935060966873"><ele>46.400000000000006</ele><time>2026-03-22T14:43:22Z</time></trkpt><trkpt lat="45.61546979455949" lon="-0.03367567134090506"><ele>47.6</ele><time>2026-03-22T14:43:23Z</time></trkpt><trkpt lat="45.61552601785529" lon="-0.03362107950697737"><ele>48.8</ele><time>2026-03-22T14:43:25Z</time></trkpt><trkpt lat="45.61562492398224" lon="-0.03360130353134245"><ele>50.0</ele><time>2026-03-22T14:43:27Z</time></trkpt><trkpt lat="45.615719414402044" lon="-0.03358459978907136"><ele>50.0</ele><time>2026-03-22T14:43:29Z</time></trkpt><trkpt lat="45.61583125039472" lon="-0.033595088643552776"><ele>50.0</ele><time>2026-03-22T14:43:31Z</time></trkpt><trkpt lat="45.615934714047185" lon="-0.03359176363792004"><ele>50.0</ele><time>2026-03-22T14:43:33Z</time></trkpt><trkpt lat="45.61602776681988" lon="-0.03359379660563693"><ele>50.0</ele><time>2026-03-22T14:43:35Z</time></trkpt><trkpt lat="45.61612139003921" lon="-0.033592410455006945"><ele>50.0</ele><time>2026-03-22T14:43:37Z</time></trkpt><trkpt lat="45.61621260473809" lon="-0.03358749322300879"><ele>49.8</ele><time>2026-03-22T14:43:39Z</time></trkpt><trkpt lat="45.61630750574263" lon="-0.03353542546315823"><ele>49.6</ele><time>2026-03-22T14:43:41Z</time></trkpt><trkpt lat="45.61639505440522" lon="-0.03349383123601859"><ele>49.400000000000006</ele><time>2026-03-22T14:43:43Z</time></trkpt><trkpt lat="45.61647965531162" lon="-0.03345456403683743"><ele>49.2</ele><time>2026-03-22T14:43:45Z</time></trkpt><trkpt lat="45.61659972471331" lon="-0.03340421039380928"><ele>49.0</ele><time>2026-03-22T14:43:47Z</time></trkpt><trkpt lat="45.61666909062936" lon="-0.03334506543861339"><ele>47.2</ele><time>2026-03-22T14:43:49Z</time></trkpt><trkpt lat="45.616749942719295" lon="-0.03326350988451048"><ele>45.400000000000006</ele><time>2026-03-22T14:43:51Z</time></trkpt><trkpt lat="45.61682614663442" lon="-0.03315743636373552"><ele>43.6</ele><time>2026-03-22T14:43:53Z</time></trkpt><trkpt lat="45.61689034335743" lon="-0.03303374386434576"><ele>41.8</ele><time>2026-03-22T14:43:55Z</time></trkpt><trkpt lat="45.61695900606329" lon="-0.032924676819308926"><ele>40.0</ele><time>2026-03-22T14:43:57Z</time></trkpt><trkpt lat="45.617038109091354" lon="-0.03282652864957951"><ele>40.0</ele><time>2026-03-22T14:43:59Z</time></trkpt><trkpt lat="45.617137603941785" lon="-0.03275324457734365"><ele>40.0</ele><time>2026-03-22T14:44:01Z</time></trkpt><trkpt lat="45.617229966139284" lon="-0.0327064781836507"><ele>40.0</ele><time>2026-03-22T14:44:03Z</time></trkpt><trkpt lat="45.617317032057485" lon="-0.03266092902668152"><ele>40.0</ele><time>2026-03-22T14:44:05Z</time></trkpt><trkpt lat="45.617378520953764" lon="-0.032618417096213354"><ele>40.0</ele><time>2026-03-22T14:44:07Z</time></trkpt><trkpt lat="45.617452257387704" lon="-0.032549321324861644"><ele>40.0</ele><time>2026-03-22T14:44:09Z</time></trkpt><trkpt lat="45.617519645478275" lon="-0.032479317278735306"><ele>40.0</ele><time>2026-03-22T14:44:11Z</time></trkpt><trkpt lat="45.61756046292376" lon="-0.03240195803957025"><ele>40.0</ele><time>2026-03-22T14:44:13Z</time></trkpt><trkpt lat="45.61758753974142" lon="-0.03229901833895314"><ele>40.0</ele><time>2026-03-22T14:44:17Z</time></trkpt><trkpt lat="45.617721009146" lon="-0.03217109135958269"><ele>40.0</ele><time>2026-03-22T14:44:19Z</time></trkpt><trkpt lat="45.617782737140885" lon="-0.03214471233049828"><ele>38.0</ele><time>2026-03-22T14:44:20Z</time></trkpt><trkpt lat="45.61785432089373" lon="-0.03211045915475376"><ele>36.0</ele><time>2026-03-22T14:44:21Z</time></trkpt><trkpt lat="45.6179513756448" lon="-0.03205399194767699"><ele>34.0</ele><time>2026-03-22T14:44:22Z</time></trkpt><trkpt lat="45.61807322727187" lon="-0.03198743193272857"><ele>32.0</ele><time>2026-03-22T14:44:23Z</time></trkpt><trkpt lat="45.61823918782064" lon="-0.031889147945139286"><ele>32.0</ele><time>2026-03-22T14:44:24Z</time></trkpt><trkpt lat="45.61841513210339" lon="-0.03178140338454084"><ele>32.0</ele><time>2026-03-22T14:44:25Z</time></trkpt><trkpt lat="45.61862525901528" lon="-0.031655302999731176"><ele>32.0</ele><time>2026-03-22T14:44:26Z</time></trkpt><trkpt lat="45.61884120679783" lon="-0.031527078334458475"><ele>31.0</ele><time>2026-03-22T14:44:27Z</time></trkpt><trkpt lat="45.619061692419855" lon="-0.03142248317711463"><ele>30.0</ele><time>2026-03-22T14:44:28Z</time></trkpt><trkpt lat="45.619262730568614" lon="-0.03130785806350887"><ele>29.0</ele><time>2026-03-22T14:44:29Z</time></trkpt><trkpt lat="45.61941273857605" lon="-0.031240319437633408"><ele>31.333333333333332</ele><time>2026-03-22T14:44:30Z</time></trkpt><trkpt lat="45.61957464083751" lon="-0.03113445193329691"><ele>33.666666666666664</ele><time>2026-03-22T14:44:31Z</time></trkpt><trkpt lat="45.6197252894361" lon="-0.031060300028451962"><ele>36.0</ele><time>2026-03-22T14:44:32Z</time></trkpt><trkpt lat="45.619888711644585" lon="-0.03099798712170551"><ele>36.0</ele><time>2026-03-22T14:44:33Z</time></trkpt><trkpt lat="45.62005884042932" lon="-0.030895054914449004"><ele>36.0</ele><time>2026-03-22T14:44:34Z</time></trkpt><trkpt lat="45.62023839901616" lon="-0.0308048980670155"><ele>36.0</ele><time>2026-03-22T14:44:35Z</time></trkpt><trkpt lat="45.62040510885973" lon="-0.030719090899287187"><ele>33.666666666666664</ele><time>2026-03-22T14:44:36Z</time></trkpt><trkpt lat="45.62055499451422" lon="-0.030626662000562573"><ele>31.333333333333332</ele><time>2026-03-22T14:44:37Z</time></trkpt><trkpt lat="45.62071691279593" lon="-0.030519755392875214"><ele>29.0</ele><time>2026-03-22T14:44:38Z</time></trkpt><trkpt lat="45.62086107770736" lon="-0.030415404622078288"><ele>29.0</ele><time>2026-03-22T14:44:39Z</time></trkpt><trkpt lat="45.62101092238577" lon="-0.03028669179479202"><ele>29.0</ele><time>2026-03-22T14:44:40Z</time></trkpt><trkpt lat="45.621160935286056" lon="-0.030162313607193156"><ele>29.0</ele><time>2026-03-22T14:44:41Z</time></trkpt><trkpt lat="45.62129910016719" lon="-0.030048312757259617"><ele>28.333333333333332</ele><time>2026-03-22T14:44:42Z</time></trkpt><trkpt lat="45.62144374039294" lon="-0.029925734800368278"><ele>27.666666666666664</ele><time>2026-03-22T14:44:43Z</time></trkpt><trkpt lat="45.621575055259385" lon="-0.029815687932974125"><ele>27.0</ele><time>2026-03-22T14:44:44Z</time></trkpt><trkpt lat="45.62171084164935" lon="-0.02970459701583975"><ele>27.0</ele><time>2026-03-22T14:44:45Z</time></trkpt><trkpt lat="45.62185559093403" lon="-0.029588919664093046"><ele>27.0</ele><time>2026-03-22T14:44:46Z</time></trkpt><trkpt lat="45.622000102481614" lon="-0.02947405954346083"><ele>27.0</ele><time>2026-03-22T14:44:47Z</time></trkpt><trkpt lat="45.62213058372933" lon="-0.029367653809954333"><ele>26.333333333333336</ele><time>2026-03-22T14:44:48Z</time></trkpt><trkpt lat="45.622265263165296" lon="-0.029256141527926532"><ele>25.666666666666668</ele><time>2026-03-22T14:44:49Z</time></trkpt><trkpt lat="45.62240114303695" lon="-0.029146724928946693"><ele>25.0</ele><time>2026-03-22T14:44:50Z</time></trkpt><trkpt lat="45.62254972409999" lon="-0.02902791829414904"><ele>25.0</ele><time>2026-03-22T14:44:51Z</time></trkpt><trkpt lat="45.622679635615626" lon="-0.02892403990837141"><ele>25.0</ele><time>2026-03-22T14:44:52Z</time></trkpt><trkpt lat="45.62280500097" lon="-0.028825081298858208"><ele>25.0</ele><time>2026-03-22T14:44:53Z</time></trkpt><trkpt lat="45.62292000681922" lon="-0.028734657288307007"><ele>25.0</ele><time>2026-03-22T14:44:54Z</time></trkpt><trkpt lat="45.6230318934714" lon="-0.028645665014539155"><ele>25.166666666666668</ele><time>2026-03-22T14:44:55Z</time></trkpt><trkpt lat="45.62312682990702" lon="-0.028568887186347498"><ele>25.333333333333336</ele><time>2026-03-22T14:44:56Z</time></trkpt><trkpt lat="45.62319696075042" lon="-0.028512170679506753"><ele>25.5</ele><time>2026-03-22T14:44:57Z</time></trkpt><trkpt lat="45.62325183910547" lon="-0.02845563919613491"><ele>25.666666666666664</ele><time>2026-03-22T14:44:58Z</time></trkpt><trkpt lat="45.62331356570911" lon="-0.028355301527977102"><ele>25.833333333333332</ele><time>2026-03-22T14:45:00Z</time></trkpt><trkpt lat="45.62331062063375" lon="-0.028252020866217826"><ele>26.0</ele><time>2026-03-22T14:45:03Z</time></trkpt><trkpt lat="45.62324572106062" lon="-0.028274131838874925"><ele>25.25</ele><time>2026-03-22T14:45:04Z</time></trkpt><trkpt lat="45.62317929610833" lon="-0.028187556393077875"><ele>24.5</ele><time>2026-03-22T14:45:05Z</time></trkpt><trkpt lat="45.62310725706937" lon="-0.028097845283566954"><ele>23.75</ele><time>2026-03-22T14:45:06Z</time></trkpt><trkpt lat="45.622997977578045" lon="-0.02796367833851233"><ele>23.0</ele><time>2026-03-22T14:45:07Z</time></trkpt><trkpt lat="45.622900721527586" lon="-0.02784487499515293"><ele>23.0</ele><time>2026-03-22T14:45:08Z</time></trkpt><trkpt lat="45.62276693609231" lon="-0.02768195427232464"><ele>23.0</ele><time>2026-03-22T14:45:09Z</time></trkpt><trkpt lat="45.62262901235213" lon="-0.02751431296028601"><ele>23.0</ele><time>2026-03-22T14:45:10Z</time></trkpt><trkpt lat="45.62251274401173" lon="-0.027349433211785148"><ele>22.75</ele><time>2026-03-22T14:45:11Z</time></trkpt><trkpt lat="45.622431422011985" lon="-0.02725502547929102"><ele>22.5</ele><time>2026-03-22T14:45:12Z</time></trkpt><trkpt lat="45.62236842632228" lon="-0.027151448153987248"><ele>22.25</ele><time>2026-03-22T14:45:13Z</time></trkpt><trkpt lat="45.62233235309217" lon="-0.026962407339277114"><ele>22.0</ele><time>2026-03-22T14:45:14Z</time></trkpt><trkpt lat="45.62232325498896" lon="-0.026757996446884737"><ele>22.666666666666664</ele><time>2026-03-22T14:45:15Z</time></trkpt><trkpt lat="45.62235843049876" lon="-0.02655289425404969"><ele>23.333333333333332</ele><time>2026-03-22T14:45:16Z</time></trkpt><trkpt lat="45.62238353714154" lon="-0.026308058915686112"><ele>24.0</ele><time>2026-03-22T14:45:17Z</time></trkpt><trkpt lat="45.62239145457861" lon="-0.02598894526174361"><ele>24.0</ele><time>2026-03-22T14:45:18Z</time></trkpt><trkpt lat="45.6224105090265" lon="-0.02571537646735757"><ele>24.0</ele><time>2026-03-22T14:45:19Z</time></trkpt><trkpt lat="45.622395589722515" lon="-0.025491738825750933"><ele>24.0</ele><time>2026-03-22T14:45:20Z</time></trkpt><trkpt lat="45.622423457905946" lon="-0.02527766541418666"><ele>24.0</ele><time>2026-03-22T14:45:21Z</time></trkpt><trkpt lat="45.62247516717272" lon="-0.025032585020600386"><ele>24.0</ele><time>2026-03-22T14:45:22Z</time></trkpt><trkpt lat="45.62254309204751" lon="-0.02480713235133551"><ele>24.0</ele><time>2026-03-22T14:45:23Z</time></trkpt><trkpt lat="45.622595854315485" lon="-0.024623597787820736"><ele>23.25</ele><time>2026-03-22T14:45:24Z</time></trkpt><trkpt lat="45.62265332707223" lon="-0.024426018405372025"><ele>22.5</ele><time>2026-03-22T14:45:25Z</time></trkpt><trkpt lat="45.622706596013124" lon="-0.02424193503613969"><ele>21.75</ele><time>2026-03-22T14:45:26Z</time></trkpt><trkpt lat="45.622747107248465" lon="-0.024097066827015703"><ele>21.0</ele><time>2026-03-22T14:45:27Z</time></trkpt><trkpt lat="45.62278864957717" lon="-0.023945320221298097"><ele>21.25</ele><time>2026-03-22T14:45:28Z</time></trkpt><trkpt lat="45.622822633894764" lon="-0.023816087526526617"><ele>21.5</ele><time>2026-03-22T14:45:29Z</time></trkpt><trkpt lat="45.62284589457232" lon="-0.023669280030926134"><ele>21.75</ele><time>2026-03-22T14:45:31Z</time></trkpt><trkpt lat="45.6229848034011" lon="-0.02372619846094782"><ele>22.0</ele><time>2026-03-22T14:45:34Z</time></trkpt><trkpt lat="45.623019132786155" lon="-0.02386616702301562"><ele>22.0</ele><time>2026-03-22T14:45:36Z</time></trkpt><trkpt lat="45.623051601129816" lon="-0.0239504098796559"><ele>22.0</ele><time>2026-03-22T14:45:37Z</time></trkpt><trkpt lat="45.623104747546506" lon="-0.02411304236430155"><ele>22.0</ele><time>2026-03-22T14:45:39Z</time></trkpt><trkpt lat="45.623149548612766" lon="-0.024235503546288686"><ele>22.0</ele><time>2026-03-22T14:45:41Z</time></trkpt><trkpt lat="45.62320832803424" lon="-0.024315931763016965"><ele>22.0</ele><time>2026-03-22T14:45:43Z</time></trkpt><trkpt lat="45.62328878244631" lon="-0.024299856498800346"><ele>22.0</ele><time>2026-03-22T14:45:45Z</time></trkpt><trkpt lat="45.62331390964791" lon="-0.0241829683585742"><ele>22.0</ele><time>2026-03-22T14:45:48Z</time></trkpt><trkpt lat="45.62333007921799" lon="-0.024074669541888524"><ele>22.0</ele><time>2026-03-22T14:45:50Z</time></trkpt><trkpt lat="45.62337878327623" lon="-0.023939360607918753"><ele>22.0</ele><time>2026-03-22T14:45:52Z</time></trkpt><trkpt lat="45.62343380128987" lon="-0.023782022034485782"><ele>22.0</ele><time>2026-03-22T14:45:54Z</time></trkpt><trkpt lat="45.62348163521607" lon="-0.023632452590686956"><ele>22.0</ele><time>2026-03-22T14:45:56Z</time></trkpt><trkpt lat="45.623519223372554" lon="-0.023489224796341888"><ele>22.0</ele><time>2026-03-22T14:45:58Z</time></trkpt><trkpt lat="45.62355486194392" lon="-0.023347853873185474"><ele>22.0</ele><time>2026-03-22T14:46:00Z</time></trkpt><trkpt lat="45.62358970216936" lon="-0.023209649807234823"><ele>22.0</ele><time>2026-03-22T14:46:02Z</time></trkpt><trkpt lat="45.62362394292554" lon="-0.023067268699794172"><ele>22.0</ele><time>2026-03-22T14:46:04Z</time></trkpt><trkpt lat="45.62366352425015" lon="-0.022936290780405377"><ele>22.0</ele><time>2026-03-22T14:46:06Z</time></trkpt><trkpt lat="45.62370993200855" lon="-0.022813489935524248"><ele>22.0</ele><time>2026-03-22T14:46:08Z</time></trkpt><trkpt lat="45.62379343619789" lon="-0.022691525600462066"><ele>22.0</ele><time>2026-03-22T14:46:10Z</time></trkpt><trkpt lat="45.62387937908864" lon="-0.02258403661314462"><ele>22.0</ele><time>2026-03-22T14:46:12Z</time></trkpt><trkpt lat="45.62398045168724" lon="-0.02250422416906639"><ele>22.0</ele><time>2026-03-22T14:46:14Z</time></trkpt><trkpt lat="45.62406104533377" lon="-0.022481833996895583"><ele>22.0</ele><time>2026-03-22T14:46:16Z</time></trkpt><trkpt lat="45.62416012234393" lon="-0.022473924148295747"><ele>22.0</ele><time>2026-03-22T14:46:18Z</time></trkpt><trkpt lat="45.62424831499608" lon="-0.022454684933804318"><ele>22.0</ele><time>2026-03-22T14:46:20Z</time></trkpt><trkpt lat="45.62436379409658" lon="-0.022489249239982755"><ele>22.0</ele><time>2026-03-22T14:46:22Z</time></trkpt><trkpt lat="45.624463131159416" lon="-0.02255465135697717"><ele>22.0</ele><time>2026-03-22T14:46:24Z</time></trkpt><trkpt lat="45.624549032416084" lon="-0.02266396478575899"><ele>21.6</ele><time>2026-03-22T14:46:26Z</time></trkpt><trkpt lat="45.62463941689182" lon="-0.022764992542202288"><ele>21.200000000000003</ele><time>2026-03-22T14:46:28Z</time></trkpt><trkpt lat="45.62470468278387" lon="-0.02289424494108436"><ele>20.8</ele><time>2026-03-22T14:46:30Z</time></trkpt><trkpt lat="45.62477355660811" lon="-0.023005420891035796"><ele>20.4</ele><time>2026-03-22T14:46:32Z</time></trkpt><trkpt lat="45.624850830576406" lon="-0.023114948182041063"><ele>20.0</ele><time>2026-03-22T14:46:34Z</time></trkpt><trkpt lat="45.62491130076339" lon="-0.023228684265998605"><ele>20.2</ele><time>2026-03-22T14:46:36Z</time></trkpt><trkpt lat="45.62497897199591" lon="-0.023344283499847115"><ele>20.4</ele><time>2026-03-22T14:46:38Z</time></trkpt><trkpt lat="45.625063479906046" lon="-0.023437912241399347"><ele>20.6</ele><time>2026-03-22T14:46:40Z</time></trkpt><trkpt lat="45.62513856553613" lon="-0.023542695964351816"><ele>20.8</ele><time>2026-03-22T14:46:42Z</time></trkpt><trkpt lat="45.62523869876634" lon="-0.023606387095780272"><ele>21.0</ele><time>2026-03-22T14:46:44Z</time></trkpt><trkpt lat="45.625354196677634" lon="-0.023606091574533583"><ele>21.0</ele><time>2026-03-22T14:46:46Z</time></trkpt><trkpt lat="45.62543849444458" lon="-0.023536526783728796"><ele>21.0</ele><time>2026-03-22T14:46:48Z</time></trkpt><trkpt lat="45.62552024475943" lon="-0.02347433236878984"><ele>21.0</ele><time>2026-03-22T14:46:50.001Z</time></trkpt><trkpt lat="45.62560763568076" lon="-0.02340191298546629"><ele>21.0</ele><time>2026-03-22T14:46:52.001Z</time></trkpt><trkpt lat="45.62568540480732" lon="-0.0233380651031017"><ele>21.0</ele><time>2026-03-22T14:46:54.001Z</time></trkpt><trkpt lat="45.62576975462065" lon="-0.023277654790933387"><ele>21.0</ele><time>2026-03-22T14:46:56.001Z</time></trkpt><trkpt lat="45.625849275270134" lon="-0.023230649640805547"><ele>21.0</ele><time>2026-03-22T14:46:58.001Z</time></trkpt><trkpt lat="45.62595165666951" lon="-0.023180964851440947"><ele>21.0</ele><time>2026-03-22T14:47:00Z</time></trkpt><trkpt lat="45.626036491371636" lon="-0.02315092817596779"><ele>21.0</ele><time>2026-03-22T14:47:02Z</time></trkpt><trkpt lat="45.626127604316245" lon="-0.023136495902637833"><ele>21.0</ele><time>2026-03-22T14:47:04Z</time></trkpt><trkpt lat="45.62619960514248" lon="-0.023085534451766865"><ele>21.0</ele><time>2026-03-22T14:47:06Z</time></trkpt><trkpt lat="45.626292108252876" lon="-0.023032587149908787"><ele>21.0</ele><time>2026-03-22T14:47:08Z</time></trkpt><trkpt lat="45.62635778653296" lon="-0.022986919746069076"><ele>21.0</ele><time>2026-03-22T14:47:10Z</time></trkpt><trkpt lat="45.62643060811257" lon="-0.02293291948809634"><ele>21.0</ele><time>2026-03-22T14:47:12Z</time></trkpt><trkpt lat="45.62650858106527" lon="-0.022856403616804365"><ele>21.0</ele><time>2026-03-22T14:47:15Z</time></trkpt><trkpt lat="45.626554723266565" lon="-0.022782634751557226"><ele>21.0</ele><time>2026-03-22T14:47:17Z</time></trkpt><trkpt lat="45.62659422670704" lon="-0.022699051440658303"><ele>21.0</ele><time>2026-03-22T14:47:19Z</time></trkpt><trkpt lat="45.62663768316045" lon="-0.022594566921169332"><ele>21.0</ele><time>2026-03-22T14:47:21Z</time></trkpt><trkpt lat="45.62669499420358" lon="-0.02250074018566433"><ele>21.0</ele><time>2026-03-22T14:47:23Z</time></trkpt><trkpt lat="45.626751793991346" lon="-0.022403428780196733"><ele>21.0</ele><time>2026-03-22T14:47:25Z</time></trkpt><trkpt lat="45.626817718976135" lon="-0.022312403418808673"><ele>21.0</ele><time>2026-03-22T14:47:28Z</time></trkpt><trkpt lat="45.626762476835644" lon="-0.022385479482819336"><ele>21.0</ele><time>2026-03-22T14:47:35Z</time></trkpt><trkpt lat="45.62672083970763" lon="-0.022456459974568046"><ele>21.0</ele><time>2026-03-22T14:47:37Z</time></trkpt><trkpt lat="45.62665969357018" lon="-0.02256118887538726"><ele>21.0</ele><time>2026-03-22T14:47:40Z</time></trkpt><trkpt lat="45.62660670374632" lon="-0.022669051618914252"><ele>21.0</ele><time>2026-03-22T14:47:43Z</time></trkpt><trkpt lat="45.626561850181524" lon="-0.02276872607981358"><ele>21.0</ele><time>2026-03-22T14:47:46Z</time></trkpt><trkpt lat="45.62650791622232" lon="-0.022853630827271546"><ele>21.0</ele><time>2026-03-22T14:47:49Z</time></trkpt><trkpt lat="45.62647982702248" lon="-0.022936176006545867"><ele>21.0</ele><time>2026-03-22T14:47:51Z</time></trkpt><trkpt lat="45.626435054516996" lon="-0.023000402955617387"><ele>21.0</ele><time>2026-03-22T14:47:53Z</time></trkpt><trkpt lat="45.6263434166572" lon="-0.023069786797794246"><ele>21.0</ele><time>2026-03-22T14:47:56Z</time></trkpt><trkpt lat="45.62628256394856" lon="-0.023106603660837364"><ele>21.0</ele><time>2026-03-22T14:47:58Z</time></trkpt><trkpt lat="45.62621520344371" lon="-0.023147919459298345"><ele>21.0</ele><time>2026-03-22T14:48:00Z</time></trkpt><trkpt lat="45.62614121871805" lon="-0.02318397210561"><ele>21.0</ele><time>2026-03-22T14:48:02Z</time></trkpt><trkpt lat="45.6260640400071" lon="-0.02321146685963465"><ele>21.0</ele><time>2026-03-22T14:48:05Z</time></trkpt><trkpt lat="45.62599746504094" lon="-0.023236410230629313"><ele>20.0</ele><time>2026-03-22T14:48:07Z</time></trkpt><trkpt lat="45.62592661612151" lon="-0.023293507138898058"><ele>20.0</ele><time>2026-03-22T14:48:10Z</time></trkpt><trkpt lat="45.625855155597165" lon="-0.02332655832832008"><ele>21.0</ele><time>2026-03-22T14:48:13Z</time></trkpt></trkseg><trkseg><trkpt lat="45.6256900282746" lon="-0.02340207592731522"><ele>21.0</ele><time>2026-03-22T14:59:22.001Z</time></trkpt><trkpt lat="45.62560557926318" lon="-0.023466775763269426"><ele>21.0</ele><time>2026-03-22T14:59:24.001Z</time></trkpt><trkpt lat="45.625523135012756" lon="-0.023525006916603218"><ele>21.0</ele><time>2026-03-22T14:59:26.001Z</time></trkpt><trkpt lat="45.625446642816904" lon="-0.023579390419894913"><ele>21.0</ele><time>2026-03-22T14:59:28.001Z</time></trkpt><trkpt lat="45.625378998373975" lon="-0.023609292936109017"><ele>21.0</ele><time>2026-03-22T14:59:30.001Z</time></trkpt><trkpt lat="45.625283539843025" lon="-0.023647423421219903"><ele>21.0</ele><time>2026-03-22T14:59:32Z</time></trkpt><trkpt lat="45.625193897321246" lon="-0.023631150219066442"><ele>21.0</ele><time>2026-03-22T14:59:34Z</time></trkpt><trkpt lat="45.625096627072544" lon="-0.023556667004830355"><ele>21.0</ele><time>2026-03-22T14:59:36Z</time></trkpt><trkpt lat="45.62502360314985" lon="-0.02344885564740582"><ele>21.0</ele><time>2026-03-22T14:59:38Z</time></trkpt><trkpt lat="45.62496478745018" lon="-0.02332756434692906"><ele>21.0</ele><time>2026-03-22T14:59:40Z</time></trkpt><trkpt lat="45.62488093578922" lon="-0.023219941117380027"><ele>21.0</ele><time>2026-03-22T14:59:42Z</time></trkpt><trkpt lat="45.624850434988396" lon="-0.023134826382288014"><ele>20.8</ele><time>2026-03-22T14:59:43Z</time></trkpt><trkpt lat="45.62478158924941" lon="-0.02301797373795246"><ele>20.6</ele><time>2026-03-22T14:59:45Z</time></trkpt><trkpt lat="45.62471903190589" lon="-0.022940939251915624"><ele>20.4</ele><time>2026-03-22T14:59:47Z</time></trkpt><trkpt lat="45.62464353547615" lon="-0.02284338715712196"><ele>20.2</ele><time>2026-03-22T14:59:49Z</time></trkpt><trkpt lat="45.62458532897374" lon="-0.022725155743532142"><ele>20.0</ele><time>2026-03-22T14:59:51Z</time></trkpt><trkpt lat="45.624493962238525" lon="-0.022631078407903477"><ele>20.333333333333336</ele><time>2026-03-22T14:59:53Z</time></trkpt><trkpt lat="45.624408928308405" lon="-0.022559745421829893"><ele>20.666666666666668</ele><time>2026-03-22T14:59:55Z</time></trkpt><trkpt lat="45.624328244857296" lon="-0.022509126654556406"><ele>21.0</ele><time>2026-03-22T14:59:57Z</time></trkpt><trkpt lat="45.6242479812166" lon="-0.02249757276355462"><ele>21.333333333333332</ele><time>2026-03-22T14:59:59Z</time></trkpt><trkpt lat="45.62417352249255" lon="-0.02249834728199589"><ele>21.666666666666664</ele><time>2026-03-22T15:00:01Z</time></trkpt><trkpt lat="45.62409004819558" lon="-0.022498884237296485"><ele>22.0</ele><time>2026-03-22T15:00:03Z</time></trkpt><trkpt lat="45.624021704640164" lon="-0.02252396882628187"><ele>22.0</ele><time>2026-03-22T15:00:05Z</time></trkpt><trkpt lat="45.62396225057702" lon="-0.022575025459719424"><ele>22.0</ele><time>2026-03-22T15:00:07Z</time></trkpt><trkpt lat="45.62387756114221" lon="-0.022661733438874503"><ele>22.0</ele><time>2026-03-22T15:00:09Z</time></trkpt><trkpt lat="45.62379583049841" lon="-0.022740756614459144"><ele>22.0</ele><time>2026-03-22T15:00:11Z</time></trkpt><trkpt lat="45.6237342257208" lon="-0.022854339107852104"><ele>22.0</ele><time>2026-03-22T15:00:13Z</time></trkpt><trkpt lat="45.62369294191124" lon="-0.022950673132571937"><ele>22.0</ele><time>2026-03-22T15:00:15Z</time></trkpt><trkpt lat="45.623663374632855" lon="-0.023056728590329124"><ele>22.0</ele><time>2026-03-22T15:00:17Z</time></trkpt><trkpt lat="45.62363309528877" lon="-0.02317783772452377"><ele>22.0</ele><time>2026-03-22T15:00:19Z</time></trkpt><trkpt lat="45.623605035026635" lon="-0.02328914682614978"><ele>22.0</ele><time>2026-03-22T15:00:21Z</time></trkpt><trkpt lat="45.62356415125885" lon="-0.023417182885479698"><ele>22.0</ele><time>2026-03-22T15:00:23Z</time></trkpt><trkpt lat="45.62353180589915" lon="-0.023516473591574723"><ele>22.0</ele><time>2026-03-22T15:00:25Z</time></trkpt><trkpt lat="45.623497705370255" lon="-0.023658739839741677"><ele>22.0</ele><time>2026-03-22T15:00:27Z</time></trkpt><trkpt lat="45.623466535575325" lon="-0.023762688553785768"><ele>22.0</ele><time>2026-03-22T15:00:29Z</time></trkpt><trkpt lat="45.62342948809563" lon="-0.02387353271299652"><ele>22.0</ele><time>2026-03-22T15:00:31Z</time></trkpt><trkpt lat="45.62338258743673" lon="-0.02399497471645784"><ele>22.0</ele><time>2026-03-22T15:00:33Z</time></trkpt><trkpt lat="45.623334110129555" lon="-0.02412922195635272"><ele>22.0</ele><time>2026-03-22T15:00:35Z</time></trkpt><trkpt lat="45.62329610733876" lon="-0.024242332896139453"><ele>22.0</ele><time>2026-03-22T15:00:37Z</time></trkpt><trkpt lat="45.62325953092261" lon="-0.024338388392039775"><ele>22.0</ele><time>2026-03-22T15:00:39Z</time></trkpt><trkpt lat="45.62318790289858" lon="-0.024356567268425097"><ele>22.0</ele><time>2026-03-22T15:00:41Z</time></trkpt><trkpt lat="45.623132237467864" lon="-0.024277087047430892"><ele>22.0</ele><time>2026-03-22T15:00:43Z</time></trkpt><trkpt lat="45.62309134561867" lon="-0.02417744204035985"><ele>22.0</ele><time>2026-03-22T15:00:45Z</time></trkpt><trkpt lat="45.623054284981535" lon="-0.0240480312239568"><ele>22.0</ele><time>2026-03-22T15:00:47Z</time></trkpt><trkpt lat="45.62302614681882" lon="-0.02393510163058494"><ele>22.0</ele><time>2026-03-22T15:00:49Z</time></trkpt><trkpt lat="45.62298955114814" lon="-0.023823534377219173"><ele>22.0</ele><time>2026-03-22T15:00:51Z</time></trkpt><trkpt lat="45.622956103726146" lon="-0.023709200756812043"><ele>22.0</ele><time>2026-03-22T15:00:53Z</time></trkpt><trkpt lat="45.62289270585185" lon="-0.023667781411863417"><ele>22.0</ele><time>2026-03-22T15:00:56Z</time></trkpt><trkpt lat="45.622868395376116" lon="-0.023760845481708436"><ele>22.0</ele><time>2026-03-22T15:00:57Z</time></trkpt><trkpt lat="45.62285749509754" lon="-0.023919491935822157"><ele>22.0</ele><time>2026-03-22T15:00:59Z</time></trkpt><trkpt lat="45.622812189298145" lon="-0.023985980393389356"><ele>21.8</ele><time>2026-03-22T15:01:00Z</time></trkpt><trkpt lat="45.6227731271333" lon="-0.024160071364203988"><ele>21.6</ele><time>2026-03-22T15:01:02Z</time></trkpt><trkpt lat="45.622749791686736" lon="-0.024253460953858757"><ele>21.400000000000002</ele><time>2026-03-22T15:01:03Z</time></trkpt><trkpt lat="45.62270049024653" lon="-0.024411961490337423"><ele>21.200000000000003</ele><time>2026-03-22T15:01:05Z</time></trkpt><trkpt lat="45.62265126370637" lon="-0.02457692344401312"><ele>21.0</ele><time>2026-03-22T15:01:07Z</time></trkpt><trkpt lat="45.62262504564453" lon="-0.02466127895960361"><ele>21.0</ele><time>2026-03-22T15:01:08Z</time></trkpt><trkpt lat="45.622600404607915" lon="-0.02474778299006131"><ele>21.0</ele><time>2026-03-22T15:01:09Z</time></trkpt><trkpt lat="45.622576014187025" lon="-0.02483197565353871"><ele>21.0</ele><time>2026-03-22T15:01:10Z</time></trkpt><trkpt lat="45.6225509288865" lon="-0.02491510867834064"><ele>21.0</ele><time>2026-03-22T15:01:11Z</time></trkpt><trkpt lat="45.62252699418441" lon="-0.02500134826639371"><ele>21.0</ele><time>2026-03-22T15:01:12Z</time></trkpt><trkpt lat="45.622485711376655" lon="-0.025162802873446473"><ele>21.0</ele><time>2026-03-22T15:01:14Z</time></trkpt><trkpt lat="45.62245530231507" lon="-0.02533584202786001"><ele>21.6</ele><time>2026-03-22T15:01:16Z</time></trkpt><trkpt lat="45.62243365470909" lon="-0.025510140707871838"><ele>22.200000000000003</ele><time>2026-03-22T15:01:18Z</time></trkpt><trkpt lat="45.62241796323609" lon="-0.025685778141131557"><ele>22.799999999999997</ele><time>2026-03-22T15:01:20Z</time></trkpt><trkpt lat="45.62241119554367" lon="-0.02578130559450912"><ele>23.4</ele><time>2026-03-22T15:01:21Z</time></trkpt><trkpt lat="45.62240341405441" lon="-0.02587888094263978"><ele>24.0</ele><time>2026-03-22T15:01:22Z</time></trkpt><trkpt lat="45.622397875496915" lon="-0.025978960399134596"><ele>24.0</ele><time>2026-03-22T15:01:23Z</time></trkpt><trkpt lat="45.62239064281842" lon="-0.026080667123477334"><ele>24.0</ele><time>2026-03-22T15:01:24Z</time></trkpt><trkpt lat="45.622382917232926" lon="-0.026200747577380376"><ele>24.0</ele><time>2026-03-22T15:01:25Z</time></trkpt><trkpt lat="45.62237455545238" lon="-0.026296777332118906"><ele>24.0</ele><time>2026-03-22T15:01:26Z</time></trkpt><trkpt lat="45.62237078150985" lon="-0.02641363335612344"><ele>24.0</ele><time>2026-03-22T15:01:27Z</time></trkpt><trkpt lat="45.62236782475894" lon="-0.026543372761962572"><ele>24.0</ele><time>2026-03-22T15:01:28Z</time></trkpt><trkpt lat="45.62235981117022" lon="-0.026680304083191025"><ele>23.6</ele><time>2026-03-22T15:01:29Z</time></trkpt><trkpt lat="45.62235134161237" lon="-0.0268122631615326"><ele>23.2</ele><time>2026-03-22T15:01:30Z</time></trkpt><trkpt lat="45.62235511743743" lon="-0.026957441537002313"><ele>22.8</ele><time>2026-03-22T15:01:31Z</time></trkpt><trkpt lat="45.62238183736601" lon="-0.02709468403746709"><ele>22.400000000000002</ele><time>2026-03-22T15:01:32Z</time></trkpt><trkpt lat="45.622438667607625" lon="-0.027230716087799155"><ele>22.0</ele><time>2026-03-22T15:01:33Z</time></trkpt><trkpt lat="45.62251579874746" lon="-0.02735305640392991"><ele>22.0</ele><time>2026-03-22T15:01:34Z</time></trkpt><trkpt lat="45.62262233140732" lon="-0.027444112750264676"><ele>22.0</ele><time>2026-03-22T15:01:35Z</time></trkpt><trkpt lat="45.62270461424298" lon="-0.027566556994884948"><ele>22.0</ele><time>2026-03-22T15:01:36Z</time></trkpt><trkpt lat="45.62279796512205" lon="-0.027656785221621936"><ele>22.0</ele><time>2026-03-22T15:01:37Z</time></trkpt><trkpt lat="45.62288395892589" lon="-0.027783507929464206"><ele>22.200000000000003</ele><time>2026-03-22T15:01:38Z</time></trkpt><trkpt lat="45.62297132118761" lon="-0.027876030151889327"><ele>22.4</ele><time>2026-03-22T15:01:39Z</time></trkpt><trkpt lat="45.62305743690695" lon="-0.027980535388120197"><ele>22.6</ele><time>2026-03-22T15:01:40Z</time></trkpt><trkpt lat="45.623134672193174" lon="-0.0280738814328555"><ele>22.799999999999997</ele><time>2026-03-22T15:01:41Z</time></trkpt><trkpt lat="45.62320476535481" lon="-0.02816532236840737"><ele>23.0</ele><time>2026-03-22T15:01:42Z</time></trkpt><trkpt lat="45.62326816616374" lon="-0.028253822395975653"><ele>23.599999999999998</ele><time>2026-03-22T15:01:43Z</time></trkpt><trkpt lat="45.62333962975217" lon="-0.02834168689827653"><ele>24.2</ele><time>2026-03-22T15:01:45Z</time></trkpt><trkpt lat="45.623280206450644" lon="-0.02849205133940802"><ele>24.8</ele><time>2026-03-22T15:01:47Z</time></trkpt><trkpt lat="45.62319154302036" lon="-0.02858301598489179"><ele>25.4</ele><time>2026-03-22T15:01:49Z</time></trkpt><trkpt lat="45.62311582134606" lon="-0.028635464471365207"><ele>26.0</ele><time>2026-03-22T15:01:50Z</time></trkpt><trkpt lat="45.623053611749334" lon="-0.028705279732212558"><ele>26.0</ele><time>2026-03-22T15:01:51Z</time></trkpt><trkpt lat="45.622970364097036" lon="-0.028779167245240028"><ele>26.0</ele><time>2026-03-22T15:01:52Z</time></trkpt><trkpt lat="45.62288796125871" lon="-0.028843236929033688"><ele>26.0</ele><time>2026-03-22T15:01:53Z</time></trkpt><trkpt lat="45.6227838031153" lon="-0.028907737489448134"><ele>26.0</ele><time>2026-03-22T15:01:54Z</time></trkpt><trkpt lat="45.622687241022255" lon="-0.028984168170437204"><ele>26.0</ele><time>2026-03-22T15:01:55Z</time></trkpt><trkpt lat="45.62258267861941" lon="-0.029086937233715606"><ele>27.25</ele><time>2026-03-22T15:01:56Z</time></trkpt><trkpt lat="45.62245381601223" lon="-0.029172398191193053"><ele>28.5</ele><time>2026-03-22T15:01:57Z</time></trkpt><trkpt lat="45.62233389808711" lon="-0.02927499632537115"><ele>29.75</ele><time>2026-03-22T15:01:58Z</time></trkpt><trkpt lat="45.622225991095235" lon="-0.02938884746098164"><ele>31.0</ele><time>2026-03-22T15:01:59Z</time></trkpt><trkpt lat="45.62208783441992" lon="-0.029473838041114996"><ele>29.666666666666668</ele><time>2026-03-22T15:02:00Z</time></trkpt><trkpt lat="45.6219556835346" lon="-0.029577031103020398"><ele>28.333333333333336</ele><time>2026-03-22T15:02:01Z</time></trkpt><trkpt lat="45.62182702399715" lon="-0.029691031707866144"><ele>27.0</ele><time>2026-03-22T15:02:02Z</time></trkpt><trkpt lat="45.62168969241539" lon="-0.02980067483881663"><ele>27.0</ele><time>2026-03-22T15:02:03Z</time></trkpt><trkpt lat="45.62155374955523" lon="-0.02992340120264523"><ele>27.0</ele><time>2026-03-22T15:02:04Z</time></trkpt><trkpt lat="45.62140592222362" lon="-0.030038166969368365"><ele>27.0</ele><time>2026-03-22T15:02:05Z</time></trkpt><trkpt lat="45.62125540394708" lon="-0.03014675109465422"><ele>27.666666666666664</ele><time>2026-03-22T15:02:06Z</time></trkpt><trkpt lat="45.62110316268465" lon="-0.03030638602988281"><ele>28.333333333333332</ele><time>2026-03-22T15:02:07Z</time></trkpt><trkpt lat="45.62096065587537" lon="-0.030413729365398774"><ele>29.0</ele><time>2026-03-22T15:02:08Z</time></trkpt><trkpt lat="45.620803025222145" lon="-0.030559047026041203"><ele>29.0</ele><time>2026-03-22T15:02:09Z</time></trkpt><trkpt lat="45.620635270180884" lon="-0.03067000661330739"><ele>29.0</ele><time>2026-03-22T15:02:10Z</time></trkpt><trkpt lat="45.62047674164147" lon="-0.030769262831826818"><ele>29.0</ele><time>2026-03-22T15:02:11Z</time></trkpt><trkpt lat="45.62030458762642" lon="-0.030862019680269852"><ele>31.333333333333332</ele><time>2026-03-22T15:02:12Z</time></trkpt><trkpt lat="45.620126443754195" lon="-0.030943064160077968"><ele>33.666666666666664</ele><time>2026-03-22T15:02:13Z</time></trkpt><trkpt lat="45.61993039088687" lon="-0.030987709065603164"><ele>36.0</ele><time>2026-03-22T15:02:14Z</time></trkpt><trkpt lat="45.61975909726536" lon="-0.031077894725282326"><ele>36.0</ele><time>2026-03-22T15:02:15Z</time></trkpt><trkpt lat="45.61960937463228" lon="-0.031165004418108353"><ele>36.0</ele><time>2026-03-22T15:02:16Z</time></trkpt><trkpt lat="45.61928030318948" lon="-0.03132419472213596"><ele>33.666666666666664</ele><time>2026-03-22T15:02:18Z</time></trkpt><trkpt lat="45.619123503601436" lon="-0.03141302226713007"><ele>31.333333333333332</ele><time>2026-03-22T15:02:19Z</time></trkpt><trkpt lat="45.61894922125541" lon="-0.03151383846386812"><ele>29.0</ele><time>2026-03-22T15:02:20Z</time></trkpt><trkpt lat="45.61878839591" lon="-0.03160316332099857"><ele>30.0</ele><time>2026-03-22T15:02:21Z</time></trkpt><trkpt lat="45.61862954790649" lon="-0.03168429623555684"><ele>31.0</ele><time>2026-03-22T15:02:22Z</time></trkpt><trkpt lat="45.618474792708746" lon="-0.03179317477374318"><ele>32.0</ele><time>2026-03-22T15:02:23Z</time></trkpt><trkpt lat="45.6183136489219" lon="-0.031898592454736155"><ele>32.0</ele><time>2026-03-22T15:02:24Z</time></trkpt><trkpt lat="45.61816942065787" lon="-0.03200373559781653"><ele>32.0</ele><time>2026-03-22T15:02:25Z</time></trkpt><trkpt lat="45.61800870841436" lon="-0.03208972874132806"><ele>32.0</ele><time>2026-03-22T15:02:26Z</time></trkpt><trkpt lat="45.617862494850655" lon="-0.032157554193765855"><ele>30.0</ele><time>2026-03-22T15:02:27Z</time></trkpt><trkpt lat="45.617698832301315" lon="-0.032245604626044616"><ele>28.0</ele><time>2026-03-22T15:02:28Z</time></trkpt><trkpt lat="45.61753767764572" lon="-0.032307207182290736"><ele>26.0</ele><time>2026-03-22T15:02:29Z</time></trkpt><trkpt lat="45.61737523873081" lon="-0.03236005892519647"><ele>26.0</ele><time>2026-03-22T15:02:30Z</time></trkpt><trkpt lat="45.617222286660045" lon="-0.032415598068125606"><ele>26.0</ele><time>2026-03-22T15:02:31Z</time></trkpt><trkpt lat="45.617058642632564" lon="-0.03243070014584405"><ele>26.0</ele><time>2026-03-22T15:02:32Z</time></trkpt><trkpt lat="45.61689404802037" lon="-0.03244123914360203"><ele>25.333333333333332</ele><time>2026-03-22T15:02:33Z</time></trkpt><trkpt lat="45.61673189522342" lon="-0.032454843377529595"><ele>24.666666666666664</ele><time>2026-03-22T15:02:34Z</time></trkpt><trkpt lat="45.61656926835438" lon="-0.03246558594484576"><ele>24.0</ele><time>2026-03-22T15:02:35Z</time></trkpt><trkpt lat="45.61640810472835" lon="-0.03248063535710667"><ele>27.0</ele><time>2026-03-22T15:02:36Z</time></trkpt><trkpt lat="45.61624382727044" lon="-0.03250534521014151"><ele>30.0</ele><time>2026-03-22T15:02:37Z</time></trkpt><trkpt lat="45.61608076850957" lon="-0.03252374193790708"><ele>33.0</ele><time>2026-03-22T15:02:38Z</time></trkpt><trkpt lat="45.615917479576225" lon="-0.0325366505042354"><ele>33.0</ele><time>2026-03-22T15:02:39Z</time></trkpt><trkpt lat="45.61575492092419" lon="-0.032559554046321465"><ele>33.0</ele><time>2026-03-22T15:02:40Z</time></trkpt><trkpt lat="45.61559246917093" lon="-0.03259920645250513"><ele>33.0</ele><time>2026-03-22T15:02:41Z</time></trkpt><trkpt lat="45.61543556805897" lon="-0.03264867548998365"><ele>31.666666666666664</ele><time>2026-03-22T15:02:42Z</time></trkpt><trkpt lat="45.61527577726087" lon="-0.03271395222870953"><ele>30.333333333333332</ele><time>2026-03-22T15:02:43Z</time></trkpt><trkpt lat="45.61511659626041" lon="-0.0327903452611786"><ele>29.0</ele><time>2026-03-22T15:02:44Z</time></trkpt><trkpt lat="45.61496054126835" lon="-0.03288457316532207"><ele>29.0</ele><time>2026-03-22T15:02:45Z</time></trkpt><trkpt lat="45.614805554042135" lon="-0.032970013368875575"><ele>29.0</ele><time>2026-03-22T15:02:46Z</time></trkpt><trkpt lat="45.61464928557102" lon="-0.03306024472210999"><ele>29.0</ele><time>2026-03-22T15:02:47Z</time></trkpt><trkpt lat="45.61449925860693" lon="-0.033153291663409794"><ele>31.0</ele><time>2026-03-22T15:02:48Z</time></trkpt><trkpt lat="45.61434679731456" lon="-0.03323982484164479"><ele>33.0</ele><time>2026-03-22T15:02:49Z</time></trkpt><trkpt lat="45.61419804506019" lon="-0.03333055494499035"><ele>35.0</ele><time>2026-03-22T15:02:50Z</time></trkpt><trkpt lat="45.614044657037354" lon="-0.03342819952530687"><ele>35.0</ele><time>2026-03-22T15:02:51Z</time></trkpt><trkpt lat="45.61388786803887" lon="-0.033520139390973876"><ele>35.0</ele><time>2026-03-22T15:02:52Z</time></trkpt><trkpt lat="45.613734002387126" lon="-0.033610931826458676"><ele>35.0</ele><time>2026-03-22T15:02:53Z</time></trkpt><trkpt lat="45.61358708984114" lon="-0.03370606716537004"><ele>31.666666666666664</ele><time>2026-03-22T15:02:54Z</time></trkpt><trkpt lat="45.6134318423066" lon="-0.033798314545181125"><ele>28.333333333333336</ele><time>2026-03-22T15:02:55Z</time></trkpt><trkpt lat="45.613286090864726" lon="-0.03389397559187628"><ele>25.0</ele><time>2026-03-22T15:02:56Z</time></trkpt><trkpt lat="45.613145845577215" lon="-0.033998795348101296"><ele>25.0</ele><time>2026-03-22T15:02:57Z</time></trkpt><trkpt lat="45.613021217659245" lon="-0.034118133144124464"><ele>25.0</ele><time>2026-03-22T15:02:58Z</time></trkpt><trkpt lat="45.612906877347726" lon="-0.03424215927324465"><ele>25.0</ele><time>2026-03-22T15:02:59Z</time></trkpt><trkpt lat="45.6127961106308" lon="-0.03437853909799146"><ele>25.0</ele><time>2026-03-22T15:03:00Z</time></trkpt><trkpt lat="45.61268384687607" lon="-0.034520711862681026"><ele>27.0</ele><time>2026-03-22T15:03:01Z</time></trkpt><trkpt lat="45.61258114643672" lon="-0.03467389106863909"><ele>29.0</ele><time>2026-03-22T15:03:02Z</time></trkpt><trkpt lat="45.61248048029361" lon="-0.03483708098374359"><ele>31.0</ele><time>2026-03-22T15:03:03Z</time></trkpt><trkpt lat="45.6123805461751" lon="-0.03501212747606524"><ele>35.0</ele><time>2026-03-22T15:03:04Z</time></trkpt><trkpt lat="45.61229678504781" lon="-0.035196128701808514"><ele>39.0</ele><time>2026-03-22T15:03:05Z</time></trkpt><trkpt lat="45.612223716474645" lon="-0.03538493162623465"><ele>43.0</ele><time>2026-03-22T15:03:06Z</time></trkpt><trkpt lat="45.61216165463519" lon="-0.03558921799513951"><ele>43.66666666666667</ele><time>2026-03-22T15:03:07Z</time></trkpt><trkpt lat="45.612104554373694" lon="-0.03581386675984601"><ele>44.333333333333336</ele><time>2026-03-22T15:03:08Z</time></trkpt><trkpt lat="45.61205927584144" lon="-0.03603021575620129"><ele>45.0</ele><time>2026-03-22T15:03:09Z</time></trkpt><trkpt lat="45.612003004148754" lon="-0.03624740771383037"><ele>44.666666666666664</ele><time>2026-03-22T15:03:10Z</time></trkpt><trkpt lat="45.611940050120545" lon="-0.03646509472735997"><ele>44.33333333333333</ele><time>2026-03-22T15:03:11Z</time></trkpt><trkpt lat="45.61190728707802" lon="-0.036692390826885336"><ele>44.0</ele><time>2026-03-22T15:03:11.999Z</time></trkpt><trkpt lat="45.61186518594828" lon="-0.03692103433860568"><ele>44.0</ele><time>2026-03-22T15:03:12.999Z</time></trkpt><trkpt lat="45.6118188700487" lon="-0.03715630149734873"><ele>44.0</ele><time>2026-03-22T15:03:13.999Z</time></trkpt><trkpt lat="45.61177169328577" lon="-0.03739358471657194"><ele>44.0</ele><time>2026-03-22T15:03:14.999Z</time></trkpt><trkpt lat="45.61172515517278" lon="-0.03764142500309396"><ele>44.0</ele><time>2026-03-22T15:03:15.999Z</time></trkpt><trkpt lat="45.611671797109295" lon="-0.03789029103155779"><ele>44.0</ele><time>2026-03-22T15:03:16.999Z</time></trkpt><trkpt lat="45.61162294170565" lon="-0.03813993036877699"><ele>44.0</ele><time>2026-03-22T15:03:18Z</time></trkpt><trkpt lat="45.61157312615095" lon="-0.038397273505700366"><ele>43.0</ele><time>2026-03-22T15:03:19Z</time></trkpt><trkpt lat="45.61152091114308" lon="-0.03865926482086987"><ele>42.0</ele><time>2026-03-22T15:03:20Z</time></trkpt><trkpt lat="45.61146782695871" lon="-0.038930902066063734"><ele>41.0</ele><time>2026-03-22T15:03:21Z</time></trkpt><trkpt lat="45.611412129499854" lon="-0.03919831443364518"><ele>40.0</ele><time>2026-03-22T15:03:22Z</time></trkpt><trkpt lat="45.61135594889224" lon="-0.039474957494571965"><ele>39.0</ele><time>2026-03-22T15:03:23Z</time></trkpt><trkpt lat="45.61130128043359" lon="-0.03974871792543971"><ele>38.0</ele><time>2026-03-22T15:03:24Z</time></trkpt><trkpt lat="45.61124573061446" lon="-0.04001799347305028"><ele>38.0</ele><time>2026-03-22T15:03:25Z</time></trkpt><trkpt lat="45.61119251665075" lon="-0.04028752063234564"><ele>38.0</ele><time>2026-03-22T15:03:26Z</time></trkpt><trkpt lat="45.611140806158545" lon="-0.040555877336287044"><ele>38.0</ele><time>2026-03-22T15:03:27Z</time></trkpt><trkpt lat="45.61109239632149" lon="-0.0408247249680945"><ele>36.666666666666664</ele><time>2026-03-22T15:03:28Z</time></trkpt><trkpt lat="45.61104193643179" lon="-0.04108139080854183"><ele>35.333333333333336</ele><time>2026-03-22T15:03:29Z</time></trkpt><trkpt lat="45.61099197155302" lon="-0.041336200278906235"><ele>34.0</ele><time>2026-03-22T15:03:30Z</time></trkpt><trkpt lat="45.61094719126041" lon="-0.04158167026245467"><ele>33.66666666666667</ele><time>2026-03-22T15:03:31Z</time></trkpt><trkpt lat="45.61089929512838" lon="-0.04181991823090391"><ele>33.333333333333336</ele><time>2026-03-22T15:03:32Z</time></trkpt><trkpt lat="45.61085770850521" lon="-0.04205306880615785"><ele>33.0</ele><time>2026-03-22T15:03:33Z</time></trkpt><trkpt lat="45.610815579434295" lon="-0.042286788247600994"><ele>32.666666666666664</ele><time>2026-03-22T15:03:34Z</time></trkpt><trkpt lat="45.61077089906859" lon="-0.0425134144501164"><ele>32.33333333333333</ele><time>2026-03-22T15:03:35Z</time></trkpt><trkpt lat="45.61072559655575" lon="-0.04273668308766682"><ele>32.0</ele><time>2026-03-22T15:03:36Z</time></trkpt><trkpt lat="45.610683798110806" lon="-0.04295369054631671"><ele>32.0</ele><time>2026-03-22T15:03:37Z</time></trkpt><trkpt lat="45.61064205934098" lon="-0.04317031363925746"><ele>32.0</ele><time>2026-03-22T15:03:38Z</time></trkpt><trkpt lat="45.61059466063912" lon="-0.04339055708241384"><ele>32.0</ele><time>2026-03-22T15:03:39Z</time></trkpt><trkpt lat="45.610541328437016" lon="-0.04359609177882714"><ele>32.33333333333333</ele><time>2026-03-22T15:03:40Z</time></trkpt><trkpt lat="45.61047314578959" lon="-0.043805436524895755"><ele>32.666666666666664</ele><time>2026-03-22T15:03:41Z</time></trkpt><trkpt lat="45.61039151458296" lon="-0.04400335284670118"><ele>33.0</ele><time>2026-03-22T15:03:42Z</time></trkpt><trkpt lat="45.610308755901784" lon="-0.04420239432022263"><ele>31.0</ele><time>2026-03-22T15:03:43Z</time></trkpt><trkpt lat="45.610220253801366" lon="-0.04439861823829713"><ele>29.0</ele><time>2026-03-22T15:03:44Z</time></trkpt><trkpt lat="45.610136207378474" lon="-0.044588079820214004"><ele>27.0</ele><time>2026-03-22T15:03:45Z</time></trkpt><trkpt lat="45.610049209864684" lon="-0.04477957685107897"><ele>27.25</ele><time>2026-03-22T15:03:46Z</time></trkpt><trkpt lat="45.60996567568729" lon="-0.04496560864574715"><ele>27.5</ele><time>2026-03-22T15:03:47Z</time></trkpt><trkpt lat="45.60989163991235" lon="-0.04513980309191935"><ele>27.75</ele><time>2026-03-22T15:03:48Z</time></trkpt><trkpt lat="45.609821536316474" lon="-0.045303813291857745"><ele>28.0</ele><time>2026-03-22T15:03:49Z</time></trkpt><trkpt lat="45.609752684029374" lon="-0.04545895755276758"><ele>28.0</ele><time>2026-03-22T15:03:50Z</time></trkpt><trkpt lat="45.60968807171272" lon="-0.04560643100781334"><ele>27.999999999999996</ele><time>2026-03-22T15:03:51Z</time></trkpt><trkpt lat="45.60962575771142" lon="-0.045748842933173"><ele>27.999999999999996</ele><time>2026-03-22T15:03:52Z</time></trkpt><trkpt lat="45.60957144309124" lon="-0.045880759306870085"><ele>28.0</ele><time>2026-03-22T15:03:53Z</time></trkpt><trkpt lat="45.60953259531309" lon="-0.045994363965778585"><ele>28.0</ele><time>2026-03-22T15:03:54Z</time></trkpt><trkpt lat="45.609513423843076" lon="-0.04614437899195504"><ele>28.333333333333336</ele><time>2026-03-22T15:03:56Z</time></trkpt><trkpt lat="45.60952003055579" lon="-0.04628294619108675"><ele>28.666666666666668</ele><time>2026-03-22T15:03:58Z</time></trkpt><trkpt lat="45.609591231337696" lon="-0.046370055553027575"><ele>29.0</ele><time>2026-03-22T15:04:00Z</time></trkpt><trkpt lat="45.6096596745934" lon="-0.04640174859673283"><ele>29.333333333333336</ele><time>2026-03-22T15:04:01Z</time></trkpt><trkpt lat="45.609740209915266" lon="-0.046436784392509395"><ele>29.666666666666668</ele><time>2026-03-22T15:04:02Z</time></trkpt><trkpt lat="45.6098280276599" lon="-0.04648466553156183"><ele>30.0</ele><time>2026-03-22T15:04:03Z</time></trkpt><trkpt lat="45.60992689033625" lon="-0.04654163210997884"><ele>30.0</ele><time>2026-03-22T15:04:04Z</time></trkpt><trkpt lat="45.6100352238138" lon="-0.046610206373169205"><ele>30.0</ele><time>2026-03-22T15:04:05Z</time></trkpt><trkpt lat="45.61015645750285" lon="-0.046679043996645714"><ele>30.0</ele><time>2026-03-22T15:04:06Z</time></trkpt><trkpt lat="45.61028314278698" lon="-0.046752971730580156"><ele>30.0</ele><time>2026-03-22T15:04:07Z</time></trkpt><trkpt lat="45.61040921644141" lon="-0.046824711768232496"><ele>29.666666666666664</ele><time>2026-03-22T15:04:08Z</time></trkpt><trkpt lat="45.61054503953014" lon="-0.046902053614808085"><ele>29.333333333333332</ele><time>2026-03-22T15:04:09Z</time></trkpt><trkpt lat="45.61068427618979" lon="-0.046978248557164655"><ele>29.0</ele><time>2026-03-22T15:04:10Z</time></trkpt><trkpt lat="45.61083140332148" lon="-0.04705830137702366"><ele>29.0</ele><time>2026-03-22T15:04:11Z</time></trkpt><trkpt lat="45.610978928027706" lon="-0.04714309222804458"><ele>29.0</ele><time>2026-03-22T15:04:12Z</time></trkpt><trkpt lat="45.61111843711078" lon="-0.047220198133532995"><ele>29.0</ele><time>2026-03-22T15:04:13Z</time></trkpt><trkpt lat="45.61126323668704" lon="-0.04730309199792279"><ele>30.333333333333332</ele><time>2026-03-22T15:04:14Z</time></trkpt><trkpt lat="45.61141191683499" lon="-0.047386599554590736"><ele>31.666666666666664</ele><time>2026-03-22T15:04:15Z</time></trkpt><trkpt lat="45.61156739850355" lon="-0.047473786537909915"><ele>33.0</ele><time>2026-03-22T15:04:16Z</time></trkpt><trkpt lat="45.61172914495957" lon="-0.047558547306982134"><ele>30.333333333333336</ele><time>2026-03-22T15:04:17Z</time></trkpt><trkpt lat="45.611881067905834" lon="-0.04764036875541804"><ele>27.666666666666668</ele><time>2026-03-22T15:04:18Z</time></trkpt><trkpt lat="45.612037579666215" lon="-0.047722468331749424"><ele>25.0</ele><time>2026-03-22T15:04:19Z</time></trkpt><trkpt lat="45.612183426433965" lon="-0.04778593503015062"><ele>25.0</ele><time>2026-03-22T15:04:20Z</time></trkpt><trkpt lat="45.612334736966034" lon="-0.047840300797958306"><ele>25.0</ele><time>2026-03-22T15:04:21Z</time></trkpt><trkpt lat="45.61248639192602" lon="-0.047890042534733286"><ele>25.0</ele><time>2026-03-22T15:04:22Z</time></trkpt><trkpt lat="45.612642758461035" lon="-0.04792661653278455"><ele>25.0</ele><time>2026-03-22T15:04:23Z</time></trkpt><trkpt lat="45.61280732362582" lon="-0.04796390362460354"><ele>25.0</ele><time>2026-03-22T15:04:24Z</time></trkpt><trkpt lat="45.61297898254422" lon="-0.04799566491838674"><ele>25.0</ele><time>2026-03-22T15:04:25Z</time></trkpt><trkpt lat="45.613164823965796" lon="-0.04802356199866181"><ele>26.666666666666668</ele><time>2026-03-22T15:04:26Z</time></trkpt><trkpt lat="45.61336457573826" lon="-0.04805198834938019"><ele>28.333333333333336</ele><time>2026-03-22T15:04:27Z</time></trkpt><trkpt lat="45.613568965959324" lon="-0.048080660288510955"><ele>30.0</ele><time>2026-03-22T15:04:28Z</time></trkpt><trkpt lat="45.61377551963993" lon="-0.048112215130905064"><ele>30.333333333333336</ele><time>2026-03-22T15:04:29Z</time></trkpt><trkpt lat="45.613993684682434" lon="-0.04814674164808887"><ele>30.666666666666668</ele><time>2026-03-22T15:04:30Z</time></trkpt><trkpt lat="45.61421011283207" lon="-0.048179253975232664"><ele>31.0</ele><time>2026-03-22T15:04:31Z</time></trkpt><trkpt lat="45.614425056176394" lon="-0.04821333749068149"><ele>30.333333333333336</ele><time>2026-03-22T15:04:32Z</time></trkpt><trkpt lat="45.61463204652598" lon="-0.04826019683419504"><ele>29.666666666666664</ele><time>2026-03-22T15:04:33Z</time></trkpt><trkpt lat="45.61482480107344" lon="-0.048328345486600754"><ele>29.0</ele><time>2026-03-22T15:04:34Z</time></trkpt><trkpt lat="45.61502051976505" lon="-0.04841699716625256"><ele>30.333333333333332</ele><time>2026-03-22T15:04:35Z</time></trkpt><trkpt lat="45.61521344358079" lon="-0.04853651662978822"><ele>31.666666666666664</ele><time>2026-03-22T15:04:36Z</time></trkpt><trkpt lat="45.61540731726753" lon="-0.048669612026151055"><ele>33.0</ele><time>2026-03-22T15:04:37Z</time></trkpt><trkpt lat="45.61559404696428" lon="-0.04879765878442634"><ele>33.0</ele><time>2026-03-22T15:04:38Z</time></trkpt><trkpt lat="45.61578046543572" lon="-0.04892185864361589"><ele>33.0</ele><time>2026-03-22T15:04:39Z</time></trkpt><trkpt lat="45.61597592442973" lon="-0.04904975861346077"><ele>33.0</ele><time>2026-03-22T15:04:40Z</time></trkpt><trkpt lat="45.616164770715656" lon="-0.04917890151799151"><ele>32.666666666666664</ele><time>2026-03-22T15:04:41Z</time></trkpt><trkpt lat="45.616361007151276" lon="-0.04930603154673878"><ele>32.33333333333333</ele><time>2026-03-22T15:04:42Z</time></trkpt><trkpt lat="45.61654646360388" lon="-0.049430541950385744"><ele>32.0</ele><time>2026-03-22T15:04:43Z</time></trkpt><trkpt lat="45.61672324626793" lon="-0.04954946029847008"><ele>32.0</ele><time>2026-03-22T15:04:44Z</time></trkpt><trkpt lat="45.6169094565736" lon="-0.0496663025441568"><ele>32.0</ele><time>2026-03-22T15:04:45Z</time></trkpt><trkpt lat="45.617099133817874" lon="-0.049768900241940243"><ele>32.0</ele><time>2026-03-22T15:04:46Z</time></trkpt><trkpt lat="45.617289638667216" lon="-0.04985361910571016"><ele>32.666666666666664</ele><time>2026-03-22T15:04:47Z</time></trkpt><trkpt lat="45.61748781448231" lon="-0.04992340782606293"><ele>33.333333333333336</ele><time>2026-03-22T15:04:48Z</time></trkpt><trkpt lat="45.61768597849031" lon="-0.04998153611404696"><ele>34.0</ele><time>2026-03-22T15:04:49Z</time></trkpt><trkpt lat="45.61788762724529" lon="-0.05002623749753363"><ele>30.0</ele><time>2026-03-22T15:04:50Z</time></trkpt><trkpt lat="45.61809461584224" lon="-0.05006246584532947"><ele>26.0</ele><time>2026-03-22T15:04:51Z</time></trkpt><trkpt lat="45.61829842416335" lon="-0.0500908275409281"><ele>22.0</ele><time>2026-03-22T15:04:52Z</time></trkpt><trkpt lat="45.6185049621314" lon="-0.05010925834015834"><ele>21.666666666666664</ele><time>2026-03-22T15:04:53Z</time></trkpt><trkpt lat="45.61870521186597" lon="-0.05008422802249205"><ele>21.333333333333332</ele><time>2026-03-22T15:04:54Z</time></trkpt><trkpt lat="45.618910650395264" lon="-0.05007706530039621"><ele>21.0</ele><time>2026-03-22T15:04:55Z</time></trkpt><trkpt lat="45.61911706606022" lon="-0.05006352240337746"><ele>21.0</ele><time>2026-03-22T15:04:56Z</time></trkpt><trkpt lat="45.61933208220598" lon="-0.05007123417036698"><ele>21.0</ele><time>2026-03-22T15:04:57Z</time></trkpt><trkpt lat="45.61953729332578" lon="-0.050059953700398716"><ele>21.0</ele><time>2026-03-22T15:04:58Z</time></trkpt><trkpt lat="45.61974698853467" lon="-0.05005013080175909"><ele>21.0</ele><time>2026-03-22T15:04:59Z</time></trkpt><trkpt lat="45.61995788150003" lon="-0.05003245053445808"><ele>21.0</ele><time>2026-03-22T15:05:00Z</time></trkpt><trkpt lat="45.62016810208813" lon="-0.050015880213049944"><ele>21.0</ele><time>2026-03-22T15:05:01Z</time></trkpt><trkpt lat="45.620383643757094" lon="-0.05000107872167197"><ele>21.0</ele><time>2026-03-22T15:05:02Z</time></trkpt><trkpt lat="45.620601538613634" lon="-0.04999119105163069"><ele>21.0</ele><time>2026-03-22T15:05:03Z</time></trkpt><trkpt lat="45.62081480729799" lon="-0.049981576889210885"><ele>21.0</ele><time>2026-03-22T15:05:04Z</time></trkpt><trkpt lat="45.62103317645863" lon="-0.04996834342108048"><ele>25.0</ele><time>2026-03-22T15:05:05Z</time></trkpt><trkpt lat="45.62124923674862" lon="-0.04995273322572429"><ele>29.0</ele><time>2026-03-22T15:05:06Z</time></trkpt><trkpt lat="45.62146546666343" lon="-0.04993694728251158"><ele>33.0</ele><time>2026-03-22T15:05:07Z</time></trkpt><trkpt lat="45.621674248992214" lon="-0.049922506996381136"><ele>33.0</ele><time>2026-03-22T15:05:08Z</time></trkpt><trkpt lat="45.62188271563705" lon="-0.04991003343311681"><ele>33.0</ele><time>2026-03-22T15:05:09Z</time></trkpt><trkpt lat="45.622093581407526" lon="-0.049897682465099576"><ele>33.0</ele><time>2026-03-22T15:05:10Z</time></trkpt><trkpt lat="45.62230798818321" lon="-0.04989205966138499"><ele>34.0</ele><time>2026-03-22T15:05:11Z</time></trkpt><trkpt lat="45.6225169701078" lon="-0.049881811103455936"><ele>35.0</ele><time>2026-03-22T15:05:12Z</time></trkpt><trkpt lat="45.622729190587656" lon="-0.04986217767673668"><ele>36.0</ele><time>2026-03-22T15:05:13Z</time></trkpt><trkpt lat="45.62293998442776" lon="-0.049854133569642224"><ele>36.0</ele><time>2026-03-22T15:05:14Z</time></trkpt><trkpt lat="45.623149911561434" lon="-0.049840068220698204"><ele>36.0</ele><time>2026-03-22T15:05:15Z</time></trkpt><trkpt lat="45.62336140585001" lon="-0.04982883910803518"><ele>36.0</ele><time>2026-03-22T15:05:16Z</time></trkpt><trkpt lat="45.623568907996834" lon="-0.04981326306869629"><ele>32.5</ele><time>2026-03-22T15:05:17Z</time></trkpt><trkpt lat="45.62395859302782" lon="-0.049799292059620234"><ele>29.0</ele><time>2026-03-22T15:05:19Z</time></trkpt><trkpt lat="45.62414086343059" lon="-0.0498101858705949"><ele>29.0</ele><time>2026-03-22T15:05:20Z</time></trkpt><trkpt lat="45.62432519358088" lon="-0.04983285669261515"><ele>29.0</ele><time>2026-03-22T15:05:21Z</time></trkpt><trkpt lat="45.62451627682052" lon="-0.049880934315713624"><ele>29.0</ele><time>2026-03-22T15:05:22Z</time></trkpt><trkpt lat="45.62470518579317" lon="-0.04994855965150403"><ele>28.333333333333332</ele><time>2026-03-22T15:05:23Z</time></trkpt><trkpt lat="45.62489863282212" lon="-0.05002528681890346"><ele>27.666666666666664</ele><time>2026-03-22T15:05:24Z</time></trkpt><trkpt lat="45.625097188772486" lon="-0.050112047789855854"><ele>27.0</ele><time>2026-03-22T15:05:25Z</time></trkpt><trkpt lat="45.625292067540194" lon="-0.05020090201660713"><ele>30.0</ele><time>2026-03-22T15:05:26Z</time></trkpt><trkpt lat="45.6254927250634" lon="-0.0502892598027404"><ele>33.0</ele><time>2026-03-22T15:05:27Z</time></trkpt><trkpt lat="45.62569222555602" lon="-0.05038495079680792"><ele>36.0</ele><time>2026-03-22T15:05:28Z</time></trkpt><trkpt lat="45.6259019322046" lon="-0.050478402641534505"><ele>36.0</ele><time>2026-03-22T15:05:29Z</time></trkpt><trkpt lat="45.626111399066986" lon="-0.05056989503342527"><ele>36.0</ele><time>2026-03-22T15:05:30Z</time></trkpt><trkpt lat="45.626310435075645" lon="-0.050657969574005195"><ele>36.0</ele><time>2026-03-22T15:05:31Z</time></trkpt><trkpt lat="45.6264967995358" lon="-0.0507358130554503"><ele>34.333333333333336</ele><time>2026-03-22T15:05:32Z</time></trkpt><trkpt lat="45.62667096777245" lon="-0.05081386397052858"><ele>32.66666666666667</ele><time>2026-03-22T15:05:33Z</time></trkpt><trkpt lat="45.62683751679849" lon="-0.050918180213461256"><ele>31.0</ele><time>2026-03-22T15:05:34Z</time></trkpt><trkpt lat="45.62700351295927" lon="-0.05103816142350571"><ele>31.0</ele><time>2026-03-22T15:05:35Z</time></trkpt><trkpt lat="45.627160326673845" lon="-0.05118673619906598"><ele>31.0</ele><time>2026-03-22T15:05:36Z</time></trkpt><trkpt lat="45.62731122448804" lon="-0.05134561803480221"><ele>31.0</ele><time>2026-03-22T15:05:37Z</time></trkpt><trkpt lat="45.62745393180647" lon="-0.051528385136699585"><ele>32.66666666666667</ele><time>2026-03-22T15:05:38Z</time></trkpt><trkpt lat="45.62758458652959" lon="-0.051735705385126944"><ele>34.333333333333336</ele><time>2026-03-22T15:05:39Z</time></trkpt><trkpt lat="45.62771454096342" lon="-0.051939160481795504"><ele>36.0</ele><time>2026-03-22T15:05:40Z</time></trkpt><trkpt lat="45.62784682367581" lon="-0.052147063022415424"><ele>36.0</ele><time>2026-03-22T15:05:41Z</time></trkpt><trkpt lat="45.62798619948246" lon="-0.052359515325113334"><ele>36.0</ele><time>2026-03-22T15:05:42Z</time></trkpt><trkpt lat="45.6281227571143" lon="-0.05257126662906958"><ele>36.0</ele><time>2026-03-22T15:05:43Z</time></trkpt><trkpt lat="45.62826070106952" lon="-0.05278167801855269"><ele>35.666666666666664</ele><time>2026-03-22T15:05:44Z</time></trkpt><trkpt lat="45.6283927840218" lon="-0.05299468063964334"><ele>35.33333333333333</ele><time>2026-03-22T15:05:45Z</time></trkpt><trkpt lat="45.628529626264964" lon="-0.05320966294923892"><ele>35.0</ele><time>2026-03-22T15:05:46Z</time></trkpt><trkpt lat="45.62866761043224" lon="-0.05341848014309456"><ele>35.0</ele><time>2026-03-22T15:05:47Z</time></trkpt><trkpt lat="45.62879801579184" lon="-0.053620189398053235"><ele>35.0</ele><time>2026-03-22T15:05:48Z</time></trkpt><trkpt lat="45.628933960094066" lon="-0.053835069617723934"><ele>35.0</ele><time>2026-03-22T15:05:49Z</time></trkpt><trkpt lat="45.62907007922436" lon="-0.05404486903261789"><ele>35.666666666666664</ele><time>2026-03-22T15:05:50Z</time></trkpt><trkpt lat="45.62920917521613" lon="-0.05425625484365967"><ele>36.333333333333336</ele><time>2026-03-22T15:05:51Z</time></trkpt><trkpt lat="45.629351586968156" lon="-0.054469787066365336"><ele>37.0</ele><time>2026-03-22T15:05:52Z</time></trkpt><trkpt lat="45.629493935240255" lon="-0.05468693538181353"><ele>37.0</ele><time>2026-03-22T15:05:53Z</time></trkpt><trkpt lat="45.62964348055428" lon="-0.05489666185198349"><ele>37.0</ele><time>2026-03-22T15:05:54Z</time></trkpt><trkpt lat="45.62980381616375" lon="-0.055095932537376734"><ele>37.0</ele><time>2026-03-22T15:05:55Z</time></trkpt><trkpt lat="45.629973712866345" lon="-0.055283669045626475"><ele>37.0</ele><time>2026-03-22T15:05:56Z</time></trkpt><trkpt lat="45.63014526852982" lon="-0.055444305685473275"><ele>37.0</ele><time>2026-03-22T15:05:57Z</time></trkpt><trkpt lat="45.630320320291375" lon="-0.05557780389275402"><ele>37.0</ele><time>2026-03-22T15:05:58Z</time></trkpt><trkpt lat="45.630506863040985" lon="-0.055707928516802604"><ele>32.66666666666667</ele><time>2026-03-22T15:05:59Z</time></trkpt><trkpt lat="45.63070116932418" lon="-0.05581272455588915"><ele>28.333333333333336</ele><time>2026-03-22T15:06:00Z</time></trkpt><trkpt lat="45.63088291040846" lon="-0.055892735647804725"><ele>24.0</ele><time>2026-03-22T15:06:01Z</time></trkpt><trkpt lat="45.63105879588835" lon="-0.05595506561944393"><ele>24.0</ele><time>2026-03-22T15:06:02Z</time></trkpt><trkpt lat="45.63121278954698" lon="-0.0560045987236896"><ele>24.0</ele><time>2026-03-22T15:06:03Z</time></trkpt><trkpt lat="45.63135959104918" lon="-0.05604489026138051"><ele>24.0</ele><time>2026-03-22T15:06:04Z</time></trkpt><trkpt lat="45.63149655875816" lon="-0.05604982057137595"><ele>24.0</ele><time>2026-03-22T15:06:05Z</time></trkpt><trkpt lat="45.63162643588083" lon="-0.056020998453201055"><ele>24.0</ele><time>2026-03-22T15:06:06Z</time></trkpt><trkpt lat="45.63175463400776" lon="-0.05595265510442947"><ele>24.0</ele><time>2026-03-22T15:06:07Z</time></trkpt><trkpt lat="45.631872255963344" lon="-0.0558565602695786"><ele>24.0</ele><time>2026-03-22T15:06:08Z</time></trkpt><trkpt lat="45.631980292273106" lon="-0.05572266436264226"><ele>24.0</ele><time>2026-03-22T15:06:09Z</time></trkpt><trkpt lat="45.632076755267335" lon="-0.05558937708370137"><ele>24.75</ele><time>2026-03-22T15:06:10Z</time></trkpt><trkpt lat="45.632170382459634" lon="-0.05544781846452463"><ele>25.5</ele><time>2026-03-22T15:06:11Z</time></trkpt><trkpt lat="45.63227125533218" lon="-0.0552948590251292"><ele>26.25</ele><time>2026-03-22T15:06:12Z</time></trkpt><trkpt lat="45.632377443268446" lon="-0.05514489524256764"><ele>27.0</ele><time>2026-03-22T15:06:13Z</time></trkpt><trkpt lat="45.632485082139276" lon="-0.0550004788989142"><ele>27.5</ele><time>2026-03-22T15:06:14Z</time></trkpt><trkpt lat="45.6325895932746" lon="-0.05488105044014708"><ele>28.0</ele><time>2026-03-22T15:06:15Z</time></trkpt><trkpt lat="45.63268950891563" lon="-0.05478068965048961"><ele>28.5</ele><time>2026-03-22T15:06:16Z</time></trkpt><trkpt lat="45.6328009625071" lon="-0.05472987157901709"><ele>29.0</ele><time>2026-03-22T15:06:17Z</time></trkpt><trkpt lat="45.632911951252595" lon="-0.054724837198347885"><ele>29.0</ele><time>2026-03-22T15:06:18Z</time></trkpt><trkpt lat="45.63303230186884" lon="-0.05475183055350162"><ele>29.0</ele><time>2026-03-22T15:06:19Z</time></trkpt><trkpt lat="45.63315056288649" lon="-0.0547359992307508"><ele>29.0</ele><time>2026-03-22T15:06:20Z</time></trkpt><trkpt lat="45.63327405155492" lon="-0.05492209761788946"><ele>29.0</ele><time>2026-03-22T15:06:21Z</time></trkpt><trkpt lat="45.63340183911485" lon="-0.055052301375476904"><ele>29.0</ele><time>2026-03-22T15:06:22Z</time></trkpt><trkpt lat="45.633540170230006" lon="-0.05519840160632606"><ele>29.0</ele><time>2026-03-22T15:06:23Z</time></trkpt><trkpt lat="45.63369567393513" lon="-0.05535691083447305"><ele>29.0</ele><time>2026-03-22T15:06:24Z</time></trkpt><trkpt lat="45.6338622278985" lon="-0.05551173350704672"><ele>29.0</ele><time>2026-03-22T15:06:25Z</time></trkpt><trkpt lat="45.63403649369" lon="-0.05567215246600475"><ele>29.0</ele><time>2026-03-22T15:06:26Z</time></trkpt><trkpt lat="45.63421810735524" lon="-0.05584128482727855"><ele>29.0</ele><time>2026-03-22T15:06:27Z</time></trkpt><trkpt lat="45.63440668854451" lon="-0.05601496089044422"><ele>33.5</ele><time>2026-03-22T15:06:28Z</time></trkpt><trkpt lat="45.63460389362679" lon="-0.056185982568205554"><ele>38.0</ele><time>2026-03-22T15:06:29Z</time></trkpt><trkpt lat="45.63480841473076" lon="-0.05635533802283222"><ele>38.0</ele><time>2026-03-22T15:06:30Z</time></trkpt><trkpt lat="45.63501597762829" lon="-0.05652320650917478"><ele>38.0</ele><time>2026-03-22T15:06:31Z</time></trkpt><trkpt lat="45.635225928153076" lon="-0.05668019610527979"><ele>36.33333333333333</ele><time>2026-03-22T15:06:32Z</time></trkpt><trkpt lat="45.63543196022906" lon="-0.05681060369022203"><ele>34.666666666666664</ele><time>2026-03-22T15:06:33Z</time></trkpt><trkpt lat="45.63562473938442" lon="-0.056968340611816985"><ele>33.0</ele><time>2026-03-22T15:06:34Z</time></trkpt><trkpt lat="45.635827371521714" lon="-0.05710104297507633"><ele>33.0</ele><time>2026-03-22T15:06:35Z</time></trkpt><trkpt lat="45.63602955549763" lon="-0.05723516990846286"><ele>33.0</ele><time>2026-03-22T15:06:36Z</time></trkpt><trkpt lat="45.63623333826909" lon="-0.057363470172154124"><ele>33.0</ele><time>2026-03-22T15:06:37Z</time></trkpt><trkpt lat="45.636443043046675" lon="-0.05749226176689057"><ele>30.0</ele><time>2026-03-22T15:06:38Z</time></trkpt><trkpt lat="45.6366564387029" lon="-0.05762353283711416"><ele>27.0</ele><time>2026-03-22T15:06:39Z</time></trkpt><trkpt lat="45.63686379268404" lon="-0.05774897765130807"><ele>27.0</ele><time>2026-03-22T15:06:40Z</time></trkpt><trkpt lat="45.637057718325046" lon="-0.05787554625210726"><ele>27.0</ele><time>2026-03-22T15:06:41Z</time></trkpt><trkpt lat="45.63724355818875" lon="-0.057994285182069484"><ele>27.0</ele><time>2026-03-22T15:06:42Z</time></trkpt><trkpt lat="45.6374251451175" lon="-0.058113705041799676"><ele>27.0</ele><time>2026-03-22T15:06:43Z</time></trkpt><trkpt lat="45.637603225595264" lon="-0.05822628104583847"><ele>27.0</ele><time>2026-03-22T15:06:44Z</time></trkpt><trkpt lat="45.637772589569295" lon="-0.05832507124522032"><ele>27.0</ele><time>2026-03-22T15:06:45Z</time></trkpt><trkpt lat="45.63794139970209" lon="-0.058416292160276946"><ele>26.666666666666664</ele><time>2026-03-22T15:06:46Z</time></trkpt><trkpt lat="45.63812242923316" lon="-0.058502885160355"><ele>26.333333333333332</ele><time>2026-03-22T15:06:47Z</time></trkpt><trkpt lat="45.63830785402473" lon="-0.05857465942916367"><ele>26.0</ele><time>2026-03-22T15:06:48Z</time></trkpt><trkpt lat="45.638498103145565" lon="-0.058636859329141214"><ele>25.666666666666664</ele><time>2026-03-22T15:06:49Z</time></trkpt><trkpt lat="45.63868662284787" lon="-0.058695433678271625"><ele>25.333333333333336</ele><time>2026-03-22T15:06:50Z</time></trkpt><trkpt lat="45.63887753039947" lon="-0.058760608372755575"><ele>25.0</ele><time>2026-03-22T15:06:51Z</time></trkpt><trkpt lat="45.63906442015688" lon="-0.0588276616022174"><ele>25.0</ele><time>2026-03-22T15:06:52Z</time></trkpt><trkpt lat="45.63924120256618" lon="-0.05887280875040166"><ele>25.0</ele><time>2026-03-22T15:06:53Z</time></trkpt><trkpt lat="45.63941439957094" lon="-0.05892829281283194"><ele>25.0</ele><time>2026-03-22T15:06:54Z</time></trkpt><trkpt lat="45.63957444538301" lon="-0.05899741151094703"><ele>24.666666666666668</ele><time>2026-03-22T15:06:55Z</time></trkpt><trkpt lat="45.639730402134326" lon="-0.05904545822557272"><ele>24.333333333333336</ele><time>2026-03-22T15:06:56Z</time></trkpt><trkpt lat="45.6399896362914" lon="-0.05919010852033938"><ele>24.0</ele><time>2026-03-22T15:06:58Z</time></trkpt><trkpt lat="45.64009159001979" lon="-0.05931551160814194"><ele>24.0</ele><time>2026-03-22T15:06:59Z</time></trkpt><trkpt lat="45.640207902183036" lon="-0.059428521198575106"><ele>24.0</ele><time>2026-03-22T15:07:00Z</time></trkpt><trkpt lat="45.64029753472654" lon="-0.059551552585982874"><ele>24.0</ele><time>2026-03-22T15:07:01Z</time></trkpt><trkpt lat="45.640363578484596" lon="-0.05969401377180343"><ele>24.0</ele><time>2026-03-22T15:07:02Z</time></trkpt><trkpt lat="45.64043232102039" lon="-0.05985044005920087"><ele>23.5</ele><time>2026-03-22T15:07:03Z</time></trkpt><trkpt lat="45.640507521047674" lon="-0.0600125170561051"><ele>23.0</ele><time>2026-03-22T15:07:04Z</time></trkpt><trkpt lat="45.64058164308333" lon="-0.0601957997435841"><ele>22.5</ele><time>2026-03-22T15:07:05Z</time></trkpt><trkpt lat="45.64066132882402" lon="-0.060352030010737384"><ele>22.0</ele><time>2026-03-22T15:07:06Z</time></trkpt><trkpt lat="45.64071521762685" lon="-0.060481822893161986"><ele>22.0</ele><time>2026-03-22T15:07:07Z</time></trkpt><trkpt lat="45.64081704449291" lon="-0.06067072552661389"><ele>22.0</ele><time>2026-03-22T15:07:08Z</time></trkpt><trkpt lat="45.640890702215565" lon="-0.06083743134483612"><ele>22.0</ele><time>2026-03-22T15:07:09Z</time></trkpt><trkpt lat="45.6409824097012" lon="-0.061017116921427486"><ele>21.666666666666664</ele><time>2026-03-22T15:07:10Z</time></trkpt><trkpt lat="45.641073568244366" lon="-0.06120468259887969"><ele>21.333333333333332</ele><time>2026-03-22T15:07:11Z</time></trkpt><trkpt lat="45.64119178546107" lon="-0.061408581557911984"><ele>21.0</ele><time>2026-03-22T15:07:12Z</time></trkpt><trkpt lat="45.64125517856383" lon="-0.06158471335105942"><ele>20.75</ele><time>2026-03-22T15:07:13Z</time></trkpt><trkpt lat="45.64133991739531" lon="-0.06175562932181237"><ele>20.5</ele><time>2026-03-22T15:07:14Z</time></trkpt><trkpt lat="45.641419334497" lon="-0.06192319917767349"><ele>20.25</ele><time>2026-03-22T15:07:15Z</time></trkpt><trkpt lat="45.64148440585856" lon="-0.062071208961529456"><ele>20.0</ele><time>2026-03-22T15:07:16Z</time></trkpt><trkpt lat="45.64155730584553" lon="-0.06221090536845894"><ele>20.0</ele><time>2026-03-22T15:07:17Z</time></trkpt><trkpt lat="45.64165433617232" lon="-0.06239747967963052"><ele>20.0</ele><time>2026-03-22T15:07:18Z</time></trkpt><trkpt lat="45.64173897714493" lon="-0.06254282027838319"><ele>20.0</ele><time>2026-03-22T15:07:19Z</time></trkpt><trkpt lat="45.64180947223516" lon="-0.06269250708718216"><ele>20.0</ele><time>2026-03-22T15:07:20Z</time></trkpt><trkpt lat="45.64188101685067" lon="-0.0628392843012911"><ele>19.75</ele><time>2026-03-22T15:07:21Z</time></trkpt><trkpt lat="45.641952354978656" lon="-0.06298084549963677"><ele>19.5</ele><time>2026-03-22T15:07:22Z</time></trkpt><trkpt lat="45.64202333544163" lon="-0.06313111795360557"><ele>19.25</ele><time>2026-03-22T15:07:23Z</time></trkpt><trkpt lat="45.642085379096685" lon="-0.0632732644145626"><ele>19.0</ele><time>2026-03-22T15:07:24Z</time></trkpt><trkpt lat="45.64215863463758" lon="-0.06340895134418911"><ele>19.333333333333332</ele><time>2026-03-22T15:07:25Z</time></trkpt><trkpt lat="45.64221117942639" lon="-0.06354848174465083"><ele>19.666666666666664</ele><time>2026-03-22T15:07:26Z</time></trkpt><trkpt lat="45.64226544868278" lon="-0.06364996117530915"><ele>20.0</ele><time>2026-03-22T15:07:27Z</time></trkpt><trkpt lat="45.642312600107594" lon="-0.06372751365159089"><ele>20.333333333333332</ele><time>2026-03-22T15:07:28Z</time></trkpt><trkpt lat="45.64240051480442" lon="-0.06377594938560277"><ele>20.666666666666668</ele><time>2026-03-22T15:07:30Z</time></trkpt><trkpt lat="45.642462865218306" lon="-0.0637337596789375"><ele>21.0</ele><time>2026-03-22T15:07:31Z</time></trkpt><trkpt lat="45.642516454229416" lon="-0.06367890197054803"><ele>21.0</ele><time>2026-03-22T15:07:32Z</time></trkpt><trkpt lat="45.642555720322406" lon="-0.06360173723057674"><ele>21.0</ele><time>2026-03-22T15:07:33Z</time></trkpt><trkpt lat="45.642613565853814" lon="-0.06349193532140589"><ele>21.0</ele><time>2026-03-22T15:07:34Z</time></trkpt><trkpt lat="45.642697836422414" lon="-0.06338245474923417"><ele>21.0</ele><time>2026-03-22T15:07:36Z</time></trkpt><trkpt lat="45.642853026337576" lon="-0.06358126530800587"><ele>20.833333333333332</ele><time>2026-03-22T15:07:39Z</time></trkpt><trkpt lat="45.642892235296024" lon="-0.06367344469009001"><ele>20.666666666666668</ele><time>2026-03-22T15:07:40Z</time></trkpt><trkpt lat="45.64293808119213" lon="-0.06375773552570944"><ele>20.5</ele><time>2026-03-22T15:07:41Z</time></trkpt><trkpt lat="45.64298861152324" lon="-0.06383449575198229"><ele>20.333333333333336</ele><time>2026-03-22T15:07:42Z</time></trkpt><trkpt lat="45.64307895355455" lon="-0.0639791434001782"><ele>20.166666666666668</ele><time>2026-03-22T15:07:44Z</time></trkpt><trkpt lat="45.64311204421472" lon="-0.06408365176467905"><ele>20.0</ele><time>2026-03-22T15:07:45Z</time></trkpt><trkpt lat="45.64320166656909" lon="-0.06419013650657127"><ele>20.0</ele><time>2026-03-22T15:07:46Z</time></trkpt><trkpt lat="45.6433088667097" lon="-0.06432137919166453"><ele>20.0</ele><time>2026-03-22T15:07:47Z</time></trkpt><trkpt lat="45.6434117151742" lon="-0.06447801697579376"><ele>20.0</ele><time>2026-03-22T15:07:48Z</time></trkpt><trkpt lat="45.64350796901773" lon="-0.06464115171472155"><ele>20.0</ele><time>2026-03-22T15:07:49Z</time></trkpt><trkpt lat="45.643592637109634" lon="-0.06477338445792101"><ele>20.0</ele><time>2026-03-22T15:07:50Z</time></trkpt><trkpt lat="45.64367995730079" lon="-0.06488540821732598"><ele>20.0</ele><time>2026-03-22T15:07:51Z</time></trkpt><trkpt lat="45.643788199931016" lon="-0.06498058124310868"><ele>20.0</ele><time>2026-03-22T15:07:52Z</time></trkpt><trkpt lat="45.64390324423844" lon="-0.06506113768164457"><ele>20.0</ele><time>2026-03-22T15:07:53Z</time></trkpt><trkpt lat="45.6440245891061" lon="-0.06518196308469004"><ele>20.0</ele><time>2026-03-22T15:07:54Z</time></trkpt><trkpt lat="45.64416146934413" lon="-0.06530577086556541"><ele>20.0</ele><time>2026-03-22T15:07:55Z</time></trkpt><trkpt lat="45.644304982003696" lon="-0.06546505325439742"><ele>20.0</ele><time>2026-03-22T15:07:56Z</time></trkpt><trkpt lat="45.64446094349288" lon="-0.06565085411143134"><ele>19.5</ele><time>2026-03-22T15:07:57Z</time></trkpt><trkpt lat="45.644653454887816" lon="-0.06585389055229778"><ele>19.0</ele><time>2026-03-22T15:07:58Z</time></trkpt><trkpt lat="45.64485145325407" lon="-0.06605545824845797"><ele>19.0</ele><time>2026-03-22T15:07:59Z</time></trkpt><trkpt lat="45.645060106799264" lon="-0.06627235481260262"><ele>19.0</ele><time>2026-03-22T15:08:00Z</time></trkpt><trkpt lat="45.645236125186024" lon="-0.06645762267975432"><ele>18.666666666666664</ele><time>2026-03-22T15:08:01Z</time></trkpt><trkpt lat="45.645411608182144" lon="-0.06662354711364471"><ele>18.333333333333332</ele><time>2026-03-22T15:08:02Z</time></trkpt><trkpt lat="45.645565678185434" lon="-0.06679691441585626"><ele>18.0</ele><time>2026-03-22T15:08:03Z</time></trkpt><trkpt lat="45.64570565599247" lon="-0.06699078304103807"><ele>18.0</ele><time>2026-03-22T15:08:04Z</time></trkpt><trkpt lat="45.645842019068105" lon="-0.06720230170515584"><ele>18.0</ele><time>2026-03-22T15:08:05Z</time></trkpt><trkpt lat="45.645974022085575" lon="-0.06744208166685267"><ele>18.0</ele><time>2026-03-22T15:08:06Z</time></trkpt><trkpt lat="45.646101320861554" lon="-0.06771091815550163"><ele>20.0</ele><time>2026-03-22T15:08:07Z</time></trkpt><trkpt lat="45.646227273276715" lon="-0.06797165140638928"><ele>22.0</ele><time>2026-03-22T15:08:08Z</time></trkpt><trkpt lat="45.64636699997085" lon="-0.06827528010104787"><ele>21.0</ele><time>2026-03-22T15:08:09Z</time></trkpt><trkpt lat="45.64651194930719" lon="-0.06858530319224324"><ele>20.0</ele><time>2026-03-22T15:08:10Z</time></trkpt><trkpt lat="45.64665436013542" lon="-0.06888027399230709"><ele>18.5</ele><time>2026-03-22T15:08:11Z</time></trkpt><trkpt lat="45.646798945439315" lon="-0.06913781551945287"><ele>17.0</ele><time>2026-03-22T15:08:12Z</time></trkpt><trkpt lat="45.64690469150283" lon="-0.06941816506367483"><ele>18.5</ele><time>2026-03-22T15:08:13Z</time></trkpt><trkpt lat="45.647027458509825" lon="-0.06970845193001121"><ele>20.0</ele><time>2026-03-22T15:08:14Z</time></trkpt><trkpt lat="45.647132117360094" lon="-0.07002507719100018"><ele>20.0</ele><time>2026-03-22T15:08:15Z</time></trkpt><trkpt lat="45.64725104868648" lon="-0.0703412441518782"><ele>20.0</ele><time>2026-03-22T15:08:16Z</time></trkpt><trkpt lat="45.647377428298896" lon="-0.07065668776970647"><ele>20.0</ele><time>2026-03-22T15:08:17Z</time></trkpt><trkpt lat="45.64749292200372" lon="-0.0709971502843784"><ele>20.0</ele><time>2026-03-22T15:08:18Z</time></trkpt><trkpt lat="45.64761583115891" lon="-0.07130224921833264"><ele>20.0</ele><time>2026-03-22T15:08:19Z</time></trkpt><trkpt lat="45.64771406041857" lon="-0.07158448885740773"><ele>20.0</ele><time>2026-03-22T15:08:20Z</time></trkpt><trkpt lat="45.64779636892417" lon="-0.07185044395115009"><ele>20.0</ele><time>2026-03-22T15:08:21Z</time></trkpt><trkpt lat="45.64787588817229" lon="-0.0720840377467102"><ele>21.333333333333336</ele><time>2026-03-22T15:08:22Z</time></trkpt><trkpt lat="45.647927553488906" lon="-0.07225266495207036"><ele>22.666666666666668</ele><time>2026-03-22T15:08:23Z</time></trkpt><trkpt lat="45.64798930299917" lon="-0.07247599082737871"><ele>24.0</ele><time>2026-03-22T15:08:24Z</time></trkpt><trkpt lat="45.64804391957095" lon="-0.07269483106948083"><ele>24.0</ele><time>2026-03-22T15:08:25Z</time></trkpt><trkpt lat="45.64809032542257" lon="-0.07287595155589094"><ele>24.0</ele><time>2026-03-22T15:08:26Z</time></trkpt><trkpt lat="45.64815528149699" lon="-0.07301076748403325"><ele>24.0</ele><time>2026-03-22T15:08:27Z</time></trkpt><trkpt lat="45.6482056047625" lon="-0.07313272148368129"><ele>24.0</ele><time>2026-03-22T15:08:28Z</time></trkpt><trkpt lat="45.648320609332174" lon="-0.07324180620477244"><ele>24.0</ele><time>2026-03-22T15:08:29Z</time></trkpt><trkpt lat="45.648438219216985" lon="-0.07334931689988873"><ele>24.0</ele><time>2026-03-22T15:08:30Z</time></trkpt><trkpt lat="45.64859034466019" lon="-0.07343223147142092"><ele>24.0</ele><time>2026-03-22T15:08:31Z</time></trkpt><trkpt lat="45.64876700880864" lon="-0.07350017531325334"><ele>24.0</ele><time>2026-03-22T15:08:32Z</time></trkpt><trkpt lat="45.648918874204035" lon="-0.0735707545926965"><ele>24.0</ele><time>2026-03-22T15:08:33Z</time></trkpt><trkpt lat="45.64903068836935" lon="-0.07363324830355239"><ele>24.0</ele><time>2026-03-22T15:08:34Z</time></trkpt><trkpt lat="45.64910436389696" lon="-0.07369662132589182"><ele>24.0</ele><time>2026-03-22T15:08:35Z</time></trkpt><trkpt lat="45.64916081329389" lon="-0.07380390474331489"><ele>24.0</ele><time>2026-03-22T15:08:36Z</time></trkpt><trkpt lat="45.649200312591" lon="-0.07395685279450104"><ele>24.0</ele><time>2026-03-22T15:08:37Z</time></trkpt><trkpt lat="45.64922265867837" lon="-0.07414472157088015"><ele>24.0</ele><time>2026-03-22T15:08:38Z</time></trkpt><trkpt lat="45.649227214019" lon="-0.07435970442695447"><ele>24.0</ele><time>2026-03-22T15:08:39Z</time></trkpt><trkpt lat="45.64922943704106" lon="-0.07456157900194105"><ele>24.4</ele><time>2026-03-22T15:08:40Z</time></trkpt><trkpt lat="45.64923486651128" lon="-0.0747284708727313"><ele>24.799999999999997</ele><time>2026-03-22T15:08:41Z</time></trkpt><trkpt lat="45.6492350667438" lon="-0.07488198650234941"><ele>25.200000000000003</ele><time>2026-03-22T15:08:42Z</time></trkpt><trkpt lat="45.649241432886924" lon="-0.07501866328600104"><ele>25.6</ele><time>2026-03-22T15:08:43Z</time></trkpt><trkpt lat="45.649246035265975" lon="-0.07516466195440388"><ele>26.0</ele><time>2026-03-22T15:08:44Z</time></trkpt><trkpt lat="45.6492542177084" lon="-0.0752893708198357"><ele>25.999999999999996</ele><time>2026-03-22T15:08:45Z</time></trkpt><trkpt lat="45.64928059215198" lon="-0.07540910922968033"><ele>26.0</ele><time>2026-03-22T15:08:46Z</time></trkpt><trkpt lat="45.64929428814826" lon="-0.07552336879784267"><ele>26.0</ele><time>2026-03-22T15:08:47Z</time></trkpt><trkpt lat="45.649310356483866" lon="-0.0756220033962594"><ele>26.0</ele><time>2026-03-22T15:08:48Z</time></trkpt><trkpt lat="45.64936433346394" lon="-0.07570020613971568"><ele>25.999999999999996</ele><time>2026-03-22T15:08:49Z</time></trkpt><trkpt lat="45.64942377642803" lon="-0.07577475791002335"><ele>26.0</ele><time>2026-03-22T15:08:50Z</time></trkpt><trkpt lat="45.64950026448154" lon="-0.07585635085996097"><ele>26.8</ele><time>2026-03-22T15:08:51Z</time></trkpt><trkpt lat="45.64956032615429" lon="-0.07595401131942611"><ele>27.6</ele><time>2026-03-22T15:08:52Z</time></trkpt><trkpt lat="45.649608721061995" lon="-0.07608160231915302"><ele>28.4</ele><time>2026-03-22T15:08:53Z</time></trkpt><trkpt lat="45.6496434912212" lon="-0.07621695572890151"><ele>29.2</ele><time>2026-03-22T15:08:54Z</time></trkpt><trkpt lat="45.64968057261209" lon="-0.07634977258894388"><ele>30.0</ele><time>2026-03-22T15:08:55Z</time></trkpt><trkpt lat="45.64972573408007" lon="-0.07646623570626221"><ele>30.0</ele><time>2026-03-22T15:08:56Z</time></trkpt><trkpt lat="45.649754447792425" lon="-0.07658896088980217"><ele>30.0</ele><time>2026-03-22T15:08:57Z</time></trkpt><trkpt lat="45.64979614387718" lon="-0.07669879329770816"><ele>30.0</ele><time>2026-03-22T15:08:58Z</time></trkpt><trkpt lat="45.64984645148447" lon="-0.07680676816561492"><ele>30.0</ele><time>2026-03-22T15:08:59Z</time></trkpt><trkpt lat="45.649901740197535" lon="-0.0769302624508446"><ele>30.0</ele><time>2026-03-22T15:09:00Z</time></trkpt><trkpt lat="45.649953392281056" lon="-0.07706940199623909"><ele>30.0</ele><time>2026-03-22T15:09:01Z</time></trkpt><trkpt lat="45.649994143474245" lon="-0.07722954663481266"><ele>30.0</ele><time>2026-03-22T15:09:02Z</time></trkpt><trkpt lat="45.650042828429676" lon="-0.0774084946351768"><ele>30.0</ele><time>2026-03-22T15:09:03Z</time></trkpt><trkpt lat="45.65010109614855" lon="-0.07760381170559484"><ele>30.0</ele><time>2026-03-22T15:09:04Z</time></trkpt><trkpt lat="45.65017325972288" lon="-0.07782774893660796"><ele>29.333333333333336</ele><time>2026-03-22T15:09:05Z</time></trkpt><trkpt lat="45.650232052374264" lon="-0.07805145902389221"><ele>28.666666666666668</ele><time>2026-03-22T15:09:06Z</time></trkpt><trkpt lat="45.650298778882075" lon="-0.07828524566579272"><ele>28.0</ele><time>2026-03-22T15:09:07Z</time></trkpt><trkpt lat="45.65037101819658" lon="-0.07853476421078134"><ele>27.0</ele><time>2026-03-22T15:09:08Z</time></trkpt><trkpt lat="45.65051351486039" lon="-0.07906317238492629"><ele>26.0</ele><time>2026-03-22T15:09:10Z</time></trkpt><trkpt lat="45.65058594632418" lon="-0.0793193861692064"><ele>25.333333333333332</ele><time>2026-03-22T15:09:11Z</time></trkpt><trkpt lat="45.650658224442054" lon="-0.07959420166246363"><ele>24.666666666666664</ele><time>2026-03-22T15:09:12Z</time></trkpt><trkpt lat="45.65073788443917" lon="-0.07986716819798216"><ele>24.0</ele><time>2026-03-22T15:09:13Z</time></trkpt><trkpt lat="45.650817763548304" lon="-0.08015611917491902"><ele>23.0</ele><time>2026-03-22T15:09:14Z</time></trkpt><trkpt lat="45.650897809790884" lon="-0.08045154948228661"><ele>22.0</ele><time>2026-03-22T15:09:15Z</time></trkpt><trkpt lat="45.650990947987694" lon="-0.0807605882314646"><ele>21.333333333333332</ele><time>2026-03-22T15:09:16Z</time></trkpt><trkpt lat="45.65107460390548" lon="-0.08106407519477427"><ele>20.666666666666668</ele><time>2026-03-22T15:09:17Z</time></trkpt><trkpt lat="45.651153532003676" lon="-0.08133679466688583"><ele>20.0</ele><time>2026-03-22T15:09:18Z</time></trkpt><trkpt lat="45.65123509792561" lon="-0.08158875813092803"><ele>20.0</ele><time>2026-03-22T15:09:19Z</time></trkpt><trkpt lat="45.651312425770904" lon="-0.08184104253398705"><ele>20.0</ele><time>2026-03-22T15:09:20Z</time></trkpt><trkpt lat="45.651390097789665" lon="-0.08210010503495177"><ele>20.0</ele><time>2026-03-22T15:09:21Z</time></trkpt><trkpt lat="45.65146648566221" lon="-0.0823577754920986"><ele>19.666666666666668</ele><time>2026-03-22T15:09:22Z</time></trkpt><trkpt lat="45.65154292284485" lon="-0.08261582708337847"><ele>19.333333333333332</ele><time>2026-03-22T15:09:23Z</time></trkpt><trkpt lat="45.65161627920692" lon="-0.08286225375081606"><ele>19.0</ele><time>2026-03-22T15:09:24Z</time></trkpt><trkpt lat="45.65168359050434" lon="-0.08309121493112351"><ele>18.666666666666664</ele><time>2026-03-22T15:09:25Z</time></trkpt><trkpt lat="45.65174372728912" lon="-0.08329338536194279"><ele>18.333333333333332</ele><time>2026-03-22T15:09:26Z</time></trkpt><trkpt lat="45.651806479076384" lon="-0.0834964044979728"><ele>18.0</ele><time>2026-03-22T15:09:27Z</time></trkpt><trkpt lat="45.65186249527273" lon="-0.08368550677484124"><ele>18.0</ele><time>2026-03-22T15:09:28Z</time></trkpt><trkpt lat="45.65191833638869" lon="-0.08386638830343272"><ele>18.0</ele><time>2026-03-22T15:09:29Z</time></trkpt><trkpt lat="45.65197318773619" lon="-0.08403503764502204"><ele>18.0</ele><time>2026-03-22T15:09:30Z</time></trkpt><trkpt lat="45.65203437128719" lon="-0.08420375716671082"><ele>18.0</ele><time>2026-03-22T15:09:31Z</time></trkpt><trkpt lat="45.65210557661179" lon="-0.08437342524336094"><ele>18.25</ele><time>2026-03-22T15:09:32Z</time></trkpt><trkpt lat="45.65218800627416" lon="-0.08455043670144868"><ele>18.5</ele><time>2026-03-22T15:09:33Z</time></trkpt><trkpt lat="45.65227102947051" lon="-0.08472749863403112"><ele>18.75</ele><time>2026-03-22T15:09:34Z</time></trkpt><trkpt lat="45.65235598716283" lon="-0.08489937887695603"><ele>19.0</ele><time>2026-03-22T15:09:35Z</time></trkpt><trkpt lat="45.65243338069674" lon="-0.08505879366120805"><ele>19.0</ele><time>2026-03-22T15:09:36Z</time></trkpt><trkpt lat="45.65251305425528" lon="-0.08522207227530275"><ele>19.0</ele><time>2026-03-22T15:09:37Z</time></trkpt><trkpt lat="45.65258956108462" lon="-0.0853832050280886"><ele>19.0</ele><time>2026-03-22T15:09:38Z</time></trkpt><trkpt lat="45.65266727536356" lon="-0.0855446533155345"><ele>19.0</ele><time>2026-03-22T15:09:39Z</time></trkpt><trkpt lat="45.65274188478015" lon="-0.08570450171755924"><ele>19.25</ele><time>2026-03-22T15:09:40Z</time></trkpt><trkpt lat="45.652811683113036" lon="-0.0858521173083836"><ele>19.5</ele><time>2026-03-22T15:09:41Z</time></trkpt><trkpt lat="45.652881644020425" lon="-0.08599990256320779"><ele>19.75</ele><time>2026-03-22T15:09:42Z</time></trkpt><trkpt lat="45.652946413428815" lon="-0.08614141181606962"><ele>20.0</ele><time>2026-03-22T15:09:43Z</time></trkpt><trkpt lat="45.65301928874772" lon="-0.08628841288158805"><ele>20.0</ele><time>2026-03-22T15:09:44Z</time></trkpt><trkpt lat="45.653094469076024" lon="-0.08643687020293786"><ele>20.0</ele><time>2026-03-22T15:09:45Z</time></trkpt><trkpt lat="45.65317570793609" lon="-0.0865875468442324"><ele>20.0</ele><time>2026-03-22T15:09:46Z</time></trkpt><trkpt lat="45.65326053607883" lon="-0.08673870564119833"><ele>20.0</ele><time>2026-03-22T15:09:47Z</time></trkpt><trkpt lat="45.65334964833487" lon="-0.08687558256859537"><ele>20.0</ele><time>2026-03-22T15:09:48Z</time></trkpt><trkpt lat="45.65344457126258" lon="-0.08699251147470985"><ele>20.0</ele><time>2026-03-22T15:09:49Z</time></trkpt><trkpt lat="45.653549765901516" lon="-0.08709670397403324"><ele>20.0</ele><time>2026-03-22T15:09:50Z</time></trkpt><trkpt lat="45.653773193606064" lon="-0.08729297613725691"><ele>20.0</ele><time>2026-03-22T15:09:52Z</time></trkpt><trkpt lat="45.65388606789154" lon="-0.08740045922276347"><ele>20.0</ele><time>2026-03-22T15:09:53Z</time></trkpt><trkpt lat="45.65399983505615" lon="-0.0875112749670465"><ele>20.0</ele><time>2026-03-22T15:09:54Z</time></trkpt><trkpt lat="45.65410838501209" lon="-0.08761966676642023"><ele>20.0</ele><time>2026-03-22T15:09:55Z</time></trkpt><trkpt lat="45.6542206343463" lon="-0.0877275455318047"><ele>19.75</ele><time>2026-03-22T15:09:56Z</time></trkpt><trkpt lat="45.6543273198765" lon="-0.08783286919388"><ele>19.5</ele><time>2026-03-22T15:09:57Z</time></trkpt><trkpt lat="45.65443979253883" lon="-0.0879416888112647"><ele>19.25</ele><time>2026-03-22T15:09:58Z</time></trkpt><trkpt lat="45.65455638780406" lon="-0.08805618462844053"><ele>19.0</ele><time>2026-03-22T15:09:59Z</time></trkpt><trkpt lat="45.6546740006838" lon="-0.08817182721452411"><ele>19.0</ele><time>2026-03-22T15:10:00Z</time></trkpt><trkpt lat="45.654793949620036" lon="-0.08828023184922683"><ele>19.0</ele><time>2026-03-22T15:10:01Z</time></trkpt><trkpt lat="45.65491594129232" lon="-0.08839963283311889"><ele>19.0</ele><time>2026-03-22T15:10:02Z</time></trkpt><trkpt lat="45.655033755488" lon="-0.08852223309809755"><ele>19.0</ele><time>2026-03-22T15:10:03Z</time></trkpt><trkpt lat="45.65516043316647" lon="-0.08864796130972134"><ele>19.0</ele><time>2026-03-22T15:10:04Z</time></trkpt><trkpt lat="45.65527265647046" lon="-0.08879058645314417"><ele>19.0</ele><time>2026-03-22T15:10:05Z</time></trkpt><trkpt lat="45.655359936650754" lon="-0.08895287605687952"><ele>19.0</ele><time>2026-03-22T15:10:06Z</time></trkpt><trkpt lat="45.655427926252365" lon="-0.08913511579021877"><ele>19.0</ele><time>2026-03-22T15:10:07Z</time></trkpt><trkpt lat="45.655480083627275" lon="-0.08932141827597113"><ele>19.0</ele><time>2026-03-22T15:10:08Z</time></trkpt><trkpt lat="45.655523786416126" lon="-0.08950507285935548"><ele>19.0</ele><time>2026-03-22T15:10:09Z</time></trkpt><trkpt lat="45.6555597502908" lon="-0.08968462196371418"><ele>19.0</ele><time>2026-03-22T15:10:10Z</time></trkpt><trkpt lat="45.65559364447005" lon="-0.08985628441354426"><ele>19.0</ele><time>2026-03-22T15:10:11Z</time></trkpt><trkpt lat="45.655630072551716" lon="-0.09002533268651168"><ele>19.25</ele><time>2026-03-22T15:10:12Z</time></trkpt><trkpt lat="45.65566923972533" lon="-0.09019416935167976"><ele>19.5</ele><time>2026-03-22T15:10:13Z</time></trkpt><trkpt lat="45.65570851582707" lon="-0.09036476890068637"><ele>19.75</ele><time>2026-03-22T15:10:14Z</time></trkpt><trkpt lat="45.65574776479174" lon="-0.09053600620331906"><ele>20.0</ele><time>2026-03-22T15:10:15Z</time></trkpt><trkpt lat="45.65578716470098" lon="-0.09071286741874494"><ele>20.0</ele><time>2026-03-22T15:10:16Z</time></trkpt><trkpt lat="45.65582666320536" lon="-0.09089044442118734"><ele>20.0</ele><time>2026-03-22T15:10:17Z</time></trkpt><trkpt lat="45.65586757496859" lon="-0.0910701158464284"><ele>20.0</ele><time>2026-03-22T15:10:18Z</time></trkpt><trkpt lat="45.655909011975815" lon="-0.0912449181098339"><ele>20.0</ele><time>2026-03-22T15:10:19Z</time></trkpt><trkpt lat="45.655952861923346" lon="-0.09141414511754922"><ele>19.666666666666668</ele><time>2026-03-22T15:10:20Z</time></trkpt><trkpt lat="45.65605649912956" lon="-0.09173857560197753"><ele>19.333333333333332</ele><time>2026-03-22T15:10:22Z</time></trkpt><trkpt lat="45.656120488011" lon="-0.09189989177441903"><ele>19.0</ele><time>2026-03-22T15:10:23Z</time></trkpt><trkpt lat="45.65618987221262" lon="-0.0920600122544327"><ele>19.25</ele><time>2026-03-22T15:10:24Z</time></trkpt><trkpt lat="45.656266198247714" lon="-0.09221772996474954"><ele>19.5</ele><time>2026-03-22T15:10:25Z</time></trkpt><trkpt lat="45.6563490172627" lon="-0.09237404801016637"><ele>19.75</ele><time>2026-03-22T15:10:26Z</time></trkpt><trkpt lat="45.65643330217155" lon="-0.09252827503631884"><ele>20.0</ele><time>2026-03-22T15:10:27Z</time></trkpt><trkpt lat="45.656517446231405" lon="-0.092688642030516"><ele>20.0</ele><time>2026-03-22T15:10:28Z</time></trkpt><trkpt lat="45.65660534120609" lon="-0.09284989016841726"><ele>20.0</ele><time>2026-03-22T15:10:29Z</time></trkpt><trkpt lat="45.65669349735319" lon="-0.09301600995066685"><ele>20.0</ele><time>2026-03-22T15:10:30Z</time></trkpt><trkpt lat="45.656786109273106" lon="-0.09318191436453868"><ele>20.0</ele><time>2026-03-22T15:10:31Z</time></trkpt><trkpt lat="45.656874928801834" lon="-0.09334665538163726"><ele>20.5</ele><time>2026-03-22T15:10:32Z</time></trkpt><trkpt lat="45.65696432775108" lon="-0.09351637907744395"><ele>21.0</ele><time>2026-03-22T15:10:33Z</time></trkpt><trkpt lat="45.657051544485135" lon="-0.09368284997256301"><ele>21.5</ele><time>2026-03-22T15:10:34Z</time></trkpt><trkpt lat="45.6571413218296" lon="-0.09384449318160597"><ele>22.0</ele><time>2026-03-22T15:10:35Z</time></trkpt><trkpt lat="45.657233576708244" lon="-0.09401426616725587"><ele>21.666666666666664</ele><time>2026-03-22T15:10:36Z</time></trkpt><trkpt lat="45.65732412326229" lon="-0.09417441199357966"><ele>21.333333333333332</ele><time>2026-03-22T15:10:37Z</time></trkpt><trkpt lat="45.657415650002996" lon="-0.09434454074608453"><ele>21.0</ele><time>2026-03-22T15:10:38Z</time></trkpt><trkpt lat="45.657501385478454" lon="-0.09453563777024318"><ele>21.0</ele><time>2026-03-22T15:10:39Z</time></trkpt><trkpt lat="45.657595600806594" lon="-0.09469691003429934"><ele>21.0</ele><time>2026-03-22T15:10:40Z</time></trkpt><trkpt lat="45.65769250211852" lon="-0.09485115364682137"><ele>21.0</ele><time>2026-03-22T15:10:41Z</time></trkpt><trkpt lat="45.65778141010328" lon="-0.09501741531320136"><ele>21.0</ele><time>2026-03-22T15:10:42Z</time></trkpt><trkpt lat="45.657866348003466" lon="-0.09518157586572513"><ele>21.25</ele><time>2026-03-22T15:10:43Z</time></trkpt><trkpt lat="45.6579533460262" lon="-0.09533853996548898"><ele>21.5</ele><time>2026-03-22T15:10:44Z</time></trkpt><trkpt lat="45.65804085294583" lon="-0.09549335740472704"><ele>21.75</ele><time>2026-03-22T15:10:45Z</time></trkpt><trkpt lat="45.65812337286283" lon="-0.09564391864470055"><ele>22.0</ele><time>2026-03-22T15:10:46Z</time></trkpt><trkpt lat="45.658207603863104" lon="-0.09580208080199532"><ele>22.0</ele><time>2026-03-22T15:10:47Z</time></trkpt><trkpt lat="45.65828535200231" lon="-0.09595972121784957"><ele>22.0</ele><time>2026-03-22T15:10:48Z</time></trkpt><trkpt lat="45.65836169040384" lon="-0.09612013956439382"><ele>22.0</ele><time>2026-03-22T15:10:49Z</time></trkpt><trkpt lat="45.65843213135261" lon="-0.09628955796686704"><ele>22.0</ele><time>2026-03-22T15:10:50Z</time></trkpt><trkpt lat="45.65849311275938" lon="-0.09647206672335781"><ele>22.0</ele><time>2026-03-22T15:10:51Z</time></trkpt><trkpt lat="45.658552260270746" lon="-0.09666846258988401"><ele>22.0</ele><time>2026-03-22T15:10:52Z</time></trkpt><trkpt lat="45.65860924147191" lon="-0.09686920404238494"><ele>22.0</ele><time>2026-03-22T15:10:53Z</time></trkpt><trkpt lat="45.6586634438637" lon="-0.09707026161529062"><ele>22.0</ele><time>2026-03-22T15:10:54Z</time></trkpt><trkpt lat="45.65871316498402" lon="-0.09726554372047586"><ele>22.0</ele><time>2026-03-22T15:10:55Z</time></trkpt><trkpt lat="45.65876113007881" lon="-0.09745125871043439"><ele>22.0</ele><time>2026-03-22T15:10:56Z</time></trkpt><trkpt lat="45.65880648885432" lon="-0.09763342681823683"><ele>22.0</ele><time>2026-03-22T15:10:57Z</time></trkpt><trkpt lat="45.658856393069314" lon="-0.09781333718052548"><ele>22.0</ele><time>2026-03-22T15:10:58Z</time></trkpt><trkpt lat="45.658904072912875" lon="-0.09799628851497871"><ele>22.0</ele><time>2026-03-22T15:10:59Z</time></trkpt><trkpt lat="45.658950254501875" lon="-0.09817686859292647"><ele>22.0</ele><time>2026-03-22T15:11:00Z</time></trkpt><trkpt lat="45.65899400970694" lon="-0.09834567438867495"><ele>22.0</ele><time>2026-03-22T15:11:01Z</time></trkpt><trkpt lat="45.65904355903376" lon="-0.09850668980028511"><ele>21.5</ele><time>2026-03-22T15:11:02Z</time></trkpt><trkpt lat="45.659099115369" lon="-0.0986805597397897"><ele>21.0</ele><time>2026-03-22T15:11:03Z</time></trkpt><trkpt lat="45.65915226351422" lon="-0.09884275461930833"><ele>20.5</ele><time>2026-03-22T15:11:04Z</time></trkpt><trkpt lat="45.65923185174126" lon="-0.0990036422573276"><ele>20.0</ele><time>2026-03-22T15:11:05Z</time></trkpt><trkpt lat="45.659320333845415" lon="-0.09916342189837464"><ele>19.75</ele><time>2026-03-22T15:11:06Z</time></trkpt><trkpt lat="45.65940686447674" lon="-0.09929546656474655"><ele>19.5</ele><time>2026-03-22T15:11:07Z</time></trkpt><trkpt lat="45.65949757491888" lon="-0.09943783579842634"><ele>19.25</ele><time>2026-03-22T15:11:08Z</time></trkpt><trkpt lat="45.65958678129395" lon="-0.09959571046955482"><ele>19.0</ele><time>2026-03-22T15:11:09Z</time></trkpt><trkpt lat="45.65967463318946" lon="-0.09974274342660894"><ele>19.0</ele><time>2026-03-22T15:11:10Z</time></trkpt><trkpt lat="45.65976457900877" lon="-0.09989652951877541"><ele>19.0</ele><time>2026-03-22T15:11:11Z</time></trkpt><trkpt lat="45.65985343978423" lon="-0.10003086657022466"><ele>19.0</ele><time>2026-03-22T15:11:12Z</time></trkpt><trkpt lat="45.659940023609416" lon="-0.10016163411522111"><ele>19.0</ele><time>2026-03-22T15:11:13Z</time></trkpt><trkpt lat="45.660021457815574" lon="-0.10029104349614697"><ele>19.0</ele><time>2026-03-22T15:11:14Z</time></trkpt><trkpt lat="45.66010277831424" lon="-0.10043097777497505"><ele>19.0</ele><time>2026-03-22T15:11:15Z</time></trkpt><trkpt lat="45.660191441853264" lon="-0.10055982955193217"><ele>19.0</ele><time>2026-03-22T15:11:16Z</time></trkpt><trkpt lat="45.66027208697369" lon="-0.10068227274488507"><ele>19.0</ele><time>2026-03-22T15:11:17Z</time></trkpt><trkpt lat="45.660353768474295" lon="-0.10080365421135624"><ele>19.0</ele><time>2026-03-22T15:11:18Z</time></trkpt><trkpt lat="45.66043387223247" lon="-0.10094807765541701"><ele>19.0</ele><time>2026-03-22T15:11:19Z</time></trkpt><trkpt lat="45.66050503555926" lon="-0.1010769530970967"><ele>19.0</ele><time>2026-03-22T15:11:20Z</time></trkpt><trkpt lat="45.66058564581758" lon="-0.10121679289667089"><ele>19.0</ele><time>2026-03-22T15:11:21Z</time></trkpt><trkpt lat="45.660664614846056" lon="-0.1013629137740828"><ele>19.0</ele><time>2026-03-22T15:11:22Z</time></trkpt><trkpt lat="45.660739835264614" lon="-0.1015124084515325"><ele>19.0</ele><time>2026-03-22T15:11:23Z</time></trkpt><trkpt lat="45.6608035795148" lon="-0.10166609339518297"><ele>19.0</ele><time>2026-03-22T15:11:24Z</time></trkpt><trkpt lat="45.66087200343603" lon="-0.1018002191322351"><ele>19.0</ele><time>2026-03-22T15:11:25Z</time></trkpt><trkpt lat="45.660937161244625" lon="-0.10194382583316196"><ele>19.0</ele><time>2026-03-22T15:11:26Z</time></trkpt><trkpt lat="45.66101208230823" lon="-0.10207258257197822"><ele>19.0</ele><time>2026-03-22T15:11:27Z</time></trkpt><trkpt lat="45.66107671602266" lon="-0.1022276713470697"><ele>19.0</ele><time>2026-03-22T15:11:28Z</time></trkpt><trkpt lat="45.661144039813536" lon="-0.10236325215609926"><ele>19.0</ele><time>2026-03-22T15:11:29Z</time></trkpt><trkpt lat="45.66121859591863" lon="-0.10249350511473505"><ele>19.2</ele><time>2026-03-22T15:11:30Z</time></trkpt><trkpt lat="45.66128314836014" lon="-0.10261792427450042"><ele>19.4</ele><time>2026-03-22T15:11:31Z</time></trkpt><trkpt lat="45.66134732524964" lon="-0.10274056645857171"><ele>19.6</ele><time>2026-03-22T15:11:32Z</time></trkpt><trkpt lat="45.661408338999614" lon="-0.10286627647240039"><ele>19.8</ele><time>2026-03-22T15:11:33Z</time></trkpt><trkpt lat="45.661455141130666" lon="-0.10300476352407742"><ele>20.0</ele><time>2026-03-22T15:11:34Z</time></trkpt><trkpt lat="45.661532439585635" lon="-0.10312733924490394"><ele>20.2</ele><time>2026-03-22T15:11:35Z</time></trkpt><trkpt lat="45.66160690548706" lon="-0.10326157148598823"><ele>20.4</ele><time>2026-03-22T15:11:36Z</time></trkpt><trkpt lat="45.661660470635674" lon="-0.10338526267480881"><ele>20.6</ele><time>2026-03-22T15:11:37Z</time></trkpt><trkpt lat="45.66171606912467" lon="-0.10352981446409608"><ele>20.8</ele><time>2026-03-22T15:11:38Z</time></trkpt><trkpt lat="45.661775762896845" lon="-0.1036522597841566"><ele>21.0</ele><time>2026-03-22T15:11:39Z</time></trkpt><trkpt lat="45.661851528789704" lon="-0.10373384916478678"><ele>21.0</ele><time>2026-03-22T15:11:40Z</time></trkpt><trkpt lat="45.661910805516634" lon="-0.10381816266854005"><ele>21.0</ele><time>2026-03-22T15:11:41Z</time></trkpt><trkpt lat="45.66195453000621" lon="-0.10392247065543778"><ele>21.0</ele><time>2026-03-22T15:11:42Z</time></trkpt><trkpt lat="45.662000661797364" lon="-0.10401411749418649"><ele>21.0</ele><time>2026-03-22T15:11:43Z</time></trkpt><trkpt lat="45.66203257253788" lon="-0.10410732353320601"><ele>21.0</ele><time>2026-03-22T15:11:44Z</time></trkpt><trkpt lat="45.6621157238703" lon="-0.10424012222637605"><ele>21.0</ele><time>2026-03-22T15:11:46Z</time></trkpt><trkpt lat="45.66216221751232" lon="-0.10434838911242116"><ele>21.200000000000003</ele><time>2026-03-22T15:11:48Z</time></trkpt><trkpt lat="45.6622210255616" lon="-0.10444862887776787"><ele>21.400000000000002</ele><time>2026-03-22T15:11:50Z</time></trkpt><trkpt lat="45.662274009910405" lon="-0.10455414551835984"><ele>21.6</ele><time>2026-03-22T15:11:52Z</time></trkpt><trkpt lat="45.66234384618017" lon="-0.10464204678387903"><ele>21.8</ele><time>2026-03-22T15:11:54Z</time></trkpt><trkpt lat="45.662404008206785" lon="-0.10476827130174801"><ele>22.0</ele><time>2026-03-22T15:11:56Z</time></trkpt><trkpt lat="45.66247927416994" lon="-0.10490785196763516"><ele>22.400000000000002</ele><time>2026-03-22T15:11:58Z</time></trkpt><trkpt lat="45.6625195548804" lon="-0.10497857072165102"><ele>22.8</ele><time>2026-03-22T15:11:59Z</time></trkpt><trkpt lat="45.662586014786534" lon="-0.10509982309137555"><ele>23.2</ele><time>2026-03-22T15:12:01Z</time></trkpt><trkpt lat="45.6626377550297" lon="-0.10518864739638964"><ele>23.6</ele><time>2026-03-22T15:12:03Z</time></trkpt><trkpt lat="45.662703141966674" lon="-0.10531065661354844"><ele>24.0</ele><time>2026-03-22T15:12:05Z</time></trkpt><trkpt lat="45.66278415456693" lon="-0.10540394215749228"><ele>24.0</ele><time>2026-03-22T15:12:07Z</time></trkpt><trkpt lat="45.66286883258984" lon="-0.10548041596069785"><ele>24.0</ele><time>2026-03-22T15:12:09Z</time></trkpt><trkpt lat="45.6629538448891" lon="-0.10555988253817675"><ele>24.0</ele><time>2026-03-22T15:12:11Z</time></trkpt><trkpt lat="45.66304882982331" lon="-0.10565235804502471"><ele>24.0</ele><time>2026-03-22T15:12:13Z</time></trkpt><trkpt lat="45.663103258271406" lon="-0.10570231609274613"><ele>24.0</ele><time>2026-03-22T15:12:14Z</time></trkpt><trkpt lat="45.663160700906666" lon="-0.10575898008513296"><ele>23.833333333333332</ele><time>2026-03-22T15:12:15Z</time></trkpt><trkpt lat="45.66326175770434" lon="-0.1058670418672532"><ele>23.666666666666668</ele><time>2026-03-22T15:12:17Z</time></trkpt><trkpt lat="45.663327947104904" lon="-0.10592826629803802"><ele>23.5</ele><time>2026-03-22T15:12:18Z</time></trkpt><trkpt lat="45.663373790125554" lon="-0.10599139844239677"><ele>23.333333333333336</ele><time>2026-03-22T15:12:19Z</time></trkpt><trkpt lat="45.66344740531676" lon="-0.10609088116339276"><ele>23.166666666666668</ele><time>2026-03-22T15:12:21Z</time></trkpt><trkpt lat="45.663491157255095" lon="-0.10616337033110902"><ele>23.0</ele><time>2026-03-22T15:12:23Z</time></trkpt><trkpt lat="45.663538728983184" lon="-0.10622438868905075"><ele>23.0</ele><time>2026-03-22T15:12:26Z</time></trkpt><trkpt lat="45.66360704342924" lon="-0.10631004483427675"><ele>23.0</ele><time>2026-03-22T15:12:31Z</time></trkpt><trkpt lat="45.663683556527104" lon="-0.10647509000846467"><ele>23.0</ele><time>2026-03-22T15:12:33Z</time></trkpt><trkpt lat="45.663753337931446" lon="-0.10662266727162427"><ele>23.0</ele><time>2026-03-22T15:12:35Z</time></trkpt><trkpt lat="45.66380186966224" lon="-0.1066814813504089"><ele>23.0</ele><time>2026-03-22T15:12:36Z</time></trkpt><trkpt lat="45.663871289568476" lon="-0.10678897956200611"><ele>23.25</ele><time>2026-03-22T15:12:38Z</time></trkpt><trkpt lat="45.663928840867854" lon="-0.10690082839633752"><ele>23.5</ele><time>2026-03-22T15:12:39Z</time></trkpt><trkpt lat="45.664008251816114" lon="-0.10702292232569083"><ele>23.75</ele><time>2026-03-22T15:12:40Z</time></trkpt><trkpt lat="45.66410147776664" lon="-0.10716115106648279"><ele>24.0</ele><time>2026-03-22T15:12:41Z</time></trkpt><trkpt lat="45.66417188180059" lon="-0.10729313866959603"><ele>23.799999999999997</ele><time>2026-03-22T15:12:42Z</time></trkpt><trkpt lat="45.66425024074804" lon="-0.10742302409793596"><ele>23.599999999999998</ele><time>2026-03-22T15:12:43Z</time></trkpt><trkpt lat="45.66432722622246" lon="-0.10755731467956227"><ele>23.4</ele><time>2026-03-22T15:12:44Z</time></trkpt><trkpt lat="45.66440044217826" lon="-0.10767256844448542"><ele>23.2</ele><time>2026-03-22T15:12:45Z</time></trkpt><trkpt lat="45.66446835087262" lon="-0.1077719030077643"><ele>23.0</ele><time>2026-03-22T15:12:46Z</time></trkpt><trkpt lat="45.66451413674667" lon="-0.10786330129834232"><ele>23.166666666666668</ele><time>2026-03-22T15:12:47Z</time></trkpt><trkpt lat="45.664573954207874" lon="-0.10795238311648737"><ele>23.333333333333336</ele><time>2026-03-22T15:12:48Z</time></trkpt><trkpt lat="45.664624999054396" lon="-0.10804603070831305"><ele>23.5</ele><time>2026-03-22T15:12:49Z</time></trkpt><trkpt lat="45.66468622662136" lon="-0.10814996862291187"><ele>23.666666666666668</ele><time>2026-03-22T15:12:51Z</time></trkpt><trkpt lat="45.66472620180954" lon="-0.10823261711858555"><ele>23.833333333333332</ele><time>2026-03-22T15:12:53Z</time></trkpt><trkpt lat="45.66478983745738" lon="-0.10834761975094424"><ele>24.0</ele><time>2026-03-22T15:12:56Z</time></trkpt><trkpt lat="45.66487708178607" lon="-0.108496255997378"><ele>24.0</ele><time>2026-03-22T15:12:58Z</time></trkpt><trkpt lat="45.66493762103654" lon="-0.10855507064172877"><ele>24.0</ele><time>2026-03-22T15:12:59Z</time></trkpt><trkpt lat="45.66500160304348" lon="-0.1086295758323727"><ele>24.0</ele><time>2026-03-22T15:13:00Z</time></trkpt><trkpt lat="45.66507992880246" lon="-0.10871737428830901"><ele>24.0</ele><time>2026-03-22T15:13:01Z</time></trkpt><trkpt lat="45.66518833613133" lon="-0.10882780939854757"><ele>24.0</ele><time>2026-03-22T15:13:02Z</time></trkpt><trkpt lat="45.66530360437084" lon="-0.10889750367941743"><ele>23.75</ele><time>2026-03-22T15:13:03Z</time></trkpt><trkpt lat="45.665396354698075" lon="-0.10899300974801816"><ele>23.5</ele><time>2026-03-22T15:13:04Z</time></trkpt><trkpt lat="45.665490706778556" lon="-0.10907607846130779"><ele>23.25</ele><time>2026-03-22T15:13:05Z</time></trkpt><trkpt lat="45.66559130528411" lon="-0.10916487373104627"><ele>23.0</ele><time>2026-03-22T15:13:06Z</time></trkpt><trkpt lat="45.665694482082635" lon="-0.10925563163428065"><ele>23.0</ele><time>2026-03-22T15:13:07Z</time></trkpt><trkpt lat="45.66580405088202" lon="-0.10934997145134925"><ele>23.0</ele><time>2026-03-22T15:13:08Z</time></trkpt><trkpt lat="45.66590964612094" lon="-0.10944549714197803"><ele>23.0</ele><time>2026-03-22T15:13:09Z</time></trkpt><trkpt lat="45.66600983905421" lon="-0.10953695133388168"><ele>23.0</ele><time>2026-03-22T15:13:10Z</time></trkpt><trkpt lat="45.666110096262756" lon="-0.1096350252677253"><ele>23.25</ele><time>2026-03-22T15:13:11Z</time></trkpt><trkpt lat="45.66621648980728" lon="-0.10972840517364651"><ele>23.5</ele><time>2026-03-22T15:13:12Z</time></trkpt><trkpt lat="45.66633087383938" lon="-0.1098123931167724"><ele>23.75</ele><time>2026-03-22T15:13:13Z</time></trkpt><trkpt lat="45.66646629980275" lon="-0.10988770611084756"><ele>24.0</ele><time>2026-03-22T15:13:14Z</time></trkpt><trkpt lat="45.666568773068136" lon="-0.109974909073522"><ele>24.25</ele><time>2026-03-22T15:13:15Z</time></trkpt><trkpt lat="45.66668130202562" lon="-0.11004455484978662"><ele>24.5</ele><time>2026-03-22T15:13:16Z</time></trkpt><trkpt lat="45.6667964081899" lon="-0.11008017371096634"><ele>24.75</ele><time>2026-03-22T15:13:17Z</time></trkpt><trkpt lat="45.66692445356431" lon="-0.11012854221683674"><ele>25.0</ele><time>2026-03-22T15:13:18Z</time></trkpt><trkpt lat="45.667033979132086" lon="-0.11016497569350729"><ele>25.0</ele><time>2026-03-22T15:13:19Z</time></trkpt><trkpt lat="45.66714243558659" lon="-0.11018298843666592"><ele>25.0</ele><time>2026-03-22T15:13:20Z</time></trkpt><trkpt lat="45.66725124993152" lon="-0.11024034563758729"><ele>25.0</ele><time>2026-03-22T15:13:21Z</time></trkpt><trkpt lat="45.66735946927501" lon="-0.11029676489082414"><ele>25.0</ele><time>2026-03-22T15:13:22Z</time></trkpt><trkpt lat="45.66747531512469" lon="-0.110349446985764"><ele>25.0</ele><time>2026-03-22T15:13:23Z</time></trkpt><trkpt lat="45.667594555128744" lon="-0.11039260586531253"><ele>25.0</ele><time>2026-03-22T15:13:24Z</time></trkpt><trkpt lat="45.66770451942617" lon="-0.11043424813528567"><ele>25.0</ele><time>2026-03-22T15:13:25Z</time></trkpt><trkpt lat="45.66781467225796" lon="-0.11048552722213"><ele>25.0</ele><time>2026-03-22T15:13:26Z</time></trkpt><trkpt lat="45.66792933925567" lon="-0.11053303023646763"><ele>25.25</ele><time>2026-03-22T15:13:27Z</time></trkpt><trkpt lat="45.668029060296895" lon="-0.11056126882315193"><ele>25.5</ele><time>2026-03-22T15:13:28Z</time></trkpt><trkpt lat="45.66814768326176" lon="-0.11062635293679081"><ele>25.75</ele><time>2026-03-22T15:13:29Z</time></trkpt><trkpt lat="45.66825878928933" lon="-0.11068096061065685"><ele>26.0</ele><time>2026-03-22T15:13:30Z</time></trkpt><trkpt lat="45.66835901625883" lon="-0.11072784625539372"><ele>26.0</ele><time>2026-03-22T15:13:31Z</time></trkpt><trkpt lat="45.668449535309115" lon="-0.11076881082826744"><ele>26.0</ele><time>2026-03-22T15:13:32Z</time></trkpt><trkpt lat="45.66853523130805" lon="-0.11080700013834208"><ele>26.0</ele><time>2026-03-22T15:13:33Z</time></trkpt><trkpt lat="45.66861298088725" lon="-0.11084801213271575"><ele>26.0</ele><time>2026-03-22T15:13:34Z</time></trkpt><trkpt lat="45.668689867896205" lon="-0.11089625111061474"><ele>26.0</ele><time>2026-03-22T15:13:35Z</time></trkpt><trkpt lat="45.66880361473811" lon="-0.11094019898472847"><ele>25.999999999999996</ele><time>2026-03-22T15:13:37Z</time></trkpt><trkpt lat="45.668865000732005" lon="-0.11097306451139621"><ele>26.0</ele><time>2026-03-22T15:13:38Z</time></trkpt><trkpt lat="45.668935686465105" lon="-0.11100263973564184"><ele>26.0</ele><time>2026-03-22T15:13:39Z</time></trkpt><trkpt lat="45.66903261074711" lon="-0.111038421639425"><ele>26.0</ele><time>2026-03-22T15:13:40Z</time></trkpt><trkpt lat="45.66909077491494" lon="-0.11108413030273853"><ele>25.999999999999996</ele><time>2026-03-22T15:13:41Z</time></trkpt><trkpt lat="45.669177602725945" lon="-0.11111496176458996"><ele>26.0</ele><time>2026-03-22T15:13:42Z</time></trkpt><trkpt lat="45.66926592520672" lon="-0.11116622841607586"><ele>26.0</ele><time>2026-03-22T15:13:43Z</time></trkpt><trkpt lat="45.669361934261545" lon="-0.11122554882608693"><ele>26.0</ele><time>2026-03-22T15:13:44Z</time></trkpt><trkpt lat="45.66946034977337" lon="-0.11128934034679264"><ele>26.0</ele><time>2026-03-22T15:13:45Z</time></trkpt><trkpt lat="45.669559097858524" lon="-0.1113222177665934"><ele>26.0</ele><time>2026-03-22T15:13:46Z</time></trkpt><trkpt lat="45.66966234029744" lon="-0.11137663037863296"><ele>26.0</ele><time>2026-03-22T15:13:47Z</time></trkpt><trkpt lat="45.669793479418395" lon="-0.11142442734753981"><ele>25.5</ele><time>2026-03-22T15:13:48Z</time></trkpt><trkpt lat="45.66991879637907" lon="-0.11147499782384888"><ele>25.0</ele><time>2026-03-22T15:13:49Z</time></trkpt><trkpt lat="45.67004731744658" lon="-0.11154278971137849"><ele>24.5</ele><time>2026-03-22T15:13:50Z</time></trkpt><trkpt lat="45.670181007136165" lon="-0.11160774515420437"><ele>24.0</ele><time>2026-03-22T15:13:51Z</time></trkpt><trkpt lat="45.67031087888536" lon="-0.11167361474013845"><ele>23.5</ele><time>2026-03-22T15:13:52Z</time></trkpt><trkpt lat="45.67044380589789" lon="-0.11173752984731179"><ele>23.0</ele><time>2026-03-22T15:13:53Z</time></trkpt><trkpt lat="45.670584377146945" lon="-0.11180209061640552"><ele>22.5</ele><time>2026-03-22T15:13:54Z</time></trkpt><trkpt lat="45.670723502152846" lon="-0.11187220736713861"><ele>22.0</ele><time>2026-03-22T15:13:55Z</time></trkpt><trkpt lat="45.670864255488475" lon="-0.1119372580854126"><ele>22.0</ele><time>2026-03-22T15:13:56Z</time></trkpt><trkpt lat="45.67100715787933" lon="-0.1120035518618265"><ele>22.0</ele><time>2026-03-22T15:13:57Z</time></trkpt><trkpt lat="45.6711497705979" lon="-0.11207253077597344"><ele>22.0</ele><time>2026-03-22T15:13:58Z</time></trkpt><trkpt lat="45.67128866374273" lon="-0.11213988121193234"><ele>22.0</ele><time>2026-03-22T15:13:59Z</time></trkpt><trkpt lat="45.67142990481972" lon="-0.11220571366341325"><ele>21.75</ele><time>2026-03-22T15:14:00Z</time></trkpt><trkpt lat="45.671567142043386" lon="-0.11226672998059449"><ele>21.5</ele><time>2026-03-22T15:14:01Z</time></trkpt><trkpt lat="45.671697489510095" lon="-0.11232402241074371"><ele>21.25</ele><time>2026-03-22T15:14:02Z</time></trkpt><trkpt lat="45.671822372185304" lon="-0.11238472778842508"><ele>21.0</ele><time>2026-03-22T15:14:03Z</time></trkpt><trkpt lat="45.671953427981435" lon="-0.11243471489143832"><ele>21.0</ele><time>2026-03-22T15:14:04Z</time></trkpt><trkpt lat="45.672066820538426" lon="-0.1125387693391888"><ele>21.0</ele><time>2026-03-22T15:14:05Z</time></trkpt><trkpt lat="45.67216779881053" lon="-0.11261483679735071"><ele>21.0</ele><time>2026-03-22T15:14:06Z</time></trkpt><trkpt lat="45.67225241479943" lon="-0.11273435212329928"><ele>21.0</ele><time>2026-03-22T15:14:07Z</time></trkpt><trkpt lat="45.67233836146904" lon="-0.11285664320967279"><ele>21.0</ele><time>2026-03-22T15:14:08Z</time></trkpt><trkpt lat="45.67242518255829" lon="-0.11298016333534316"><ele>21.0</ele><time>2026-03-22T15:14:09Z</time></trkpt><trkpt lat="45.67250626815284" lon="-0.1131002660290197"><ele>21.0</ele><time>2026-03-22T15:14:10Z</time></trkpt><trkpt lat="45.67259126440744" lon="-0.1132189536777618"><ele>21.0</ele><time>2026-03-22T15:14:11Z</time></trkpt><trkpt lat="45.67267286300707" lon="-0.11333690965842798"><ele>21.25</ele><time>2026-03-22T15:14:12Z</time></trkpt><trkpt lat="45.672754260076296" lon="-0.1134610370511674"><ele>21.5</ele><time>2026-03-22T15:14:13Z</time></trkpt><trkpt lat="45.67283687029428" lon="-0.11358502089153039"><ele>21.75</ele><time>2026-03-22T15:14:14Z</time></trkpt><trkpt lat="45.672919988999396" lon="-0.11370792233644776"><ele>22.0</ele><time>2026-03-22T15:14:15Z</time></trkpt><trkpt lat="45.673006227499876" lon="-0.11383044264306237"><ele>23.0</ele><time>2026-03-22T15:14:16Z</time></trkpt><trkpt lat="45.67308896464107" lon="-0.11394630512813722"><ele>24.0</ele><time>2026-03-22T15:14:17Z</time></trkpt><trkpt lat="45.673171099654134" lon="-0.11406122514741857"><ele>25.0</ele><time>2026-03-22T15:14:18Z</time></trkpt><trkpt lat="45.67325553068936" lon="-0.11418472395900688"><ele>26.0</ele><time>2026-03-22T15:14:19Z</time></trkpt><trkpt lat="45.67334361922986" lon="-0.11431027984343424"><ele>26.0</ele><time>2026-03-22T15:14:20Z</time></trkpt><trkpt lat="45.67342983716119" lon="-0.11443944801763907"><ele>26.0</ele><time>2026-03-22T15:14:21Z</time></trkpt><trkpt lat="45.67351876778131" lon="-0.11456944447598938"><ele>26.0</ele><time>2026-03-22T15:14:22Z</time></trkpt><trkpt lat="45.67361044821362" lon="-0.11469227166559645"><ele>26.0</ele><time>2026-03-22T15:14:23Z</time></trkpt><trkpt lat="45.67370819165701" lon="-0.11480280893121668"><ele>25.5</ele><time>2026-03-22T15:14:24Z</time></trkpt><trkpt lat="45.67381639498781" lon="-0.11489148387323483"><ele>25.0</ele><time>2026-03-22T15:14:25Z</time></trkpt><trkpt lat="45.67393485763158" lon="-0.11495067369830429"><ele>24.5</ele><time>2026-03-22T15:14:26Z</time></trkpt><trkpt lat="45.6740645737883" lon="-0.11498747125669238"><ele>24.0</ele><time>2026-03-22T15:14:27Z</time></trkpt><trkpt lat="45.674198287305906" lon="-0.11501280950664733"><ele>24.5</ele><time>2026-03-22T15:14:28Z</time></trkpt><trkpt lat="45.67433066754244" lon="-0.11503285597106631"><ele>25.0</ele><time>2026-03-22T15:14:29Z</time></trkpt><trkpt lat="45.67446014619033" lon="-0.11505939754111523"><ele>25.5</ele><time>2026-03-22T15:14:30Z</time></trkpt><trkpt lat="45.67459987888565" lon="-0.11509566702752921"><ele>26.0</ele><time>2026-03-22T15:14:31Z</time></trkpt><trkpt lat="45.67473885375922" lon="-0.11513352515951417"><ele>26.0</ele><time>2026-03-22T15:14:32Z</time></trkpt><trkpt lat="45.67487958866211" lon="-0.11516894306782537"><ele>26.0</ele><time>2026-03-22T15:14:33Z</time></trkpt><trkpt lat="45.67501972836504" lon="-0.11520084761380207"><ele>26.0</ele><time>2026-03-22T15:14:34Z</time></trkpt><trkpt lat="45.67515722667014" lon="-0.11522440778358475"><ele>26.0</ele><time>2026-03-22T15:14:35Z</time></trkpt><trkpt lat="45.675295848155436" lon="-0.11525076345405057"><ele>25.25</ele><time>2026-03-22T15:14:36Z</time></trkpt><trkpt lat="45.67542886102953" lon="-0.11527900682167193"><ele>24.5</ele><time>2026-03-22T15:14:37Z</time></trkpt><trkpt lat="45.67556134914564" lon="-0.11530849177877392"><ele>23.75</ele><time>2026-03-22T15:14:38Z</time></trkpt><trkpt lat="45.675688783295335" lon="-0.11533783899056567"><ele>23.0</ele><time>2026-03-22T15:14:39Z</time></trkpt><trkpt lat="45.675814655514166" lon="-0.11536867522158825"><ele>23.0</ele><time>2026-03-22T15:14:40Z</time></trkpt><trkpt lat="45.67594219129741" lon="-0.11539647085569704"><ele>23.0</ele><time>2026-03-22T15:14:41Z</time></trkpt><trkpt lat="45.67606912988173" lon="-0.11541965066082119"><ele>23.0</ele><time>2026-03-22T15:14:42Z</time></trkpt><trkpt lat="45.67618986426324" lon="-0.11544642419378115"><ele>23.0</ele><time>2026-03-22T15:14:43Z</time></trkpt><trkpt lat="45.67630868718665" lon="-0.11546896956322979"><ele>23.2</ele><time>2026-03-22T15:14:44Z</time></trkpt><trkpt lat="45.6764238493161" lon="-0.11548474756118998"><ele>23.4</ele><time>2026-03-22T15:14:45Z</time></trkpt><trkpt lat="45.676533933530926" lon="-0.11548714373768244"><ele>23.599999999999998</ele><time>2026-03-22T15:14:46Z</time></trkpt><trkpt lat="45.676638706497755" lon="-0.11547452920660829"><ele>23.799999999999997</ele><time>2026-03-22T15:14:47Z</time></trkpt><trkpt lat="45.67673417718947" lon="-0.1154589583844594"><ele>24.0</ele><time>2026-03-22T15:14:48Z</time></trkpt><trkpt lat="45.676820322268384" lon="-0.11546804585272187"><ele>24.0</ele><time>2026-03-22T15:14:49Z</time></trkpt><trkpt lat="45.67689108615296" lon="-0.11551316971103137"><ele>24.0</ele><time>2026-03-22T15:14:50Z</time></trkpt><trkpt lat="45.67694038629288" lon="-0.11559050872109139"><ele>24.0</ele><time>2026-03-22T15:14:51Z</time></trkpt><trkpt lat="45.676998283957154" lon="-0.1156881259998194"><ele>24.0</ele><time>2026-03-22T15:14:52Z</time></trkpt><trkpt lat="45.67704672511554" lon="-0.11577240821118491"><ele>24.0</ele><time>2026-03-22T15:14:53Z</time></trkpt><trkpt lat="45.677095505617174" lon="-0.11585011796620472"><ele>24.0</ele><time>2026-03-22T15:14:54Z</time></trkpt><trkpt lat="45.677207991327556" lon="-0.11600356555648818"><ele>23.833333333333332</ele><time>2026-03-22T15:14:56Z</time></trkpt><trkpt lat="45.67726431069351" lon="-0.11611199473023405"><ele>23.666666666666668</ele><time>2026-03-22T15:14:57Z</time></trkpt><trkpt lat="45.67732657942894" lon="-0.116181735473627"><ele>23.5</ele><time>2026-03-22T15:14:58Z</time></trkpt><trkpt lat="45.67738997434722" lon="-0.11623791623147575"><ele>23.333333333333336</ele><time>2026-03-22T15:14:59Z</time></trkpt><trkpt lat="45.67745883081146" lon="-0.11628311891051205"><ele>23.166666666666668</ele><time>2026-03-22T15:15:00Z</time></trkpt><trkpt lat="45.67754221492745" lon="-0.11637894332020823"><ele>23.0</ele><time>2026-03-22T15:15:02Z</time></trkpt><trkpt lat="45.67762041464606" lon="-0.1164272258882698"><ele>23.0</ele><time>2026-03-22T15:15:04Z</time></trkpt><trkpt lat="45.677710867478126" lon="-0.11653730104322549"><ele>23.0</ele><time>2026-03-22T15:15:07Z</time></trkpt><trkpt lat="45.67777096992585" lon="-0.11659675866568109"><ele>23.0</ele><time>2026-03-22T15:15:08Z</time></trkpt><trkpt lat="45.6778488088436" lon="-0.11664975390811186"><ele>23.0</ele><time>2026-03-22T15:15:09Z</time></trkpt><trkpt lat="45.67792325046315" lon="-0.11673883365071128"><ele>23.0</ele><time>2026-03-22T15:15:10Z</time></trkpt><trkpt lat="45.6780164106878" lon="-0.116850242541296"><ele>21.75</ele><time>2026-03-22T15:15:11Z</time></trkpt><trkpt lat="45.67812996024966" lon="-0.11696879705442274"><ele>20.5</ele><time>2026-03-22T15:15:12Z</time></trkpt><trkpt lat="45.67822679897002" lon="-0.11705798310678941"><ele>19.25</ele><time>2026-03-22T15:15:13Z</time></trkpt><trkpt lat="45.678318509735774" lon="-0.11715628188458549"><ele>18.0</ele><time>2026-03-22T15:15:14Z</time></trkpt><trkpt lat="45.678396399746674" lon="-0.1172504632062955"><ele>18.0</ele><time>2026-03-22T15:15:15Z</time></trkpt><trkpt lat="45.678473242568366" lon="-0.1173485769445689"><ele>18.0</ele><time>2026-03-22T15:15:16Z</time></trkpt><trkpt lat="45.67856576122582" lon="-0.11744949522129093"><ele>18.0</ele><time>2026-03-22T15:15:17Z</time></trkpt><trkpt lat="45.67866249500733" lon="-0.1175585829923272"><ele>18.0</ele><time>2026-03-22T15:15:18Z</time></trkpt><trkpt lat="45.67875715336362" lon="-0.11768093644450375"><ele>18.0</ele><time>2026-03-22T15:15:19Z</time></trkpt><trkpt lat="45.678850013324215" lon="-0.11781811750590286"><ele>18.0</ele><time>2026-03-22T15:15:20Z</time></trkpt><trkpt lat="45.67895123918984" lon="-0.11798555602183067"><ele>18.0</ele><time>2026-03-22T15:15:21Z</time></trkpt><trkpt lat="45.67902596425101" lon="-0.11814556521119778"><ele>18.0</ele><time>2026-03-22T15:15:22Z</time></trkpt><trkpt lat="45.6790990848092" lon="-0.11833458008234563"><ele>18.5</ele><time>2026-03-22T15:15:23Z</time></trkpt><trkpt lat="45.67915737516006" lon="-0.11850286111443296"><ele>19.0</ele><time>2026-03-22T15:15:24Z</time></trkpt><trkpt lat="45.67920638274141" lon="-0.11865633183581378"><ele>19.5</ele><time>2026-03-22T15:15:25Z</time></trkpt><trkpt lat="45.67924733384362" lon="-0.11881786127893433"><ele>20.0</ele><time>2026-03-22T15:15:26Z</time></trkpt><trkpt lat="45.67928348840337" lon="-0.11892994341942441"><ele>20.0</ele><time>2026-03-22T15:15:27Z</time></trkpt><trkpt lat="45.67932894955496" lon="-0.11906502576025654"><ele>20.0</ele><time>2026-03-22T15:15:28Z</time></trkpt><trkpt lat="45.67937397150449" lon="-0.11917213772098938"><ele>20.0</ele><time>2026-03-22T15:15:29Z</time></trkpt><trkpt lat="45.67947260503379" lon="-0.1193122158908885"><ele>20.0</ele><time>2026-03-22T15:15:31Z</time></trkpt><trkpt lat="45.67953076645047" lon="-0.11938200834381701"><ele>20.0</ele><time>2026-03-22T15:15:32Z</time></trkpt><trkpt lat="45.67951607876758" lon="-0.11958622709478355"><ele>20.0</ele><time>2026-03-22T15:15:33Z</time></trkpt><trkpt lat="45.679533963768215" lon="-0.1197222213899169"><ele>20.0</ele><time>2026-03-22T15:15:34Z</time></trkpt><trkpt lat="45.679581680455506" lon="-0.11986334252970691"><ele>20.0</ele><time>2026-03-22T15:15:35Z</time></trkpt><trkpt lat="45.679634763072606" lon="-0.12000992502816601"><ele>20.0</ele><time>2026-03-22T15:15:36Z</time></trkpt><trkpt lat="45.679686701372106" lon="-0.1201599826012787"><ele>20.0</ele><time>2026-03-22T15:15:37Z</time></trkpt><trkpt lat="45.67973677609901" lon="-0.12030657304151926"><ele>20.0</ele><time>2026-03-22T15:15:38Z</time></trkpt><trkpt lat="45.67978654022484" lon="-0.12045923282880448"><ele>20.0</ele><time>2026-03-22T15:15:39Z</time></trkpt><trkpt lat="45.6798360767328" lon="-0.12061398651434194"><ele>20.0</ele><time>2026-03-22T15:15:40Z</time></trkpt><trkpt lat="45.67988949509801" lon="-0.120780746899943"><ele>20.0</ele><time>2026-03-22T15:15:41Z</time></trkpt><trkpt lat="45.67994257961044" lon="-0.12094460940249255"><ele>20.0</ele><time>2026-03-22T15:15:42Z</time></trkpt><trkpt lat="45.67999383593622" lon="-0.1210937652063593"><ele>20.0</ele><time>2026-03-22T15:15:43Z</time></trkpt><trkpt lat="45.68002543741365" lon="-0.12124563227362647"><ele>20.0</ele><time>2026-03-22T15:15:44Z</time></trkpt><trkpt lat="45.6800833979366" lon="-0.12139085688648633"><ele>20.0</ele><time>2026-03-22T15:15:45Z</time></trkpt><trkpt lat="45.68012334476358" lon="-0.12155146795349128"><ele>20.0</ele><time>2026-03-22T15:15:46Z</time></trkpt><trkpt lat="45.68017338415863" lon="-0.12170317502309934"><ele>20.0</ele><time>2026-03-22T15:15:47Z</time></trkpt><trkpt lat="45.68022117019097" lon="-0.1218545112364351"><ele>20.0</ele><time>2026-03-22T15:15:48Z</time></trkpt><trkpt lat="45.68027185273521" lon="-0.1219962000764129"><ele>20.0</ele><time>2026-03-22T15:15:49Z</time></trkpt><trkpt lat="45.68032053780629" lon="-0.12215555153393595"><ele>20.0</ele><time>2026-03-22T15:15:50Z</time></trkpt><trkpt lat="45.680366639569435" lon="-0.12230830711695086"><ele>20.0</ele><time>2026-03-22T15:15:51Z</time></trkpt><trkpt lat="45.68041999375928" lon="-0.1224620643927692"><ele>20.0</ele><time>2026-03-22T15:15:52Z</time></trkpt><trkpt lat="45.68046180983218" lon="-0.12261999608116259"><ele>20.0</ele><time>2026-03-22T15:15:53Z</time></trkpt><trkpt lat="45.68051306940093" lon="-0.1227716454067754"><ele>20.25</ele><time>2026-03-22T15:15:54Z</time></trkpt><trkpt lat="45.68056900487642" lon="-0.12291103727189358"><ele>20.5</ele><time>2026-03-22T15:15:55Z</time></trkpt><trkpt lat="45.680614382506775" lon="-0.12309851933411917"><ele>20.75</ele><time>2026-03-22T15:15:56Z</time></trkpt><trkpt lat="45.68067463659944" lon="-0.12326317557359164"><ele>21.0</ele><time>2026-03-22T15:15:57Z</time></trkpt><trkpt lat="45.68073083099126" lon="-0.12343165645376042"><ele>21.0</ele><time>2026-03-22T15:15:58Z</time></trkpt><trkpt lat="45.68078559329075" lon="-0.1236111639856848"><ele>21.0</ele><time>2026-03-22T15:15:59Z</time></trkpt><trkpt lat="45.680834243385156" lon="-0.12378780096366122"><ele>21.0</ele><time>2026-03-22T15:16:00Z</time></trkpt><trkpt lat="45.6808981930449" lon="-0.12396686430097345"><ele>21.0</ele><time>2026-03-22T15:16:01Z</time></trkpt><trkpt lat="45.68093881047134" lon="-0.12412777901604236"><ele>21.333333333333332</ele><time>2026-03-22T15:16:02Z</time></trkpt><trkpt lat="45.68099004022576" lon="-0.12429045401879149"><ele>21.666666666666664</ele><time>2026-03-22T15:16:03Z</time></trkpt><trkpt lat="45.681068558061924" lon="-0.12453438537154247"><ele>22.0</ele><time>2026-03-22T15:16:04Z</time></trkpt><trkpt lat="45.68114157800291" lon="-0.12473902891184162"><ele>21.333333333333332</ele><time>2026-03-22T15:16:05Z</time></trkpt><trkpt lat="45.6812005330382" lon="-0.12497458057488396"><ele>20.666666666666668</ele><time>2026-03-22T15:16:06Z</time></trkpt><trkpt lat="45.68125765743666" lon="-0.1251825945465333"><ele>20.0</ele><time>2026-03-22T15:16:07Z</time></trkpt><trkpt lat="45.6813136954221" lon="-0.12541426498644764"><ele>20.0</ele><time>2026-03-22T15:16:08Z</time></trkpt><trkpt lat="45.68136994516793" lon="-0.12563422156195772"><ele>20.0</ele><time>2026-03-22T15:16:09Z</time></trkpt><trkpt lat="45.68143864635694" lon="-0.12586650098143481"><ele>20.0</ele><time>2026-03-22T15:16:10Z</time></trkpt><trkpt lat="45.6814890871773" lon="-0.12610376407768784"><ele>19.333333333333336</ele><time>2026-03-22T15:16:11Z</time></trkpt><trkpt lat="45.68154644401198" lon="-0.12634042490173245"><ele>18.666666666666668</ele><time>2026-03-22T15:16:12Z</time></trkpt><trkpt lat="45.681611158998074" lon="-0.12655528415997927"><ele>18.0</ele><time>2026-03-22T15:16:13Z</time></trkpt><trkpt lat="45.68166921121564" lon="-0.1267859866613444"><ele>17.333333333333332</ele><time>2026-03-22T15:16:14Z</time></trkpt><trkpt lat="45.68173758584285" lon="-0.12701176629847946"><ele>16.666666666666664</ele><time>2026-03-22T15:16:15Z</time></trkpt><trkpt lat="45.68181349109858" lon="-0.12723191452881613"><ele>16.0</ele><time>2026-03-22T15:16:16Z</time></trkpt><trkpt lat="45.68189150952297" lon="-0.12744162247211305"><ele>17.0</ele><time>2026-03-22T15:16:17Z</time></trkpt><trkpt lat="45.681968451707014" lon="-0.12764494060504566"><ele>18.0</ele><time>2026-03-22T15:16:18Z</time></trkpt><trkpt lat="45.68205737250962" lon="-0.12784379844809152"><ele>19.0</ele><time>2026-03-22T15:16:19Z</time></trkpt><trkpt lat="45.682141524326155" lon="-0.12805425831047562"><ele>18.666666666666664</ele><time>2026-03-22T15:16:20Z</time></trkpt><trkpt lat="45.68222515639175" lon="-0.1282671238884433"><ele>18.333333333333332</ele><time>2026-03-22T15:16:21Z</time></trkpt><trkpt lat="45.68231504561245" lon="-0.1284829859511155"><ele>18.0</ele><time>2026-03-22T15:16:22Z</time></trkpt><trkpt lat="45.68240864038819" lon="-0.12868751328414352"><ele>18.0</ele><time>2026-03-22T15:16:23Z</time></trkpt><trkpt lat="45.68249569437311" lon="-0.12890639960057526"><ele>18.0</ele><time>2026-03-22T15:16:24Z</time></trkpt><trkpt lat="45.6825772575577" lon="-0.12911157127411876"><ele>18.0</ele><time>2026-03-22T15:16:25Z</time></trkpt><trkpt lat="45.682641294464" lon="-0.1293093381862339"><ele>18.333333333333332</ele><time>2026-03-22T15:16:26Z</time></trkpt><trkpt lat="45.68269673250642" lon="-0.1295204405003881"><ele>18.666666666666664</ele><time>2026-03-22T15:16:27Z</time></trkpt><trkpt lat="45.682744905959275" lon="-0.1297344835105817"><ele>19.0</ele><time>2026-03-22T15:16:28Z</time></trkpt><trkpt lat="45.68278608064602" lon="-0.12994272782557298"><ele>19.333333333333332</ele><time>2026-03-22T15:16:29Z</time></trkpt><trkpt lat="45.68279353540519" lon="-0.13018145811418605"><ele>19.666666666666668</ele><time>2026-03-22T15:16:30Z</time></trkpt><trkpt lat="45.682801435511934" lon="-0.13042098783409986"><ele>20.0</ele><time>2026-03-22T15:16:31Z</time></trkpt><trkpt lat="45.682815689812294" lon="-0.1306500301497791"><ele>20.333333333333336</ele><time>2026-03-22T15:16:32Z</time></trkpt><trkpt lat="45.68283920017683" lon="-0.13088725337779816"><ele>20.666666666666668</ele><time>2026-03-22T15:16:33Z</time></trkpt><trkpt lat="45.682854041731886" lon="-0.131132024363667"><ele>21.0</ele><time>2026-03-22T15:16:34Z</time></trkpt><trkpt lat="45.6828679735373" lon="-0.13138449052621487"><ele>21.0</ele><time>2026-03-22T15:16:35Z</time></trkpt><trkpt lat="45.6828817578523" lon="-0.13163990145195914"><ele>21.0</ele><time>2026-03-22T15:16:36Z</time></trkpt><trkpt lat="45.682896167607325" lon="-0.1319047890364225"><ele>21.0</ele><time>2026-03-22T15:16:37Z</time></trkpt><trkpt lat="45.68291040144818" lon="-0.13216796541943718"><ele>20.666666666666668</ele><time>2026-03-22T15:16:38Z</time></trkpt><trkpt lat="45.682923257268726" lon="-0.13243189061341917"><ele>20.333333333333336</ele><time>2026-03-22T15:16:39Z</time></trkpt><trkpt lat="45.682941926603654" lon="-0.13272165057533583"><ele>20.0</ele><time>2026-03-22T15:16:40Z</time></trkpt><trkpt lat="45.682964444453035" lon="-0.1329912281224392"><ele>19.0</ele><time>2026-03-22T15:16:41Z</time></trkpt><trkpt lat="45.68298514613412" lon="-0.13327640430842005"><ele>18.0</ele><time>2026-03-22T15:16:42Z</time></trkpt><trkpt lat="45.68298928368665" lon="-0.13358110122196137"><ele>17.0</ele><time>2026-03-22T15:16:43Z</time></trkpt><trkpt lat="45.683026985123114" lon="-0.13384706249092537"><ele>16.5</ele><time>2026-03-22T15:16:44Z</time></trkpt><trkpt lat="45.683053104119736" lon="-0.1341020497284992"><ele>16.0</ele><time>2026-03-22T15:16:45Z</time></trkpt><trkpt lat="45.68309602822679" lon="-0.13462499609149542"><ele>15.666666666666666</ele><time>2026-03-22T15:16:47Z</time></trkpt><trkpt lat="45.68310398471206" lon="-0.13489847256792822"><ele>15.333333333333332</ele><time>2026-03-22T15:16:48Z</time></trkpt><trkpt lat="45.68312779262263" lon="-0.13514165819468887"><ele>15.0</ele><time>2026-03-22T15:16:49Z</time></trkpt><trkpt lat="45.68316544006244" lon="-0.13538140735721282"><ele>15.0</ele><time>2026-03-22T15:16:50Z</time></trkpt><trkpt lat="45.68318149013157" lon="-0.135642338785676"><ele>15.0</ele><time>2026-03-22T15:16:51Z</time></trkpt><trkpt lat="45.68320700867212" lon="-0.1359002236757279"><ele>15.0</ele><time>2026-03-22T15:16:52Z</time></trkpt><trkpt lat="45.68322870251223" lon="-0.13614753120074014"><ele>15.0</ele><time>2026-03-22T15:16:53Z</time></trkpt><trkpt lat="45.683248572952344" lon="-0.13640361399051631"><ele>15.0</ele><time>2026-03-22T15:16:54Z</time></trkpt><trkpt lat="45.68325891515097" lon="-0.13665924926545098"><ele>15.0</ele><time>2026-03-22T15:16:55Z</time></trkpt><trkpt lat="45.68327590260438" lon="-0.1369118591794433"><ele>15.333333333333332</ele><time>2026-03-22T15:16:56Z</time></trkpt><trkpt lat="45.683311024028505" lon="-0.13715031855237123"><ele>15.666666666666666</ele><time>2026-03-22T15:16:57Z</time></trkpt><trkpt lat="45.683319215219484" lon="-0.13740373282618248"><ele>16.0</ele><time>2026-03-22T15:16:58Z</time></trkpt><trkpt lat="45.683321200187464" lon="-0.13764813787893204"><ele>16.0</ele><time>2026-03-22T15:16:59Z</time></trkpt><trkpt lat="45.68331249341246" lon="-0.13789103126656382"><ele>16.0</ele><time>2026-03-22T15:17:00Z</time></trkpt><trkpt lat="45.68329254890269" lon="-0.13813090085510873"><ele>16.0</ele><time>2026-03-22T15:17:01Z</time></trkpt><trkpt lat="45.683268997615016" lon="-0.13839107000605821"><ele>16.0</ele><time>2026-03-22T15:17:02Z</time></trkpt><trkpt lat="45.683251208576266" lon="-0.13864574236907162"><ele>16.0</ele><time>2026-03-22T15:17:03Z</time></trkpt><trkpt lat="45.68325289173618" lon="-0.13889544594160724"><ele>16.0</ele><time>2026-03-22T15:17:04Z</time></trkpt><trkpt lat="45.68326735737455" lon="-0.13915421886800172"><ele>16.0</ele><time>2026-03-22T15:17:05Z</time></trkpt><trkpt lat="45.68329674378991" lon="-0.13939805295736948"><ele>16.0</ele><time>2026-03-22T15:17:06Z</time></trkpt><trkpt lat="45.68333033697663" lon="-0.1396342562156835"><ele>16.0</ele><time>2026-03-22T15:17:07Z</time></trkpt><trkpt lat="45.68337949327653" lon="-0.13986870963578749"><ele>16.333333333333332</ele><time>2026-03-22T15:17:08Z</time></trkpt><trkpt lat="45.6834343530604" lon="-0.1400701347097228"><ele>16.666666666666668</ele><time>2026-03-22T15:17:09Z</time></trkpt><trkpt lat="45.68351490097079" lon="-0.14028297373332665"><ele>17.0</ele><time>2026-03-22T15:17:10Z</time></trkpt><trkpt lat="45.68360179294514" lon="-0.14051829554381617"><ele>16.333333333333336</ele><time>2026-03-22T15:17:11Z</time></trkpt><trkpt lat="45.68368016562717" lon="-0.14072972440493633"><ele>15.666666666666668</ele><time>2026-03-22T15:17:12Z</time></trkpt><trkpt lat="45.68375845244718" lon="-0.14092625954429996"><ele>15.0</ele><time>2026-03-22T15:17:13Z</time></trkpt><trkpt lat="45.683832872891614" lon="-0.1411234554627979"><ele>15.0</ele><time>2026-03-22T15:17:14Z</time></trkpt><trkpt lat="45.6839040873776" lon="-0.1413081647366958"><ele>15.0</ele><time>2026-03-22T15:17:15Z</time></trkpt><trkpt lat="45.68398653417636" lon="-0.14151265771688473"><ele>15.0</ele><time>2026-03-22T15:17:16Z</time></trkpt><trkpt lat="45.684066938080406" lon="-0.1417262621614154"><ele>15.0</ele><time>2026-03-22T15:17:17Z</time></trkpt><trkpt lat="45.684146525320195" lon="-0.14192133203570198"><ele>15.0</ele><time>2026-03-22T15:17:18Z</time></trkpt><trkpt lat="45.684219331140476" lon="-0.14212493389358433"><ele>15.0</ele><time>2026-03-22T15:17:19Z</time></trkpt><trkpt lat="45.684285566417" lon="-0.14233988452945165"><ele>15.0</ele><time>2026-03-22T15:17:20Z</time></trkpt><trkpt lat="45.68435021569744" lon="-0.14257095075685738"><ele>15.0</ele><time>2026-03-22T15:17:21Z</time></trkpt><trkpt lat="45.68439573147487" lon="-0.1427907551318873"><ele>15.0</ele><time>2026-03-22T15:17:22Z</time></trkpt><trkpt lat="45.68442502332842" lon="-0.14300835455494693"><ele>15.0</ele><time>2026-03-22T15:17:23Z</time></trkpt><trkpt lat="45.684445440690496" lon="-0.14322359713198296"><ele>15.0</ele><time>2026-03-22T15:17:24Z</time></trkpt><trkpt lat="45.68445891184779" lon="-0.1434539178073367"><ele>15.0</ele><time>2026-03-22T15:17:25Z</time></trkpt><trkpt lat="45.68448330419785" lon="-0.14368182571717023"><ele>15.0</ele><time>2026-03-22T15:17:26Z</time></trkpt><trkpt lat="45.684501476696234" lon="-0.1439193667176744"><ele>15.0</ele><time>2026-03-22T15:17:27Z</time></trkpt><trkpt lat="45.68452118089761" lon="-0.1441496430731807"><ele>15.0</ele><time>2026-03-22T15:17:28Z</time></trkpt><trkpt lat="45.684542063381976" lon="-0.1443931968315357"><ele>14.333333333333332</ele><time>2026-03-22T15:17:29Z</time></trkpt><trkpt lat="45.68456977298776" lon="-0.1446312618505287"><ele>13.666666666666666</ele><time>2026-03-22T15:17:30Z</time></trkpt><trkpt lat="45.68458861943583" lon="-0.14488486450791066"><ele>13.0</ele><time>2026-03-22T15:17:31Z</time></trkpt><trkpt lat="45.68461472105181" lon="-0.14512984320857739"><ele>13.0</ele><time>2026-03-22T15:17:32Z</time></trkpt><trkpt lat="45.68462731222085" lon="-0.1453360506326187"><ele>13.0</ele><time>2026-03-22T15:17:33Z</time></trkpt><trkpt lat="45.684645669867955" lon="-0.1455692968383348"><ele>13.0</ele><time>2026-03-22T15:17:34Z</time></trkpt><trkpt lat="45.68467143142607" lon="-0.14578171180842958"><ele>13.25</ele><time>2026-03-22T15:17:35Z</time></trkpt><trkpt lat="45.68469289098703" lon="-0.1459827783628954"><ele>13.5</ele><time>2026-03-22T15:17:36Z</time></trkpt><trkpt lat="45.684711388457835" lon="-0.1461988685662382"><ele>13.75</ele><time>2026-03-22T15:17:37Z</time></trkpt><trkpt lat="45.6847287806469" lon="-0.14639567359681088"><ele>14.0</ele><time>2026-03-22T15:17:38Z</time></trkpt><trkpt lat="45.68476665710959" lon="-0.14658769539656658"><ele>14.5</ele><time>2026-03-22T15:17:39Z</time></trkpt><trkpt lat="45.684800014846246" lon="-0.14674470983558935"><ele>15.0</ele><time>2026-03-22T15:17:40Z</time></trkpt><trkpt lat="45.684844676386135" lon="-0.1469130522681341"><ele>15.5</ele><time>2026-03-22T15:17:41Z</time></trkpt><trkpt lat="45.68489123114771" lon="-0.14710031096958506"><ele>16.0</ele><time>2026-03-22T15:17:42Z</time></trkpt><trkpt lat="45.68495018811815" lon="-0.14722091830323994"><ele>16.0</ele><time>2026-03-22T15:17:43Z</time></trkpt><trkpt lat="45.68501284519256" lon="-0.14735293005922984"><ele>16.0</ele><time>2026-03-22T15:17:44Z</time></trkpt><trkpt lat="45.685105498136274" lon="-0.1474681609876008"><ele>16.0</ele><time>2026-03-22T15:17:45Z</time></trkpt><trkpt lat="45.68515405871978" lon="-0.14762559157623445"><ele>16.0</ele><time>2026-03-22T15:17:46Z</time></trkpt><trkpt lat="45.685227369577255" lon="-0.14777199839663457"><ele>16.25</ele><time>2026-03-22T15:17:47Z</time></trkpt><trkpt lat="45.68530611190764" lon="-0.14792165621193323"><ele>16.5</ele><time>2026-03-22T15:17:48Z</time></trkpt><trkpt lat="45.68537492645224" lon="-0.14808490673318753"><ele>16.75</ele><time>2026-03-22T15:17:49Z</time></trkpt><trkpt lat="45.68544971731166" lon="-0.1482418339963825"><ele>17.0</ele><time>2026-03-22T15:17:50Z</time></trkpt><trkpt lat="45.68551696004374" lon="-0.14839269616258938"><ele>17.0</ele><time>2026-03-22T15:17:51Z</time></trkpt><trkpt lat="45.68558808137612" lon="-0.14853313964222412"><ele>17.0</ele><time>2026-03-22T15:17:52Z</time></trkpt><trkpt lat="45.68565949003933" lon="-0.14869713019818973"><ele>17.0</ele><time>2026-03-22T15:17:53Z</time></trkpt><trkpt lat="45.68573640562561" lon="-0.14884543396929367"><ele>17.0</ele><time>2026-03-22T15:17:54Z</time></trkpt><trkpt lat="45.6858010723668" lon="-0.14898601403326256"><ele>17.5</ele><time>2026-03-22T15:17:55Z</time></trkpt><trkpt lat="45.68585300267015" lon="-0.14912444622845486"><ele>18.0</ele><time>2026-03-22T15:17:56Z</time></trkpt><trkpt lat="45.685924336787494" lon="-0.14924662177297263"><ele>18.5</ele><time>2026-03-22T15:17:57Z</time></trkpt><trkpt lat="45.68599537779981" lon="-0.14942510001177506"><ele>19.0</ele><time>2026-03-22T15:17:58Z</time></trkpt><trkpt lat="45.68606233665141" lon="-0.14957486985637042"><ele>18.75</ele><time>2026-03-22T15:17:59Z</time></trkpt><trkpt lat="45.686145688113854" lon="-0.1497094846227586"><ele>18.5</ele><time>2026-03-22T15:18:00Z</time></trkpt><trkpt lat="45.68621149737986" lon="-0.14984710474616794"><ele>18.25</ele><time>2026-03-22T15:18:01Z</time></trkpt><trkpt lat="45.68628482478895" lon="-0.14999443701420548"><ele>18.0</ele><time>2026-03-22T15:18:02Z</time></trkpt><trkpt lat="45.68635271819945" lon="-0.1501350610053825"><ele>18.0</ele><time>2026-03-22T15:18:03Z</time></trkpt><trkpt lat="45.686417657304986" lon="-0.1502708885147931"><ele>18.0</ele><time>2026-03-22T15:18:04Z</time></trkpt><trkpt lat="45.68647495208711" lon="-0.15039750052026435"><ele>18.0</ele><time>2026-03-22T15:18:05Z</time></trkpt><trkpt lat="45.68653758357015" lon="-0.1505183901763333"><ele>18.0</ele><time>2026-03-22T15:18:06Z</time></trkpt><trkpt lat="45.68659733511603" lon="-0.1506444587188455"><ele>18.0</ele><time>2026-03-22T15:18:07Z</time></trkpt><trkpt lat="45.686656129125645" lon="-0.15077471867350117"><ele>18.0</ele><time>2026-03-22T15:18:08Z</time></trkpt><trkpt lat="45.68671635340276" lon="-0.15089733320239912"><ele>18.0</ele><time>2026-03-22T15:18:09Z</time></trkpt><trkpt lat="45.686771402833294" lon="-0.15101377757889015"><ele>18.0</ele><time>2026-03-22T15:18:10Z</time></trkpt><trkpt lat="45.686816692292865" lon="-0.15111976478103784"><ele>18.0</ele><time>2026-03-22T15:18:11Z</time></trkpt><trkpt lat="45.68689810460498" lon="-0.15124705050249868"><ele>18.0</ele><time>2026-03-22T15:18:13Z</time></trkpt><trkpt lat="45.68695434983914" lon="-0.15134129344443117"><ele>17.8</ele><time>2026-03-22T15:18:15Z</time></trkpt><trkpt lat="45.686983126006446" lon="-0.15143089629373688"><ele>17.6</ele><time>2026-03-22T15:18:17Z</time></trkpt><trkpt lat="45.68704028033937" lon="-0.1515219779470125"><ele>17.4</ele><time>2026-03-22T15:18:20Z</time></trkpt><trkpt lat="45.68717905992413" lon="-0.15139717941888"><ele>17.2</ele><time>2026-03-22T15:18:21Z</time></trkpt><trkpt lat="45.687241434268884" lon="-0.1513421388553382"><ele>17.0</ele><time>2026-03-22T15:18:22Z</time></trkpt><trkpt lat="45.68729760520839" lon="-0.15128519299794005"><ele>17.0</ele><time>2026-03-22T15:18:23Z</time></trkpt><trkpt lat="45.68734923624192" lon="-0.15122637177107334"><ele>17.0</ele><time>2026-03-22T15:18:24Z</time></trkpt><trkpt lat="45.68740102260348" lon="-0.1511719046037471"><ele>17.0</ele><time>2026-03-22T15:18:25Z</time></trkpt><trkpt lat="45.68748386780629" lon="-0.15102991426050683"><ele>17.0</ele><time>2026-03-22T15:18:27Z</time></trkpt><trkpt lat="45.68753108127373" lon="-0.15095919601976263"><ele>17.0</ele><time>2026-03-22T15:18:28Z</time></trkpt><trkpt lat="45.687576801480304" lon="-0.1508906892515883"><ele>17.0</ele><time>2026-03-22T15:18:29Z</time></trkpt><trkpt lat="45.687739134174414" lon="-0.15088306830866396"><ele>17.166666666666668</ele><time>2026-03-22T15:18:31Z</time></trkpt><trkpt lat="45.68781535898237" lon="-0.1508868767717858"><ele>17.333333333333336</ele><time>2026-03-22T15:18:32Z</time></trkpt><trkpt lat="45.68788489206358" lon="-0.15090414485596687"><ele>17.5</ele><time>2026-03-22T15:18:33Z</time></trkpt><trkpt lat="45.68796519276289" lon="-0.15092101246041403"><ele>17.666666666666668</ele><time>2026-03-22T15:18:34Z</time></trkpt><trkpt lat="45.68804481888163" lon="-0.1509321596277572"><ele>17.833333333333332</ele><time>2026-03-22T15:18:35Z</time></trkpt><trkpt lat="45.68814222668179" lon="-0.15095736375295643"><ele>18.0</ele><time>2026-03-22T15:18:36Z</time></trkpt><trkpt lat="45.68821858842405" lon="-0.1509809760869829"><ele>18.0</ele><time>2026-03-22T15:18:37Z</time></trkpt><trkpt lat="45.6883259298283" lon="-0.15101896926941272"><ele>18.0</ele><time>2026-03-22T15:18:38Z</time></trkpt><trkpt lat="45.68843743171466" lon="-0.1510687325372259"><ele>18.0</ele><time>2026-03-22T15:18:39Z</time></trkpt><trkpt lat="45.68855191265847" lon="-0.151120107497229"><ele>18.0</ele><time>2026-03-22T15:18:40Z</time></trkpt><trkpt lat="45.68867379089035" lon="-0.15118221794518844"><ele>18.0</ele><time>2026-03-22T15:18:41Z</time></trkpt><trkpt lat="45.68880320421584" lon="-0.15125383937526637"><ele>18.0</ele><time>2026-03-22T15:18:42Z</time></trkpt><trkpt lat="45.68895118170796" lon="-0.15132904202810712"><ele>18.0</ele><time>2026-03-22T15:18:43Z</time></trkpt><trkpt lat="45.68911108216428" lon="-0.15140962304295622"><ele>18.0</ele><time>2026-03-22T15:18:44Z</time></trkpt><trkpt lat="45.68924465496217" lon="-0.15147770172585606"><ele>18.0</ele><time>2026-03-22T15:18:45Z</time></trkpt><trkpt lat="45.68936944272208" lon="-0.15153620675188006"><ele>18.0</ele><time>2026-03-22T15:18:46Z</time></trkpt><trkpt lat="45.689495362816984" lon="-0.15156955436501487"><ele>18.0</ele><time>2026-03-22T15:18:47Z</time></trkpt><trkpt lat="45.689628187756206" lon="-0.1515821190461015"><ele>18.5</ele><time>2026-03-22T15:18:48Z</time></trkpt><trkpt lat="45.689747935890544" lon="-0.15159824702094693"><ele>19.0</ele><time>2026-03-22T15:18:49Z</time></trkpt><trkpt lat="45.68985783031379" lon="-0.15162125370734222"><ele>19.5</ele><time>2026-03-22T15:18:50Z</time></trkpt><trkpt lat="45.689982155042394" lon="-0.15163886700174029"><ele>20.0</ele><time>2026-03-22T15:18:51Z</time></trkpt><trkpt lat="45.690093909910004" lon="-0.15165161373373245"><ele>20.0</ele><time>2026-03-22T15:18:52Z</time></trkpt><trkpt lat="45.69020485597353" lon="-0.1516636641405318"><ele>20.0</ele><time>2026-03-22T15:18:53Z</time></trkpt><trkpt lat="45.690317516659974" lon="-0.15167193568091508"><ele>20.0</ele><time>2026-03-22T15:18:54Z</time></trkpt><trkpt lat="45.690437454936244" lon="-0.15162143345611961"><ele>20.0</ele><time>2026-03-22T15:18:55Z</time></trkpt><trkpt lat="45.69055693782146" lon="-0.1515748693328459"><ele>20.25</ele><time>2026-03-22T15:18:56Z</time></trkpt><trkpt lat="45.690675377437906" lon="-0.15151076964756022"><ele>20.5</ele><time>2026-03-22T15:18:57Z</time></trkpt><trkpt lat="45.69079241584427" lon="-0.15142737716167745"><ele>20.75</ele><time>2026-03-22T15:18:58Z</time></trkpt><trkpt lat="45.690903436907156" lon="-0.15135753800843782"><ele>21.0</ele><time>2026-03-22T15:18:59Z</time></trkpt><trkpt lat="45.69100574797632" lon="-0.15127861459125294"><ele>20.75</ele><time>2026-03-22T15:19:00Z</time></trkpt><trkpt lat="45.69110793719722" lon="-0.15120024164077056"><ele>20.5</ele><time>2026-03-22T15:19:01Z</time></trkpt><trkpt lat="45.69121494922549" lon="-0.15112030195294457"><ele>20.25</ele><time>2026-03-22T15:19:02Z</time></trkpt><trkpt lat="45.69132607805082" lon="-0.15104185910246307"><ele>20.0</ele><time>2026-03-22T15:19:03Z</time></trkpt><trkpt lat="45.69143795691258" lon="-0.15096549814197602"><ele>20.0</ele><time>2026-03-22T15:19:04Z</time></trkpt><trkpt lat="45.69155644860253" lon="-0.15089748649088747"><ele>20.0</ele><time>2026-03-22T15:19:05Z</time></trkpt><trkpt lat="45.69168132752599" lon="-0.15083633350967982"><ele>20.0</ele><time>2026-03-22T15:19:06Z</time></trkpt><trkpt lat="45.69180224366784" lon="-0.15077727823277629"><ele>20.0</ele><time>2026-03-22T15:19:07Z</time></trkpt><trkpt lat="45.69192777377097" lon="-0.15072299913520965"><ele>20.25</ele><time>2026-03-22T15:19:08Z</time></trkpt><trkpt lat="45.6920494926444" lon="-0.15067069846140524"><ele>20.5</ele><time>2026-03-22T15:19:09Z</time></trkpt><trkpt lat="45.69217166412078" lon="-0.15062436135795382"><ele>20.75</ele><time>2026-03-22T15:19:10Z</time></trkpt><trkpt lat="45.69229367309564" lon="-0.15058240354089383"><ele>21.0</ele><time>2026-03-22T15:19:11Z</time></trkpt><trkpt lat="45.692419043026085" lon="-0.1505480136547522"><ele>21.0</ele><time>2026-03-22T15:19:12Z</time></trkpt><trkpt lat="45.692546707343034" lon="-0.15051466831364987"><ele>21.0</ele><time>2026-03-22T15:19:13Z</time></trkpt><trkpt lat="45.69267252712957" lon="-0.15048248128297018"><ele>21.0</ele><time>2026-03-22T15:19:14Z</time></trkpt><trkpt lat="45.692795455791334" lon="-0.15045188393774805"><ele>21.0</ele><time>2026-03-22T15:19:15Z</time></trkpt><trkpt lat="45.692911420141066" lon="-0.15042381951963235"><ele>21.200000000000003</ele><time>2026-03-22T15:19:16Z</time></trkpt><trkpt lat="45.6930216672018" lon="-0.15039569796089658"><ele>21.400000000000002</ele><time>2026-03-22T15:19:17Z</time></trkpt><trkpt lat="45.69312747421719" lon="-0.15037384863014058"><ele>21.6</ele><time>2026-03-22T15:19:18Z</time></trkpt><trkpt lat="45.693230081237296" lon="-0.15035197652844048"><ele>21.8</ele><time>2026-03-22T15:19:19Z</time></trkpt><trkpt lat="45.693330088228876" lon="-0.15032798987434615"><ele>22.0</ele><time>2026-03-22T15:19:20Z</time></trkpt><trkpt lat="45.69343256883361" lon="-0.1503032984295256"><ele>22.0</ele><time>2026-03-22T15:19:21Z</time></trkpt><trkpt lat="45.69353286991985" lon="-0.15027904098293618"><ele>22.0</ele><time>2026-03-22T15:19:22Z</time></trkpt><trkpt lat="45.69362491691497" lon="-0.1502554641285353"><ele>22.0</ele><time>2026-03-22T15:19:23Z</time></trkpt><trkpt lat="45.693712805153275" lon="-0.15022768517498755"><ele>22.0</ele><time>2026-03-22T15:19:24Z</time></trkpt><trkpt lat="45.69378448150154" lon="-0.1501677314458137"><ele>22.0</ele><time>2026-03-22T15:19:25Z</time></trkpt><trkpt lat="45.693852958904856" lon="-0.14994520299129946"><ele>22.333333333333332</ele><time>2026-03-22T15:19:27Z</time></trkpt><trkpt lat="45.693907150199585" lon="-0.1498502134527073"><ele>22.666666666666664</ele><time>2026-03-22T15:19:28Z</time></trkpt><trkpt lat="45.69395026893767" lon="-0.14975209894516808"><ele>23.0</ele><time>2026-03-22T15:19:29Z</time></trkpt><trkpt lat="45.69398992709447" lon="-0.14966368026642807"><ele>23.333333333333332</ele><time>2026-03-22T15:19:30Z</time></trkpt><trkpt lat="45.69401809056513" lon="-0.14956781119069762"><ele>23.666666666666668</ele><time>2026-03-22T15:19:31Z</time></trkpt><trkpt lat="45.694063509146055" lon="-0.14947966097074952"><ele>24.0</ele><time>2026-03-22T15:19:32Z</time></trkpt><trkpt lat="45.694109909720616" lon="-0.14939187132002466"><ele>24.0</ele><time>2026-03-22T15:19:33Z</time></trkpt><trkpt lat="45.69416109437451" lon="-0.14933154173027577"><ele>24.0</ele><time>2026-03-22T15:19:34Z</time></trkpt><trkpt lat="45.694227473947514" lon="-0.14920984722150232"><ele>24.0</ele><time>2026-03-22T15:19:36Z</time></trkpt><trkpt lat="45.694281333153434" lon="-0.14907777705648634"><ele>24.0</ele><time>2026-03-22T15:19:38Z</time></trkpt><trkpt lat="45.69436639788775" lon="-0.1489517496389768"><ele>24.0</ele><time>2026-03-22T15:19:40Z</time></trkpt><trkpt lat="45.694412686653784" lon="-0.14887164900221192"><ele>24.166666666666668</ele><time>2026-03-22T15:19:41Z</time></trkpt><trkpt lat="45.69445509283343" lon="-0.148791399312819"><ele>24.333333333333336</ele><time>2026-03-22T15:19:42Z</time></trkpt><trkpt lat="45.69450043900749" lon="-0.14870014941856233"><ele>24.5</ele><time>2026-03-22T15:19:43Z</time></trkpt><trkpt lat="45.6945541825646" lon="-0.14860836685209006"><ele>24.666666666666668</ele><time>2026-03-22T15:19:44Z</time></trkpt><trkpt lat="45.69461094518834" lon="-0.14850732293601587"><ele>24.833333333333336</ele><time>2026-03-22T15:19:45Z</time></trkpt><trkpt lat="45.69466565097626" lon="-0.1483992395530995"><ele>25.0</ele><time>2026-03-22T15:19:46Z</time></trkpt><trkpt lat="45.694724488105145" lon="-0.1482911373749949"><ele>25.4</ele><time>2026-03-22T15:19:47Z</time></trkpt><trkpt lat="45.69477486186017" lon="-0.1481657557952094"><ele>25.8</ele><time>2026-03-22T15:19:48Z</time></trkpt><trkpt lat="45.69485764951001" lon="-0.1480562611436129"><ele>26.200000000000003</ele><time>2026-03-22T15:19:49Z</time></trkpt><trkpt lat="45.69491589705782" lon="-0.14791924320264396"><ele>26.6</ele><time>2026-03-22T15:19:50Z</time></trkpt><trkpt lat="45.69499740462217" lon="-0.14779801573884713"><ele>27.0</ele><time>2026-03-22T15:19:51Z</time></trkpt><trkpt lat="45.6950829251417" lon="-0.14765099472098975"><ele>27.0</ele><time>2026-03-22T15:19:52Z</time></trkpt><trkpt lat="45.695181261471845" lon="-0.1474783238350026"><ele>27.0</ele><time>2026-03-22T15:19:53Z</time></trkpt><trkpt lat="45.69527832782927" lon="-0.14729782513706585"><ele>27.0</ele><time>2026-03-22T15:19:54Z</time></trkpt><trkpt lat="45.695391814030444" lon="-0.14709878470792395"><ele>27.666666666666664</ele><time>2026-03-22T15:19:55Z</time></trkpt><trkpt lat="45.69548952074612" lon="-0.1469203207974287"><ele>28.333333333333332</ele><time>2026-03-22T15:19:56Z</time></trkpt><trkpt lat="45.695592435571065" lon="-0.14673625955567543"><ele>29.0</ele><time>2026-03-22T15:19:57Z</time></trkpt><trkpt lat="45.69569324617466" lon="-0.14654344722121868"><ele>29.333333333333332</ele><time>2026-03-22T15:19:58Z</time></trkpt><trkpt lat="45.695777285168994" lon="-0.14633193176693082"><ele>29.666666666666664</ele><time>2026-03-22T15:19:59Z</time></trkpt><trkpt lat="45.69587527919897" lon="-0.14612514089812223"><ele>30.0</ele><time>2026-03-22T15:20:00Z</time></trkpt><trkpt lat="45.695978071482905" lon="-0.14590274259434438"><ele>30.0</ele><time>2026-03-22T15:20:01Z</time></trkpt><trkpt lat="45.69607217816415" lon="-0.14569669831017296"><ele>30.0</ele><time>2026-03-22T15:20:02Z</time></trkpt><trkpt lat="45.69615036396106" lon="-0.14552238325590838"><ele>30.0</ele><time>2026-03-22T15:20:03Z</time></trkpt><trkpt lat="45.69622923726598" lon="-0.14535139266028618"><ele>30.0</ele><time>2026-03-22T15:20:04Z</time></trkpt><trkpt lat="45.696305690205605" lon="-0.14519318965271227"><ele>30.0</ele><time>2026-03-22T15:20:05Z</time></trkpt><trkpt lat="45.696394744195835" lon="-0.14505412081744498"><ele>30.0</ele><time>2026-03-22T15:20:06Z</time></trkpt><trkpt lat="45.696472009148565" lon="-0.14488919513349066"><ele>30.0</ele><time>2026-03-22T15:20:07Z</time></trkpt><trkpt lat="45.696553308439285" lon="-0.14472581993771852"><ele>30.25</ele><time>2026-03-22T15:20:08Z</time></trkpt><trkpt lat="45.696639178578785" lon="-0.144558286815461"><ele>30.5</ele><time>2026-03-22T15:20:09Z</time></trkpt><trkpt lat="45.69672627633824" lon="-0.14440161783336017"><ele>30.75</ele><time>2026-03-22T15:20:10Z</time></trkpt><trkpt lat="45.69680930181738" lon="-0.14425442554719567"><ele>31.0</ele><time>2026-03-22T15:20:11Z</time></trkpt><trkpt lat="45.69687176941069" lon="-0.14410278167313514"><ele>31.6</ele><time>2026-03-22T15:20:12Z</time></trkpt><trkpt lat="45.696952669212706" lon="-0.1439911010577304"><ele>32.2</ele><time>2026-03-22T15:20:13Z</time></trkpt><trkpt lat="45.69702022329233" lon="-0.1438743853452332"><ele>32.8</ele><time>2026-03-22T15:20:14Z</time></trkpt><trkpt lat="45.69709718398129" lon="-0.14375621036656575"><ele>33.4</ele><time>2026-03-22T15:20:15Z</time></trkpt><trkpt lat="45.697175051041455" lon="-0.14363592163938974"><ele>34.0</ele><time>2026-03-22T15:20:16Z</time></trkpt><trkpt lat="45.69724522039361" lon="-0.14353981516390457"><ele>34.0</ele><time>2026-03-22T15:20:17Z</time></trkpt><trkpt lat="45.697312852297465" lon="-0.1434440477069888"><ele>34.0</ele><time>2026-03-22T15:20:18Z</time></trkpt><trkpt lat="45.69738948659664" lon="-0.1433360600960981"><ele>34.0</ele><time>2026-03-22T15:20:19Z</time></trkpt><trkpt lat="45.69747785724218" lon="-0.14321913521925606"><ele>34.0</ele><time>2026-03-22T15:20:20Z</time></trkpt><trkpt lat="45.69757766340091" lon="-0.143099710144407"><ele>34.25</ele><time>2026-03-22T15:20:21Z</time></trkpt><trkpt lat="45.69768315335521" lon="-0.14296639171112785"><ele>34.5</ele><time>2026-03-22T15:20:22Z</time></trkpt><trkpt lat="45.697760115028395" lon="-0.14279879631215694"><ele>34.75</ele><time>2026-03-22T15:20:23Z</time></trkpt><trkpt lat="45.69784868779907" lon="-0.14263513059451494"><ele>35.0</ele><time>2026-03-22T15:20:24Z</time></trkpt><trkpt lat="45.69792965704132" lon="-0.14247625335433553"><ele>35.0</ele><time>2026-03-22T15:20:25Z</time></trkpt><trkpt lat="45.698006314734535" lon="-0.14231276180503247"><ele>35.0</ele><time>2026-03-22T15:20:26Z</time></trkpt><trkpt lat="45.69807707472814" lon="-0.14214299107510375"><ele>35.0</ele><time>2026-03-22T15:20:27Z</time></trkpt><trkpt lat="45.69815150961811" lon="-0.14196351530895657"><ele>35.0</ele><time>2026-03-22T15:20:28Z</time></trkpt><trkpt lat="45.69823547930493" lon="-0.14178475282649758"><ele>35.0</ele><time>2026-03-22T15:20:29Z</time></trkpt><trkpt lat="45.69833387752698" lon="-0.14162162586532429"><ele>35.0</ele><time>2026-03-22T15:20:30Z</time></trkpt><trkpt lat="45.69842916685224" lon="-0.1414582452473178"><ele>35.0</ele><time>2026-03-22T15:20:31Z</time></trkpt><trkpt lat="45.698539521890815" lon="-0.14130589534948024"><ele>35.0</ele><time>2026-03-22T15:20:32Z</time></trkpt><trkpt lat="45.698653424533504" lon="-0.14116166412478487"><ele>35.0</ele><time>2026-03-22T15:20:33Z</time></trkpt><trkpt lat="45.69878780278768" lon="-0.14101315837677492"><ele>35.0</ele><time>2026-03-22T15:20:34Z</time></trkpt><trkpt lat="45.698925168007634" lon="-0.14087250006225263"><ele>35.0</ele><time>2026-03-22T15:20:35Z</time></trkpt><trkpt lat="45.699066200012204" lon="-0.14073013330000314"><ele>35.0</ele><time>2026-03-22T15:20:36Z</time></trkpt><trkpt lat="45.699208061814986" lon="-0.1405748468684924"><ele>35.0</ele><time>2026-03-22T15:20:37Z</time></trkpt><trkpt lat="45.69935901244454" lon="-0.14040718066448224"><ele>34.33333333333333</ele><time>2026-03-22T15:20:38Z</time></trkpt><trkpt lat="45.699517284873146" lon="-0.14021320750694938"><ele>33.666666666666664</ele><time>2026-03-22T15:20:39Z</time></trkpt><trkpt lat="45.69968906281205" lon="-0.13999625459673234"><ele>33.0</ele><time>2026-03-22T15:20:40Z</time></trkpt><trkpt lat="45.69986331636589" lon="-0.13978043552514416"><ele>32.5</ele><time>2026-03-22T15:20:41Z</time></trkpt><trkpt lat="45.70005648712711" lon="-0.13954719201703486"><ele>32.0</ele><time>2026-03-22T15:20:42Z</time></trkpt><trkpt lat="45.700249427161246" lon="-0.1393219175306711"><ele>32.0</ele><time>2026-03-22T15:20:43Z</time></trkpt><trkpt lat="45.700445356506656" lon="-0.13910266897806906"><ele>32.0</ele><time>2026-03-22T15:20:44Z</time></trkpt><trkpt lat="45.700647169448686" lon="-0.138879857213112"><ele>32.0</ele><time>2026-03-22T15:20:45Z</time></trkpt><trkpt lat="45.70085857074391" lon="-0.1386628999178713"><ele>32.0</ele><time>2026-03-22T15:20:46Z</time></trkpt><trkpt lat="45.701075919790675" lon="-0.13844418876755854"><ele>32.0</ele><time>2026-03-22T15:20:47Z</time></trkpt><trkpt lat="45.70129803996909" lon="-0.1382408153273316"><ele>32.0</ele><time>2026-03-22T15:20:48Z</time></trkpt><trkpt lat="45.7015223840435" lon="-0.13805165998982272"><ele>32.0</ele><time>2026-03-22T15:20:49Z</time></trkpt><trkpt lat="45.70174253897191" lon="-0.13787607718990477"><ele>32.0</ele><time>2026-03-22T15:20:50Z</time></trkpt><trkpt lat="45.70196724294836" lon="-0.13775825411836734"><ele>33.0</ele><time>2026-03-22T15:20:51Z</time></trkpt><trkpt lat="45.702186717233104" lon="-0.13763345200660965"><ele>34.0</ele><time>2026-03-22T15:20:52Z</time></trkpt><trkpt lat="45.70240893609871" lon="-0.13748598525896216"><ele>34.0</ele><time>2026-03-22T15:20:53Z</time></trkpt><trkpt lat="45.70262892811494" lon="-0.1373907372204716"><ele>34.0</ele><time>2026-03-22T15:20:54Z</time></trkpt><trkpt lat="45.702837769796666" lon="-0.13727704743716784"><ele>34.5</ele><time>2026-03-22T15:20:55Z</time></trkpt><trkpt lat="45.70304122696078" lon="-0.13713065351385198"><ele>35.0</ele><time>2026-03-22T15:20:56Z</time></trkpt><trkpt lat="45.70324364012533" lon="-0.13696431310752014"><ele>35.0</ele><time>2026-03-22T15:20:57Z</time></trkpt><trkpt lat="45.703450183533505" lon="-0.13678647167126542"><ele>35.0</ele><time>2026-03-22T15:20:58Z</time></trkpt><trkpt lat="45.703654544375794" lon="-0.13659954528192184"><ele>36.5</ele><time>2026-03-22T15:20:59Z</time></trkpt><trkpt lat="45.703863498090115" lon="-0.13641414957922146"><ele>38.0</ele><time>2026-03-22T15:21:00Z</time></trkpt><trkpt lat="45.70407885936624" lon="-0.1362149984892797"><ele>38.0</ele><time>2026-03-22T15:21:01Z</time></trkpt><trkpt lat="45.704294179038435" lon="-0.1360172108976241"><ele>38.0</ele><time>2026-03-22T15:21:02Z</time></trkpt><trkpt lat="45.70450967606308" lon="-0.1358201985911795"><ele>39.0</ele><time>2026-03-22T15:21:03Z</time></trkpt><trkpt lat="45.704732931133265" lon="-0.13561500027885828"><ele>40.0</ele><time>2026-03-22T15:21:04Z</time></trkpt><trkpt lat="45.70494402859233" lon="-0.13542420235448746"><ele>40.0</ele><time>2026-03-22T15:21:05Z</time></trkpt><trkpt lat="45.70515910931794" lon="-0.13522488671448554"><ele>40.0</ele><time>2026-03-22T15:21:06Z</time></trkpt><trkpt lat="45.70536580882753" lon="-0.13502434914402064"><ele>41.0</ele><time>2026-03-22T15:21:07Z</time></trkpt><trkpt lat="45.70556094811856" lon="-0.1348176362025371"><ele>42.0</ele><time>2026-03-22T15:21:08Z</time></trkpt><trkpt lat="45.70573868504428" lon="-0.1346149694711129"><ele>42.0</ele><time>2026-03-22T15:21:09Z</time></trkpt><trkpt lat="45.70590973464423" lon="-0.13441096656267268"><ele>42.0</ele><time>2026-03-22T15:21:10Z</time></trkpt><trkpt lat="45.706069352552895" lon="-0.1342121299436743"><ele>42.0</ele><time>2026-03-22T15:21:11Z</time></trkpt><trkpt lat="45.70622942984171" lon="-0.13401272147830395"><ele>43.666666666666664</ele><time>2026-03-22T15:21:12Z</time></trkpt><trkpt lat="45.70639575033792" lon="-0.1338055366279492"><ele>45.33333333333333</ele><time>2026-03-22T15:21:13Z</time></trkpt><trkpt lat="45.706565775354406" lon="-0.13359373706954256"><ele>47.0</ele><time>2026-03-22T15:21:14Z</time></trkpt><trkpt lat="45.706814073399244" lon="-0.1335081766896161"><ele>48.0</ele><time>2026-03-22T15:21:15Z</time></trkpt><trkpt lat="45.70703162176212" lon="-0.13334427437021928"><ele>49.0</ele><time>2026-03-22T15:21:16Z</time></trkpt><trkpt lat="45.707253870988104" lon="-0.1331753802666746"><ele>49.0</ele><time>2026-03-22T15:21:17Z</time></trkpt><trkpt lat="45.707480470557975" lon="-0.13300599817846895"><ele>49.0</ele><time>2026-03-22T15:21:18Z</time></trkpt><trkpt lat="45.70768431531288" lon="-0.13285257240050222"><ele>50.33333333333333</ele><time>2026-03-22T15:21:19Z</time></trkpt><trkpt lat="45.70786821907937" lon="-0.13271568180758128"><ele>51.66666666666667</ele><time>2026-03-22T15:21:20Z</time></trkpt><trkpt lat="45.70805759347909" lon="-0.1325746375842826"><ele>53.0</ele><time>2026-03-22T15:21:21Z</time></trkpt><trkpt lat="45.70824655097082" lon="-0.1324211200612315"><ele>53.0</ele><time>2026-03-22T15:21:22Z</time></trkpt><trkpt lat="45.70842163855264" lon="-0.13225009632521723"><ele>53.0</ele><time>2026-03-22T15:21:23Z</time></trkpt><trkpt lat="45.708588448832025" lon="-0.1320452347806214"><ele>53.0</ele><time>2026-03-22T15:21:24Z</time></trkpt><trkpt lat="45.70873745984281" lon="-0.13182303362928843"><ele>54.5</ele><time>2026-03-22T15:21:25Z</time></trkpt><trkpt lat="45.70888375084453" lon="-0.13157627079324175"><ele>56.0</ele><time>2026-03-22T15:21:26Z</time></trkpt><trkpt lat="45.70901668376785" lon="-0.13131087687669588"><ele>56.0</ele><time>2026-03-22T15:21:27Z</time></trkpt><trkpt lat="45.70911999243527" lon="-0.131025422847869"><ele>56.0</ele><time>2026-03-22T15:21:28Z</time></trkpt><trkpt lat="45.70921101316177" lon="-0.13073295817198757"><ele>56.0</ele><time>2026-03-22T15:21:29Z</time></trkpt><trkpt lat="45.70930363879659" lon="-0.1304485948615238"><ele>56.5</ele><time>2026-03-22T15:21:30Z</time></trkpt><trkpt lat="45.709406098406795" lon="-0.13015539627123565"><ele>57.0</ele><time>2026-03-22T15:21:31Z</time></trkpt><trkpt lat="45.70952214123042" lon="-0.12985499749956053"><ele>59.5</ele><time>2026-03-22T15:21:32Z</time></trkpt><trkpt lat="45.70964642243665" lon="-0.1295453372422772"><ele>62.0</ele><time>2026-03-22T15:21:33Z</time></trkpt><trkpt lat="45.709771148593966" lon="-0.12926822011845768"><ele>61.66666666666667</ele><time>2026-03-22T15:21:34Z</time></trkpt><trkpt lat="45.70989081645594" lon="-0.12901986675335353"><ele>61.33333333333333</ele><time>2026-03-22T15:21:35Z</time></trkpt><trkpt lat="45.71001218420924" lon="-0.12878387661650315"><ele>61.0</ele><time>2026-03-22T15:21:36Z</time></trkpt><trkpt lat="45.71012137669789" lon="-0.12856143555521723"><ele>61.0</ele><time>2026-03-22T15:21:37Z</time></trkpt><trkpt lat="45.71022047045165" lon="-0.12835513426911183"><ele>61.0</ele><time>2026-03-22T15:21:38Z</time></trkpt><trkpt lat="45.71031293669613" lon="-0.1281523708602032"><ele>61.0</ele><time>2026-03-22T15:21:39Z</time></trkpt><trkpt lat="45.7104055295567" lon="-0.12795401618057872"><ele>62.0</ele><time>2026-03-22T15:21:40Z</time></trkpt><trkpt lat="45.710471752507054" lon="-0.12776497938502535"><ele>63.0</ele><time>2026-03-22T15:21:41Z</time></trkpt><trkpt lat="45.71053714965514" lon="-0.1275845074069744"><ele>64.0</ele><time>2026-03-22T15:21:42Z</time></trkpt><trkpt lat="45.71059857174464" lon="-0.1274058188504169"><ele>65.0</ele><time>2026-03-22T15:21:43Z</time></trkpt><trkpt lat="45.71066017642947" lon="-0.12724238988006778"><ele>65.25</ele><time>2026-03-22T15:21:44Z</time></trkpt><trkpt lat="45.71071725214547" lon="-0.12710389938950092"><ele>65.5</ele><time>2026-03-22T15:21:45Z</time></trkpt><trkpt lat="45.71078185176772" lon="-0.12697510886918606"><ele>65.75</ele><time>2026-03-22T15:21:46Z</time></trkpt><trkpt lat="45.71086650787398" lon="-0.1268312149483572"><ele>66.0</ele><time>2026-03-22T15:21:47Z</time></trkpt><trkpt lat="45.710958783895215" lon="-0.1266593096514491"><ele>66.0</ele><time>2026-03-22T15:21:48Z</time></trkpt><trkpt lat="45.711047183239984" lon="-0.1264969744284561"><ele>66.0</ele><time>2026-03-22T15:21:49Z</time></trkpt><trkpt lat="45.71113277611949" lon="-0.1263442361067169"><ele>66.0</ele><time>2026-03-22T15:21:50Z</time></trkpt><trkpt lat="45.71121059751318" lon="-0.1261926040421707"><ele>66.0</ele><time>2026-03-22T15:21:51Z</time></trkpt><trkpt lat="45.71128257624392" lon="-0.12604128365617953"><ele>66.25</ele><time>2026-03-22T15:21:52Z</time></trkpt><trkpt lat="45.71136180658777" lon="-0.1258926935457961"><ele>66.5</ele><time>2026-03-22T15:21:53Z</time></trkpt><trkpt lat="45.71143868627788" lon="-0.12574604854434757"><ele>66.75</ele><time>2026-03-22T15:21:54Z</time></trkpt><trkpt lat="45.71151591785667" lon="-0.12560025818078738"><ele>67.0</ele><time>2026-03-22T15:21:55Z</time></trkpt><trkpt lat="45.71158721872972" lon="-0.12544809818428077"><ele>67.25</ele><time>2026-03-22T15:21:56Z</time></trkpt><trkpt lat="45.71166340601088" lon="-0.125299952624428"><ele>67.5</ele><time>2026-03-22T15:21:57Z</time></trkpt><trkpt lat="45.71174080182497" lon="-0.12514756657053713"><ele>67.75</ele><time>2026-03-22T15:21:58Z</time></trkpt><trkpt lat="45.71182242040347" lon="-0.1249987484167716"><ele>68.0</ele><time>2026-03-22T15:21:59Z</time></trkpt><trkpt lat="45.71190049980854" lon="-0.12488266894662367"><ele>68.4</ele><time>2026-03-22T15:22:00Z</time></trkpt><trkpt lat="45.71198390587953" lon="-0.12480171038392227"><ele>68.8</ele><time>2026-03-22T15:22:01Z</time></trkpt><trkpt lat="45.712066857009184" lon="-0.1247352729376924"><ele>69.2</ele><time>2026-03-22T15:22:02Z</time></trkpt><trkpt lat="45.71214832200664" lon="-0.12464845703027705"><ele>69.6</ele><time>2026-03-22T15:22:03Z</time></trkpt><trkpt lat="45.71225444323166" lon="-0.12456765837363716"><ele>70.0</ele><time>2026-03-22T15:22:04Z</time></trkpt><trkpt lat="45.71237668970705" lon="-0.12450201210625332"><ele>70.0</ele><time>2026-03-22T15:22:05Z</time></trkpt><trkpt lat="45.71248248497796" lon="-0.12442304137254859"><ele>70.0</ele><time>2026-03-22T15:22:06Z</time></trkpt><trkpt lat="45.7125818570344" lon="-0.1243573525769005"><ele>70.0</ele><time>2026-03-22T15:22:07Z</time></trkpt><trkpt lat="45.71266372877577" lon="-0.12433784176118788"><ele>70.0</ele><time>2026-03-22T15:22:08Z</time></trkpt><trkpt lat="45.71273369340095" lon="-0.12427719330625944"><ele>70.0</ele><time>2026-03-22T15:22:09Z</time></trkpt><trkpt lat="45.71280637674432" lon="-0.12424683169665082"><ele>70.66666666666666</ele><time>2026-03-22T15:22:10Z</time></trkpt><trkpt lat="45.71286749553045" lon="-0.12420512101011526"><ele>71.33333333333333</ele><time>2026-03-22T15:22:11Z</time></trkpt><trkpt lat="45.712925849990995" lon="-0.12415699616000352"><ele>72.0</ele><time>2026-03-22T15:22:12Z</time></trkpt><trkpt lat="45.71301140275201" lon="-0.12417794455939024"><ele>72.66666666666667</ele><time>2026-03-22T15:22:14Z</time></trkpt><trkpt lat="45.713046606097905" lon="-0.12436195328337196"><ele>73.33333333333334</ele><time>2026-03-22T15:22:16Z</time></trkpt><trkpt lat="45.71304771478932" lon="-0.12449377040126616"><ele>74.0</ele><time>2026-03-22T15:22:17Z</time></trkpt><trkpt lat="45.71305062527292" lon="-0.12462738194278362"><ele>74.0</ele><time>2026-03-22T15:22:18Z</time></trkpt><trkpt lat="45.71306274426093" lon="-0.12478499113564447"><ele>74.0</ele><time>2026-03-22T15:22:19Z</time></trkpt><trkpt lat="45.71310972409756" lon="-0.12495390247234847"><ele>74.0</ele><time>2026-03-22T15:22:20Z</time></trkpt><trkpt lat="45.71311545084583" lon="-0.12513982020725606"><ele>74.0</ele><time>2026-03-22T15:22:21Z</time></trkpt><trkpt lat="45.71314959680782" lon="-0.12532000144525487"><ele>73.75</ele><time>2026-03-22T15:22:22Z</time></trkpt><trkpt lat="45.71316431430513" lon="-0.12550384363082642"><ele>73.5</ele><time>2026-03-22T15:22:23Z</time></trkpt><trkpt lat="45.7131859366278" lon="-0.12570200461530015"><ele>73.25</ele><time>2026-03-22T15:22:24Z</time></trkpt><trkpt lat="45.713210380656925" lon="-0.1259092523681618"><ele>73.0</ele><time>2026-03-22T15:22:25Z</time></trkpt><trkpt lat="45.71324079079078" lon="-0.12609422939108267"><ele>72.5</ele><time>2026-03-22T15:22:26Z</time></trkpt><trkpt lat="45.71327398271326" lon="-0.12626497577526039"><ele>72.0</ele><time>2026-03-22T15:22:27Z</time></trkpt><trkpt lat="45.713320972913785" lon="-0.12641105815030262"><ele>71.5</ele><time>2026-03-22T15:22:28Z</time></trkpt><trkpt lat="45.713383026076016" lon="-0.1265326210243731"><ele>71.0</ele><time>2026-03-22T15:22:29Z</time></trkpt><trkpt lat="45.71347531112911" lon="-0.1266323645163585"><ele>70.25</ele><time>2026-03-22T15:22:30Z</time></trkpt><trkpt lat="45.71357967153258" lon="-0.12674632742006195"><ele>69.5</ele><time>2026-03-22T15:22:31Z</time></trkpt><trkpt lat="45.71372529392662" lon="-0.12677459407253616"><ele>68.75</ele><time>2026-03-22T15:22:32Z</time></trkpt><trkpt lat="45.71389014388462" lon="-0.12681710844098426"><ele>68.0</ele><time>2026-03-22T15:22:33Z</time></trkpt><trkpt lat="45.71407624678484" lon="-0.12688434942502633"><ele>68.0</ele><time>2026-03-22T15:22:34Z</time></trkpt><trkpt lat="45.71428774880413" lon="-0.1269471935508391"><ele>68.0</ele><time>2026-03-22T15:22:35Z</time></trkpt><trkpt lat="45.71450160660668" lon="-0.1269888704480739"><ele>68.0</ele><time>2026-03-22T15:22:36Z</time></trkpt><trkpt lat="45.714721244138964" lon="-0.12704948245805567"><ele>68.0</ele><time>2026-03-22T15:22:37Z</time></trkpt><trkpt lat="45.714935809593726" lon="-0.12710805139466552"><ele>68.0</ele><time>2026-03-22T15:22:38Z</time></trkpt><trkpt lat="45.71515776480362" lon="-0.1271684713665525"><ele>68.0</ele><time>2026-03-22T15:22:39Z</time></trkpt><trkpt lat="45.71538662606493" lon="-0.1272562258096185"><ele>68.0</ele><time>2026-03-22T15:22:40Z</time></trkpt><trkpt lat="45.71563130517118" lon="-0.12730151194378428"><ele>68.0</ele><time>2026-03-22T15:22:41Z</time></trkpt><trkpt lat="45.7158803557794" lon="-0.1273721838372082"><ele>69.5</ele><time>2026-03-22T15:22:42Z</time></trkpt><trkpt lat="45.71613088813311" lon="-0.1274432761987694"><ele>71.0</ele><time>2026-03-22T15:22:43Z</time></trkpt><trkpt lat="45.716395430547415" lon="-0.1275162916712298"><ele>71.0</ele><time>2026-03-22T15:22:44Z</time></trkpt><trkpt lat="45.716650584914134" lon="-0.12758469953703416"><ele>71.0</ele><time>2026-03-22T15:22:45Z</time></trkpt><trkpt lat="45.716884657968315" lon="-0.12765030052397616"><ele>71.66666666666667</ele><time>2026-03-22T15:22:46Z</time></trkpt><trkpt lat="45.71710340583959" lon="-0.12771225769623465"><ele>72.33333333333333</ele><time>2026-03-22T15:22:47Z</time></trkpt><trkpt lat="45.71730318951818" lon="-0.12776706087522863"><ele>73.0</ele><time>2026-03-22T15:22:48Z</time></trkpt><trkpt lat="45.717495986440284" lon="-0.12782321597464125"><ele>73.0</ele><time>2026-03-22T15:22:49Z</time></trkpt><trkpt lat="45.717691851652305" lon="-0.12790261529818794"><ele>73.0</ele><time>2026-03-22T15:22:50Z</time></trkpt><trkpt lat="45.717875761490326" lon="-0.12800054526020302"><ele>73.0</ele><time>2026-03-22T15:22:51Z</time></trkpt><trkpt lat="45.71804309920349" lon="-0.12811499564641998"><ele>73.33333333333333</ele><time>2026-03-22T15:22:52Z</time></trkpt><trkpt lat="45.71821131961869" lon="-0.1282577311835736"><ele>73.66666666666667</ele><time>2026-03-22T15:22:53Z</time></trkpt><trkpt lat="45.718384585943035" lon="-0.12844116012802487"><ele>74.0</ele><time>2026-03-22T15:22:54Z</time></trkpt><trkpt lat="45.71855316459886" lon="-0.12865844880787675"><ele>74.0</ele><time>2026-03-22T15:22:55Z</time></trkpt><trkpt lat="45.71872752020159" lon="-0.12891203160622397"><ele>74.0</ele><time>2026-03-22T15:22:56Z</time></trkpt><trkpt lat="45.71889808635387" lon="-0.12916737487968424"><ele>74.0</ele><time>2026-03-22T15:22:57Z</time></trkpt><trkpt lat="45.71907499911936" lon="-0.1294322192053784"><ele>74.0</ele><time>2026-03-22T15:22:58Z</time></trkpt><trkpt lat="45.71925729178337" lon="-0.12970279567949708"><ele>73.5</ele><time>2026-03-22T15:22:59Z</time></trkpt><trkpt lat="45.71943861339934" lon="-0.12997181456199486"><ele>73.0</ele><time>2026-03-22T15:23:00Z</time></trkpt><trkpt lat="45.71961865614023" lon="-0.13024510617996934"><ele>73.0</ele><time>2026-03-22T15:23:01Z</time></trkpt><trkpt lat="45.71980255343563" lon="-0.1305209802357432"><ele>73.0</ele><time>2026-03-22T15:23:02Z</time></trkpt><trkpt lat="45.71999372021891" lon="-0.13080617189702667"><ele>73.0</ele><time>2026-03-22T15:23:03Z</time></trkpt><trkpt lat="45.720170543495904" lon="-0.13107319221980152"><ele>73.0</ele><time>2026-03-22T15:23:04Z</time></trkpt><trkpt lat="45.72033779252549" lon="-0.13132388374667633"><ele>72.66666666666666</ele><time>2026-03-22T15:23:05Z</time></trkpt><trkpt lat="45.72048518079164" lon="-0.13155057705019918"><ele>72.33333333333333</ele><time>2026-03-22T15:23:06Z</time></trkpt><trkpt lat="45.7206251099212" lon="-0.1317690333141849"><ele>72.0</ele><time>2026-03-22T15:23:07Z</time></trkpt><trkpt lat="45.72076197055074" lon="-0.1319852595813825"><ele>72.0</ele><time>2026-03-22T15:23:08Z</time></trkpt><trkpt lat="45.72090328194153" lon="-0.13220851726411428"><ele>72.0</ele><time>2026-03-22T15:23:09Z</time></trkpt><trkpt lat="45.721048096934396" lon="-0.13243731028347205"><ele>72.0</ele><time>2026-03-22T15:23:10Z</time></trkpt><trkpt lat="45.721191265938934" lon="-0.13267908346615903"><ele>70.5</ele><time>2026-03-22T15:23:11Z</time></trkpt><trkpt lat="45.721193059496414" lon="-0.13309693741826814"><ele>69.0</ele><time>2026-03-22T15:23:12Z</time></trkpt><trkpt lat="45.721302304378185" lon="-0.13338502529923196"><ele>68.5</ele><time>2026-03-22T15:23:13Z</time></trkpt><trkpt lat="45.721410033557675" lon="-0.1336844751258926"><ele>68.0</ele><time>2026-03-22T15:23:14Z</time></trkpt><trkpt lat="45.72151449767885" lon="-0.1339768582274251"><ele>68.0</ele><time>2026-03-22T15:23:15Z</time></trkpt><trkpt lat="45.72171558081753" lon="-0.13453356222044996"><ele>68.0</ele><time>2026-03-22T15:23:17Z</time></trkpt><trkpt lat="45.72182166172517" lon="-0.13481238984282096"><ele>70.66666666666667</ele><time>2026-03-22T15:23:18Z</time></trkpt><trkpt lat="45.72192399210795" lon="-0.13509143662586443"><ele>73.33333333333333</ele><time>2026-03-22T15:23:19Z</time></trkpt><trkpt lat="45.72201892440429" lon="-0.13536757060348062"><ele>76.0</ele><time>2026-03-22T15:23:20Z</time></trkpt><trkpt lat="45.72210738612379" lon="-0.13562161157226682"><ele>75.33333333333333</ele><time>2026-03-22T15:23:21Z</time></trkpt><trkpt lat="45.72219461952978" lon="-0.13587021476522132"><ele>74.66666666666667</ele><time>2026-03-22T15:23:22Z</time></trkpt><trkpt lat="45.72227944621588" lon="-0.13612286721399108"><ele>74.0</ele><time>2026-03-22T15:23:23Z</time></trkpt><trkpt lat="45.72236961950086" lon="-0.1363617084647123"><ele>73.33333333333334</ele><time>2026-03-22T15:23:24Z</time></trkpt><trkpt lat="45.72247173595008" lon="-0.1366066652548602"><ele>72.66666666666667</ele><time>2026-03-22T15:23:25Z</time></trkpt><trkpt lat="45.72258094122134" lon="-0.1368413998589358"><ele>72.0</ele><time>2026-03-22T15:23:26Z</time></trkpt><trkpt lat="45.72270427219694" lon="-0.13707838643716927"><ele>72.66666666666667</ele><time>2026-03-22T15:23:27Z</time></trkpt><trkpt lat="45.722845318779115" lon="-0.13729614985238772"><ele>73.33333333333334</ele><time>2026-03-22T15:23:28Z</time></trkpt><trkpt lat="45.72300250050214" lon="-0.1375158834823382"><ele>74.0</ele><time>2026-03-22T15:23:29Z</time></trkpt><trkpt lat="45.72316308945646" lon="-0.13773755361781745"><ele>74.5</ele><time>2026-03-22T15:23:30Z</time></trkpt><trkpt lat="45.72332722462723" lon="-0.13795335094316488"><ele>75.0</ele><time>2026-03-22T15:23:31Z</time></trkpt><trkpt lat="45.72350025692668" lon="-0.13817572987166085"><ele>71.0</ele><time>2026-03-22T15:23:32Z</time></trkpt><trkpt lat="45.7236739198565" lon="-0.13840816097327008"><ele>67.0</ele><time>2026-03-22T15:23:33Z</time></trkpt><trkpt lat="45.723844431783334" lon="-0.13862967490436726"><ele>67.0</ele><time>2026-03-22T15:23:34Z</time></trkpt><trkpt lat="45.72401966927865" lon="-0.1388630630339158"><ele>67.0</ele><time>2026-03-22T15:23:35Z</time></trkpt><trkpt lat="45.724195639628725" lon="-0.13906450816501525"><ele>67.5</ele><time>2026-03-22T15:23:36Z</time></trkpt><trkpt lat="45.72436097248459" lon="-0.13928762408819692"><ele>68.0</ele><time>2026-03-22T15:23:37Z</time></trkpt><trkpt lat="45.724528071073685" lon="-0.13950812576746774"><ele>64.0</ele><time>2026-03-22T15:23:38Z</time></trkpt><trkpt lat="45.724696401651194" lon="-0.1397289135210294"><ele>60.0</ele><time>2026-03-22T15:23:39Z</time></trkpt><trkpt lat="45.72487118101219" lon="-0.13996217332731042"><ele>60.0</ele><time>2026-03-22T15:23:40Z</time></trkpt><trkpt lat="45.72504160718568" lon="-0.14019107683019816"><ele>60.0</ele><time>2026-03-22T15:23:41Z</time></trkpt><trkpt lat="45.72521903239868" lon="-0.140424399803064"><ele>58.0</ele><time>2026-03-22T15:23:42Z</time></trkpt><trkpt lat="45.725392913723134" lon="-0.14065301422287313"><ele>56.0</ele><time>2026-03-22T15:23:43Z</time></trkpt><trkpt lat="45.725578094434944" lon="-0.14089837246356107"><ele>56.0</ele><time>2026-03-22T15:23:44Z</time></trkpt><trkpt lat="45.72576097938705" lon="-0.14114071323417585"><ele>56.0</ele><time>2026-03-22T15:23:45Z</time></trkpt><trkpt lat="45.72594769183143" lon="-0.14139088301399966"><ele>56.5</ele><time>2026-03-22T15:23:46Z</time></trkpt><trkpt lat="45.726139889364646" lon="-0.14165204124463054"><ele>57.0</ele><time>2026-03-22T15:23:47Z</time></trkpt><trkpt lat="45.72633031577397" lon="-0.14190620833606543"><ele>57.0</ele><time>2026-03-22T15:23:48Z</time></trkpt><trkpt lat="45.72651702052688" lon="-0.14216061253948772"><ele>57.0</ele><time>2026-03-22T15:23:49Z</time></trkpt><trkpt lat="45.726695821595314" lon="-0.14239703167173404"><ele>57.5</ele><time>2026-03-22T15:23:50Z</time></trkpt><trkpt lat="45.72686492559176" lon="-0.14262381085076623"><ele>58.0</ele><time>2026-03-22T15:23:51Z</time></trkpt><trkpt lat="45.7270286266224" lon="-0.14284418878051844"><ele>58.0</ele><time>2026-03-22T15:23:52Z</time></trkpt><trkpt lat="45.727189329352655" lon="-0.14305613032343867"><ele>58.0</ele><time>2026-03-22T15:23:53Z</time></trkpt><trkpt lat="45.727347357166" lon="-0.14326455029107196"><ele>58.0</ele><time>2026-03-22T15:23:54Z</time></trkpt><trkpt lat="45.72750166082178" lon="-0.14347394487533763"><ele>58.0</ele><time>2026-03-22T15:23:55Z</time></trkpt><trkpt lat="45.72766059653811" lon="-0.143680895789429"><ele>58.0</ele><time>2026-03-22T15:23:56Z</time></trkpt><trkpt lat="45.727829169776705" lon="-0.14390039575379987"><ele>58.0</ele><time>2026-03-22T15:23:57Z</time></trkpt><trkpt lat="45.72799469905288" lon="-0.14411799810395265"><ele>57.33333333333333</ele><time>2026-03-22T15:23:58Z</time></trkpt><trkpt lat="45.72815807278225" lon="-0.14433652648635517"><ele>56.66666666666667</ele><time>2026-03-22T15:23:59Z</time></trkpt><trkpt lat="45.72831191584008" lon="-0.1445442384004394"><ele>56.0</ele><time>2026-03-22T15:24:00Z</time></trkpt><trkpt lat="45.728466492248394" lon="-0.14476884255191472"><ele>54.0</ele><time>2026-03-22T15:24:01Z</time></trkpt><trkpt lat="45.72860038694607" lon="-0.14501819439048388"><ele>52.0</ele><time>2026-03-22T15:24:02Z</time></trkpt><trkpt lat="45.728720132034745" lon="-0.14530078133254964"><ele>52.0</ele><time>2026-03-22T15:24:03Z</time></trkpt><trkpt lat="45.728814885815225" lon="-0.14556685154265878"><ele>52.0</ele><time>2026-03-22T15:24:04Z</time></trkpt><trkpt lat="45.72890767653911" lon="-0.1458574869459609"><ele>52.0</ele><time>2026-03-22T15:24:05Z</time></trkpt><trkpt lat="45.72900060801337" lon="-0.1461516691572548"><ele>53.0</ele><time>2026-03-22T15:24:06Z</time></trkpt><trkpt lat="45.72908847619884" lon="-0.14642908420241815"><ele>54.0</ele><time>2026-03-22T15:24:07Z</time></trkpt><trkpt lat="45.72918178014069" lon="-0.14672298072329062"><ele>55.0</ele><time>2026-03-22T15:24:08Z</time></trkpt><trkpt lat="45.72926732636147" lon="-0.14699545224543603"><ele>56.0</ele><time>2026-03-22T15:24:09Z</time></trkpt><trkpt lat="45.72935561774988" lon="-0.14727791498982687"><ele>57.0</ele><time>2026-03-22T15:24:10Z</time></trkpt><trkpt lat="45.72944403183603" lon="-0.14756527043194784"><ele>58.0</ele><time>2026-03-22T15:24:11Z</time></trkpt><trkpt lat="45.729535933813" lon="-0.147861040930245"><ele>58.0</ele><time>2026-03-22T15:24:12Z</time></trkpt><trkpt lat="45.72962589522991" lon="-0.14814015627707086"><ele>58.0</ele><time>2026-03-22T15:24:13Z</time></trkpt><trkpt lat="45.729710798638486" lon="-0.14840626548788752"><ele>58.0</ele><time>2026-03-22T15:24:14Z</time></trkpt><trkpt lat="45.729795997821874" lon="-0.1486731614937145"><ele>59.33333333333333</ele><time>2026-03-22T15:24:15Z</time></trkpt><trkpt lat="45.729880417348795" lon="-0.14893419850830028"><ele>60.66666666666667</ele><time>2026-03-22T15:24:16Z</time></trkpt><trkpt lat="45.729971103288385" lon="-0.1492146113924088"><ele>62.0</ele><time>2026-03-22T15:24:17Z</time></trkpt><trkpt lat="45.73005302847054" lon="-0.1494679385810335"><ele>62.0</ele><time>2026-03-22T15:24:18Z</time></trkpt><trkpt lat="45.73013298493737" lon="-0.149715654150434"><ele>62.0</ele><time>2026-03-22T15:24:19Z</time></trkpt><trkpt lat="45.73021654260745" lon="-0.14997578019219565"><ele>62.0</ele><time>2026-03-22T15:24:20Z</time></trkpt><trkpt lat="45.73030534520501" lon="-0.15025874642361914"><ele>63.0</ele><time>2026-03-22T15:24:21Z</time></trkpt><trkpt lat="45.73037333134817" lon="-0.15047930800839265"><ele>64.0</ele><time>2026-03-22T15:24:22Z</time></trkpt><trkpt lat="45.73044780980363" lon="-0.15071972146874973"><ele>65.0</ele><time>2026-03-22T15:24:23Z</time></trkpt><trkpt lat="45.73052357725886" lon="-0.15094719419658245"><ele>65.66666666666667</ele><time>2026-03-22T15:24:24Z</time></trkpt><trkpt lat="45.73059552096384" lon="-0.15117066131996956"><ele>66.33333333333333</ele><time>2026-03-22T15:24:25Z</time></trkpt><trkpt lat="45.730664616754446" lon="-0.15140363388421232"><ele>67.0</ele><time>2026-03-22T15:24:26Z</time></trkpt><trkpt lat="45.730771538926504" lon="-0.1515782523916126"><ele>67.0</ele><time>2026-03-22T15:24:27Z</time></trkpt><trkpt lat="45.73087420264329" lon="-0.15174857377736845"><ele>67.0</ele><time>2026-03-22T15:24:28Z</time></trkpt><trkpt lat="45.73099960890135" lon="-0.15191110269417718"><ele>67.0</ele><time>2026-03-22T15:24:29Z</time></trkpt><trkpt lat="45.73113963482339" lon="-0.15205767299255288"><ele>67.0</ele><time>2026-03-22T15:24:30Z</time></trkpt><trkpt lat="45.73127397031047" lon="-0.15219045981334448"><ele>67.0</ele><time>2026-03-22T15:24:31Z</time></trkpt><trkpt lat="45.73142644596302" lon="-0.1523403863820977"><ele>67.0</ele><time>2026-03-22T15:24:32Z</time></trkpt><trkpt lat="45.73158103941883" lon="-0.15248703293978363"><ele>67.33333333333333</ele><time>2026-03-22T15:24:33Z</time></trkpt><trkpt lat="45.73174139548208" lon="-0.15263914549680363"><ele>67.66666666666667</ele><time>2026-03-22T15:24:34Z</time></trkpt><trkpt lat="45.73190020528118" lon="-0.1527904322033917"><ele>68.0</ele><time>2026-03-22T15:24:35Z</time></trkpt><trkpt lat="45.732043117376676" lon="-0.1529251755251328"><ele>68.66666666666667</ele><time>2026-03-22T15:24:36Z</time></trkpt><trkpt lat="45.73217713950539" lon="-0.1530479529338799"><ele>69.33333333333333</ele><time>2026-03-22T15:24:37Z</time></trkpt><trkpt lat="45.732315007623214" lon="-0.15317839276474796"><ele>70.0</ele><time>2026-03-22T15:24:38Z</time></trkpt><trkpt lat="45.732454166291305" lon="-0.15330995512103296"><ele>70.5</ele><time>2026-03-22T15:24:39Z</time></trkpt><trkpt lat="45.73258817052166" lon="-0.15343562649811376"><ele>71.0</ele><time>2026-03-22T15:24:40Z</time></trkpt><trkpt lat="45.73270400312817" lon="-0.15354425611734146"><ele>71.5</ele><time>2026-03-22T15:24:41Z</time></trkpt><trkpt lat="45.732798615545875" lon="-0.15363723938201107"><ele>72.0</ele><time>2026-03-22T15:24:42Z</time></trkpt><trkpt lat="45.73290526429874" lon="-0.1537527965419757"><ele>72.2</ele><time>2026-03-22T15:24:43Z</time></trkpt><trkpt lat="45.73297650607497" lon="-0.15384145406469407"><ele>72.4</ele><time>2026-03-22T15:24:44Z</time></trkpt><trkpt lat="45.73303075784317" lon="-0.15391850996606296"><ele>72.6</ele><time>2026-03-22T15:24:45Z</time></trkpt><trkpt lat="45.73313860602204" lon="-0.15392685880415496"><ele>72.8</ele><time>2026-03-22T15:24:48Z</time></trkpt><trkpt lat="45.73325734287491" lon="-0.15391743133996355"><ele>73.0</ele><time>2026-03-22T15:24:50Z</time></trkpt><trkpt lat="45.733334081591295" lon="-0.1539606196184178"><ele>73.0</ele><time>2026-03-22T15:24:51Z</time></trkpt><trkpt lat="45.73343864276258" lon="-0.15396166381724855"><ele>73.0</ele><time>2026-03-22T15:24:53Z</time></trkpt><trkpt lat="45.73353898164773" lon="-0.1538845655195035"><ele>73.0</ele><time>2026-03-22T15:24:55Z</time></trkpt><trkpt lat="45.733659796758865" lon="-0.15381284174017246"><ele>73.0</ele><time>2026-03-22T15:24:57Z</time></trkpt><trkpt lat="45.733772697131805" lon="-0.1537541110142355"><ele>72.0</ele><time>2026-03-22T15:24:59Z</time></trkpt><trkpt lat="45.733874971292266" lon="-0.15369850637373922"><ele>72.0</ele><time>2026-03-22T15:25:01Z</time></trkpt><trkpt lat="45.733974918375914" lon="-0.1536408845153708"><ele>72.0</ele><time>2026-03-22T15:25:03Z</time></trkpt><trkpt lat="45.73404951022744" lon="-0.15365223299081382"><ele>72.0</ele><time>2026-03-22T15:25:05Z</time></trkpt></trkseg></trk></gpx>